<?xml version="1.0" encoding="UTF-8" standalone="no" ?>
<gpx xmlns="http://www.topografix.com/GPX/1/1" xmlns:xsi="http://www.w3.org/2001/XMLSchema-instance" xsi:schemaLocation="http://www.topografix.com/GPX/1/1 http://www.topografix.com/GPX/1/1/gpx.xsd" version="1.1" creator="VisuGPX - https://www.visugpx.com">
  <metadata>
    <name>Tour du loup géant</name>
    <desc><![CDATA[Valbonne - Gréolières les neiges, aller retour en VTT]]></desc>
  </metadata>
  <trk>
    <name><![CDATA[Track 001]]></name>
    <trkseg>
      <trkpt lat="43.64059" lon="7.00783">
        <ele>188.6</ele>
        <time>2009-04-30T07:44:40Z</time>
      </trkpt>
      <trkpt lat="43.64086" lon="7.00773">
        <ele>184.2</ele>
        <time>2009-04-30T07:45:29Z</time>
      </trkpt>
      <trkpt lat="43.64112" lon="7.00778">
        <ele>183.3</ele>
        <time>2009-04-30T07:45:38Z</time>
      </trkpt>
      <trkpt lat="43.64139" lon="7.00786">
        <ele>185.2</ele>
        <time>2009-04-30T07:45:52Z</time>
      </trkpt>
      <trkpt lat="43.64168" lon="7.00781">
        <ele>191</ele>
        <time>2009-04-30T07:46:19Z</time>
      </trkpt>
      <trkpt lat="43.64196" lon="7.00766">
        <ele>196.2</ele>
        <time>2009-04-30T07:46:26Z</time>
      </trkpt>
      <trkpt lat="43.64224" lon="7.00756">
        <ele>199.1</ele>
        <time>2009-04-30T07:46:36Z</time>
      </trkpt>
      <trkpt lat="43.6425" lon="7.00737">
        <ele>201.1</ele>
        <time>2009-04-30T07:46:47Z</time>
      </trkpt>
      <trkpt lat="43.64274" lon="7.00724">
        <ele>201.1</ele>
        <time>2009-04-30T07:46:58Z</time>
      </trkpt>
      <trkpt lat="43.643" lon="7.00726">
        <ele>206.8</ele>
        <time>2009-04-30T07:47:10Z</time>
      </trkpt>
      <trkpt lat="43.64329" lon="7.00718">
        <ele>210.7</ele>
        <time>2009-04-30T07:47:24Z</time>
      </trkpt>
      <trkpt lat="43.64356" lon="7.00703">
        <ele>212.6</ele>
        <time>2009-04-30T07:47:37Z</time>
      </trkpt>
      <trkpt lat="43.64385" lon="7.00708">
        <ele>213.6</ele>
        <time>2009-04-30T07:47:51Z</time>
      </trkpt>
      <trkpt lat="43.64413" lon="7.00714">
        <ele>216.9</ele>
        <time>2009-04-30T07:48:05Z</time>
      </trkpt>
      <trkpt lat="43.64442" lon="7.00727">
        <ele>215</ele>
        <time>2009-04-30T07:48:22Z</time>
      </trkpt>
      <trkpt lat="43.64471" lon="7.00729">
        <ele>218.8</ele>
        <time>2009-04-30T07:48:41Z</time>
      </trkpt>
      <trkpt lat="43.64502" lon="7.00728">
        <ele>218.8</ele>
        <time>2009-04-30T07:48:56Z</time>
      </trkpt>
      <trkpt lat="43.6453" lon="7.00722">
        <ele>221.2</ele>
        <time>2009-04-30T07:49:10Z</time>
      </trkpt>
      <trkpt lat="43.64559" lon="7.00719">
        <ele>222.7</ele>
        <time>2009-04-30T07:49:24Z</time>
      </trkpt>
      <trkpt lat="43.64585" lon="7.00716">
        <ele>226</ele>
        <time>2009-04-30T07:49:38Z</time>
      </trkpt>
      <trkpt lat="43.64614" lon="7.00719">
        <ele>227.5</ele>
        <time>2009-04-30T07:49:53Z</time>
      </trkpt>
      <trkpt lat="43.64639" lon="7.00729">
        <ele>229.9</ele>
        <time>2009-04-30T07:50:08Z</time>
      </trkpt>
      <trkpt lat="43.64666" lon="7.00744">
        <ele>234.2</ele>
        <time>2009-04-30T07:50:25Z</time>
      </trkpt>
      <trkpt lat="43.6469" lon="7.00765">
        <ele>239</ele>
        <time>2009-04-30T07:50:42Z</time>
      </trkpt>
      <trkpt lat="43.6471" lon="7.0079">
        <ele>243.4</ele>
        <time>2009-04-30T07:50:59Z</time>
      </trkpt>
      <trkpt lat="43.64727" lon="7.00821">
        <ele>244.8</ele>
        <time>2009-04-30T07:51:17Z</time>
      </trkpt>
      <trkpt lat="43.64746" lon="7.00851">
        <ele>252.5</ele>
        <time>2009-04-30T07:51:35Z</time>
      </trkpt>
      <trkpt lat="43.64777" lon="7.00876">
        <ele>255.8</ele>
        <time>2009-04-30T07:51:55Z</time>
      </trkpt>
      <trkpt lat="43.64804" lon="7.00896">
        <ele>257.3</ele>
        <time>2009-04-30T07:52:11Z</time>
      </trkpt>
      <trkpt lat="43.64828" lon="7.00871">
        <ele>257.3</ele>
        <time>2009-04-30T07:52:21Z</time>
      </trkpt>
      <trkpt lat="43.6485" lon="7.00847">
        <ele>256.3</ele>
        <time>2009-04-30T07:52:30Z</time>
      </trkpt>
      <trkpt lat="43.64873" lon="7.00822">
        <ele>255.4</ele>
        <time>2009-04-30T07:52:38Z</time>
      </trkpt>
      <trkpt lat="43.64892" lon="7.00789">
        <ele>254.4</ele>
        <time>2009-04-30T07:52:46Z</time>
      </trkpt>
      <trkpt lat="43.64911" lon="7.00758">
        <ele>255.4</ele>
        <time>2009-04-30T07:52:54Z</time>
      </trkpt>
      <trkpt lat="43.6493" lon="7.00725">
        <ele>254.4</ele>
        <time>2009-04-30T07:53:01Z</time>
      </trkpt>
      <trkpt lat="43.64949" lon="7.00696">
        <ele>254.4</ele>
        <time>2009-04-30T07:53:06Z</time>
      </trkpt>
      <trkpt lat="43.64967" lon="7.00668">
        <ele>254.4</ele>
        <time>2009-04-30T07:53:11Z</time>
      </trkpt>
      <trkpt lat="43.64987" lon="7.00633">
        <ele>255.8</ele>
        <time>2009-04-30T07:53:17Z</time>
      </trkpt>
      <trkpt lat="43.65004" lon="7.00601">
        <ele>257.3</ele>
        <time>2009-04-30T07:53:23Z</time>
      </trkpt>
      <trkpt lat="43.65021" lon="7.0057">
        <ele>258.7</ele>
        <time>2009-04-30T07:53:29Z</time>
      </trkpt>
      <trkpt lat="43.65039" lon="7.00537">
        <ele>258.3</ele>
        <time>2009-04-30T07:53:36Z</time>
      </trkpt>
      <trkpt lat="43.65061" lon="7.00508">
        <ele>259.7</ele>
        <time>2009-04-30T07:53:43Z</time>
      </trkpt>
      <trkpt lat="43.65081" lon="7.00479">
        <ele>263.1</ele>
        <time>2009-04-30T07:53:51Z</time>
      </trkpt>
      <trkpt lat="43.65102" lon="7.00451">
        <ele>265.5</ele>
        <time>2009-04-30T07:54:01Z</time>
      </trkpt>
      <trkpt lat="43.65126" lon="7.00427">
        <ele>268.3</ele>
        <time>2009-04-30T07:54:11Z</time>
      </trkpt>
      <trkpt lat="43.65152" lon="7.00409">
        <ele>272.2</ele>
        <time>2009-04-30T07:54:21Z</time>
      </trkpt>
      <trkpt lat="43.65181" lon="7.00399">
        <ele>277</ele>
        <time>2009-04-30T07:54:32Z</time>
      </trkpt>
      <trkpt lat="43.6521" lon="7.00387">
        <ele>278</ele>
        <time>2009-04-30T07:54:42Z</time>
      </trkpt>
      <trkpt lat="43.6524" lon="7.00369">
        <ele>277</ele>
        <time>2009-04-30T07:54:51Z</time>
      </trkpt>
      <trkpt lat="43.65268" lon="7.00351">
        <ele>280.4</ele>
        <time>2009-04-30T07:55:01Z</time>
      </trkpt>
      <trkpt lat="43.65297" lon="7.00324">
        <ele>279.4</ele>
        <time>2009-04-30T07:55:10Z</time>
      </trkpt>
      <trkpt lat="43.65326" lon="7.00308">
        <ele>280.4</ele>
        <time>2009-04-30T07:55:19Z</time>
      </trkpt>
      <trkpt lat="43.6536" lon="7.0027">
        <ele>277.5</ele>
        <time>2009-04-30T07:55:27Z</time>
      </trkpt>
      <trkpt lat="43.65389" lon="7.00246">
        <ele>276</ele>
        <time>2009-04-30T07:55:34Z</time>
      </trkpt>
      <trkpt lat="43.65417" lon="7.00221">
        <ele>277.5</ele>
        <time>2009-04-30T07:55:40Z</time>
      </trkpt>
      <trkpt lat="43.65445" lon="7.00208">
        <ele>276</ele>
        <time>2009-04-30T07:55:46Z</time>
      </trkpt>
      <trkpt lat="43.65476" lon="7.00204">
        <ele>275.6</ele>
        <time>2009-04-30T07:55:52Z</time>
      </trkpt>
      <trkpt lat="43.65503" lon="7.002">
        <ele>276</ele>
        <time>2009-04-30T07:55:58Z</time>
      </trkpt>
      <trkpt lat="43.65533" lon="7.00188">
        <ele>274.1</ele>
        <time>2009-04-30T07:56:05Z</time>
      </trkpt>
      <trkpt lat="43.65557" lon="7.00159">
        <ele>269.3</ele>
        <time>2009-04-30T07:56:10Z</time>
      </trkpt>
      <trkpt lat="43.65578" lon="7.00122">
        <ele>266.9</ele>
        <time>2009-04-30T07:56:14Z</time>
      </trkpt>
      <trkpt lat="43.65598" lon="7.00088">
        <ele>264.5</ele>
        <time>2009-04-30T07:56:17Z</time>
      </trkpt>
      <trkpt lat="43.65619" lon="7.00052">
        <ele>262.1</ele>
        <time>2009-04-30T07:56:20Z</time>
      </trkpt>
      <trkpt lat="43.65638" lon="7.00017">
        <ele>261.6</ele>
        <time>2009-04-30T07:56:23Z</time>
      </trkpt>
      <trkpt lat="43.65652" lon="6.99982">
        <ele>261.1</ele>
        <time>2009-04-30T07:56:26Z</time>
      </trkpt>
      <trkpt lat="43.65659" lon="6.99944">
        <ele>260.2</ele>
        <time>2009-04-30T07:56:29Z</time>
      </trkpt>
      <trkpt lat="43.65666" lon="6.99906">
        <ele>259.2</ele>
        <time>2009-04-30T07:56:32Z</time>
      </trkpt>
      <trkpt lat="43.65683" lon="6.9987">
        <ele>257.8</ele>
        <time>2009-04-30T07:56:35Z</time>
      </trkpt>
      <trkpt lat="43.65704" lon="6.99832">
        <ele>254.4</ele>
        <time>2009-04-30T07:56:38Z</time>
      </trkpt>
      <trkpt lat="43.65721" lon="6.99793">
        <ele>251.5</ele>
        <time>2009-04-30T07:56:41Z</time>
      </trkpt>
      <trkpt lat="43.65739" lon="6.9975">
        <ele>246.7</ele>
        <time>2009-04-30T07:56:44Z</time>
      </trkpt>
      <trkpt lat="43.65757" lon="6.99709">
        <ele>245.3</ele>
        <time>2009-04-30T07:56:47Z</time>
      </trkpt>
      <trkpt lat="43.65775" lon="6.99667">
        <ele>240.5</ele>
        <time>2009-04-30T07:56:50Z</time>
      </trkpt>
      <trkpt lat="43.65793" lon="6.99629">
        <ele>238.5</ele>
        <time>2009-04-30T07:56:53Z</time>
      </trkpt>
      <trkpt lat="43.65809" lon="6.99605">
        <ele>234.2</ele>
        <time>2009-04-30T07:57:00Z</time>
      </trkpt>
      <trkpt lat="43.65819" lon="6.99569">
        <ele>233.7</ele>
        <time>2009-04-30T07:57:06Z</time>
      </trkpt>
      <trkpt lat="43.65828" lon="6.99532">
        <ele>233.3</ele>
        <time>2009-04-30T07:57:12Z</time>
      </trkpt>
      <trkpt lat="43.65834" lon="6.99489">
        <ele>235.2</ele>
        <time>2009-04-30T07:57:18Z</time>
      </trkpt>
      <trkpt lat="43.65842" lon="6.99447">
        <ele>236.1</ele>
        <time>2009-04-30T07:57:24Z</time>
      </trkpt>
      <trkpt lat="43.65851" lon="6.99406">
        <ele>237.6</ele>
        <time>2009-04-30T07:57:30Z</time>
      </trkpt>
      <trkpt lat="43.6586" lon="6.99365">
        <ele>238.1</ele>
        <time>2009-04-30T07:57:36Z</time>
      </trkpt>
      <trkpt lat="43.65873" lon="6.99327">
        <ele>238.5</ele>
        <time>2009-04-30T07:57:42Z</time>
      </trkpt>
      <trkpt lat="43.65889" lon="6.99295">
        <ele>238.1</ele>
        <time>2009-04-30T07:57:48Z</time>
      </trkpt>
      <trkpt lat="43.65909" lon="6.99264">
        <ele>239.5</ele>
        <time>2009-04-30T07:57:54Z</time>
      </trkpt>
      <trkpt lat="43.65931" lon="6.99237">
        <ele>240</ele>
        <time>2009-04-30T07:58:00Z</time>
      </trkpt>
      <trkpt lat="43.65952" lon="6.99207">
        <ele>239</ele>
        <time>2009-04-30T07:58:06Z</time>
      </trkpt>
      <trkpt lat="43.65971" lon="6.99178">
        <ele>240</ele>
        <time>2009-04-30T07:58:12Z</time>
      </trkpt>
      <trkpt lat="43.6599" lon="6.99149">
        <ele>240.9</ele>
        <time>2009-04-30T07:58:18Z</time>
      </trkpt>
      <trkpt lat="43.66012" lon="6.99118">
        <ele>240.5</ele>
        <time>2009-04-30T07:58:24Z</time>
      </trkpt>
      <trkpt lat="43.6603" lon="6.99082">
        <ele>239</ele>
        <time>2009-04-30T07:58:30Z</time>
      </trkpt>
      <trkpt lat="43.66045" lon="6.99044">
        <ele>238.1</ele>
        <time>2009-04-30T07:58:36Z</time>
      </trkpt>
      <trkpt lat="43.6606" lon="6.99004">
        <ele>240</ele>
        <time>2009-04-30T07:58:42Z</time>
      </trkpt>
      <trkpt lat="43.6607" lon="6.98969">
        <ele>240.9</ele>
        <time>2009-04-30T07:58:47Z</time>
      </trkpt>
      <trkpt lat="43.66078" lon="6.98931">
        <ele>242.4</ele>
        <time>2009-04-30T07:58:52Z</time>
      </trkpt>
      <trkpt lat="43.66087" lon="6.98888">
        <ele>242.9</ele>
        <time>2009-04-30T07:58:58Z</time>
      </trkpt>
      <trkpt lat="43.66095" lon="6.98847">
        <ele>243.4</ele>
        <time>2009-04-30T07:59:04Z</time>
      </trkpt>
      <trkpt lat="43.66106" lon="6.98807">
        <ele>243.8</ele>
        <time>2009-04-30T07:59:10Z</time>
      </trkpt>
      <trkpt lat="43.66129" lon="6.98785">
        <ele>244.3</ele>
        <time>2009-04-30T07:59:16Z</time>
      </trkpt>
      <trkpt lat="43.66149" lon="6.98756">
        <ele>244.8</ele>
        <time>2009-04-30T07:59:22Z</time>
      </trkpt>
      <trkpt lat="43.6618" lon="6.98744">
        <ele>243.8</ele>
        <time>2009-04-30T07:59:28Z</time>
      </trkpt>
      <trkpt lat="43.66207" lon="6.98734">
        <ele>243.4</ele>
        <time>2009-04-30T07:59:33Z</time>
      </trkpt>
      <trkpt lat="43.66238" lon="6.98725">
        <ele>242.9</ele>
        <time>2009-04-30T07:59:39Z</time>
      </trkpt>
      <trkpt lat="43.6627" lon="6.98715">
        <ele>243.4</ele>
        <time>2009-04-30T07:59:45Z</time>
      </trkpt>
      <trkpt lat="43.66294" lon="6.987">
        <ele>243.8</ele>
        <time>2009-04-30T07:59:50Z</time>
      </trkpt>
      <trkpt lat="43.66319" lon="6.98682">
        <ele>244.8</ele>
        <time>2009-04-30T07:59:55Z</time>
      </trkpt>
      <trkpt lat="43.66343" lon="6.98663">
        <ele>245.8</ele>
        <time>2009-04-30T08:00:00Z</time>
      </trkpt>
      <trkpt lat="43.66371" lon="6.98649">
        <ele>248.2</ele>
        <time>2009-04-30T08:00:06Z</time>
      </trkpt>
      <trkpt lat="43.664" lon="6.9864">
        <ele>249.1</ele>
        <time>2009-04-30T08:00:12Z</time>
      </trkpt>
      <trkpt lat="43.66429" lon="6.98629">
        <ele>250.6</ele>
        <time>2009-04-30T08:00:18Z</time>
      </trkpt>
      <trkpt lat="43.66458" lon="6.98615">
        <ele>250.6</ele>
        <time>2009-04-30T08:00:24Z</time>
      </trkpt>
      <trkpt lat="43.66483" lon="6.986">
        <ele>253.4</ele>
        <time>2009-04-30T08:00:30Z</time>
      </trkpt>
      <trkpt lat="43.66513" lon="6.9858">
        <ele>254.4</ele>
        <time>2009-04-30T08:00:37Z</time>
      </trkpt>
      <trkpt lat="43.66539" lon="6.9856">
        <ele>254.9</ele>
        <time>2009-04-30T08:00:43Z</time>
      </trkpt>
      <trkpt lat="43.66566" lon="6.98542">
        <ele>256.8</ele>
        <time>2009-04-30T08:00:49Z</time>
      </trkpt>
      <trkpt lat="43.66594" lon="6.98526">
        <ele>257.3</ele>
        <time>2009-04-30T08:00:55Z</time>
      </trkpt>
      <trkpt lat="43.66623" lon="6.98508">
        <ele>254.9</ele>
        <time>2009-04-30T08:01:01Z</time>
      </trkpt>
      <trkpt lat="43.66651" lon="6.9849">
        <ele>253.4</ele>
        <time>2009-04-30T08:01:07Z</time>
      </trkpt>
      <trkpt lat="43.66678" lon="6.98475">
        <ele>253</ele>
        <time>2009-04-30T08:01:13Z</time>
      </trkpt>
      <trkpt lat="43.66707" lon="6.98465">
        <ele>252.5</ele>
        <time>2009-04-30T08:01:19Z</time>
      </trkpt>
      <trkpt lat="43.66738" lon="6.98464">
        <ele>251</ele>
        <time>2009-04-30T08:01:26Z</time>
      </trkpt>
      <trkpt lat="43.6677" lon="6.98465">
        <ele>251.5</ele>
        <time>2009-04-30T08:01:34Z</time>
      </trkpt>
      <trkpt lat="43.66795" lon="6.9848">
        <ele>252</ele>
        <time>2009-04-30T08:01:41Z</time>
      </trkpt>
      <trkpt lat="43.66824" lon="6.98479">
        <ele>252.5</ele>
        <time>2009-04-30T08:01:48Z</time>
      </trkpt>
      <trkpt lat="43.66849" lon="6.98456">
        <ele>253.9</ele>
        <time>2009-04-30T08:01:55Z</time>
      </trkpt>
      <trkpt lat="43.66876" lon="6.98448">
        <ele>253</ele>
        <time>2009-04-30T08:02:02Z</time>
      </trkpt>
      <trkpt lat="43.66904" lon="6.98441">
        <ele>253.4</ele>
        <time>2009-04-30T08:02:09Z</time>
      </trkpt>
      <trkpt lat="43.66932" lon="6.98435">
        <ele>253.4</ele>
        <time>2009-04-30T08:02:16Z</time>
      </trkpt>
      <trkpt lat="43.66959" lon="6.98427">
        <ele>254.9</ele>
        <time>2009-04-30T08:02:23Z</time>
      </trkpt>
      <trkpt lat="43.66981" lon="6.98409">
        <ele>258.3</ele>
        <time>2009-04-30T08:02:30Z</time>
      </trkpt>
      <trkpt lat="43.67001" lon="6.98389">
        <ele>262.6</ele>
        <time>2009-04-30T08:02:37Z</time>
      </trkpt>
      <trkpt lat="43.67025" lon="6.98373">
        <ele>264</ele>
        <time>2009-04-30T08:02:45Z</time>
      </trkpt>
      <trkpt lat="43.6705" lon="6.9836">
        <ele>267.4</ele>
        <time>2009-04-30T08:02:55Z</time>
      </trkpt>
      <trkpt lat="43.67074" lon="6.98344">
        <ele>270.3</ele>
        <time>2009-04-30T08:03:05Z</time>
      </trkpt>
      <trkpt lat="43.67099" lon="6.98332">
        <ele>276</ele>
        <time>2009-04-30T08:03:17Z</time>
      </trkpt>
      <trkpt lat="43.67124" lon="6.9832">
        <ele>282.8</ele>
        <time>2009-04-30T08:03:33Z</time>
      </trkpt>
      <trkpt lat="43.67152" lon="6.98303">
        <ele>292.9</ele>
        <time>2009-04-30T08:03:51Z</time>
      </trkpt>
      <trkpt lat="43.67181" lon="6.98277">
        <ele>287.6</ele>
        <time>2009-04-30T08:04:07Z</time>
      </trkpt>
      <trkpt lat="43.67205" lon="6.98255">
        <ele>290</ele>
        <time>2009-04-30T08:04:25Z</time>
      </trkpt>
      <trkpt lat="43.67227" lon="6.98227">
        <ele>290.5</ele>
        <time>2009-04-30T08:04:42Z</time>
      </trkpt>
      <trkpt lat="43.67248" lon="6.98199">
        <ele>292.9</ele>
        <time>2009-04-30T08:05:00Z</time>
      </trkpt>
      <trkpt lat="43.6727" lon="6.98179">
        <ele>299.6</ele>
        <time>2009-04-30T08:05:18Z</time>
      </trkpt>
      <trkpt lat="43.67296" lon="6.9816">
        <ele>305.8</ele>
        <time>2009-04-30T08:05:41Z</time>
      </trkpt>
      <trkpt lat="43.67321" lon="6.98138">
        <ele>312.6</ele>
        <time>2009-04-30T08:06:02Z</time>
      </trkpt>
      <trkpt lat="43.67355" lon="6.98113">
        <ele>316.9</ele>
        <time>2009-04-30T08:06:28Z</time>
      </trkpt>
      <trkpt lat="43.67383" lon="6.98075">
        <ele>319.8</ele>
        <time>2009-04-30T08:06:56Z</time>
      </trkpt>
      <trkpt lat="43.67414" lon="6.98034">
        <ele>326.5</ele>
        <time>2009-04-30T08:07:23Z</time>
      </trkpt>
      <trkpt lat="43.67442" lon="6.98002">
        <ele>330.8</ele>
        <time>2009-04-30T08:07:50Z</time>
      </trkpt>
      <trkpt lat="43.67467" lon="6.97976">
        <ele>331.3</ele>
        <time>2009-04-30T08:08:12Z</time>
      </trkpt>
      <trkpt lat="43.67494" lon="6.97956">
        <ele>335.6</ele>
        <time>2009-04-30T08:08:34Z</time>
      </trkpt>
      <trkpt lat="43.67518" lon="6.97932">
        <ele>340</ele>
        <time>2009-04-30T08:08:53Z</time>
      </trkpt>
      <trkpt lat="43.67538" lon="6.97908">
        <ele>343.3</ele>
        <time>2009-04-30T08:09:09Z</time>
      </trkpt>
      <trkpt lat="43.67555" lon="6.97881">
        <ele>345.7</ele>
        <time>2009-04-30T08:09:22Z</time>
      </trkpt>
      <trkpt lat="43.67571" lon="6.97849">
        <ele>347.2</ele>
        <time>2009-04-30T08:09:35Z</time>
      </trkpt>
      <trkpt lat="43.67588" lon="6.97815">
        <ele>348.6</ele>
        <time>2009-04-30T08:09:50Z</time>
      </trkpt>
      <trkpt lat="43.67606" lon="6.97787">
        <ele>351.5</ele>
        <time>2009-04-30T08:10:06Z</time>
      </trkpt>
      <trkpt lat="43.67627" lon="6.97761">
        <ele>358.2</ele>
        <time>2009-04-30T08:10:20Z</time>
      </trkpt>
      <trkpt lat="43.67642" lon="6.9773">
        <ele>358.7</ele>
        <time>2009-04-30T08:10:33Z</time>
      </trkpt>
      <trkpt lat="43.6762" lon="6.97704">
        <ele>359.2</ele>
        <time>2009-04-30T08:10:45Z</time>
      </trkpt>
      <trkpt lat="43.67597" lon="6.97723">
        <ele>359.2</ele>
        <time>2009-04-30T08:10:58Z</time>
      </trkpt>
      <trkpt lat="43.67568" lon="6.97743">
        <ele>363.5</ele>
        <time>2009-04-30T08:11:10Z</time>
      </trkpt>
      <trkpt lat="43.67539" lon="6.97762">
        <ele>368.8</ele>
        <time>2009-04-30T08:11:22Z</time>
      </trkpt>
      <trkpt lat="43.67512" lon="6.97783">
        <ele>375.5</ele>
        <time>2009-04-30T08:11:34Z</time>
      </trkpt>
      <trkpt lat="43.67484" lon="6.97802">
        <ele>374.6</ele>
        <time>2009-04-30T08:11:46Z</time>
      </trkpt>
      <trkpt lat="43.67462" lon="6.97829">
        <ele>377.9</ele>
        <time>2009-04-30T08:11:58Z</time>
      </trkpt>
      <trkpt lat="43.67453" lon="6.97801">
        <ele>378.4</ele>
        <time>2009-04-30T08:12:11Z</time>
      </trkpt>
      <trkpt lat="43.67478" lon="6.97778">
        <ele>380.8</ele>
        <time>2009-04-30T08:12:24Z</time>
      </trkpt>
      <trkpt lat="43.67502" lon="6.97757">
        <ele>381.8</ele>
        <time>2009-04-30T08:12:36Z</time>
      </trkpt>
      <trkpt lat="43.67523" lon="6.97734">
        <ele>384.7</ele>
        <time>2009-04-30T08:12:47Z</time>
      </trkpt>
      <trkpt lat="43.67538" lon="6.97701">
        <ele>386.6</ele>
        <time>2009-04-30T08:12:59Z</time>
      </trkpt>
      <trkpt lat="43.67557" lon="6.97674">
        <ele>388.5</ele>
        <time>2009-04-30T08:13:11Z</time>
      </trkpt>
      <trkpt lat="43.67579" lon="6.9765">
        <ele>391.4</ele>
        <time>2009-04-30T08:13:22Z</time>
      </trkpt>
      <trkpt lat="43.67597" lon="6.97619">
        <ele>390</ele>
        <time>2009-04-30T08:13:31Z</time>
      </trkpt>
      <trkpt lat="43.67613" lon="6.97583">
        <ele>390</ele>
        <time>2009-04-30T08:13:39Z</time>
      </trkpt>
      <trkpt lat="43.67627" lon="6.97547">
        <ele>388</ele>
        <time>2009-04-30T08:13:46Z</time>
      </trkpt>
      <trkpt lat="43.67646" lon="6.97513">
        <ele>389.5</ele>
        <time>2009-04-30T08:13:53Z</time>
      </trkpt>
      <trkpt lat="43.67675" lon="6.97493">
        <ele>390.9</ele>
        <time>2009-04-30T08:14:00Z</time>
      </trkpt>
      <trkpt lat="43.67703" lon="6.97478">
        <ele>391.4</ele>
        <time>2009-04-30T08:14:07Z</time>
      </trkpt>
      <trkpt lat="43.6773" lon="6.97467">
        <ele>395.2</ele>
        <time>2009-04-30T08:14:15Z</time>
      </trkpt>
      <trkpt lat="43.67756" lon="6.97457">
        <ele>398.6</ele>
        <time>2009-04-30T08:14:24Z</time>
      </trkpt>
      <trkpt lat="43.67784" lon="6.97442">
        <ele>399.6</ele>
        <time>2009-04-30T08:14:34Z</time>
      </trkpt>
      <trkpt lat="43.67811" lon="6.97432">
        <ele>399.1</ele>
        <time>2009-04-30T08:14:43Z</time>
      </trkpt>
      <trkpt lat="43.6784" lon="6.97409">
        <ele>403.4</ele>
        <time>2009-04-30T08:14:52Z</time>
      </trkpt>
      <trkpt lat="43.67858" lon="6.97371">
        <ele>401.5</ele>
        <time>2009-04-30T08:15:00Z</time>
      </trkpt>
      <trkpt lat="43.67869" lon="6.97335">
        <ele>401.5</ele>
        <time>2009-04-30T08:15:07Z</time>
      </trkpt>
      <trkpt lat="43.67894" lon="6.97343">
        <ele>401.5</ele>
        <time>2009-04-30T08:15:24Z</time>
      </trkpt>
      <trkpt lat="43.67921" lon="6.97356">
        <ele>402</ele>
        <time>2009-04-30T08:15:31Z</time>
      </trkpt>
      <trkpt lat="43.67933" lon="6.97395">
        <ele>404.4</ele>
        <time>2009-04-30T08:15:38Z</time>
      </trkpt>
      <trkpt lat="43.6795" lon="6.9743">
        <ele>404.9</ele>
        <time>2009-04-30T08:15:45Z</time>
      </trkpt>
      <trkpt lat="43.67973" lon="6.97456">
        <ele>404.9</ele>
        <time>2009-04-30T08:15:52Z</time>
      </trkpt>
      <trkpt lat="43.67996" lon="6.97482">
        <ele>404.4</ele>
        <time>2009-04-30T08:15:59Z</time>
      </trkpt>
      <trkpt lat="43.68016" lon="6.97513">
        <ele>401</ele>
        <time>2009-04-30T08:16:05Z</time>
      </trkpt>
      <trkpt lat="43.68032" lon="6.97546">
        <ele>399.1</ele>
        <time>2009-04-30T08:16:10Z</time>
      </trkpt>
      <trkpt lat="43.68045" lon="6.97586">
        <ele>399.6</ele>
        <time>2009-04-30T08:16:16Z</time>
      </trkpt>
      <trkpt lat="43.68054" lon="6.97623">
        <ele>401.5</ele>
        <time>2009-04-30T08:16:26Z</time>
      </trkpt>
      <trkpt lat="43.68053" lon="6.97659">
        <ele>405.3</ele>
        <time>2009-04-30T08:16:38Z</time>
      </trkpt>
      <trkpt lat="43.68067" lon="6.977">
        <ele>405.3</ele>
        <time>2009-04-30T08:16:46Z</time>
      </trkpt>
      <trkpt lat="43.6808" lon="6.97734">
        <ele>404.4</ele>
        <time>2009-04-30T08:16:52Z</time>
      </trkpt>
      <trkpt lat="43.68094" lon="6.97784">
        <ele>400.5</ele>
        <time>2009-04-30T08:16:57Z</time>
      </trkpt>
      <trkpt lat="43.68109" lon="6.9783">
        <ele>398.6</ele>
        <time>2009-04-30T08:17:01Z</time>
      </trkpt>
      <trkpt lat="43.6813" lon="6.97867">
        <ele>398.1</ele>
        <time>2009-04-30T08:17:05Z</time>
      </trkpt>
      <trkpt lat="43.68153" lon="6.979">
        <ele>397.2</ele>
        <time>2009-04-30T08:17:09Z</time>
      </trkpt>
      <trkpt lat="43.68173" lon="6.97928">
        <ele>397.6</ele>
        <time>2009-04-30T08:17:13Z</time>
      </trkpt>
      <trkpt lat="43.68189" lon="6.97961">
        <ele>394.3</ele>
        <time>2009-04-30T08:17:17Z</time>
      </trkpt>
      <trkpt lat="43.68208" lon="6.98">
        <ele>390.9</ele>
        <time>2009-04-30T08:17:21Z</time>
      </trkpt>
      <trkpt lat="43.6822" lon="6.98039">
        <ele>387.1</ele>
        <time>2009-04-30T08:17:24Z</time>
      </trkpt>
      <trkpt lat="43.68233" lon="6.98082">
        <ele>383.7</ele>
        <time>2009-04-30T08:17:27Z</time>
      </trkpt>
      <trkpt lat="43.68248" lon="6.98126">
        <ele>379.4</ele>
        <time>2009-04-30T08:17:30Z</time>
      </trkpt>
      <trkpt lat="43.68267" lon="6.98168">
        <ele>377</ele>
        <time>2009-04-30T08:17:33Z</time>
      </trkpt>
      <trkpt lat="43.68289" lon="6.98207">
        <ele>375.1</ele>
        <time>2009-04-30T08:17:36Z</time>
      </trkpt>
      <trkpt lat="43.68309" lon="6.98241">
        <ele>374.1</ele>
        <time>2009-04-30T08:17:39Z</time>
      </trkpt>
      <trkpt lat="43.6833" lon="6.98279">
        <ele>374.6</ele>
        <time>2009-04-30T08:17:43Z</time>
      </trkpt>
      <trkpt lat="43.68348" lon="6.98317">
        <ele>373.6</ele>
        <time>2009-04-30T08:17:47Z</time>
      </trkpt>
      <trkpt lat="43.68367" lon="6.98349">
        <ele>375.5</ele>
        <time>2009-04-30T08:17:52Z</time>
      </trkpt>
      <trkpt lat="43.68383" lon="6.98381">
        <ele>377.9</ele>
        <time>2009-04-30T08:17:59Z</time>
      </trkpt>
      <trkpt lat="43.68401" lon="6.98417">
        <ele>378.9</ele>
        <time>2009-04-30T08:18:07Z</time>
      </trkpt>
      <trkpt lat="43.68415" lon="6.98452">
        <ele>377.5</ele>
        <time>2009-04-30T08:18:15Z</time>
      </trkpt>
      <trkpt lat="43.68426" lon="6.98495">
        <ele>376</ele>
        <time>2009-04-30T08:18:21Z</time>
      </trkpt>
      <trkpt lat="43.68441" lon="6.98531">
        <ele>377.9</ele>
        <time>2009-04-30T08:18:27Z</time>
      </trkpt>
      <trkpt lat="43.68463" lon="6.98564">
        <ele>378.9</ele>
        <time>2009-04-30T08:18:33Z</time>
      </trkpt>
      <trkpt lat="43.68478" lon="6.98602">
        <ele>377.9</ele>
        <time>2009-04-30T08:18:38Z</time>
      </trkpt>
      <trkpt lat="43.68495" lon="6.98639">
        <ele>379.4</ele>
        <time>2009-04-30T08:18:44Z</time>
      </trkpt>
      <trkpt lat="43.68513" lon="6.98669">
        <ele>379.9</ele>
        <time>2009-04-30T08:18:49Z</time>
      </trkpt>
      <trkpt lat="43.6853" lon="6.98713">
        <ele>374.6</ele>
        <time>2009-04-30T08:18:54Z</time>
      </trkpt>
      <trkpt lat="43.68545" lon="6.98751">
        <ele>374.6</ele>
        <time>2009-04-30T08:19:00Z</time>
      </trkpt>
      <trkpt lat="43.68561" lon="6.98784">
        <ele>374.6</ele>
        <time>2009-04-30T08:19:08Z</time>
      </trkpt>
      <trkpt lat="43.68577" lon="6.9882">
        <ele>372.2</ele>
        <time>2009-04-30T08:19:16Z</time>
      </trkpt>
      <trkpt lat="43.68578" lon="6.98854">
        <ele>371.7</ele>
        <time>2009-04-30T08:21:52Z</time>
      </trkpt>
      <trkpt lat="43.68585" lon="6.989">
        <ele>370.2</ele>
        <time>2009-04-30T08:21:58Z</time>
      </trkpt>
      <trkpt lat="43.68595" lon="6.98943">
        <ele>369.8</ele>
        <time>2009-04-30T08:22:04Z</time>
      </trkpt>
      <trkpt lat="43.68602" lon="6.9898">
        <ele>369.3</ele>
        <time>2009-04-30T08:22:09Z</time>
      </trkpt>
      <trkpt lat="43.68612" lon="6.99024">
        <ele>367.4</ele>
        <time>2009-04-30T08:22:14Z</time>
      </trkpt>
      <trkpt lat="43.68618" lon="6.99063">
        <ele>366.4</ele>
        <time>2009-04-30T08:22:18Z</time>
      </trkpt>
      <trkpt lat="43.68628" lon="6.99107">
        <ele>366.4</ele>
        <time>2009-04-30T08:22:23Z</time>
      </trkpt>
      <trkpt lat="43.68636" lon="6.99148">
        <ele>365.4</ele>
        <time>2009-04-30T08:22:28Z</time>
      </trkpt>
      <trkpt lat="43.68639" lon="6.99196">
        <ele>364</ele>
        <time>2009-04-30T08:22:32Z</time>
      </trkpt>
      <trkpt lat="43.68643" lon="6.9925">
        <ele>363.5</ele>
        <time>2009-04-30T08:22:36Z</time>
      </trkpt>
      <trkpt lat="43.68652" lon="6.99293">
        <ele>364</ele>
        <time>2009-04-30T08:22:40Z</time>
      </trkpt>
      <trkpt lat="43.68659" lon="6.99341">
        <ele>363.5</ele>
        <time>2009-04-30T08:22:44Z</time>
      </trkpt>
      <trkpt lat="43.68668" lon="6.9938">
        <ele>363.5</ele>
        <time>2009-04-30T08:22:48Z</time>
      </trkpt>
      <trkpt lat="43.68684" lon="6.99414">
        <ele>365</ele>
        <time>2009-04-30T08:22:53Z</time>
      </trkpt>
      <trkpt lat="43.68705" lon="6.9945">
        <ele>366.4</ele>
        <time>2009-04-30T08:22:58Z</time>
      </trkpt>
      <trkpt lat="43.68727" lon="6.99483">
        <ele>365.9</ele>
        <time>2009-04-30T08:23:02Z</time>
      </trkpt>
      <trkpt lat="43.68747" lon="6.99512">
        <ele>366.9</ele>
        <time>2009-04-30T08:23:06Z</time>
      </trkpt>
      <trkpt lat="43.68761" lon="6.99547">
        <ele>368.3</ele>
        <time>2009-04-30T08:23:11Z</time>
      </trkpt>
      <trkpt lat="43.68771" lon="6.99581">
        <ele>370.2</ele>
        <time>2009-04-30T08:23:17Z</time>
      </trkpt>
      <trkpt lat="43.68785" lon="6.9962">
        <ele>373.1</ele>
        <time>2009-04-30T08:23:24Z</time>
      </trkpt>
      <trkpt lat="43.68804" lon="6.99655">
        <ele>375.5</ele>
        <time>2009-04-30T08:23:31Z</time>
      </trkpt>
      <trkpt lat="43.68823" lon="6.99679">
        <ele>377.5</ele>
        <time>2009-04-30T08:23:37Z</time>
      </trkpt>
      <trkpt lat="43.68841" lon="6.99711">
        <ele>383.7</ele>
        <time>2009-04-30T08:23:46Z</time>
      </trkpt>
      <trkpt lat="43.68862" lon="6.99753">
        <ele>390</ele>
        <time>2009-04-30T08:23:57Z</time>
      </trkpt>
      <trkpt lat="43.68886" lon="6.99799">
        <ele>392.8</ele>
        <time>2009-04-30T08:24:05Z</time>
      </trkpt>
      <trkpt lat="43.68907" lon="6.99845">
        <ele>395.2</ele>
        <time>2009-04-30T08:24:12Z</time>
      </trkpt>
      <trkpt lat="43.68922" lon="6.99888">
        <ele>394.8</ele>
        <time>2009-04-30T08:24:21Z</time>
      </trkpt>
      <trkpt lat="43.68944" lon="6.99923">
        <ele>397.6</ele>
        <time>2009-04-30T08:24:29Z</time>
      </trkpt>
      <trkpt lat="43.68963" lon="6.99963">
        <ele>400.5</ele>
        <time>2009-04-30T08:24:36Z</time>
      </trkpt>
      <trkpt lat="43.68975" lon="6.99999">
        <ele>403.9</ele>
        <time>2009-04-30T08:24:44Z</time>
      </trkpt>
      <trkpt lat="43.68994" lon="7.00036">
        <ele>405.8</ele>
        <time>2009-04-30T08:24:50Z</time>
      </trkpt>
      <trkpt lat="43.69018" lon="7.00072">
        <ele>406.3</ele>
        <time>2009-04-30T08:24:56Z</time>
      </trkpt>
      <trkpt lat="43.6904" lon="7.00099">
        <ele>408.7</ele>
        <time>2009-04-30T08:25:01Z</time>
      </trkpt>
      <trkpt lat="43.69065" lon="7.00122">
        <ele>412.1</ele>
        <time>2009-04-30T08:25:06Z</time>
      </trkpt>
      <trkpt lat="43.69096" lon="7.00147">
        <ele>411.1</ele>
        <time>2009-04-30T08:25:11Z</time>
      </trkpt>
      <trkpt lat="43.69123" lon="7.00163">
        <ele>412.5</ele>
        <time>2009-04-30T08:25:16Z</time>
      </trkpt>
      <trkpt lat="43.69143" lon="7.00197">
        <ele>413</ele>
        <time>2009-04-30T08:25:25Z</time>
      </trkpt>
      <trkpt lat="43.6916" lon="7.00243">
        <ele>408.2</ele>
        <time>2009-04-30T08:25:33Z</time>
      </trkpt>
      <trkpt lat="43.6918" lon="7.00281">
        <ele>409.2</ele>
        <time>2009-04-30T08:25:39Z</time>
      </trkpt>
      <trkpt lat="43.69199" lon="7.0032">
        <ele>403.4</ele>
        <time>2009-04-30T08:25:44Z</time>
      </trkpt>
      <trkpt lat="43.69217" lon="7.00359">
        <ele>401</ele>
        <time>2009-04-30T08:25:49Z</time>
      </trkpt>
      <trkpt lat="43.69233" lon="7.00389">
        <ele>400.5</ele>
        <time>2009-04-30T08:25:56Z</time>
      </trkpt>
      <trkpt lat="43.69242" lon="7.00425">
        <ele>393.8</ele>
        <time>2009-04-30T08:26:06Z</time>
      </trkpt>
      <trkpt lat="43.69243" lon="7.0043">
        <ele>381.3</ele>
        <time>2009-04-30T08:26:25Z</time>
      </trkpt>
      <trkpt lat="43.6923" lon="7.00404">
        <ele>362.1</ele>
        <time>2009-04-30T08:27:08Z</time>
      </trkpt>
      <trkpt lat="43.69269" lon="7.00443">
        <ele>330.8</ele>
        <time>2009-04-30T08:28:50Z</time>
      </trkpt>
      <trkpt lat="43.69298" lon="7.00479">
        <ele>317.9</ele>
        <time>2009-04-30T08:29:38Z</time>
      </trkpt>
      <trkpt lat="43.69306" lon="7.00446">
        <ele>309.2</ele>
        <time>2009-04-30T08:29:53Z</time>
      </trkpt>
      <trkpt lat="43.69306" lon="7.00401">
        <ele>295.7</ele>
        <time>2009-04-30T08:30:09Z</time>
      </trkpt>
      <trkpt lat="43.69353" lon="7.0033">
        <ele>271.2</ele>
        <time>2009-04-30T08:36:40Z</time>
      </trkpt>
      <trkpt lat="43.69386" lon="7.00443">
        <ele>257.3</ele>
        <time>2009-04-30T08:39:32Z</time>
      </trkpt>
      <trkpt lat="43.69398" lon="7.00558">
        <ele>256.3</ele>
        <time>2009-04-30T08:42:18Z</time>
      </trkpt>
      <trkpt lat="43.6945" lon="7.00657">
        <ele>248.6</ele>
        <time>2009-04-30T08:45:56Z</time>
      </trkpt>
      <trkpt lat="43.69468" lon="7.00697">
        <ele>242.4</ele>
        <time>2009-04-30T08:46:27Z</time>
      </trkpt>
      <trkpt lat="43.69478" lon="7.00739">
        <ele>233.7</ele>
        <time>2009-04-30T08:46:43Z</time>
      </trkpt>
      <trkpt lat="43.69485" lon="7.00751">
        <ele>224.1</ele>
        <time>2009-04-30T08:50:23Z</time>
      </trkpt>
      <trkpt lat="43.69503" lon="7.00709">
        <ele>218.4</ele>
        <time>2009-04-30T08:50:30Z</time>
      </trkpt>
      <trkpt lat="43.69515" lon="7.00672">
        <ele>214.5</ele>
        <time>2009-04-30T08:50:34Z</time>
      </trkpt>
      <trkpt lat="43.69544" lon="7.00634">
        <ele>212.1</ele>
        <time>2009-04-30T08:50:37Z</time>
      </trkpt>
      <trkpt lat="43.6957" lon="7.00596">
        <ele>210.7</ele>
        <time>2009-04-30T08:50:40Z</time>
      </trkpt>
      <trkpt lat="43.69591" lon="7.00553">
        <ele>204.9</ele>
        <time>2009-04-30T08:50:43Z</time>
      </trkpt>
      <trkpt lat="43.69611" lon="7.00514">
        <ele>199.1</ele>
        <time>2009-04-30T08:50:47Z</time>
      </trkpt>
      <trkpt lat="43.69624" lon="7.00487">
        <ele>190.5</ele>
        <time>2009-04-30T08:50:53Z</time>
      </trkpt>
      <trkpt lat="43.69639" lon="7.00449">
        <ele>183.7</ele>
        <time>2009-04-30T08:50:58Z</time>
      </trkpt>
      <trkpt lat="43.6966" lon="7.00407">
        <ele>172.2</ele>
        <time>2009-04-30T08:51:03Z</time>
      </trkpt>
      <trkpt lat="43.69678" lon="7.00363">
        <ele>161.6</ele>
        <time>2009-04-30T08:51:08Z</time>
      </trkpt>
      <trkpt lat="43.69694" lon="7.00326">
        <ele>151.5</ele>
        <time>2009-04-30T08:51:11Z</time>
      </trkpt>
      <trkpt lat="43.69716" lon="7.00282">
        <ele>146.3</ele>
        <time>2009-04-30T08:51:14Z</time>
      </trkpt>
      <trkpt lat="43.69731" lon="7.00251">
        <ele>142.4</ele>
        <time>2009-04-30T08:51:16Z</time>
      </trkpt>
      <trkpt lat="43.69746" lon="7.00217">
        <ele>140</ele>
        <time>2009-04-30T08:51:18Z</time>
      </trkpt>
      <trkpt lat="43.6976" lon="7.00168">
        <ele>136.6</ele>
        <time>2009-04-30T08:51:21Z</time>
      </trkpt>
      <trkpt lat="43.6977" lon="7.00122">
        <ele>135.2</ele>
        <time>2009-04-30T08:51:24Z</time>
      </trkpt>
      <trkpt lat="43.69778" lon="7.00081">
        <ele>134.2</ele>
        <time>2009-04-30T08:51:27Z</time>
      </trkpt>
      <trkpt lat="43.69779" lon="7.00036">
        <ele>132.8</ele>
        <time>2009-04-30T08:51:31Z</time>
      </trkpt>
      <trkpt lat="43.69775" lon="6.99996">
        <ele>133.3</ele>
        <time>2009-04-30T08:51:36Z</time>
      </trkpt>
      <trkpt lat="43.69764" lon="6.99957">
        <ele>134.2</ele>
        <time>2009-04-30T08:51:44Z</time>
      </trkpt>
      <trkpt lat="43.69745" lon="6.99932">
        <ele>133.8</ele>
        <time>2009-04-30T08:51:55Z</time>
      </trkpt>
      <trkpt lat="43.6973" lon="6.99901">
        <ele>135.2</ele>
        <time>2009-04-30T08:52:09Z</time>
      </trkpt>
      <trkpt lat="43.69754" lon="6.99887">
        <ele>136.6</ele>
        <time>2009-04-30T08:52:22Z</time>
      </trkpt>
      <trkpt lat="43.69781" lon="6.99906">
        <ele>135.2</ele>
        <time>2009-04-30T08:52:27Z</time>
      </trkpt>
      <trkpt lat="43.69815" lon="6.9992">
        <ele>131.8</ele>
        <time>2009-04-30T08:52:31Z</time>
      </trkpt>
      <trkpt lat="43.69849" lon="6.99926">
        <ele>129.4</ele>
        <time>2009-04-30T08:52:35Z</time>
      </trkpt>
      <trkpt lat="43.69879" lon="6.99915">
        <ele>129</ele>
        <time>2009-04-30T08:52:39Z</time>
      </trkpt>
      <trkpt lat="43.69906" lon="6.99903">
        <ele>128</ele>
        <time>2009-04-30T08:52:43Z</time>
      </trkpt>
      <trkpt lat="43.69937" lon="6.99891">
        <ele>128</ele>
        <time>2009-04-30T08:52:48Z</time>
      </trkpt>
      <trkpt lat="43.69963" lon="6.99888">
        <ele>127</ele>
        <time>2009-04-30T08:52:53Z</time>
      </trkpt>
      <trkpt lat="43.6999" lon="6.99899">
        <ele>126.1</ele>
        <time>2009-04-30T08:52:59Z</time>
      </trkpt>
      <trkpt lat="43.70016" lon="6.99913">
        <ele>125.1</ele>
        <time>2009-04-30T08:53:05Z</time>
      </trkpt>
      <trkpt lat="43.70044" lon="6.99915">
        <ele>122.2</ele>
        <time>2009-04-30T08:53:11Z</time>
      </trkpt>
      <trkpt lat="43.70075" lon="6.99904">
        <ele>121.3</ele>
        <time>2009-04-30T08:53:18Z</time>
      </trkpt>
      <trkpt lat="43.70102" lon="6.99888">
        <ele>121.3</ele>
        <time>2009-04-30T08:53:24Z</time>
      </trkpt>
      <trkpt lat="43.7013" lon="6.99878">
        <ele>120.3</ele>
        <time>2009-04-30T08:53:30Z</time>
      </trkpt>
      <trkpt lat="43.7016" lon="6.99872">
        <ele>125.1</ele>
        <time>2009-04-30T08:53:37Z</time>
      </trkpt>
      <trkpt lat="43.70186" lon="6.99867">
        <ele>130.9</ele>
        <time>2009-04-30T08:53:44Z</time>
      </trkpt>
      <trkpt lat="43.7021" lon="6.99849">
        <ele>129.9</ele>
        <time>2009-04-30T08:53:51Z</time>
      </trkpt>
      <trkpt lat="43.70234" lon="6.9983">
        <ele>129</ele>
        <time>2009-04-30T08:53:58Z</time>
      </trkpt>
      <trkpt lat="43.70257" lon="6.99842">
        <ele>128.5</ele>
        <time>2009-04-30T08:54:07Z</time>
      </trkpt>
      <trkpt lat="43.70272" lon="6.99881">
        <ele>125.6</ele>
        <time>2009-04-30T08:54:16Z</time>
      </trkpt>
      <trkpt lat="43.70287" lon="6.99912">
        <ele>124.6</ele>
        <time>2009-04-30T08:54:21Z</time>
      </trkpt>
      <trkpt lat="43.70315" lon="6.99923">
        <ele>123.7</ele>
        <time>2009-04-30T08:54:25Z</time>
      </trkpt>
      <trkpt lat="43.70328" lon="6.9996">
        <ele>121.3</ele>
        <time>2009-04-30T08:54:30Z</time>
      </trkpt>
      <trkpt lat="43.70339" lon="6.99998">
        <ele>122.7</ele>
        <time>2009-04-30T08:54:35Z</time>
      </trkpt>
      <trkpt lat="43.70361" lon="7.00023">
        <ele>124.6</ele>
        <time>2009-04-30T08:54:43Z</time>
      </trkpt>
      <trkpt lat="43.70386" lon="7.00033">
        <ele>128.5</ele>
        <time>2009-04-30T08:54:55Z</time>
      </trkpt>
      <trkpt lat="43.70411" lon="7.00045">
        <ele>131.8</ele>
        <time>2009-04-30T08:55:10Z</time>
      </trkpt>
      <trkpt lat="43.70439" lon="7.00055">
        <ele>141</ele>
        <time>2009-04-30T08:55:25Z</time>
      </trkpt>
      <trkpt lat="43.70425" lon="7.00061">
        <ele>147.7</ele>
        <time>2009-04-30T08:55:41Z</time>
      </trkpt>
      <trkpt lat="43.70398" lon="7.00068">
        <ele>146.7</ele>
        <time>2009-04-30T08:55:56Z</time>
      </trkpt>
      <trkpt lat="43.70375" lon="7.00089">
        <ele>147.2</ele>
        <time>2009-04-30T08:56:10Z</time>
      </trkpt>
      <trkpt lat="43.70355" lon="7.00116">
        <ele>146.3</ele>
        <time>2009-04-30T08:56:17Z</time>
      </trkpt>
      <trkpt lat="43.70342" lon="7.00153">
        <ele>143.4</ele>
        <time>2009-04-30T08:56:23Z</time>
      </trkpt>
      <trkpt lat="43.70332" lon="7.00189">
        <ele>141</ele>
        <time>2009-04-30T08:56:28Z</time>
      </trkpt>
      <trkpt lat="43.70319" lon="7.00223">
        <ele>138.6</ele>
        <time>2009-04-30T08:56:33Z</time>
      </trkpt>
      <trkpt lat="43.70297" lon="7.00246">
        <ele>136.2</ele>
        <time>2009-04-30T08:56:38Z</time>
      </trkpt>
      <trkpt lat="43.70268" lon="7.00263">
        <ele>136.2</ele>
        <time>2009-04-30T08:56:44Z</time>
      </trkpt>
      <trkpt lat="43.70244" lon="7.00289">
        <ele>133.3</ele>
        <time>2009-04-30T08:56:51Z</time>
      </trkpt>
      <trkpt lat="43.70232" lon="7.00326">
        <ele>135.7</ele>
        <time>2009-04-30T08:57:00Z</time>
      </trkpt>
      <trkpt lat="43.70225" lon="7.00362">
        <ele>140</ele>
        <time>2009-04-30T08:57:13Z</time>
      </trkpt>
      <trkpt lat="43.70228" lon="7.00398">
        <ele>146.7</ele>
        <time>2009-04-30T08:57:29Z</time>
      </trkpt>
      <trkpt lat="43.70243" lon="7.00434">
        <ele>152</ele>
        <time>2009-04-30T08:57:50Z</time>
      </trkpt>
      <trkpt lat="43.70259" lon="7.00471">
        <ele>148.2</ele>
        <time>2009-04-30T08:58:11Z</time>
      </trkpt>
      <trkpt lat="43.70243" lon="7.00507">
        <ele>154.4</ele>
        <time>2009-04-30T08:58:38Z</time>
      </trkpt>
      <trkpt lat="43.70226" lon="7.00538">
        <ele>161.6</ele>
        <time>2009-04-30T08:59:00Z</time>
      </trkpt>
      <trkpt lat="43.70215" lon="7.00565">
        <ele>169.3</ele>
        <time>2009-04-30T08:59:18Z</time>
      </trkpt>
      <trkpt lat="43.70213" lon="7.00596">
        <ele>183.7</ele>
        <time>2009-04-30T08:59:43Z</time>
      </trkpt>
      <trkpt lat="43.70213" lon="7.00632">
        <ele>188.6</ele>
        <time>2009-04-30T09:00:06Z</time>
      </trkpt>
      <trkpt lat="43.7021" lon="7.0069">
        <ele>190</ele>
        <time>2009-04-30T09:00:51Z</time>
      </trkpt>
      <trkpt lat="43.70213" lon="7.00729">
        <ele>198.6</ele>
        <time>2009-04-30T09:01:21Z</time>
      </trkpt>
      <trkpt lat="43.70214" lon="7.00774">
        <ele>208.3</ele>
        <time>2009-04-30T09:01:55Z</time>
      </trkpt>
      <trkpt lat="43.70216" lon="7.00813">
        <ele>211.6</ele>
        <time>2009-04-30T09:02:24Z</time>
      </trkpt>
      <trkpt lat="43.70233" lon="7.00847">
        <ele>216.4</ele>
        <time>2009-04-30T09:02:50Z</time>
      </trkpt>
      <trkpt lat="43.70245" lon="7.00878">
        <ele>222.7</ele>
        <time>2009-04-30T09:03:15Z</time>
      </trkpt>
      <trkpt lat="43.70252" lon="7.00913">
        <ele>227</ele>
        <time>2009-04-30T09:03:37Z</time>
      </trkpt>
      <trkpt lat="43.70265" lon="7.0095">
        <ele>228</ele>
        <time>2009-04-30T09:04:00Z</time>
      </trkpt>
      <trkpt lat="43.70287" lon="7.00976">
        <ele>228.9</ele>
        <time>2009-04-30T09:04:15Z</time>
      </trkpt>
      <trkpt lat="43.70312" lon="7.00996">
        <ele>227</ele>
        <time>2009-04-30T09:04:29Z</time>
      </trkpt>
      <trkpt lat="43.70307" lon="7.01034">
        <ele>228.5</ele>
        <time>2009-04-30T09:04:41Z</time>
      </trkpt>
      <trkpt lat="43.70294" lon="7.01067">
        <ele>231.8</ele>
        <time>2009-04-30T09:04:51Z</time>
      </trkpt>
      <trkpt lat="43.70269" lon="7.01094">
        <ele>234.7</ele>
        <time>2009-04-30T09:05:07Z</time>
      </trkpt>
      <trkpt lat="43.70256" lon="7.01132">
        <ele>238.1</ele>
        <time>2009-04-30T09:05:24Z</time>
      </trkpt>
      <trkpt lat="43.70242" lon="7.01167">
        <ele>241.4</ele>
        <time>2009-04-30T09:05:42Z</time>
      </trkpt>
      <trkpt lat="43.70231" lon="7.01204">
        <ele>245.3</ele>
        <time>2009-04-30T09:05:58Z</time>
      </trkpt>
      <trkpt lat="43.70222" lon="7.01242">
        <ele>248.6</ele>
        <time>2009-04-30T09:06:12Z</time>
      </trkpt>
      <trkpt lat="43.70221" lon="7.01281">
        <ele>250.6</ele>
        <time>2009-04-30T09:06:26Z</time>
      </trkpt>
      <trkpt lat="43.70221" lon="7.01321">
        <ele>251</ele>
        <time>2009-04-30T09:06:39Z</time>
      </trkpt>
      <trkpt lat="43.70226" lon="7.01361">
        <ele>251.5</ele>
        <time>2009-04-30T09:06:49Z</time>
      </trkpt>
      <trkpt lat="43.70232" lon="7.01402">
        <ele>250.1</ele>
        <time>2009-04-30T09:06:55Z</time>
      </trkpt>
      <trkpt lat="43.70231" lon="7.01443">
        <ele>250.6</ele>
        <time>2009-04-30T09:07:04Z</time>
      </trkpt>
      <trkpt lat="43.70239" lon="7.0148">
        <ele>255.4</ele>
        <time>2009-04-30T09:07:20Z</time>
      </trkpt>
      <trkpt lat="43.70229" lon="7.01519">
        <ele>263.5</ele>
        <time>2009-04-30T09:07:46Z</time>
      </trkpt>
      <trkpt lat="43.70218" lon="7.01562">
        <ele>269.3</ele>
        <time>2009-04-30T09:08:10Z</time>
      </trkpt>
      <trkpt lat="43.7021" lon="7.01601">
        <ele>271.7</ele>
        <time>2009-04-30T09:08:31Z</time>
      </trkpt>
      <trkpt lat="43.70189" lon="7.01636">
        <ele>274.6</ele>
        <time>2009-04-30T09:08:55Z</time>
      </trkpt>
      <trkpt lat="43.70178" lon="7.01686">
        <ele>275.6</ele>
        <time>2009-04-30T09:09:24Z</time>
      </trkpt>
      <trkpt lat="43.70193" lon="7.01716">
        <ele>275.1</ele>
        <time>2009-04-30T09:09:45Z</time>
      </trkpt>
      <trkpt lat="43.70215" lon="7.01686">
        <ele>283.7</ele>
        <time>2009-04-30T09:10:13Z</time>
      </trkpt>
      <trkpt lat="43.70243" lon="7.01665">
        <ele>286.1</ele>
        <time>2009-04-30T09:10:39Z</time>
      </trkpt>
      <trkpt lat="43.70264" lon="7.01691">
        <ele>289</ele>
        <time>2009-04-30T09:11:11Z</time>
      </trkpt>
      <trkpt lat="43.70289" lon="7.01683">
        <ele>297.2</ele>
        <time>2009-04-30T09:11:46Z</time>
      </trkpt>
      <trkpt lat="43.70318" lon="7.01693">
        <ele>302</ele>
        <time>2009-04-30T09:12:16Z</time>
      </trkpt>
      <trkpt lat="43.70324" lon="7.01727">
        <ele>303.9</ele>
        <time>2009-04-30T09:12:27Z</time>
      </trkpt>
      <trkpt lat="43.70344" lon="7.01738">
        <ele>309.2</ele>
        <time>2009-04-30T09:12:48Z</time>
      </trkpt>
      <trkpt lat="43.70356" lon="7.0177">
        <ele>312.6</ele>
        <time>2009-04-30T09:13:14Z</time>
      </trkpt>
      <trkpt lat="43.70377" lon="7.01766">
        <ele>315.9</ele>
        <time>2009-04-30T09:13:44Z</time>
      </trkpt>
      <trkpt lat="43.70396" lon="7.01731">
        <ele>320.3</ele>
        <time>2009-04-30T09:14:08Z</time>
      </trkpt>
      <trkpt lat="43.70419" lon="7.01712">
        <ele>325.1</ele>
        <time>2009-04-30T09:14:28Z</time>
      </trkpt>
      <trkpt lat="43.70445" lon="7.01708">
        <ele>326</ele>
        <time>2009-04-30T09:14:46Z</time>
      </trkpt>
      <trkpt lat="43.70463" lon="7.01678">
        <ele>325.1</ele>
        <time>2009-04-30T09:15:04Z</time>
      </trkpt>
      <trkpt lat="43.70483" lon="7.01701">
        <ele>328.9</ele>
        <time>2009-04-30T09:15:24Z</time>
      </trkpt>
      <trkpt lat="43.70501" lon="7.01727">
        <ele>327.9</ele>
        <time>2009-04-30T09:15:46Z</time>
      </trkpt>
      <trkpt lat="43.70519" lon="7.01753">
        <ele>329.9</ele>
        <time>2009-04-30T09:16:10Z</time>
      </trkpt>
      <trkpt lat="43.7054" lon="7.01776">
        <ele>332.3</ele>
        <time>2009-04-30T09:16:37Z</time>
      </trkpt>
      <trkpt lat="43.70562" lon="7.01805">
        <ele>334.7</ele>
        <time>2009-04-30T09:17:12Z</time>
      </trkpt>
      <trkpt lat="43.70578" lon="7.01865">
        <ele>355.3</ele>
        <time>2009-04-30T09:18:09Z</time>
      </trkpt>
      <trkpt lat="43.70603" lon="7.01876">
        <ele>362.1</ele>
        <time>2009-04-30T09:18:50Z</time>
      </trkpt>
      <trkpt lat="43.70621" lon="7.01849">
        <ele>366.9</ele>
        <time>2009-04-30T09:19:16Z</time>
      </trkpt>
      <trkpt lat="43.70637" lon="7.01818">
        <ele>369.8</ele>
        <time>2009-04-30T09:19:43Z</time>
      </trkpt>
      <trkpt lat="43.70655" lon="7.01774">
        <ele>376</ele>
        <time>2009-04-30T09:20:17Z</time>
      </trkpt>
      <trkpt lat="43.70674" lon="7.01746">
        <ele>384.7</ele>
        <time>2009-04-30T09:20:44Z</time>
      </trkpt>
      <trkpt lat="43.70688" lon="7.01704">
        <ele>395.2</ele>
        <time>2009-04-30T09:21:13Z</time>
      </trkpt>
      <trkpt lat="43.70701" lon="7.01652">
        <ele>404.4</ele>
        <time>2009-04-30T09:21:49Z</time>
      </trkpt>
      <trkpt lat="43.70713" lon="7.01591">
        <ele>407.7</ele>
        <time>2009-04-30T09:22:43Z</time>
      </trkpt>
      <trkpt lat="43.70728" lon="7.0155">
        <ele>405.3</ele>
        <time>2009-04-30T09:23:28Z</time>
      </trkpt>
      <trkpt lat="43.7074" lon="7.0151">
        <ele>413</ele>
        <time>2009-04-30T09:24:03Z</time>
      </trkpt>
      <trkpt lat="43.7075" lon="7.01469">
        <ele>414.9</ele>
        <time>2009-04-30T09:24:38Z</time>
      </trkpt>
      <trkpt lat="43.70765" lon="7.01439">
        <ele>419.8</ele>
        <time>2009-04-30T09:25:06Z</time>
      </trkpt>
      <trkpt lat="43.70785" lon="7.01405">
        <ele>427.4</ele>
        <time>2009-04-30T09:25:36Z</time>
      </trkpt>
      <trkpt lat="43.70798" lon="7.01413">
        <ele>432.7</ele>
        <time>2009-04-30T09:26:06Z</time>
      </trkpt>
      <trkpt lat="43.708" lon="7.01452">
        <ele>439.9</ele>
        <time>2009-04-30T09:26:35Z</time>
      </trkpt>
      <trkpt lat="43.70805" lon="7.01492">
        <ele>440.4</ele>
        <time>2009-04-30T09:27:01Z</time>
      </trkpt>
      <trkpt lat="43.70812" lon="7.01529">
        <ele>440.4</ele>
        <time>2009-04-30T09:27:29Z</time>
      </trkpt>
      <trkpt lat="43.70818" lon="7.01569">
        <ele>447.2</ele>
        <time>2009-04-30T09:27:56Z</time>
      </trkpt>
      <trkpt lat="43.70829" lon="7.01605">
        <ele>447.2</ele>
        <time>2009-04-30T09:28:23Z</time>
      </trkpt>
      <trkpt lat="43.70851" lon="7.01629">
        <ele>449.6</ele>
        <time>2009-04-30T09:28:42Z</time>
      </trkpt>
      <trkpt lat="43.7087" lon="7.01655">
        <ele>452.9</ele>
        <time>2009-04-30T09:29:00Z</time>
      </trkpt>
      <trkpt lat="43.70887" lon="7.01682">
        <ele>457.2</ele>
        <time>2009-04-30T09:29:22Z</time>
      </trkpt>
      <trkpt lat="43.709" lon="7.01712">
        <ele>464.5</ele>
        <time>2009-04-30T09:29:49Z</time>
      </trkpt>
      <trkpt lat="43.70914" lon="7.01726">
        <ele>468.8</ele>
        <time>2009-04-30T09:30:13Z</time>
      </trkpt>
      <trkpt lat="43.70911" lon="7.01687">
        <ele>474.1</ele>
        <time>2009-04-30T09:31:19Z</time>
      </trkpt>
      <trkpt lat="43.70912" lon="7.01646">
        <ele>470.7</ele>
        <time>2009-04-30T09:31:49Z</time>
      </trkpt>
      <trkpt lat="43.70906" lon="7.01606">
        <ele>476.5</ele>
        <time>2009-04-30T09:32:22Z</time>
      </trkpt>
      <trkpt lat="43.70917" lon="7.01601">
        <ele>484.2</ele>
        <time>2009-04-30T09:38:51Z</time>
      </trkpt>
      <trkpt lat="43.70932" lon="7.01635">
        <ele>490.9</ele>
        <time>2009-04-30T09:39:18Z</time>
      </trkpt>
      <trkpt lat="43.70945" lon="7.01672">
        <ele>497.6</ele>
        <time>2009-04-30T09:39:48Z</time>
      </trkpt>
      <trkpt lat="43.70962" lon="7.01709">
        <ele>500</ele>
        <time>2009-04-30T09:40:21Z</time>
      </trkpt>
      <trkpt lat="43.70977" lon="7.01742">
        <ele>504.3</ele>
        <time>2009-04-30T09:40:52Z</time>
      </trkpt>
      <trkpt lat="43.70972" lon="7.01706">
        <ele>508.2</ele>
        <time>2009-04-30T09:41:12Z</time>
      </trkpt>
      <trkpt lat="43.70972" lon="7.01667">
        <ele>512.5</ele>
        <time>2009-04-30T09:41:35Z</time>
      </trkpt>
      <trkpt lat="43.70969" lon="7.01625">
        <ele>518.8</ele>
        <time>2009-04-30T09:42:02Z</time>
      </trkpt>
      <trkpt lat="43.70966" lon="7.01589">
        <ele>520.7</ele>
        <time>2009-04-30T09:42:28Z</time>
      </trkpt>
      <trkpt lat="43.70966" lon="7.01552">
        <ele>521.7</ele>
        <time>2009-04-30T09:42:55Z</time>
      </trkpt>
      <trkpt lat="43.70962" lon="7.01515">
        <ele>524.5</ele>
        <time>2009-04-30T09:43:24Z</time>
      </trkpt>
      <trkpt lat="43.7097" lon="7.01484">
        <ele>529.3</ele>
        <time>2009-04-30T09:43:51Z</time>
      </trkpt>
      <trkpt lat="43.70983" lon="7.0152">
        <ele>538.5</ele>
        <time>2009-04-30T09:44:18Z</time>
      </trkpt>
      <trkpt lat="43.70994" lon="7.01554">
        <ele>544.7</ele>
        <time>2009-04-30T09:44:46Z</time>
      </trkpt>
      <trkpt lat="43.7101" lon="7.01587">
        <ele>546.2</ele>
        <time>2009-04-30T09:45:16Z</time>
      </trkpt>
      <trkpt lat="43.71028" lon="7.01617">
        <ele>549.1</ele>
        <time>2009-04-30T09:45:42Z</time>
      </trkpt>
      <trkpt lat="43.71044" lon="7.0165">
        <ele>554.8</ele>
        <time>2009-04-30T09:46:12Z</time>
      </trkpt>
      <trkpt lat="43.7105" lon="7.01691">
        <ele>557.7</ele>
        <time>2009-04-30T09:46:42Z</time>
      </trkpt>
      <trkpt lat="43.71065" lon="7.01712">
        <ele>559.1</ele>
        <time>2009-04-30T09:47:08Z</time>
      </trkpt>
      <trkpt lat="43.71063" lon="7.01679">
        <ele>558.7</ele>
        <time>2009-04-30T09:47:24Z</time>
      </trkpt>
      <trkpt lat="43.71061" lon="7.0165">
        <ele>562</ele>
        <time>2009-04-30T09:47:41Z</time>
      </trkpt>
      <trkpt lat="43.71062" lon="7.01622">
        <ele>563</ele>
        <time>2009-04-30T09:48:03Z</time>
      </trkpt>
      <trkpt lat="43.71053" lon="7.01569">
        <ele>576</ele>
        <time>2009-04-30T09:48:50Z</time>
      </trkpt>
      <trkpt lat="43.71057" lon="7.01502">
        <ele>583.7</ele>
        <time>2009-04-30T09:49:42Z</time>
      </trkpt>
      <trkpt lat="43.7106" lon="7.01454">
        <ele>593.8</ele>
        <time>2009-04-30T09:50:22Z</time>
      </trkpt>
      <trkpt lat="43.71074" lon="7.01415">
        <ele>597.6</ele>
        <time>2009-04-30T09:50:55Z</time>
      </trkpt>
      <trkpt lat="43.71088" lon="7.01378">
        <ele>600</ele>
        <time>2009-04-30T09:51:18Z</time>
      </trkpt>
      <trkpt lat="43.71105" lon="7.01345">
        <ele>600</ele>
        <time>2009-04-30T09:51:43Z</time>
      </trkpt>
      <trkpt lat="43.71116" lon="7.01303">
        <ele>602.9</ele>
        <time>2009-04-30T09:52:16Z</time>
      </trkpt>
      <trkpt lat="43.71134" lon="7.01264">
        <ele>613</ele>
        <time>2009-04-30T09:52:59Z</time>
      </trkpt>
      <trkpt lat="43.71159" lon="7.01243">
        <ele>617.8</ele>
        <time>2009-04-30T09:53:38Z</time>
      </trkpt>
      <trkpt lat="43.71169" lon="7.0121">
        <ele>622.1</ele>
        <time>2009-04-30T09:54:06Z</time>
      </trkpt>
      <trkpt lat="43.71157" lon="7.01175">
        <ele>626</ele>
        <time>2009-04-30T09:54:26Z</time>
      </trkpt>
      <trkpt lat="43.71161" lon="7.01139">
        <ele>629.3</ele>
        <time>2009-04-30T09:54:54Z</time>
      </trkpt>
      <trkpt lat="43.71174" lon="7.01156">
        <ele>634.1</ele>
        <time>2009-04-30T09:55:20Z</time>
      </trkpt>
      <trkpt lat="43.71193" lon="7.01179">
        <ele>636</ele>
        <time>2009-04-30T09:55:49Z</time>
      </trkpt>
      <trkpt lat="43.71209" lon="7.01204">
        <ele>641.3</ele>
        <time>2009-04-30T09:56:16Z</time>
      </trkpt>
      <trkpt lat="43.71199" lon="7.01242">
        <ele>644.7</ele>
        <time>2009-04-30T09:56:50Z</time>
      </trkpt>
      <trkpt lat="43.71194" lon="7.01285">
        <ele>648.1</ele>
        <time>2009-04-30T09:57:21Z</time>
      </trkpt>
      <trkpt lat="43.71192" lon="7.01322">
        <ele>652.9</ele>
        <time>2009-04-30T09:57:45Z</time>
      </trkpt>
      <trkpt lat="43.71189" lon="7.01358">
        <ele>655.3</ele>
        <time>2009-04-30T09:58:07Z</time>
      </trkpt>
      <trkpt lat="43.712" lon="7.01349">
        <ele>660.1</ele>
        <time>2009-04-30T09:58:33Z</time>
      </trkpt>
      <trkpt lat="43.71211" lon="7.01318">
        <ele>662.5</ele>
        <time>2009-04-30T09:58:58Z</time>
      </trkpt>
      <trkpt lat="43.71229" lon="7.01289">
        <ele>665.9</ele>
        <time>2009-04-30T09:59:23Z</time>
      </trkpt>
      <trkpt lat="43.7125" lon="7.01272">
        <ele>669.2</ele>
        <time>2009-04-30T09:59:47Z</time>
      </trkpt>
      <trkpt lat="43.71277" lon="7.01255">
        <ele>672.1</ele>
        <time>2009-04-30T10:00:17Z</time>
      </trkpt>
      <trkpt lat="43.71302" lon="7.01217">
        <ele>676.4</ele>
        <time>2009-04-30T10:01:05Z</time>
      </trkpt>
      <trkpt lat="43.71292" lon="7.0117">
        <ele>684.6</ele>
        <time>2009-04-30T10:01:48Z</time>
      </trkpt>
      <trkpt lat="43.71308" lon="7.0117">
        <ele>688.9</ele>
        <time>2009-04-30T10:02:15Z</time>
      </trkpt>
      <trkpt lat="43.71321" lon="7.01204">
        <ele>691.8</ele>
        <time>2009-04-30T10:02:47Z</time>
      </trkpt>
      <trkpt lat="43.71329" lon="7.01242">
        <ele>697.6</ele>
        <time>2009-04-30T10:03:22Z</time>
      </trkpt>
      <trkpt lat="43.71323" lon="7.01288">
        <ele>702.9</ele>
        <time>2009-04-30T10:03:55Z</time>
      </trkpt>
      <trkpt lat="43.71302" lon="7.01306">
        <ele>707.7</ele>
        <time>2009-04-30T10:04:22Z</time>
      </trkpt>
      <trkpt lat="43.7129" lon="7.01335">
        <ele>710.1</ele>
        <time>2009-04-30T10:04:43Z</time>
      </trkpt>
      <trkpt lat="43.71291" lon="7.01373">
        <ele>712</ele>
        <time>2009-04-30T10:05:08Z</time>
      </trkpt>
      <trkpt lat="43.71297" lon="7.01406">
        <ele>717.8</ele>
        <time>2009-04-30T10:05:31Z</time>
      </trkpt>
      <trkpt lat="43.71309" lon="7.01374">
        <ele>721.1</ele>
        <time>2009-04-30T10:05:53Z</time>
      </trkpt>
      <trkpt lat="43.71322" lon="7.0134">
        <ele>722.6</ele>
        <time>2009-04-30T10:06:14Z</time>
      </trkpt>
      <trkpt lat="43.71345" lon="7.01321">
        <ele>727.4</ele>
        <time>2009-04-30T10:06:40Z</time>
      </trkpt>
      <trkpt lat="43.71363" lon="7.01292">
        <ele>733.6</ele>
        <time>2009-04-30T10:07:05Z</time>
      </trkpt>
      <trkpt lat="43.71372" lon="7.01259">
        <ele>739.4</ele>
        <time>2009-04-30T10:07:30Z</time>
      </trkpt>
      <trkpt lat="43.71384" lon="7.01222">
        <ele>744.7</ele>
        <time>2009-04-30T10:07:55Z</time>
      </trkpt>
      <trkpt lat="43.71393" lon="7.01189">
        <ele>748.5</ele>
        <time>2009-04-30T10:08:21Z</time>
      </trkpt>
      <trkpt lat="43.71416" lon="7.01177">
        <ele>751.4</ele>
        <time>2009-04-30T10:08:48Z</time>
      </trkpt>
      <trkpt lat="43.71444" lon="7.01185">
        <ele>751.9</ele>
        <time>2009-04-30T10:13:01Z</time>
      </trkpt>
      <trkpt lat="43.71471" lon="7.01176">
        <ele>754.3</ele>
        <time>2009-04-30T10:13:24Z</time>
      </trkpt>
      <trkpt lat="43.715" lon="7.01167">
        <ele>757.7</ele>
        <time>2009-04-30T10:13:51Z</time>
      </trkpt>
      <trkpt lat="43.71528" lon="7.01167">
        <ele>763.9</ele>
        <time>2009-04-30T10:14:18Z</time>
      </trkpt>
      <trkpt lat="43.71549" lon="7.01191">
        <ele>767.3</ele>
        <time>2009-04-30T10:14:41Z</time>
      </trkpt>
      <trkpt lat="43.71577" lon="7.01203">
        <ele>775.9</ele>
        <time>2009-04-30T10:15:06Z</time>
      </trkpt>
      <trkpt lat="43.71605" lon="7.01202">
        <ele>780.7</ele>
        <time>2009-04-30T10:15:34Z</time>
      </trkpt>
      <trkpt lat="43.71613" lon="7.01237">
        <ele>785.5</ele>
        <time>2009-04-30T10:15:55Z</time>
      </trkpt>
      <trkpt lat="43.71617" lon="7.01273">
        <ele>788.9</ele>
        <time>2009-04-30T10:16:18Z</time>
      </trkpt>
      <trkpt lat="43.71622" lon="7.0131">
        <ele>791.8</ele>
        <time>2009-04-30T10:16:41Z</time>
      </trkpt>
      <trkpt lat="43.71627" lon="7.01351">
        <ele>796.1</ele>
        <time>2009-04-30T10:17:05Z</time>
      </trkpt>
      <trkpt lat="43.71625" lon="7.01387">
        <ele>799.5</ele>
        <time>2009-04-30T10:17:31Z</time>
      </trkpt>
      <trkpt lat="43.71637" lon="7.01423">
        <ele>801.4</ele>
        <time>2009-04-30T10:17:57Z</time>
      </trkpt>
      <trkpt lat="43.71654" lon="7.01453">
        <ele>804.3</ele>
        <time>2009-04-30T10:18:30Z</time>
      </trkpt>
      <trkpt lat="43.7167" lon="7.01484">
        <ele>807.6</ele>
        <time>2009-04-30T10:18:47Z</time>
      </trkpt>
      <trkpt lat="43.71684" lon="7.01516">
        <ele>808.6</ele>
        <time>2009-04-30T10:19:04Z</time>
      </trkpt>
      <trkpt lat="43.71705" lon="7.01543">
        <ele>813.9</ele>
        <time>2009-04-30T10:19:27Z</time>
      </trkpt>
      <trkpt lat="43.71735" lon="7.01559">
        <ele>817.3</ele>
        <time>2009-04-30T10:19:54Z</time>
      </trkpt>
      <trkpt lat="43.71761" lon="7.0157">
        <ele>821.6</ele>
        <time>2009-04-30T10:20:21Z</time>
      </trkpt>
      <trkpt lat="43.71788" lon="7.0158">
        <ele>824.5</ele>
        <time>2009-04-30T10:20:46Z</time>
      </trkpt>
      <trkpt lat="43.71814" lon="7.01594">
        <ele>829.8</ele>
        <time>2009-04-30T10:21:11Z</time>
      </trkpt>
      <trkpt lat="43.71837" lon="7.01614">
        <ele>835.5</ele>
        <time>2009-04-30T10:21:38Z</time>
      </trkpt>
      <trkpt lat="43.71866" lon="7.01634">
        <ele>842.7</ele>
        <time>2009-04-30T10:22:08Z</time>
      </trkpt>
      <trkpt lat="43.71892" lon="7.01653">
        <ele>845.6</ele>
        <time>2009-04-30T10:22:32Z</time>
      </trkpt>
      <trkpt lat="43.71919" lon="7.01671">
        <ele>847.1</ele>
        <time>2009-04-30T10:22:57Z</time>
      </trkpt>
      <trkpt lat="43.71933" lon="7.01654">
        <ele>848.5</ele>
        <time>2009-04-30T10:23:22Z</time>
      </trkpt>
      <trkpt lat="43.71933" lon="7.01613">
        <ele>853.3</ele>
        <time>2009-04-30T10:23:45Z</time>
      </trkpt>
      <trkpt lat="43.71927" lon="7.01574">
        <ele>855.7</ele>
        <time>2009-04-30T10:24:08Z</time>
      </trkpt>
      <trkpt lat="43.71924" lon="7.01536">
        <ele>857.2</ele>
        <time>2009-04-30T10:24:31Z</time>
      </trkpt>
      <trkpt lat="43.71939" lon="7.01512">
        <ele>858.6</ele>
        <time>2009-04-30T10:24:51Z</time>
      </trkpt>
      <trkpt lat="43.71964" lon="7.01506">
        <ele>861.5</ele>
        <time>2009-04-30T10:25:11Z</time>
      </trkpt>
      <trkpt lat="43.71978" lon="7.01471">
        <ele>861</ele>
        <time>2009-04-30T10:25:26Z</time>
      </trkpt>
      <trkpt lat="43.71987" lon="7.01435">
        <ele>861</ele>
        <time>2009-04-30T10:25:37Z</time>
      </trkpt>
      <trkpt lat="43.71992" lon="7.014">
        <ele>861</ele>
        <time>2009-04-30T10:25:48Z</time>
      </trkpt>
      <trkpt lat="43.71988" lon="7.01364">
        <ele>861</ele>
        <time>2009-04-30T10:25:59Z</time>
      </trkpt>
      <trkpt lat="43.71981" lon="7.01325">
        <ele>862.9</ele>
        <time>2009-04-30T10:26:10Z</time>
      </trkpt>
      <trkpt lat="43.7197" lon="7.01288">
        <ele>864.8</ele>
        <time>2009-04-30T10:26:23Z</time>
      </trkpt>
      <trkpt lat="43.71977" lon="7.01253">
        <ele>865.8</ele>
        <time>2009-04-30T10:26:36Z</time>
      </trkpt>
      <trkpt lat="43.71991" lon="7.01219">
        <ele>867.7</ele>
        <time>2009-04-30T10:26:49Z</time>
      </trkpt>
      <trkpt lat="43.72002" lon="7.01182">
        <ele>868.2</ele>
        <time>2009-04-30T10:27:02Z</time>
      </trkpt>
      <trkpt lat="43.72012" lon="7.01146">
        <ele>868.7</ele>
        <time>2009-04-30T10:27:13Z</time>
      </trkpt>
      <trkpt lat="43.7202" lon="7.01111">
        <ele>869.6</ele>
        <time>2009-04-30T10:27:23Z</time>
      </trkpt>
      <trkpt lat="43.7203" lon="7.01073">
        <ele>870.1</ele>
        <time>2009-04-30T10:27:34Z</time>
      </trkpt>
      <trkpt lat="43.72049" lon="7.01078">
        <ele>869.6</ele>
        <time>2009-04-30T10:32:42Z</time>
      </trkpt>
      <trkpt lat="43.72057" lon="7.01116">
        <ele>869.6</ele>
        <time>2009-04-30T10:32:54Z</time>
      </trkpt>
      <trkpt lat="43.72069" lon="7.01151">
        <ele>872.1</ele>
        <time>2009-04-30T10:33:10Z</time>
      </trkpt>
      <trkpt lat="43.72088" lon="7.01179">
        <ele>875.9</ele>
        <time>2009-04-30T10:33:27Z</time>
      </trkpt>
      <trkpt lat="43.7211" lon="7.01203">
        <ele>877.8</ele>
        <time>2009-04-30T10:33:44Z</time>
      </trkpt>
      <trkpt lat="43.72133" lon="7.01222">
        <ele>881.7</ele>
        <time>2009-04-30T10:34:04Z</time>
      </trkpt>
      <trkpt lat="43.72164" lon="7.01217">
        <ele>887</ele>
        <time>2009-04-30T10:36:08Z</time>
      </trkpt>
      <trkpt lat="43.72193" lon="7.01212">
        <ele>890.8</ele>
        <time>2009-04-30T10:36:21Z</time>
      </trkpt>
      <trkpt lat="43.72223" lon="7.01228">
        <ele>885</ele>
        <time>2009-04-30T10:36:35Z</time>
      </trkpt>
      <trkpt lat="43.72221" lon="7.01265">
        <ele>885.5</ele>
        <time>2009-04-30T10:36:50Z</time>
      </trkpt>
      <trkpt lat="43.72217" lon="7.01302">
        <ele>888.4</ele>
        <time>2009-04-30T10:37:06Z</time>
      </trkpt>
      <trkpt lat="43.72214" lon="7.0134">
        <ele>891.8</ele>
        <time>2009-04-30T10:37:22Z</time>
      </trkpt>
      <trkpt lat="43.72212" lon="7.01378">
        <ele>893.7</ele>
        <time>2009-04-30T10:37:38Z</time>
      </trkpt>
      <trkpt lat="43.72213" lon="7.01417">
        <ele>896.1</ele>
        <time>2009-04-30T10:37:55Z</time>
      </trkpt>
      <trkpt lat="43.72218" lon="7.01454">
        <ele>899</ele>
        <time>2009-04-30T10:38:14Z</time>
      </trkpt>
      <trkpt lat="43.72237" lon="7.01453">
        <ele>903.8</ele>
        <time>2009-04-30T10:38:35Z</time>
      </trkpt>
      <trkpt lat="43.72254" lon="7.01424">
        <ele>906.7</ele>
        <time>2009-04-30T10:38:58Z</time>
      </trkpt>
      <trkpt lat="43.7228" lon="7.01404">
        <ele>910.5</ele>
        <time>2009-04-30T10:39:18Z</time>
      </trkpt>
      <trkpt lat="43.72307" lon="7.01398">
        <ele>912.9</ele>
        <time>2009-04-30T10:39:33Z</time>
      </trkpt>
      <trkpt lat="43.72334" lon="7.01396">
        <ele>916.8</ele>
        <time>2009-04-30T10:39:47Z</time>
      </trkpt>
      <trkpt lat="43.72363" lon="7.01393">
        <ele>919.6</ele>
        <time>2009-04-30T10:40:01Z</time>
      </trkpt>
      <trkpt lat="43.72388" lon="7.01379">
        <ele>920.1</ele>
        <time>2009-04-30T10:40:14Z</time>
      </trkpt>
      <trkpt lat="43.72415" lon="7.01365">
        <ele>921.6</ele>
        <time>2009-04-30T10:40:26Z</time>
      </trkpt>
      <trkpt lat="43.7244" lon="7.01347">
        <ele>923</ele>
        <time>2009-04-30T10:40:36Z</time>
      </trkpt>
      <trkpt lat="43.72467" lon="7.01331">
        <ele>923</ele>
        <time>2009-04-30T10:40:46Z</time>
      </trkpt>
      <trkpt lat="43.72493" lon="7.01313">
        <ele>922.5</ele>
        <time>2009-04-30T10:40:56Z</time>
      </trkpt>
      <trkpt lat="43.72519" lon="7.01293">
        <ele>924</ele>
        <time>2009-04-30T10:41:06Z</time>
      </trkpt>
      <trkpt lat="43.72543" lon="7.01274">
        <ele>925.9</ele>
        <time>2009-04-30T10:41:17Z</time>
      </trkpt>
      <trkpt lat="43.72564" lon="7.0125">
        <ele>926.4</ele>
        <time>2009-04-30T10:41:30Z</time>
      </trkpt>
      <trkpt lat="43.72591" lon="7.01235">
        <ele>931.2</ele>
        <time>2009-04-30T10:41:44Z</time>
      </trkpt>
      <trkpt lat="43.72616" lon="7.01223">
        <ele>936</ele>
        <time>2009-04-30T10:42:03Z</time>
      </trkpt>
      <trkpt lat="43.72639" lon="7.01205">
        <ele>935.5</ele>
        <time>2009-04-30T10:42:34Z</time>
      </trkpt>
      <trkpt lat="43.72669" lon="7.01198">
        <ele>938.9</ele>
        <time>2009-04-30T10:44:31Z</time>
      </trkpt>
      <trkpt lat="43.72696" lon="7.01208">
        <ele>936.9</ele>
        <time>2009-04-30T10:44:43Z</time>
      </trkpt>
      <trkpt lat="43.72721" lon="7.01238">
        <ele>933.1</ele>
        <time>2009-04-30T10:45:41Z</time>
      </trkpt>
      <trkpt lat="43.72743" lon="7.01264">
        <ele>928.8</ele>
        <time>2009-04-30T10:45:47Z</time>
      </trkpt>
      <trkpt lat="43.72761" lon="7.01301">
        <ele>923.5</ele>
        <time>2009-04-30T10:45:53Z</time>
      </trkpt>
      <trkpt lat="43.7278" lon="7.01334">
        <ele>919.6</ele>
        <time>2009-04-30T10:45:58Z</time>
      </trkpt>
      <trkpt lat="43.7281" lon="7.01357">
        <ele>917.2</ele>
        <time>2009-04-30T10:46:03Z</time>
      </trkpt>
      <trkpt lat="43.72838" lon="7.01376">
        <ele>914.4</ele>
        <time>2009-04-30T10:46:08Z</time>
      </trkpt>
      <trkpt lat="43.72848" lon="7.01356">
        <ele>908.1</ele>
        <time>2009-04-30T10:46:17Z</time>
      </trkpt>
      <trkpt lat="43.72856" lon="7.01314">
        <ele>905.2</ele>
        <time>2009-04-30T10:46:22Z</time>
      </trkpt>
      <trkpt lat="43.72854" lon="7.01267">
        <ele>903.3</ele>
        <time>2009-04-30T10:46:26Z</time>
      </trkpt>
      <trkpt lat="43.72844" lon="7.01224">
        <ele>900.9</ele>
        <time>2009-04-30T10:46:30Z</time>
      </trkpt>
      <trkpt lat="43.7285" lon="7.01181">
        <ele>898.5</ele>
        <time>2009-04-30T10:46:34Z</time>
      </trkpt>
      <trkpt lat="43.72874" lon="7.01145">
        <ele>895.1</ele>
        <time>2009-04-30T10:46:38Z</time>
      </trkpt>
      <trkpt lat="43.72895" lon="7.01109">
        <ele>891.3</ele>
        <time>2009-04-30T10:46:42Z</time>
      </trkpt>
      <trkpt lat="43.72912" lon="7.01066">
        <ele>888.9</ele>
        <time>2009-04-30T10:46:46Z</time>
      </trkpt>
      <trkpt lat="43.72924" lon="7.0103">
        <ele>883.6</ele>
        <time>2009-04-30T10:46:50Z</time>
      </trkpt>
      <trkpt lat="43.72942" lon="7.00992">
        <ele>879.7</ele>
        <time>2009-04-30T10:46:55Z</time>
      </trkpt>
      <trkpt lat="43.72962" lon="7.00956">
        <ele>876.4</ele>
        <time>2009-04-30T10:47:00Z</time>
      </trkpt>
      <trkpt lat="43.72984" lon="7.00944">
        <ele>874.9</ele>
        <time>2009-04-30T10:47:08Z</time>
      </trkpt>
      <trkpt lat="43.72996" lon="7.00981">
        <ele>872.5</ele>
        <time>2009-04-30T10:47:16Z</time>
      </trkpt>
      <trkpt lat="43.73008" lon="7.01022">
        <ele>868.7</ele>
        <time>2009-04-30T10:47:22Z</time>
      </trkpt>
      <trkpt lat="43.73021" lon="7.01067">
        <ele>864.8</ele>
        <time>2009-04-30T10:47:27Z</time>
      </trkpt>
      <trkpt lat="43.73033" lon="7.01104">
        <ele>861.5</ele>
        <time>2009-04-30T10:47:36Z</time>
      </trkpt>
      <trkpt lat="43.73018" lon="7.01133">
        <ele>855.7</ele>
        <time>2009-04-30T10:47:49Z</time>
      </trkpt>
      <trkpt lat="43.73007" lon="7.01169">
        <ele>852.8</ele>
        <time>2009-04-30T10:47:57Z</time>
      </trkpt>
      <trkpt lat="43.7303" lon="7.01197">
        <ele>859.6</ele>
        <time>2009-04-30T10:48:10Z</time>
      </trkpt>
      <trkpt lat="43.73061" lon="7.01215">
        <ele>860.5</ele>
        <time>2009-04-30T10:48:24Z</time>
      </trkpt>
      <trkpt lat="43.73076" lon="7.0125">
        <ele>857.2</ele>
        <time>2009-04-30T10:48:33Z</time>
      </trkpt>
      <trkpt lat="43.73091" lon="7.01288">
        <ele>853.8</ele>
        <time>2009-04-30T10:48:41Z</time>
      </trkpt>
      <trkpt lat="43.73119" lon="7.01306">
        <ele>858.1</ele>
        <time>2009-04-30T10:48:54Z</time>
      </trkpt>
      <trkpt lat="43.73158" lon="7.01313">
        <ele>853.8</ele>
        <time>2009-04-30T10:49:02Z</time>
      </trkpt>
      <trkpt lat="43.73185" lon="7.01338">
        <ele>847.1</ele>
        <time>2009-04-30T10:49:11Z</time>
      </trkpt>
      <trkpt lat="43.73208" lon="7.01368">
        <ele>839.8</ele>
        <time>2009-04-30T10:49:32Z</time>
      </trkpt>
      <trkpt lat="43.73228" lon="7.01403">
        <ele>836</ele>
        <time>2009-04-30T10:49:41Z</time>
      </trkpt>
      <trkpt lat="43.73253" lon="7.01433">
        <ele>833.6</ele>
        <time>2009-04-30T10:49:47Z</time>
      </trkpt>
      <trkpt lat="43.73286" lon="7.01457">
        <ele>833.1</ele>
        <time>2009-04-30T10:49:55Z</time>
      </trkpt>
      <trkpt lat="43.73309" lon="7.01479">
        <ele>832.6</ele>
        <time>2009-04-30T10:50:04Z</time>
      </trkpt>
      <trkpt lat="43.73334" lon="7.01511">
        <ele>831.2</ele>
        <time>2009-04-30T10:50:11Z</time>
      </trkpt>
      <trkpt lat="43.73357" lon="7.01544">
        <ele>828.8</ele>
        <time>2009-04-30T10:50:17Z</time>
      </trkpt>
      <trkpt lat="43.73381" lon="7.01566">
        <ele>828.8</ele>
        <time>2009-04-30T10:50:23Z</time>
      </trkpt>
      <trkpt lat="43.73408" lon="7.01584">
        <ele>831.7</ele>
        <time>2009-04-30T10:50:32Z</time>
      </trkpt>
      <trkpt lat="43.73433" lon="7.01607">
        <ele>830.7</ele>
        <time>2009-04-30T10:50:38Z</time>
      </trkpt>
      <trkpt lat="43.73456" lon="7.01627">
        <ele>830.7</ele>
        <time>2009-04-30T10:50:43Z</time>
      </trkpt>
      <trkpt lat="43.73482" lon="7.01646">
        <ele>831.7</ele>
        <time>2009-04-30T10:50:49Z</time>
      </trkpt>
      <trkpt lat="43.73506" lon="7.01671">
        <ele>831.7</ele>
        <time>2009-04-30T10:50:58Z</time>
      </trkpt>
      <trkpt lat="43.73529" lon="7.01698">
        <ele>833.1</ele>
        <time>2009-04-30T10:51:08Z</time>
      </trkpt>
      <trkpt lat="43.73544" lon="7.01735">
        <ele>830.2</ele>
        <time>2009-04-30T10:51:18Z</time>
      </trkpt>
      <trkpt lat="43.73551" lon="7.01777">
        <ele>829.3</ele>
        <time>2009-04-30T10:51:25Z</time>
      </trkpt>
      <trkpt lat="43.73581" lon="7.01785">
        <ele>829.8</ele>
        <time>2009-04-30T10:51:31Z</time>
      </trkpt>
      <trkpt lat="43.73605" lon="7.01773">
        <ele>830.7</ele>
        <time>2009-04-30T10:51:40Z</time>
      </trkpt>
      <trkpt lat="43.73632" lon="7.01792">
        <ele>831.2</ele>
        <time>2009-04-30T10:52:20Z</time>
      </trkpt>
      <trkpt lat="43.73662" lon="7.01802">
        <ele>830.2</ele>
        <time>2009-04-30T10:52:29Z</time>
      </trkpt>
      <trkpt lat="43.73692" lon="7.01797">
        <ele>832.2</ele>
        <time>2009-04-30T10:52:37Z</time>
      </trkpt>
      <trkpt lat="43.73725" lon="7.01785">
        <ele>837</ele>
        <time>2009-04-30T10:52:50Z</time>
      </trkpt>
      <trkpt lat="43.73755" lon="7.01788">
        <ele>834.6</ele>
        <time>2009-04-30T10:53:04Z</time>
      </trkpt>
      <trkpt lat="43.73786" lon="7.01788">
        <ele>835.5</ele>
        <time>2009-04-30T10:53:16Z</time>
      </trkpt>
      <trkpt lat="43.73816" lon="7.0178">
        <ele>838.9</ele>
        <time>2009-04-30T10:53:27Z</time>
      </trkpt>
      <trkpt lat="43.73847" lon="7.01781">
        <ele>837.9</ele>
        <time>2009-04-30T10:53:37Z</time>
      </trkpt>
      <trkpt lat="43.73877" lon="7.01781">
        <ele>839.4</ele>
        <time>2009-04-30T10:53:48Z</time>
      </trkpt>
      <trkpt lat="43.73907" lon="7.01776">
        <ele>843.7</ele>
        <time>2009-04-30T10:54:08Z</time>
      </trkpt>
      <trkpt lat="43.73938" lon="7.01766">
        <ele>846.1</ele>
        <time>2009-04-30T10:54:25Z</time>
      </trkpt>
      <trkpt lat="43.73969" lon="7.0177">
        <ele>843.2</ele>
        <time>2009-04-30T10:54:37Z</time>
      </trkpt>
      <trkpt lat="43.73996" lon="7.01781">
        <ele>845.1</ele>
        <time>2009-04-30T10:54:47Z</time>
      </trkpt>
      <trkpt lat="43.74025" lon="7.01788">
        <ele>847.5</ele>
        <time>2009-04-30T10:54:58Z</time>
      </trkpt>
      <trkpt lat="43.74053" lon="7.018">
        <ele>849</ele>
        <time>2009-04-30T10:55:13Z</time>
      </trkpt>
      <trkpt lat="43.74082" lon="7.01807">
        <ele>848</ele>
        <time>2009-04-30T10:55:25Z</time>
      </trkpt>
      <trkpt lat="43.74114" lon="7.01816">
        <ele>850.9</ele>
        <time>2009-04-30T10:55:36Z</time>
      </trkpt>
      <trkpt lat="43.74146" lon="7.01806">
        <ele>853.8</ele>
        <time>2009-04-30T10:55:47Z</time>
      </trkpt>
      <trkpt lat="43.74176" lon="7.01799">
        <ele>855.2</ele>
        <time>2009-04-30T10:56:00Z</time>
      </trkpt>
      <trkpt lat="43.74206" lon="7.01789">
        <ele>857.2</ele>
        <time>2009-04-30T10:56:13Z</time>
      </trkpt>
      <trkpt lat="43.74233" lon="7.01781">
        <ele>860.5</ele>
        <time>2009-04-30T10:56:25Z</time>
      </trkpt>
      <trkpt lat="43.74263" lon="7.01773">
        <ele>863.4</ele>
        <time>2009-04-30T10:56:39Z</time>
      </trkpt>
      <trkpt lat="43.74293" lon="7.01766">
        <ele>864.4</ele>
        <time>2009-04-30T10:56:50Z</time>
      </trkpt>
      <trkpt lat="43.74325" lon="7.01748">
        <ele>862.9</ele>
        <time>2009-04-30T10:57:01Z</time>
      </trkpt>
      <trkpt lat="43.74353" lon="7.01733">
        <ele>862.4</ele>
        <time>2009-04-30T10:57:11Z</time>
      </trkpt>
      <trkpt lat="43.74376" lon="7.0171">
        <ele>866.3</ele>
        <time>2009-04-30T10:57:23Z</time>
      </trkpt>
      <trkpt lat="43.74399" lon="7.01689">
        <ele>866.8</ele>
        <time>2009-04-30T10:57:34Z</time>
      </trkpt>
      <trkpt lat="43.74424" lon="7.01668">
        <ele>866.3</ele>
        <time>2009-04-30T10:57:44Z</time>
      </trkpt>
      <trkpt lat="43.74447" lon="7.01643">
        <ele>867.7</ele>
        <time>2009-04-30T10:57:55Z</time>
      </trkpt>
      <trkpt lat="43.74469" lon="7.01619">
        <ele>867.2</ele>
        <time>2009-04-30T10:58:07Z</time>
      </trkpt>
      <trkpt lat="43.74494" lon="7.01599">
        <ele>869.6</ele>
        <time>2009-04-30T10:58:23Z</time>
      </trkpt>
      <trkpt lat="43.74517" lon="7.01574">
        <ele>869.6</ele>
        <time>2009-04-30T10:58:37Z</time>
      </trkpt>
      <trkpt lat="43.74539" lon="7.01547">
        <ele>870.6</ele>
        <time>2009-04-30T10:58:46Z</time>
      </trkpt>
      <trkpt lat="43.74568" lon="7.01544">
        <ele>870.1</ele>
        <time>2009-04-30T10:58:57Z</time>
      </trkpt>
      <trkpt lat="43.74596" lon="7.0153">
        <ele>873</ele>
        <time>2009-04-30T10:59:11Z</time>
      </trkpt>
      <trkpt lat="43.74624" lon="7.01531">
        <ele>872.5</ele>
        <time>2009-04-30T10:59:26Z</time>
      </trkpt>
      <trkpt lat="43.74649" lon="7.01517">
        <ele>875.4</ele>
        <time>2009-04-30T10:59:40Z</time>
      </trkpt>
      <trkpt lat="43.74673" lon="7.01495">
        <ele>879.3</ele>
        <time>2009-04-30T10:59:55Z</time>
      </trkpt>
      <trkpt lat="43.74693" lon="7.0147">
        <ele>881.2</ele>
        <time>2009-04-30T11:00:09Z</time>
      </trkpt>
      <trkpt lat="43.7471" lon="7.01439">
        <ele>882.1</ele>
        <time>2009-04-30T11:00:23Z</time>
      </trkpt>
      <trkpt lat="43.74728" lon="7.01406">
        <ele>883.1</ele>
        <time>2009-04-30T11:00:38Z</time>
      </trkpt>
      <trkpt lat="43.74751" lon="7.01406">
        <ele>882.1</ele>
        <time>2009-04-30T11:01:16Z</time>
      </trkpt>
      <trkpt lat="43.74773" lon="7.01434">
        <ele>882.1</ele>
        <time>2009-04-30T11:01:25Z</time>
      </trkpt>
      <trkpt lat="43.74795" lon="7.01458">
        <ele>883.1</ele>
        <time>2009-04-30T11:01:37Z</time>
      </trkpt>
      <trkpt lat="43.74815" lon="7.0148">
        <ele>885.5</ele>
        <time>2009-04-30T11:01:49Z</time>
      </trkpt>
      <trkpt lat="43.74835" lon="7.01509">
        <ele>882.6</ele>
        <time>2009-04-30T11:01:58Z</time>
      </trkpt>
      <trkpt lat="43.74853" lon="7.01541">
        <ele>884.6</ele>
        <time>2009-04-30T11:02:10Z</time>
      </trkpt>
      <trkpt lat="43.74877" lon="7.01565">
        <ele>888.9</ele>
        <time>2009-04-30T11:02:26Z</time>
      </trkpt>
      <trkpt lat="43.74902" lon="7.01576">
        <ele>892.7</ele>
        <time>2009-04-30T11:02:42Z</time>
      </trkpt>
      <trkpt lat="43.74927" lon="7.01586">
        <ele>896.6</ele>
        <time>2009-04-30T11:03:02Z</time>
      </trkpt>
      <trkpt lat="43.74955" lon="7.01596">
        <ele>903.3</ele>
        <time>2009-04-30T11:03:43Z</time>
      </trkpt>
      <trkpt lat="43.74984" lon="7.01609">
        <ele>909.1</ele>
        <time>2009-04-30T11:04:45Z</time>
      </trkpt>
      <trkpt lat="43.75015" lon="7.01616">
        <ele>914.4</ele>
        <time>2009-04-30T11:05:30Z</time>
      </trkpt>
      <trkpt lat="43.75044" lon="7.01623">
        <ele>917.2</ele>
        <time>2009-04-30T11:06:31Z</time>
      </trkpt>
      <trkpt lat="43.75076" lon="7.01628">
        <ele>920.1</ele>
        <time>2009-04-30T11:07:08Z</time>
      </trkpt>
      <trkpt lat="43.75102" lon="7.01611">
        <ele>925.4</ele>
        <time>2009-04-30T11:08:00Z</time>
      </trkpt>
      <trkpt lat="43.75129" lon="7.0161">
        <ele>929.3</ele>
        <time>2009-04-30T11:08:41Z</time>
      </trkpt>
      <trkpt lat="43.75155" lon="7.01622">
        <ele>928.8</ele>
        <time>2009-04-30T11:08:49Z</time>
      </trkpt>
      <trkpt lat="43.7518" lon="7.01639">
        <ele>928.8</ele>
        <time>2009-04-30T11:08:57Z</time>
      </trkpt>
      <trkpt lat="43.75204" lon="7.01667">
        <ele>927.3</ele>
        <time>2009-04-30T11:09:06Z</time>
      </trkpt>
      <trkpt lat="43.75227" lon="7.01687">
        <ele>925.9</ele>
        <time>2009-04-30T11:09:14Z</time>
      </trkpt>
      <trkpt lat="43.75251" lon="7.01708">
        <ele>925.9</ele>
        <time>2009-04-30T11:09:22Z</time>
      </trkpt>
      <trkpt lat="43.75274" lon="7.01728">
        <ele>927.8</ele>
        <time>2009-04-30T11:09:30Z</time>
      </trkpt>
      <trkpt lat="43.75297" lon="7.01747">
        <ele>931.7</ele>
        <time>2009-04-30T11:09:39Z</time>
      </trkpt>
      <trkpt lat="43.75323" lon="7.01766">
        <ele>933.6</ele>
        <time>2009-04-30T11:09:49Z</time>
      </trkpt>
      <trkpt lat="43.75346" lon="7.01788">
        <ele>938.4</ele>
        <time>2009-04-30T11:10:00Z</time>
      </trkpt>
      <trkpt lat="43.75371" lon="7.01798">
        <ele>939.8</ele>
        <time>2009-04-30T11:10:23Z</time>
      </trkpt>
      <trkpt lat="43.754" lon="7.01792">
        <ele>939.8</ele>
        <time>2009-04-30T11:10:35Z</time>
      </trkpt>
      <trkpt lat="43.75429" lon="7.0179">
        <ele>942.2</ele>
        <time>2009-04-30T11:10:46Z</time>
      </trkpt>
      <trkpt lat="43.75455" lon="7.01803">
        <ele>942.7</ele>
        <time>2009-04-30T11:10:58Z</time>
      </trkpt>
      <trkpt lat="43.75482" lon="7.0181">
        <ele>942.2</ele>
        <time>2009-04-30T11:11:07Z</time>
      </trkpt>
      <trkpt lat="43.75511" lon="7.01817">
        <ele>942.2</ele>
        <time>2009-04-30T11:11:15Z</time>
      </trkpt>
      <trkpt lat="43.75538" lon="7.01823">
        <ele>941.3</ele>
        <time>2009-04-30T11:11:22Z</time>
      </trkpt>
      <trkpt lat="43.7557" lon="7.0183">
        <ele>939.8</ele>
        <time>2009-04-30T11:11:28Z</time>
      </trkpt>
      <trkpt lat="43.75597" lon="7.01835">
        <ele>939.8</ele>
        <time>2009-04-30T11:11:33Z</time>
      </trkpt>
      <trkpt lat="43.75624" lon="7.0184">
        <ele>941.3</ele>
        <time>2009-04-30T11:11:43Z</time>
      </trkpt>
      <trkpt lat="43.7565" lon="7.01849">
        <ele>943.2</ele>
        <time>2009-04-30T11:11:57Z</time>
      </trkpt>
      <trkpt lat="43.75678" lon="7.01857">
        <ele>944.2</ele>
        <time>2009-04-30T11:12:10Z</time>
      </trkpt>
      <trkpt lat="43.75704" lon="7.01866">
        <ele>944.6</ele>
        <time>2009-04-30T11:12:20Z</time>
      </trkpt>
      <trkpt lat="43.75734" lon="7.01877">
        <ele>946.6</ele>
        <time>2009-04-30T11:12:31Z</time>
      </trkpt>
      <trkpt lat="43.75763" lon="7.01891">
        <ele>949</ele>
        <time>2009-04-30T11:12:42Z</time>
      </trkpt>
      <trkpt lat="43.7579" lon="7.01901">
        <ele>949.9</ele>
        <time>2009-04-30T11:12:53Z</time>
      </trkpt>
      <trkpt lat="43.75816" lon="7.01914">
        <ele>950.4</ele>
        <time>2009-04-30T11:13:04Z</time>
      </trkpt>
      <trkpt lat="43.75843" lon="7.01929">
        <ele>952.8</ele>
        <time>2009-04-30T11:13:17Z</time>
      </trkpt>
      <trkpt lat="43.75867" lon="7.01948">
        <ele>956.6</ele>
        <time>2009-04-30T11:13:32Z</time>
      </trkpt>
      <trkpt lat="43.75894" lon="7.01959">
        <ele>958.6</ele>
        <time>2009-04-30T11:13:47Z</time>
      </trkpt>
      <trkpt lat="43.75921" lon="7.01971">
        <ele>961</ele>
        <time>2009-04-30T11:14:02Z</time>
      </trkpt>
      <trkpt lat="43.75946" lon="7.01986">
        <ele>959.1</ele>
        <time>2009-04-30T11:14:15Z</time>
      </trkpt>
      <trkpt lat="43.75971" lon="7.02001">
        <ele>958.1</ele>
        <time>2009-04-30T11:14:25Z</time>
      </trkpt>
      <trkpt lat="43.75996" lon="7.02021">
        <ele>958.1</ele>
        <time>2009-04-30T11:14:35Z</time>
      </trkpt>
      <trkpt lat="43.76021" lon="7.02038">
        <ele>959.1</ele>
        <time>2009-04-30T11:14:51Z</time>
      </trkpt>
      <trkpt lat="43.76045" lon="7.0206">
        <ele>960.5</ele>
        <time>2009-04-30T11:15:11Z</time>
      </trkpt>
      <trkpt lat="43.76068" lon="7.02081">
        <ele>961.5</ele>
        <time>2009-04-30T11:15:30Z</time>
      </trkpt>
      <trkpt lat="43.76093" lon="7.02102">
        <ele>963.9</ele>
        <time>2009-04-30T11:15:51Z</time>
      </trkpt>
      <trkpt lat="43.76121" lon="7.02124">
        <ele>968.2</ele>
        <time>2009-04-30T11:16:11Z</time>
      </trkpt>
      <trkpt lat="43.76146" lon="7.02149">
        <ele>969.6</ele>
        <time>2009-04-30T11:16:32Z</time>
      </trkpt>
      <trkpt lat="43.76172" lon="7.02168">
        <ele>973.5</ele>
        <time>2009-04-30T11:16:53Z</time>
      </trkpt>
      <trkpt lat="43.762" lon="7.02187">
        <ele>978.3</ele>
        <time>2009-04-30T11:17:14Z</time>
      </trkpt>
      <trkpt lat="43.76223" lon="7.02186">
        <ele>982.1</ele>
        <time>2009-04-30T11:17:35Z</time>
      </trkpt>
      <trkpt lat="43.76247" lon="7.02184">
        <ele>986.9</ele>
        <time>2009-04-30T11:17:55Z</time>
      </trkpt>
      <trkpt lat="43.76258" lon="7.02218">
        <ele>986.4</ele>
        <time>2009-04-30T11:18:16Z</time>
      </trkpt>
      <trkpt lat="43.76271" lon="7.0225">
        <ele>989.8</ele>
        <time>2009-04-30T11:18:36Z</time>
      </trkpt>
      <trkpt lat="43.76286" lon="7.02283">
        <ele>992.7</ele>
        <time>2009-04-30T11:18:57Z</time>
      </trkpt>
      <trkpt lat="43.76299" lon="7.02315">
        <ele>992.7</ele>
        <time>2009-04-30T11:19:11Z</time>
      </trkpt>
      <trkpt lat="43.76309" lon="7.0235">
        <ele>993.7</ele>
        <time>2009-04-30T11:19:24Z</time>
      </trkpt>
      <trkpt lat="43.7633" lon="7.02374">
        <ele>996.1</ele>
        <time>2009-04-30T11:19:44Z</time>
      </trkpt>
      <trkpt lat="43.76352" lon="7.02394">
        <ele>998</ele>
        <time>2009-04-30T11:20:07Z</time>
      </trkpt>
      <trkpt lat="43.76376" lon="7.02411">
        <ele>998.5</ele>
        <time>2009-04-30T11:20:25Z</time>
      </trkpt>
      <trkpt lat="43.764" lon="7.02428">
        <ele>1001.8</ele>
        <time>2009-04-30T11:20:46Z</time>
      </trkpt>
      <trkpt lat="43.76424" lon="7.02448">
        <ele>1004.2</ele>
        <time>2009-04-30T11:21:09Z</time>
      </trkpt>
      <trkpt lat="43.7645" lon="7.02461">
        <ele>1007.1</ele>
        <time>2009-04-30T11:21:29Z</time>
      </trkpt>
      <trkpt lat="43.76477" lon="7.02472">
        <ele>1010.5</ele>
        <time>2009-04-30T11:21:48Z</time>
      </trkpt>
      <trkpt lat="43.76505" lon="7.02474">
        <ele>1013.4</ele>
        <time>2009-04-30T11:22:07Z</time>
      </trkpt>
      <trkpt lat="43.76531" lon="7.02473">
        <ele>1014.3</ele>
        <time>2009-04-30T11:22:23Z</time>
      </trkpt>
      <trkpt lat="43.76559" lon="7.02482">
        <ele>1012.9</ele>
        <time>2009-04-30T11:22:36Z</time>
      </trkpt>
      <trkpt lat="43.76582" lon="7.02501">
        <ele>1013.4</ele>
        <time>2009-04-30T11:22:49Z</time>
      </trkpt>
      <trkpt lat="43.76607" lon="7.02518">
        <ele>1012.9</ele>
        <time>2009-04-30T11:23:05Z</time>
      </trkpt>
      <trkpt lat="43.76632" lon="7.02538">
        <ele>1013.4</ele>
        <time>2009-04-30T11:23:20Z</time>
      </trkpt>
      <trkpt lat="43.76655" lon="7.02554">
        <ele>1012.4</ele>
        <time>2009-04-30T11:23:33Z</time>
      </trkpt>
      <trkpt lat="43.76679" lon="7.02573">
        <ele>1012.9</ele>
        <time>2009-04-30T11:23:45Z</time>
      </trkpt>
      <trkpt lat="43.76705" lon="7.02592">
        <ele>1015.8</ele>
        <time>2009-04-30T11:23:57Z</time>
      </trkpt>
      <trkpt lat="43.76731" lon="7.0261">
        <ele>1014.3</ele>
        <time>2009-04-30T11:24:09Z</time>
      </trkpt>
      <trkpt lat="43.76756" lon="7.02629">
        <ele>1016.7</ele>
        <time>2009-04-30T11:24:20Z</time>
      </trkpt>
      <trkpt lat="43.76781" lon="7.02647">
        <ele>1015.3</ele>
        <time>2009-04-30T11:24:31Z</time>
      </trkpt>
      <trkpt lat="43.76807" lon="7.02667">
        <ele>1016.3</ele>
        <time>2009-04-30T11:24:42Z</time>
      </trkpt>
      <trkpt lat="43.76833" lon="7.02683">
        <ele>1017.7</ele>
        <time>2009-04-30T11:24:54Z</time>
      </trkpt>
      <trkpt lat="43.76859" lon="7.02692">
        <ele>1021.5</ele>
        <time>2009-04-30T11:25:16Z</time>
      </trkpt>
      <trkpt lat="43.76882" lon="7.02696">
        <ele>1021.1</ele>
        <time>2009-04-30T11:33:00Z</time>
      </trkpt>
      <trkpt lat="43.76911" lon="7.02701">
        <ele>1022.5</ele>
        <time>2009-04-30T11:33:19Z</time>
      </trkpt>
      <trkpt lat="43.76938" lon="7.02708">
        <ele>1025.4</ele>
        <time>2009-04-30T11:33:39Z</time>
      </trkpt>
      <trkpt lat="43.76965" lon="7.02716">
        <ele>1029.7</ele>
        <time>2009-04-30T11:34:01Z</time>
      </trkpt>
      <trkpt lat="43.76988" lon="7.02731">
        <ele>1035.5</ele>
        <time>2009-04-30T11:34:37Z</time>
      </trkpt>
      <trkpt lat="43.76988" lon="7.02769">
        <ele>1037.9</ele>
        <time>2009-04-30T11:35:08Z</time>
      </trkpt>
      <trkpt lat="43.76984" lon="7.02806">
        <ele>1040.3</ele>
        <time>2009-04-30T11:35:28Z</time>
      </trkpt>
      <trkpt lat="43.76976" lon="7.02842">
        <ele>1040.8</ele>
        <time>2009-04-30T11:35:40Z</time>
      </trkpt>
      <trkpt lat="43.76981" lon="7.02881">
        <ele>1043.2</ele>
        <time>2009-04-30T11:35:56Z</time>
      </trkpt>
      <trkpt lat="43.76982" lon="7.0292">
        <ele>1046.5</ele>
        <time>2009-04-30T11:36:16Z</time>
      </trkpt>
      <trkpt lat="43.76981" lon="7.02958">
        <ele>1047.5</ele>
        <time>2009-04-30T11:36:35Z</time>
      </trkpt>
      <trkpt lat="43.76976" lon="7.02997">
        <ele>1049.9</ele>
        <time>2009-04-30T11:36:51Z</time>
      </trkpt>
      <trkpt lat="43.7697" lon="7.03036">
        <ele>1052.3</ele>
        <time>2009-04-30T11:37:04Z</time>
      </trkpt>
      <trkpt lat="43.76964" lon="7.03073">
        <ele>1054.7</ele>
        <time>2009-04-30T11:37:16Z</time>
      </trkpt>
      <trkpt lat="43.76956" lon="7.03112">
        <ele>1055.2</ele>
        <time>2009-04-30T11:37:29Z</time>
      </trkpt>
      <trkpt lat="43.76952" lon="7.03149">
        <ele>1054.7</ele>
        <time>2009-04-30T11:37:38Z</time>
      </trkpt>
      <trkpt lat="43.76955" lon="7.03189">
        <ele>1054.2</ele>
        <time>2009-04-30T11:37:48Z</time>
      </trkpt>
      <trkpt lat="43.76965" lon="7.03224">
        <ele>1056.1</ele>
        <time>2009-04-30T11:38:02Z</time>
      </trkpt>
      <trkpt lat="43.76975" lon="7.0326">
        <ele>1059</ele>
        <time>2009-04-30T11:38:17Z</time>
      </trkpt>
      <trkpt lat="43.76986" lon="7.03294">
        <ele>1060</ele>
        <time>2009-04-30T11:38:33Z</time>
      </trkpt>
      <trkpt lat="43.77" lon="7.03324">
        <ele>1062.4</ele>
        <time>2009-04-30T11:39:18Z</time>
      </trkpt>
      <trkpt lat="43.76999" lon="7.03288">
        <ele>1063.8</ele>
        <time>2009-04-30T11:40:15Z</time>
      </trkpt>
      <trkpt lat="43.76996" lon="7.03252">
        <ele>1068.2</ele>
        <time>2009-04-30T11:40:34Z</time>
      </trkpt>
      <trkpt lat="43.76994" lon="7.03214">
        <ele>1071.5</ele>
        <time>2009-04-30T11:40:54Z</time>
      </trkpt>
      <trkpt lat="43.76991" lon="7.03176">
        <ele>1073.4</ele>
        <time>2009-04-30T11:41:13Z</time>
      </trkpt>
      <trkpt lat="43.77004" lon="7.03144">
        <ele>1078.3</ele>
        <time>2009-04-30T11:41:33Z</time>
      </trkpt>
      <trkpt lat="43.77025" lon="7.03119">
        <ele>1078.7</ele>
        <time>2009-04-30T11:41:52Z</time>
      </trkpt>
      <trkpt lat="43.77048" lon="7.03098">
        <ele>1078.3</ele>
        <time>2009-04-30T11:42:10Z</time>
      </trkpt>
      <trkpt lat="43.7707" lon="7.03076">
        <ele>1080.2</ele>
        <time>2009-04-30T11:42:28Z</time>
      </trkpt>
      <trkpt lat="43.77091" lon="7.03053">
        <ele>1084</ele>
        <time>2009-04-30T11:42:47Z</time>
      </trkpt>
      <trkpt lat="43.77109" lon="7.03025">
        <ele>1088.8</ele>
        <time>2009-04-30T11:43:09Z</time>
      </trkpt>
      <trkpt lat="43.77119" lon="7.02991">
        <ele>1091.7</ele>
        <time>2009-04-30T11:43:28Z</time>
      </trkpt>
      <trkpt lat="43.77136" lon="7.02963">
        <ele>1094.1</ele>
        <time>2009-04-30T11:43:47Z</time>
      </trkpt>
      <trkpt lat="43.77149" lon="7.0293">
        <ele>1099.4</ele>
        <time>2009-04-30T11:44:07Z</time>
      </trkpt>
      <trkpt lat="43.77155" lon="7.02959">
        <ele>1101.3</ele>
        <time>2009-04-30T11:44:29Z</time>
      </trkpt>
      <trkpt lat="43.77148" lon="7.02995">
        <ele>1102.8</ele>
        <time>2009-04-30T11:44:47Z</time>
      </trkpt>
      <trkpt lat="43.77142" lon="7.03031">
        <ele>1102.8</ele>
        <time>2009-04-30T11:45:02Z</time>
      </trkpt>
      <trkpt lat="43.77136" lon="7.03069">
        <ele>1104.2</ele>
        <time>2009-04-30T11:45:17Z</time>
      </trkpt>
      <trkpt lat="43.7713" lon="7.03106">
        <ele>1104.2</ele>
        <time>2009-04-30T11:45:31Z</time>
      </trkpt>
      <trkpt lat="43.77117" lon="7.0314">
        <ele>1107.1</ele>
        <time>2009-04-30T11:45:46Z</time>
      </trkpt>
      <trkpt lat="43.77115" lon="7.03179">
        <ele>1108.5</ele>
        <time>2009-04-30T11:46:01Z</time>
      </trkpt>
      <trkpt lat="43.77115" lon="7.03217">
        <ele>1110.5</ele>
        <time>2009-04-30T11:46:15Z</time>
      </trkpt>
      <trkpt lat="43.77112" lon="7.03255">
        <ele>1111.9</ele>
        <time>2009-04-30T11:46:28Z</time>
      </trkpt>
      <trkpt lat="43.77117" lon="7.03294">
        <ele>1111.9</ele>
        <time>2009-04-30T11:46:39Z</time>
      </trkpt>
      <trkpt lat="43.77129" lon="7.0333">
        <ele>1112.4</ele>
        <time>2009-04-30T11:46:49Z</time>
      </trkpt>
      <trkpt lat="43.77142" lon="7.03367">
        <ele>1112.4</ele>
        <time>2009-04-30T11:46:58Z</time>
      </trkpt>
      <trkpt lat="43.77157" lon="7.03402">
        <ele>1111.9</ele>
        <time>2009-04-30T11:47:06Z</time>
      </trkpt>
      <trkpt lat="43.77168" lon="7.03439">
        <ele>1110.9</ele>
        <time>2009-04-30T11:47:13Z</time>
      </trkpt>
      <trkpt lat="43.77177" lon="7.03477">
        <ele>1110.9</ele>
        <time>2009-04-30T11:47:21Z</time>
      </trkpt>
      <trkpt lat="43.77184" lon="7.03514">
        <ele>1111.4</ele>
        <time>2009-04-30T11:47:29Z</time>
      </trkpt>
      <trkpt lat="43.77179" lon="7.03554">
        <ele>1111.4</ele>
        <time>2009-04-30T11:47:38Z</time>
      </trkpt>
      <trkpt lat="43.77168" lon="7.0359">
        <ele>1111.4</ele>
        <time>2009-04-30T11:47:47Z</time>
      </trkpt>
      <trkpt lat="43.77166" lon="7.03628">
        <ele>1113.8</ele>
        <time>2009-04-30T11:47:56Z</time>
      </trkpt>
      <trkpt lat="43.77172" lon="7.03664">
        <ele>1113.8</ele>
        <time>2009-04-30T11:48:05Z</time>
      </trkpt>
      <trkpt lat="43.77193" lon="7.03689">
        <ele>1113.3</ele>
        <time>2009-04-30T11:48:13Z</time>
      </trkpt>
      <trkpt lat="43.77208" lon="7.03723">
        <ele>1111.4</ele>
        <time>2009-04-30T11:48:19Z</time>
      </trkpt>
      <trkpt lat="43.77228" lon="7.03752">
        <ele>1108.1</ele>
        <time>2009-04-30T11:48:25Z</time>
      </trkpt>
      <trkpt lat="43.77253" lon="7.03772">
        <ele>1104.2</ele>
        <time>2009-04-30T11:48:32Z</time>
      </trkpt>
      <trkpt lat="43.77276" lon="7.03799">
        <ele>1102.3</ele>
        <time>2009-04-30T11:48:38Z</time>
      </trkpt>
      <trkpt lat="43.77298" lon="7.03826">
        <ele>1098.4</ele>
        <time>2009-04-30T11:48:43Z</time>
      </trkpt>
      <trkpt lat="43.77307" lon="7.03865">
        <ele>1095.1</ele>
        <time>2009-04-30T11:48:48Z</time>
      </trkpt>
      <trkpt lat="43.77311" lon="7.03905">
        <ele>1091.7</ele>
        <time>2009-04-30T11:48:55Z</time>
      </trkpt>
      <trkpt lat="43.77312" lon="7.03943">
        <ele>1090.3</ele>
        <time>2009-04-30T11:49:04Z</time>
      </trkpt>
      <trkpt lat="43.7731" lon="7.03983">
        <ele>1086.9</ele>
        <time>2009-04-30T11:49:11Z</time>
      </trkpt>
      <trkpt lat="43.77309" lon="7.04023">
        <ele>1085.5</ele>
        <time>2009-04-30T11:49:19Z</time>
      </trkpt>
      <trkpt lat="43.77306" lon="7.04065">
        <ele>1081.6</ele>
        <time>2009-04-30T11:49:27Z</time>
      </trkpt>
      <trkpt lat="43.77305" lon="7.04107">
        <ele>1078.7</ele>
        <time>2009-04-30T11:49:36Z</time>
      </trkpt>
      <trkpt lat="43.77304" lon="7.04146">
        <ele>1076.8</ele>
        <time>2009-04-30T11:49:42Z</time>
      </trkpt>
      <trkpt lat="43.77303" lon="7.04185">
        <ele>1073.9</ele>
        <time>2009-04-30T11:49:49Z</time>
      </trkpt>
      <trkpt lat="43.77321" lon="7.04212">
        <ele>1071</ele>
        <time>2009-04-30T11:49:56Z</time>
      </trkpt>
      <trkpt lat="43.77348" lon="7.04193">
        <ele>1068.6</ele>
        <time>2009-04-30T11:50:03Z</time>
      </trkpt>
      <trkpt lat="43.77369" lon="7.04165">
        <ele>1064.8</ele>
        <time>2009-04-30T11:50:08Z</time>
      </trkpt>
      <trkpt lat="43.77396" lon="7.04139">
        <ele>1061</ele>
        <time>2009-04-30T11:50:13Z</time>
      </trkpt>
      <trkpt lat="43.77422" lon="7.04122">
        <ele>1057.6</ele>
        <time>2009-04-30T11:50:17Z</time>
      </trkpt>
      <trkpt lat="43.77452" lon="7.04111">
        <ele>1057.1</ele>
        <time>2009-04-30T11:50:21Z</time>
      </trkpt>
      <trkpt lat="43.77483" lon="7.04106">
        <ele>1054.2</ele>
        <time>2009-04-30T11:50:25Z</time>
      </trkpt>
      <trkpt lat="43.77515" lon="7.04105">
        <ele>1052.8</ele>
        <time>2009-04-30T11:50:29Z</time>
      </trkpt>
      <trkpt lat="43.77547" lon="7.04108">
        <ele>1050.9</ele>
        <time>2009-04-30T11:50:33Z</time>
      </trkpt>
      <trkpt lat="43.7758" lon="7.04098">
        <ele>1047</ele>
        <time>2009-04-30T11:50:37Z</time>
      </trkpt>
      <trkpt lat="43.77606" lon="7.04084">
        <ele>1044.1</ele>
        <time>2009-04-30T11:50:40Z</time>
      </trkpt>
      <trkpt lat="43.7763" lon="7.04064">
        <ele>1042.2</ele>
        <time>2009-04-30T11:50:43Z</time>
      </trkpt>
      <trkpt lat="43.77654" lon="7.04037">
        <ele>1040.8</ele>
        <time>2009-04-30T11:50:47Z</time>
      </trkpt>
      <trkpt lat="43.77681" lon="7.04022">
        <ele>1039.3</ele>
        <time>2009-04-30T11:50:51Z</time>
      </trkpt>
      <trkpt lat="43.77708" lon="7.04011">
        <ele>1038.4</ele>
        <time>2009-04-30T11:50:55Z</time>
      </trkpt>
      <trkpt lat="43.77736" lon="7.03995">
        <ele>1037.4</ele>
        <time>2009-04-30T11:50:59Z</time>
      </trkpt>
      <trkpt lat="43.77766" lon="7.03988">
        <ele>1037.4</ele>
        <time>2009-04-30T11:51:04Z</time>
      </trkpt>
      <trkpt lat="43.77795" lon="7.03985">
        <ele>1036.4</ele>
        <time>2009-04-30T11:51:11Z</time>
      </trkpt>
      <trkpt lat="43.77824" lon="7.03974">
        <ele>1036.4</ele>
        <time>2009-04-30T11:51:19Z</time>
      </trkpt>
      <trkpt lat="43.77851" lon="7.03976">
        <ele>1038.8</ele>
        <time>2009-04-30T11:51:28Z</time>
      </trkpt>
      <trkpt lat="43.7788" lon="7.03987">
        <ele>1040.8</ele>
        <time>2009-04-30T11:51:39Z</time>
      </trkpt>
      <trkpt lat="43.77907" lon="7.03992">
        <ele>1041.7</ele>
        <time>2009-04-30T11:51:50Z</time>
      </trkpt>
      <trkpt lat="43.77936" lon="7.03993">
        <ele>1043.2</ele>
        <time>2009-04-30T11:52:00Z</time>
      </trkpt>
      <trkpt lat="43.77964" lon="7.03999">
        <ele>1043.2</ele>
        <time>2009-04-30T11:52:08Z</time>
      </trkpt>
      <trkpt lat="43.77991" lon="7.04004">
        <ele>1043.6</ele>
        <time>2009-04-30T11:52:15Z</time>
      </trkpt>
      <trkpt lat="43.78018" lon="7.04001">
        <ele>1042.7</ele>
        <time>2009-04-30T11:52:22Z</time>
      </trkpt>
      <trkpt lat="43.78047" lon="7.03997">
        <ele>1043.2</ele>
        <time>2009-04-30T11:52:30Z</time>
      </trkpt>
      <trkpt lat="43.78074" lon="7.04007">
        <ele>1042.2</ele>
        <time>2009-04-30T11:52:37Z</time>
      </trkpt>
      <trkpt lat="43.78096" lon="7.04029">
        <ele>1042.7</ele>
        <time>2009-04-30T11:52:43Z</time>
      </trkpt>
      <trkpt lat="43.78122" lon="7.04038">
        <ele>1041.2</ele>
        <time>2009-04-30T11:52:49Z</time>
      </trkpt>
      <trkpt lat="43.78152" lon="7.04029">
        <ele>1040.3</ele>
        <time>2009-04-30T11:52:54Z</time>
      </trkpt>
      <trkpt lat="43.78179" lon="7.04044">
        <ele>1041.2</ele>
        <time>2009-04-30T11:52:59Z</time>
      </trkpt>
      <trkpt lat="43.78208" lon="7.0406">
        <ele>1037.9</ele>
        <time>2009-04-30T11:53:05Z</time>
      </trkpt>
      <trkpt lat="43.78235" lon="7.04077">
        <ele>1035</ele>
        <time>2009-04-30T11:53:09Z</time>
      </trkpt>
      <trkpt lat="43.78253" lon="7.04115">
        <ele>1032.6</ele>
        <time>2009-04-30T11:53:13Z</time>
      </trkpt>
      <trkpt lat="43.78269" lon="7.04156">
        <ele>1031.2</ele>
        <time>2009-04-30T11:53:17Z</time>
      </trkpt>
      <trkpt lat="43.78279" lon="7.042">
        <ele>1029.7</ele>
        <time>2009-04-30T11:53:21Z</time>
      </trkpt>
      <trkpt lat="43.78295" lon="7.04205">
        <ele>1029.7</ele>
        <time>2009-04-30T11:53:26Z</time>
      </trkpt>
      <trkpt lat="43.78287" lon="7.04159">
        <ele>1027.3</ele>
        <time>2009-04-30T11:53:32Z</time>
      </trkpt>
      <trkpt lat="43.78283" lon="7.0412">
        <ele>1024.9</ele>
        <time>2009-04-30T11:53:36Z</time>
      </trkpt>
      <trkpt lat="43.78289" lon="7.04076">
        <ele>1023</ele>
        <time>2009-04-30T11:53:40Z</time>
      </trkpt>
      <trkpt lat="43.78313" lon="7.04054">
        <ele>1021.1</ele>
        <time>2009-04-30T11:53:44Z</time>
      </trkpt>
      <trkpt lat="43.78349" lon="7.04061">
        <ele>1017.7</ele>
        <time>2009-04-30T11:53:48Z</time>
      </trkpt>
      <trkpt lat="43.78385" lon="7.04052">
        <ele>1013.8</ele>
        <time>2009-04-30T11:53:52Z</time>
      </trkpt>
      <trkpt lat="43.78413" lon="7.04044">
        <ele>1013.4</ele>
        <time>2009-04-30T11:53:55Z</time>
      </trkpt>
      <trkpt lat="43.78439" lon="7.04032">
        <ele>1011</ele>
        <time>2009-04-30T11:53:58Z</time>
      </trkpt>
      <trkpt lat="43.78451" lon="7.03991">
        <ele>1009.5</ele>
        <time>2009-04-30T11:54:02Z</time>
      </trkpt>
      <trkpt lat="43.78473" lon="7.03968">
        <ele>1008.1</ele>
        <time>2009-04-30T11:54:06Z</time>
      </trkpt>
      <trkpt lat="43.78506" lon="7.03967">
        <ele>1005.7</ele>
        <time>2009-04-30T11:54:10Z</time>
      </trkpt>
      <trkpt lat="43.78539" lon="7.03957">
        <ele>1003.3</ele>
        <time>2009-04-30T11:54:14Z</time>
      </trkpt>
      <trkpt lat="43.78557" lon="7.03917">
        <ele>1001.4</ele>
        <time>2009-04-30T11:54:18Z</time>
      </trkpt>
      <trkpt lat="43.78569" lon="7.03872">
        <ele>999.9</ele>
        <time>2009-04-30T11:54:22Z</time>
      </trkpt>
      <trkpt lat="43.78563" lon="7.03829">
        <ele>1001.8</ele>
        <time>2009-04-30T11:54:26Z</time>
      </trkpt>
      <trkpt lat="43.78559" lon="7.03789">
        <ele>999.9</ele>
        <time>2009-04-30T11:54:30Z</time>
      </trkpt>
      <trkpt lat="43.78585" lon="7.03766">
        <ele>997.5</ele>
        <time>2009-04-30T11:54:34Z</time>
      </trkpt>
      <trkpt lat="43.78614" lon="7.03779">
        <ele>994.1</ele>
        <time>2009-04-30T11:54:38Z</time>
      </trkpt>
      <trkpt lat="43.78634" lon="7.03802">
        <ele>991.3</ele>
        <time>2009-04-30T11:54:42Z</time>
      </trkpt>
      <trkpt lat="43.78662" lon="7.03782">
        <ele>988.4</ele>
        <time>2009-04-30T11:54:46Z</time>
      </trkpt>
      <trkpt lat="43.78692" lon="7.03753">
        <ele>985.5</ele>
        <time>2009-04-30T11:54:50Z</time>
      </trkpt>
      <trkpt lat="43.78703" lon="7.03718">
        <ele>983.1</ele>
        <time>2009-04-30T11:54:53Z</time>
      </trkpt>
      <trkpt lat="43.78711" lon="7.03669">
        <ele>980.2</ele>
        <time>2009-04-30T11:54:57Z</time>
      </trkpt>
      <trkpt lat="43.78719" lon="7.0362">
        <ele>977.8</ele>
        <time>2009-04-30T11:55:01Z</time>
      </trkpt>
      <trkpt lat="43.78725" lon="7.03584">
        <ele>975.4</ele>
        <time>2009-04-30T11:55:04Z</time>
      </trkpt>
      <trkpt lat="43.78734" lon="7.03549">
        <ele>973.5</ele>
        <time>2009-04-30T11:55:07Z</time>
      </trkpt>
      <trkpt lat="43.78757" lon="7.03512">
        <ele>972</ele>
        <time>2009-04-30T11:55:11Z</time>
      </trkpt>
      <trkpt lat="43.7878" lon="7.03483">
        <ele>972</ele>
        <time>2009-04-30T11:55:15Z</time>
      </trkpt>
      <trkpt lat="43.78802" lon="7.0346">
        <ele>971.5</ele>
        <time>2009-04-30T11:55:19Z</time>
      </trkpt>
      <trkpt lat="43.78827" lon="7.03439">
        <ele>971.5</ele>
        <time>2009-04-30T11:55:24Z</time>
      </trkpt>
      <trkpt lat="43.78853" lon="7.03443">
        <ele>973.5</ele>
        <time>2009-04-30T11:55:31Z</time>
      </trkpt>
      <trkpt lat="43.7888" lon="7.03459">
        <ele>973</ele>
        <time>2009-04-30T11:55:38Z</time>
      </trkpt>
      <trkpt lat="43.78912" lon="7.0345">
        <ele>973.5</ele>
        <time>2009-04-30T11:55:44Z</time>
      </trkpt>
      <trkpt lat="43.78941" lon="7.03426">
        <ele>971.1</ele>
        <time>2009-04-30T11:55:49Z</time>
      </trkpt>
      <trkpt lat="43.78966" lon="7.03399">
        <ele>967.7</ele>
        <time>2009-04-30T11:55:53Z</time>
      </trkpt>
      <trkpt lat="43.78987" lon="7.03371">
        <ele>964.8</ele>
        <time>2009-04-30T11:55:58Z</time>
      </trkpt>
      <trkpt lat="43.79015" lon="7.03347">
        <ele>961.5</ele>
        <time>2009-04-30T11:56:03Z</time>
      </trkpt>
      <trkpt lat="43.79037" lon="7.03323">
        <ele>959.5</ele>
        <time>2009-04-30T11:56:07Z</time>
      </trkpt>
      <trkpt lat="43.79037" lon="7.03345">
        <ele>956.2</ele>
        <time>2009-04-30T11:56:13Z</time>
      </trkpt>
      <trkpt lat="43.79021" lon="7.03381">
        <ele>954.2</ele>
        <time>2009-04-30T11:56:17Z</time>
      </trkpt>
      <trkpt lat="43.79006" lon="7.03421">
        <ele>952.8</ele>
        <time>2009-04-30T11:56:21Z</time>
      </trkpt>
      <trkpt lat="43.78991" lon="7.03467">
        <ele>950.9</ele>
        <time>2009-04-30T11:56:25Z</time>
      </trkpt>
      <trkpt lat="43.78992" lon="7.03504">
        <ele>948.5</ele>
        <time>2009-04-30T11:56:28Z</time>
      </trkpt>
      <trkpt lat="43.78988" lon="7.03544">
        <ele>945.1</ele>
        <time>2009-04-30T11:56:31Z</time>
      </trkpt>
      <trkpt lat="43.78974" lon="7.03585">
        <ele>942.2</ele>
        <time>2009-04-30T11:56:34Z</time>
      </trkpt>
      <trkpt lat="43.78973" lon="7.03626">
        <ele>940.8</ele>
        <time>2009-04-30T11:56:37Z</time>
      </trkpt>
      <trkpt lat="43.7897" lon="7.03663">
        <ele>937.9</ele>
        <time>2009-04-30T11:56:41Z</time>
      </trkpt>
      <trkpt lat="43.78996" lon="7.03684">
        <ele>937.9</ele>
        <time>2009-04-30T11:56:47Z</time>
      </trkpt>
      <trkpt lat="43.79024" lon="7.03695">
        <ele>936.9</ele>
        <time>2009-04-30T11:56:52Z</time>
      </trkpt>
      <trkpt lat="43.79056" lon="7.03693">
        <ele>937.4</ele>
        <time>2009-04-30T11:56:58Z</time>
      </trkpt>
      <trkpt lat="43.79083" lon="7.03675">
        <ele>939.3</ele>
        <time>2009-04-30T11:57:06Z</time>
      </trkpt>
      <trkpt lat="43.79112" lon="7.03671">
        <ele>938.4</ele>
        <time>2009-04-30T11:57:17Z</time>
      </trkpt>
      <trkpt lat="43.79144" lon="7.03669">
        <ele>936.5</ele>
        <time>2009-04-30T11:57:27Z</time>
      </trkpt>
      <trkpt lat="43.79173" lon="7.03673">
        <ele>941.3</ele>
        <time>2009-04-30T11:57:37Z</time>
      </trkpt>
      <trkpt lat="43.79199" lon="7.03687">
        <ele>942.2</ele>
        <time>2009-04-30T11:57:49Z</time>
      </trkpt>
      <trkpt lat="43.79229" lon="7.03695">
        <ele>946.6</ele>
        <time>2009-04-30T11:58:01Z</time>
      </trkpt>
      <trkpt lat="43.79258" lon="7.03692">
        <ele>949.4</ele>
        <time>2009-04-30T11:58:13Z</time>
      </trkpt>
      <trkpt lat="43.79285" lon="7.03695">
        <ele>953.3</ele>
        <time>2009-04-30T11:58:25Z</time>
      </trkpt>
      <trkpt lat="43.79311" lon="7.03713">
        <ele>949.9</ele>
        <time>2009-04-30T11:58:37Z</time>
      </trkpt>
      <trkpt lat="43.79326" lon="7.03744">
        <ele>950.4</ele>
        <time>2009-04-30T11:58:49Z</time>
      </trkpt>
      <trkpt lat="43.79339" lon="7.03774">
        <ele>961</ele>
        <time>2009-04-30T11:59:03Z</time>
      </trkpt>
      <trkpt lat="43.79362" lon="7.03795">
        <ele>964.3</ele>
        <time>2009-04-30T11:59:18Z</time>
      </trkpt>
      <trkpt lat="43.79376" lon="7.03828">
        <ele>968.7</ele>
        <time>2009-04-30T11:59:34Z</time>
      </trkpt>
      <trkpt lat="43.79372" lon="7.03866">
        <ele>970.1</ele>
        <time>2009-04-30T11:59:48Z</time>
      </trkpt>
      <trkpt lat="43.79367" lon="7.03905">
        <ele>972.5</ele>
        <time>2009-04-30T12:00:02Z</time>
      </trkpt>
      <trkpt lat="43.79362" lon="7.03949">
        <ele>974.4</ele>
        <time>2009-04-30T12:00:16Z</time>
      </trkpt>
      <trkpt lat="43.79354" lon="7.03989">
        <ele>975.4</ele>
        <time>2009-04-30T12:00:28Z</time>
      </trkpt>
      <trkpt lat="43.79349" lon="7.04028">
        <ele>979.2</ele>
        <time>2009-04-30T12:00:40Z</time>
      </trkpt>
      <trkpt lat="43.79343" lon="7.04069">
        <ele>978.3</ele>
        <time>2009-04-30T12:00:52Z</time>
      </trkpt>
      <trkpt lat="43.7933" lon="7.04104">
        <ele>979.2</ele>
        <time>2009-04-30T12:01:04Z</time>
      </trkpt>
      <trkpt lat="43.79318" lon="7.0414">
        <ele>980.7</ele>
        <time>2009-04-30T12:01:16Z</time>
      </trkpt>
      <trkpt lat="43.79312" lon="7.04177">
        <ele>983.1</ele>
        <time>2009-04-30T12:01:28Z</time>
      </trkpt>
      <trkpt lat="43.79308" lon="7.04215">
        <ele>984</ele>
        <time>2009-04-30T12:01:40Z</time>
      </trkpt>
      <trkpt lat="43.79305" lon="7.04255">
        <ele>982.1</ele>
        <time>2009-04-30T12:01:53Z</time>
      </trkpt>
      <trkpt lat="43.79295" lon="7.04299">
        <ele>986</ele>
        <time>2009-04-30T12:02:07Z</time>
      </trkpt>
      <trkpt lat="43.7929" lon="7.04342">
        <ele>984.5</ele>
        <time>2009-04-30T12:02:20Z</time>
      </trkpt>
      <trkpt lat="43.79281" lon="7.04389">
        <ele>988.9</ele>
        <time>2009-04-30T12:02:33Z</time>
      </trkpt>
      <trkpt lat="43.79274" lon="7.0443">
        <ele>992.7</ele>
        <time>2009-04-30T12:02:45Z</time>
      </trkpt>
      <trkpt lat="43.79267" lon="7.04468">
        <ele>993.7</ele>
        <time>2009-04-30T12:02:56Z</time>
      </trkpt>
      <trkpt lat="43.79266" lon="7.04501">
        <ele>999.9</ele>
        <time>2009-04-30T12:03:08Z</time>
      </trkpt>
      <trkpt lat="43.79288" lon="7.04465">
        <ele>998.9</ele>
        <time>2009-04-30T12:03:33Z</time>
      </trkpt>
      <trkpt lat="43.79306" lon="7.04425">
        <ele>1003.8</ele>
        <time>2009-04-30T12:03:51Z</time>
      </trkpt>
      <trkpt lat="43.79323" lon="7.0439">
        <ele>1005.2</ele>
        <time>2009-04-30T12:04:07Z</time>
      </trkpt>
      <trkpt lat="43.79339" lon="7.04353">
        <ele>1007.1</ele>
        <time>2009-04-30T12:04:21Z</time>
      </trkpt>
      <trkpt lat="43.79352" lon="7.04319">
        <ele>1010.5</ele>
        <time>2009-04-30T12:04:35Z</time>
      </trkpt>
      <trkpt lat="43.79368" lon="7.04287">
        <ele>1016.7</ele>
        <time>2009-04-30T12:04:53Z</time>
      </trkpt>
      <trkpt lat="43.7939" lon="7.04263">
        <ele>1018.7</ele>
        <time>2009-04-30T12:05:08Z</time>
      </trkpt>
      <trkpt lat="43.79412" lon="7.04238">
        <ele>1021.5</ele>
        <time>2009-04-30T12:05:24Z</time>
      </trkpt>
      <trkpt lat="43.79431" lon="7.04213">
        <ele>1022.5</ele>
        <time>2009-04-30T12:05:37Z</time>
      </trkpt>
      <trkpt lat="43.79454" lon="7.04183">
        <ele>1026.8</ele>
        <time>2009-04-30T12:05:51Z</time>
      </trkpt>
      <trkpt lat="43.79458" lon="7.04146">
        <ele>1029.7</ele>
        <time>2009-04-30T12:06:03Z</time>
      </trkpt>
      <trkpt lat="43.79461" lon="7.04104">
        <ele>1025.9</ele>
        <time>2009-04-30T12:06:18Z</time>
      </trkpt>
      <trkpt lat="43.79474" lon="7.04064">
        <ele>1024.9</ele>
        <time>2009-04-30T12:06:29Z</time>
      </trkpt>
      <trkpt lat="43.79506" lon="7.04066">
        <ele>1025.4</ele>
        <time>2009-04-30T12:06:46Z</time>
      </trkpt>
      <trkpt lat="43.79523" lon="7.04105">
        <ele>1018.7</ele>
        <time>2009-04-30T12:06:56Z</time>
      </trkpt>
      <trkpt lat="43.79537" lon="7.0414">
        <ele>1014.3</ele>
        <time>2009-04-30T12:07:06Z</time>
      </trkpt>
      <trkpt lat="43.79552" lon="7.04177">
        <ele>1012.4</ele>
        <time>2009-04-30T12:07:32Z</time>
      </trkpt>
      <trkpt lat="43.7957" lon="7.04206">
        <ele>1014.8</ele>
        <time>2009-04-30T12:07:43Z</time>
      </trkpt>
      <trkpt lat="43.7959" lon="7.04202">
        <ele>1012.4</ele>
        <time>2009-04-30T12:08:18Z</time>
      </trkpt>
      <trkpt lat="43.79599" lon="7.04161">
        <ele>1009</ele>
        <time>2009-04-30T12:08:45Z</time>
      </trkpt>
      <trkpt lat="43.79612" lon="7.04133">
        <ele>1015.8</ele>
        <time>2009-04-30T12:09:26Z</time>
      </trkpt>
      <trkpt lat="43.79634" lon="7.04125">
        <ele>1019.1</ele>
        <time>2009-04-30T12:10:03Z</time>
      </trkpt>
      <trkpt lat="43.79639" lon="7.04089">
        <ele>1020.1</ele>
        <time>2009-04-30T12:10:35Z</time>
      </trkpt>
      <trkpt lat="43.79647" lon="7.04053">
        <ele>1023</ele>
        <time>2009-04-30T12:10:56Z</time>
      </trkpt>
      <trkpt lat="43.79645" lon="7.04013">
        <ele>1022</ele>
        <time>2009-04-30T12:11:06Z</time>
      </trkpt>
      <trkpt lat="43.79645" lon="7.03972">
        <ele>1022</ele>
        <time>2009-04-30T12:11:18Z</time>
      </trkpt>
      <trkpt lat="43.79652" lon="7.03933">
        <ele>1019.6</ele>
        <time>2009-04-30T12:11:30Z</time>
      </trkpt>
      <trkpt lat="43.79656" lon="7.03896">
        <ele>1021.1</ele>
        <time>2009-04-30T12:11:38Z</time>
      </trkpt>
      <trkpt lat="43.79657" lon="7.03858">
        <ele>1022.5</ele>
        <time>2009-04-30T12:11:49Z</time>
      </trkpt>
      <trkpt lat="43.79671" lon="7.03822">
        <ele>1023</ele>
        <time>2009-04-30T12:12:25Z</time>
      </trkpt>
      <trkpt lat="43.79683" lon="7.03786">
        <ele>1023.9</ele>
        <time>2009-04-30T12:12:43Z</time>
      </trkpt>
      <trkpt lat="43.79702" lon="7.03756">
        <ele>1027.8</ele>
        <time>2009-04-30T12:13:33Z</time>
      </trkpt>
      <trkpt lat="43.79724" lon="7.03745">
        <ele>1038.4</ele>
        <time>2009-04-30T12:14:12Z</time>
      </trkpt>
      <trkpt lat="43.79743" lon="7.03706">
        <ele>1041.7</ele>
        <time>2009-04-30T12:15:03Z</time>
      </trkpt>
      <trkpt lat="43.79775" lon="7.03684">
        <ele>1059</ele>
        <time>2009-04-30T12:16:20Z</time>
      </trkpt>
      <trkpt lat="43.79804" lon="7.03665">
        <ele>1066.2</ele>
        <time>2009-04-30T12:17:02Z</time>
      </trkpt>
      <trkpt lat="43.79826" lon="7.03641">
        <ele>1063.8</ele>
        <time>2009-04-30T12:17:42Z</time>
      </trkpt>
      <trkpt lat="43.79848" lon="7.03618">
        <ele>1072</ele>
        <time>2009-04-30T12:19:10Z</time>
      </trkpt>
      <trkpt lat="43.79875" lon="7.0359">
        <ele>1078.7</ele>
        <time>2009-04-30T12:19:56Z</time>
      </trkpt>
      <trkpt lat="43.799" lon="7.03559">
        <ele>1082.6</ele>
        <time>2009-04-30T12:20:56Z</time>
      </trkpt>
      <trkpt lat="43.79923" lon="7.03527">
        <ele>1087.4</ele>
        <time>2009-04-30T12:21:58Z</time>
      </trkpt>
      <trkpt lat="43.79934" lon="7.03489">
        <ele>1094.1</ele>
        <time>2009-04-30T12:27:53Z</time>
      </trkpt>
      <trkpt lat="43.7996" lon="7.03458">
        <ele>1102.3</ele>
        <time>2009-04-30T12:28:41Z</time>
      </trkpt>
      <trkpt lat="43.79979" lon="7.03429">
        <ele>1107.1</ele>
        <time>2009-04-30T12:29:22Z</time>
      </trkpt>
      <trkpt lat="43.80006" lon="7.03397">
        <ele>1113.8</ele>
        <time>2009-04-30T12:30:11Z</time>
      </trkpt>
      <trkpt lat="43.80031" lon="7.03372">
        <ele>1118.2</ele>
        <time>2009-04-30T12:30:54Z</time>
      </trkpt>
      <trkpt lat="43.80041" lon="7.03337">
        <ele>1117.2</ele>
        <time>2009-04-30T12:31:11Z</time>
      </trkpt>
      <trkpt lat="43.80061" lon="7.03305">
        <ele>1112.9</ele>
        <time>2009-04-30T12:31:24Z</time>
      </trkpt>
      <trkpt lat="43.80079" lon="7.03271">
        <ele>1108.5</ele>
        <time>2009-04-30T12:31:36Z</time>
      </trkpt>
      <trkpt lat="43.801" lon="7.03233">
        <ele>1114.8</ele>
        <time>2009-04-30T12:31:49Z</time>
      </trkpt>
      <trkpt lat="43.80119" lon="7.032">
        <ele>1121.5</ele>
        <time>2009-04-30T12:32:00Z</time>
      </trkpt>
      <trkpt lat="43.80131" lon="7.03166">
        <ele>1123.4</ele>
        <time>2009-04-30T12:32:10Z</time>
      </trkpt>
      <trkpt lat="43.80155" lon="7.03146">
        <ele>1131.1</ele>
        <time>2009-04-30T12:32:20Z</time>
      </trkpt>
      <trkpt lat="43.80175" lon="7.03126">
        <ele>1136.9</ele>
        <time>2009-04-30T12:32:29Z</time>
      </trkpt>
      <trkpt lat="43.80192" lon="7.0309">
        <ele>1141.2</ele>
        <time>2009-04-30T12:32:41Z</time>
      </trkpt>
      <trkpt lat="43.80201" lon="7.03056">
        <ele>1151.8</ele>
        <time>2009-04-30T12:32:52Z</time>
      </trkpt>
      <trkpt lat="43.80218" lon="7.03029">
        <ele>1156.6</ele>
        <time>2009-04-30T12:33:02Z</time>
      </trkpt>
      <trkpt lat="43.80223" lon="7.02992">
        <ele>1162.9</ele>
        <time>2009-04-30T12:33:14Z</time>
      </trkpt>
      <trkpt lat="43.80223" lon="7.02957">
        <ele>1170.1</ele>
        <time>2009-04-30T12:33:28Z</time>
      </trkpt>
      <trkpt lat="43.80242" lon="7.02948">
        <ele>1175.8</ele>
        <time>2009-04-30T12:33:44Z</time>
      </trkpt>
      <trkpt lat="43.80242" lon="7.02911">
        <ele>1181.1</ele>
        <time>2009-04-30T12:33:59Z</time>
      </trkpt>
      <trkpt lat="43.80245" lon="7.02874">
        <ele>1185</ele>
        <time>2009-04-30T12:34:13Z</time>
      </trkpt>
      <trkpt lat="43.80241" lon="7.02837">
        <ele>1188.8</ele>
        <time>2009-04-30T12:34:24Z</time>
      </trkpt>
      <trkpt lat="43.80236" lon="7.02802">
        <ele>1187.4</ele>
        <time>2009-04-30T12:34:36Z</time>
      </trkpt>
      <trkpt lat="43.80263" lon="7.02793">
        <ele>1178.2</ele>
        <time>2009-04-30T12:35:10Z</time>
      </trkpt>
      <trkpt lat="43.80297" lon="7.02786">
        <ele>1180.6</ele>
        <time>2009-04-30T12:36:42Z</time>
      </trkpt>
      <trkpt lat="43.80312" lon="7.02817">
        <ele>1182.6</ele>
        <time>2009-04-30T12:37:32Z</time>
      </trkpt>
      <trkpt lat="43.80346" lon="7.02846">
        <ele>1202.7</ele>
        <time>2009-04-30T12:39:24Z</time>
      </trkpt>
      <trkpt lat="43.80351" lon="7.02881">
        <ele>1207.1</ele>
        <time>2009-04-30T12:40:25Z</time>
      </trkpt>
      <trkpt lat="43.80357" lon="7.02908">
        <ele>1210.9</ele>
        <time>2009-04-30T12:41:28Z</time>
      </trkpt>
      <trkpt lat="43.80351" lon="7.02943">
        <ele>1217.6</ele>
        <time>2009-04-30T12:42:13Z</time>
      </trkpt>
      <trkpt lat="43.80368" lon="7.02922">
        <ele>1215.7</ele>
        <time>2009-04-30T12:43:41Z</time>
      </trkpt>
      <trkpt lat="43.80383" lon="7.02886">
        <ele>1211.9</ele>
        <time>2009-04-30T12:44:20Z</time>
      </trkpt>
      <trkpt lat="43.80391" lon="7.02904">
        <ele>1226.8</ele>
        <time>2009-04-30T12:45:05Z</time>
      </trkpt>
      <trkpt lat="43.80405" lon="7.02896">
        <ele>1233</ele>
        <time>2009-04-30T12:46:08Z</time>
      </trkpt>
      <trkpt lat="43.80413" lon="7.02906">
        <ele>1244.6</ele>
        <time>2009-04-30T12:46:55Z</time>
      </trkpt>
      <trkpt lat="43.8041" lon="7.02946">
        <ele>1260.9</ele>
        <time>2009-04-30T12:47:34Z</time>
      </trkpt>
      <trkpt lat="43.8042" lon="7.0296">
        <ele>1259.5</ele>
        <time>2009-04-30T12:48:37Z</time>
      </trkpt>
      <trkpt lat="43.80409" lon="7.03">
        <ele>1262.3</ele>
        <time>2009-04-30T12:49:19Z</time>
      </trkpt>
      <trkpt lat="43.80414" lon="7.03016">
        <ele>1264.8</ele>
        <time>2009-04-30T12:50:42Z</time>
      </trkpt>
      <trkpt lat="43.80439" lon="7.02996">
        <ele>1272.4</ele>
        <time>2009-04-30T12:51:25Z</time>
      </trkpt>
      <trkpt lat="43.80454" lon="7.0299">
        <ele>1282.5</ele>
        <time>2009-04-30T12:52:19Z</time>
      </trkpt>
      <trkpt lat="43.80443" lon="7.03028">
        <ele>1282.5</ele>
        <time>2009-04-30T12:52:56Z</time>
      </trkpt>
      <trkpt lat="43.80427" lon="7.03064">
        <ele>1286.9</ele>
        <time>2009-04-30T12:53:48Z</time>
      </trkpt>
      <trkpt lat="43.8041" lon="7.03105">
        <ele>1288.8</ele>
        <time>2009-04-30T12:54:42Z</time>
      </trkpt>
      <trkpt lat="43.80404" lon="7.03122">
        <ele>1295.5</ele>
        <time>2009-04-30T12:55:33Z</time>
      </trkpt>
      <trkpt lat="43.80427" lon="7.0312">
        <ele>1306.1</ele>
        <time>2009-04-30T12:57:57Z</time>
      </trkpt>
      <trkpt lat="43.80409" lon="7.03155">
        <ele>1313.8</ele>
        <time>2009-04-30T12:58:42Z</time>
      </trkpt>
      <trkpt lat="43.80421" lon="7.0316">
        <ele>1319.1</ele>
        <time>2009-04-30T12:59:27Z</time>
      </trkpt>
      <trkpt lat="43.80425" lon="7.03168">
        <ele>1325.8</ele>
        <time>2009-04-30T13:00:12Z</time>
      </trkpt>
      <trkpt lat="43.80426" lon="7.03186">
        <ele>1330.1</ele>
        <time>2009-04-30T13:01:20Z</time>
      </trkpt>
      <trkpt lat="43.80455" lon="7.0316">
        <ele>1336.9</ele>
        <time>2009-04-30T13:02:16Z</time>
      </trkpt>
      <trkpt lat="43.80476" lon="7.03129">
        <ele>1346</ele>
        <time>2009-04-30T13:03:13Z</time>
      </trkpt>
      <trkpt lat="43.80483" lon="7.03169">
        <ele>1346.9</ele>
        <time>2009-04-30T13:04:18Z</time>
      </trkpt>
      <trkpt lat="43.80468" lon="7.03209">
        <ele>1353.2</ele>
        <time>2009-04-30T13:05:14Z</time>
      </trkpt>
      <trkpt lat="43.80496" lon="7.03184">
        <ele>1362.8</ele>
        <time>2009-04-30T13:06:12Z</time>
      </trkpt>
      <trkpt lat="43.80512" lon="7.03152">
        <ele>1378.2</ele>
        <time>2009-04-30T13:06:58Z</time>
      </trkpt>
      <trkpt lat="43.80527" lon="7.03154">
        <ele>1377.7</ele>
        <time>2009-04-30T13:07:51Z</time>
      </trkpt>
      <trkpt lat="43.80521" lon="7.03191">
        <ele>1377.7</ele>
        <time>2009-04-30T13:08:23Z</time>
      </trkpt>
      <trkpt lat="43.8051" lon="7.03226">
        <ele>1380.1</ele>
        <time>2009-04-30T13:08:41Z</time>
      </trkpt>
      <trkpt lat="43.80492" lon="7.03257">
        <ele>1382.5</ele>
        <time>2009-04-30T13:08:58Z</time>
      </trkpt>
      <trkpt lat="43.80485" lon="7.03279">
        <ele>1386.4</ele>
        <time>2009-04-30T13:10:22Z</time>
      </trkpt>
      <trkpt lat="43.80509" lon="7.03268">
        <ele>1388.8</ele>
        <time>2009-04-30T13:10:41Z</time>
      </trkpt>
      <trkpt lat="43.80534" lon="7.03242">
        <ele>1394</ele>
        <time>2009-04-30T13:11:19Z</time>
      </trkpt>
      <trkpt lat="43.80552" lon="7.03214">
        <ele>1403.7</ele>
        <time>2009-04-30T13:11:55Z</time>
      </trkpt>
      <trkpt lat="43.80571" lon="7.03181">
        <ele>1408.9</ele>
        <time>2009-04-30T13:12:38Z</time>
      </trkpt>
      <trkpt lat="43.8059" lon="7.03149">
        <ele>1409.4</ele>
        <time>2009-04-30T13:13:24Z</time>
      </trkpt>
      <trkpt lat="43.80602" lon="7.03135">
        <ele>1409.9</ele>
        <time>2009-04-30T13:15:48Z</time>
      </trkpt>
      <trkpt lat="43.80618" lon="7.03104">
        <ele>1409.4</ele>
        <time>2009-04-30T13:16:23Z</time>
      </trkpt>
      <trkpt lat="43.8063" lon="7.03077">
        <ele>1408</ele>
        <time>2009-04-30T13:16:57Z</time>
      </trkpt>
      <trkpt lat="43.80645" lon="7.03044">
        <ele>1409.4</ele>
        <time>2009-04-30T13:17:32Z</time>
      </trkpt>
      <trkpt lat="43.80665" lon="7.0302">
        <ele>1415.2</ele>
        <time>2009-04-30T13:18:16Z</time>
      </trkpt>
      <trkpt lat="43.80687" lon="7.02997">
        <ele>1420.5</ele>
        <time>2009-04-30T13:18:53Z</time>
      </trkpt>
      <trkpt lat="43.80715" lon="7.02988">
        <ele>1423.8</ele>
        <time>2009-04-30T13:19:30Z</time>
      </trkpt>
      <trkpt lat="43.80739" lon="7.02976">
        <ele>1428.2</ele>
        <time>2009-04-30T13:20:05Z</time>
      </trkpt>
      <trkpt lat="43.80768" lon="7.02959">
        <ele>1435.4</ele>
        <time>2009-04-30T13:20:47Z</time>
      </trkpt>
      <trkpt lat="43.80785" lon="7.02931">
        <ele>1437.8</ele>
        <time>2009-04-30T13:21:16Z</time>
      </trkpt>
      <trkpt lat="43.808" lon="7.02897">
        <ele>1440.7</ele>
        <time>2009-04-30T13:21:32Z</time>
      </trkpt>
      <trkpt lat="43.80819" lon="7.02871">
        <ele>1438.3</ele>
        <time>2009-04-30T13:23:02Z</time>
      </trkpt>
      <trkpt lat="43.80835" lon="7.02839">
        <ele>1433.9</ele>
        <time>2009-04-30T13:23:37Z</time>
      </trkpt>
      <trkpt lat="43.8085" lon="7.02804">
        <ele>1431.5</ele>
        <time>2009-04-30T13:23:49Z</time>
      </trkpt>
      <trkpt lat="43.80864" lon="7.0277">
        <ele>1430.6</ele>
        <time>2009-04-30T13:23:57Z</time>
      </trkpt>
      <trkpt lat="43.8088" lon="7.02735">
        <ele>1426.7</ele>
        <time>2009-04-30T13:24:05Z</time>
      </trkpt>
      <trkpt lat="43.80895" lon="7.02701">
        <ele>1425.3</ele>
        <time>2009-04-30T13:24:14Z</time>
      </trkpt>
      <trkpt lat="43.80913" lon="7.02664">
        <ele>1424.8</ele>
        <time>2009-04-30T13:24:22Z</time>
      </trkpt>
      <trkpt lat="43.80925" lon="7.02628">
        <ele>1425.8</ele>
        <time>2009-04-30T13:24:33Z</time>
      </trkpt>
      <trkpt lat="43.80939" lon="7.02593">
        <ele>1424.3</ele>
        <time>2009-04-30T13:24:42Z</time>
      </trkpt>
      <trkpt lat="43.80953" lon="7.02558">
        <ele>1423.4</ele>
        <time>2009-04-30T13:24:52Z</time>
      </trkpt>
      <trkpt lat="43.80966" lon="7.02522">
        <ele>1424.8</ele>
        <time>2009-04-30T13:25:03Z</time>
      </trkpt>
      <trkpt lat="43.80981" lon="7.02492">
        <ele>1426.3</ele>
        <time>2009-04-30T13:25:13Z</time>
      </trkpt>
      <trkpt lat="43.80995" lon="7.02463">
        <ele>1424.8</ele>
        <time>2009-04-30T13:25:22Z</time>
      </trkpt>
      <trkpt lat="43.8102" lon="7.02445">
        <ele>1425.3</ele>
        <time>2009-04-30T13:25:31Z</time>
      </trkpt>
      <trkpt lat="43.81037" lon="7.02415">
        <ele>1424.8</ele>
        <time>2009-04-30T13:25:42Z</time>
      </trkpt>
      <trkpt lat="43.81042" lon="7.02378">
        <ele>1421.9</ele>
        <time>2009-04-30T13:26:17Z</time>
      </trkpt>
      <trkpt lat="43.81046" lon="7.02341">
        <ele>1418.6</ele>
        <time>2009-04-30T13:26:31Z</time>
      </trkpt>
      <trkpt lat="43.8105" lon="7.02304">
        <ele>1416.6</ele>
        <time>2009-04-30T13:26:42Z</time>
      </trkpt>
      <trkpt lat="43.81054" lon="7.02265">
        <ele>1415.2</ele>
        <time>2009-04-30T13:26:53Z</time>
      </trkpt>
      <trkpt lat="43.81065" lon="7.02231">
        <ele>1409.9</ele>
        <time>2009-04-30T13:27:01Z</time>
      </trkpt>
      <trkpt lat="43.81074" lon="7.02195">
        <ele>1410.9</ele>
        <time>2009-04-30T13:27:10Z</time>
      </trkpt>
      <trkpt lat="43.81081" lon="7.02156">
        <ele>1412.3</ele>
        <time>2009-04-30T13:27:23Z</time>
      </trkpt>
      <trkpt lat="43.81088" lon="7.02122">
        <ele>1412.3</ele>
        <time>2009-04-30T13:27:34Z</time>
      </trkpt>
      <trkpt lat="43.81096" lon="7.02085">
        <ele>1410.4</ele>
        <time>2009-04-30T13:27:43Z</time>
      </trkpt>
      <trkpt lat="43.81104" lon="7.02049">
        <ele>1409.4</ele>
        <time>2009-04-30T13:27:52Z</time>
      </trkpt>
      <trkpt lat="43.81114" lon="7.02011">
        <ele>1410.4</ele>
        <time>2009-04-30T13:28:01Z</time>
      </trkpt>
      <trkpt lat="43.81132" lon="7.01981">
        <ele>1410.9</ele>
        <time>2009-04-30T13:28:11Z</time>
      </trkpt>
      <trkpt lat="43.8115" lon="7.01955">
        <ele>1415.2</ele>
        <time>2009-04-30T13:28:40Z</time>
      </trkpt>
      <trkpt lat="43.8116" lon="7.01917">
        <ele>1417.1</ele>
        <time>2009-04-30T13:29:31Z</time>
      </trkpt>
      <trkpt lat="43.81171" lon="7.01883">
        <ele>1416.2</ele>
        <time>2009-04-30T13:29:42Z</time>
      </trkpt>
      <trkpt lat="43.81185" lon="7.01851">
        <ele>1415.7</ele>
        <time>2009-04-30T13:29:53Z</time>
      </trkpt>
      <trkpt lat="43.81206" lon="7.0183">
        <ele>1421</ele>
        <time>2009-04-30T13:30:33Z</time>
      </trkpt>
      <trkpt lat="43.81221" lon="7.01794">
        <ele>1428.2</ele>
        <time>2009-04-30T13:31:34Z</time>
      </trkpt>
      <trkpt lat="43.81231" lon="7.01758">
        <ele>1426.7</ele>
        <time>2009-04-30T13:31:52Z</time>
      </trkpt>
      <trkpt lat="43.81235" lon="7.01722">
        <ele>1424.3</ele>
        <time>2009-04-30T13:32:06Z</time>
      </trkpt>
      <trkpt lat="43.81233" lon="7.01685">
        <ele>1424.3</ele>
        <time>2009-04-30T13:32:19Z</time>
      </trkpt>
      <trkpt lat="43.81246" lon="7.01653">
        <ele>1421.4</ele>
        <time>2009-04-30T13:32:31Z</time>
      </trkpt>
      <trkpt lat="43.81266" lon="7.01629">
        <ele>1422.9</ele>
        <time>2009-04-30T13:32:47Z</time>
      </trkpt>
      <trkpt lat="43.81293" lon="7.01612">
        <ele>1424.3</ele>
        <time>2009-04-30T13:33:02Z</time>
      </trkpt>
      <trkpt lat="43.81319" lon="7.016">
        <ele>1425.8</ele>
        <time>2009-04-30T13:33:15Z</time>
      </trkpt>
      <trkpt lat="43.81349" lon="7.01587">
        <ele>1425.8</ele>
        <time>2009-04-30T13:33:27Z</time>
      </trkpt>
      <trkpt lat="43.81376" lon="7.01582">
        <ele>1424.3</ele>
        <time>2009-04-30T13:33:38Z</time>
      </trkpt>
      <trkpt lat="43.81404" lon="7.01575">
        <ele>1423.8</ele>
        <time>2009-04-30T13:33:49Z</time>
      </trkpt>
      <trkpt lat="43.81432" lon="7.01566">
        <ele>1427.2</ele>
        <time>2009-04-30T13:34:00Z</time>
      </trkpt>
      <trkpt lat="43.81457" lon="7.01555">
        <ele>1430.1</ele>
        <time>2009-04-30T13:34:25Z</time>
      </trkpt>
      <trkpt lat="43.81485" lon="7.01538">
        <ele>1432.5</ele>
        <time>2009-04-30T13:34:57Z</time>
      </trkpt>
      <trkpt lat="43.8151" lon="7.01535">
        <ele>1436.3</ele>
        <time>2009-04-30T13:35:21Z</time>
      </trkpt>
      <trkpt lat="43.8154" lon="7.01537">
        <ele>1437.8</ele>
        <time>2009-04-30T13:35:50Z</time>
      </trkpt>
      <trkpt lat="43.81566" lon="7.01541">
        <ele>1442.1</ele>
        <time>2009-04-30T13:36:25Z</time>
      </trkpt>
      <trkpt lat="43.81593" lon="7.01538">
        <ele>1445</ele>
        <time>2009-04-30T13:37:04Z</time>
      </trkpt>
      <trkpt lat="43.8162" lon="7.01522">
        <ele>1444</ele>
        <time>2009-04-30T13:37:28Z</time>
      </trkpt>
      <trkpt lat="43.81644" lon="7.01501">
        <ele>1444.5</ele>
        <time>2009-04-30T13:37:43Z</time>
      </trkpt>
      <trkpt lat="43.81665" lon="7.01479">
        <ele>1440.7</ele>
        <time>2009-04-30T13:37:53Z</time>
      </trkpt>
      <trkpt lat="43.81688" lon="7.01458">
        <ele>1438.8</ele>
        <time>2009-04-30T13:38:01Z</time>
      </trkpt>
      <trkpt lat="43.8171" lon="7.01435">
        <ele>1436.3</ele>
        <time>2009-04-30T13:38:10Z</time>
      </trkpt>
      <trkpt lat="43.81731" lon="7.01412">
        <ele>1435.9</ele>
        <time>2009-04-30T13:38:28Z</time>
      </trkpt>
      <trkpt lat="43.81754" lon="7.01386">
        <ele>1433</ele>
        <time>2009-04-30T13:38:37Z</time>
      </trkpt>
      <trkpt lat="43.81769" lon="7.01352">
        <ele>1431.5</ele>
        <time>2009-04-30T13:38:43Z</time>
      </trkpt>
      <trkpt lat="43.81774" lon="7.01314">
        <ele>1428.7</ele>
        <time>2009-04-30T13:38:51Z</time>
      </trkpt>
      <trkpt lat="43.81787" lon="7.01278">
        <ele>1426.3</ele>
        <time>2009-04-30T13:38:56Z</time>
      </trkpt>
      <trkpt lat="43.81805" lon="7.0125">
        <ele>1425.8</ele>
        <time>2009-04-30T13:39:01Z</time>
      </trkpt>
      <trkpt lat="43.81826" lon="7.01217">
        <ele>1421.9</ele>
        <time>2009-04-30T13:39:07Z</time>
      </trkpt>
      <trkpt lat="43.81843" lon="7.01184">
        <ele>1422.4</ele>
        <time>2009-04-30T13:39:12Z</time>
      </trkpt>
      <trkpt lat="43.81871" lon="7.0119">
        <ele>1424.8</ele>
        <time>2009-04-30T13:39:22Z</time>
      </trkpt>
      <trkpt lat="43.81897" lon="7.01174">
        <ele>1425.8</ele>
        <time>2009-04-30T13:39:35Z</time>
      </trkpt>
      <trkpt lat="43.81924" lon="7.01164">
        <ele>1428.2</ele>
        <time>2009-04-30T13:39:46Z</time>
      </trkpt>
      <trkpt lat="43.81949" lon="7.01147">
        <ele>1426.3</ele>
        <time>2009-04-30T13:39:57Z</time>
      </trkpt>
      <trkpt lat="43.8197" lon="7.01119">
        <ele>1424.3</ele>
        <time>2009-04-30T13:40:04Z</time>
      </trkpt>
      <trkpt lat="43.81988" lon="7.01091">
        <ele>1421.9</ele>
        <time>2009-04-30T13:40:11Z</time>
      </trkpt>
      <trkpt lat="43.82005" lon="7.0106">
        <ele>1421</ele>
        <time>2009-04-30T13:40:19Z</time>
      </trkpt>
      <trkpt lat="43.8203" lon="7.01043">
        <ele>1424.8</ele>
        <time>2009-04-30T13:40:37Z</time>
      </trkpt>
      <trkpt lat="43.82048" lon="7.0107">
        <ele>1434.4</ele>
        <time>2009-04-30T13:41:32Z</time>
      </trkpt>
      <trkpt lat="43.82047" lon="7.01035">
        <ele>1437.8</ele>
        <time>2009-04-30T13:42:19Z</time>
      </trkpt>
      <trkpt lat="43.82028" lon="7.01009">
        <ele>1438.3</ele>
        <time>2009-04-30T13:42:52Z</time>
      </trkpt>
      <trkpt lat="43.82014" lon="7.00973">
        <ele>1439.7</ele>
        <time>2009-04-30T13:43:08Z</time>
      </trkpt>
      <trkpt lat="43.81999" lon="7.00942">
        <ele>1440.7</ele>
        <time>2009-04-30T13:43:26Z</time>
      </trkpt>
      <trkpt lat="43.81994" lon="7.00905">
        <ele>1445</ele>
        <time>2009-04-30T13:43:56Z</time>
      </trkpt>
      <trkpt lat="43.82004" lon="7.00863">
        <ele>1447.4</ele>
        <time>2009-04-30T13:45:24Z</time>
      </trkpt>
      <trkpt lat="43.82007" lon="7.00828">
        <ele>1451.7</ele>
        <time>2009-04-30T13:45:51Z</time>
      </trkpt>
      <trkpt lat="43.82005" lon="7.0079">
        <ele>1455.1</ele>
        <time>2009-04-30T13:46:18Z</time>
      </trkpt>
      <trkpt lat="43.81995" lon="7.0075">
        <ele>1455.1</ele>
        <time>2009-04-30T13:46:41Z</time>
      </trkpt>
      <trkpt lat="43.81987" lon="7.00714">
        <ele>1456.5</ele>
        <time>2009-04-30T13:46:55Z</time>
      </trkpt>
      <trkpt lat="43.81979" lon="7.00678">
        <ele>1459.4</ele>
        <time>2009-04-30T13:47:13Z</time>
      </trkpt>
      <trkpt lat="43.81986" lon="7.00644">
        <ele>1461.8</ele>
        <time>2009-04-30T13:47:33Z</time>
      </trkpt>
      <trkpt lat="43.82007" lon="7.00622">
        <ele>1463.3</ele>
        <time>2009-04-30T13:47:52Z</time>
      </trkpt>
      <trkpt lat="43.82031" lon="7.00638">
        <ele>1464.7</ele>
        <time>2009-04-30T13:48:09Z</time>
      </trkpt>
      <trkpt lat="43.82056" lon="7.00652">
        <ele>1469</ele>
        <time>2009-04-30T13:48:27Z</time>
      </trkpt>
      <trkpt lat="43.82079" lon="7.00674">
        <ele>1472.9</ele>
        <time>2009-04-30T13:48:49Z</time>
      </trkpt>
      <trkpt lat="43.82103" lon="7.00689">
        <ele>1479.1</ele>
        <time>2009-04-30T13:49:22Z</time>
      </trkpt>
      <trkpt lat="43.82128" lon="7.00685">
        <ele>1481.5</ele>
        <time>2009-04-30T13:49:52Z</time>
      </trkpt>
      <trkpt lat="43.82142" lon="7.00656">
        <ele>1491.6</ele>
        <time>2009-04-30T13:50:24Z</time>
      </trkpt>
      <trkpt lat="43.82145" lon="7.00617">
        <ele>1497.4</ele>
        <time>2009-04-30T13:51:04Z</time>
      </trkpt>
      <trkpt lat="43.82138" lon="7.00581">
        <ele>1500.3</ele>
        <time>2009-04-30T13:51:38Z</time>
      </trkpt>
      <trkpt lat="43.82135" lon="7.0054">
        <ele>1510.8</ele>
        <time>2009-04-30T13:52:23Z</time>
      </trkpt>
      <trkpt lat="43.82126" lon="7.005">
        <ele>1515.2</ele>
        <time>2009-04-30T13:53:04Z</time>
      </trkpt>
      <trkpt lat="43.82113" lon="7.00438">
        <ele>1521.9</ele>
        <time>2009-04-30T13:54:39Z</time>
      </trkpt>
      <trkpt lat="43.82123" lon="7.00426">
        <ele>1527.7</ele>
        <time>2009-04-30T13:55:17Z</time>
      </trkpt>
      <trkpt lat="43.82127" lon="7.00406">
        <ele>1534.4</ele>
        <time>2009-04-30T13:56:14Z</time>
      </trkpt>
      <trkpt lat="43.8212" lon="7.00367">
        <ele>1540.2</ele>
        <time>2009-04-30T13:56:50Z</time>
      </trkpt>
      <trkpt lat="43.82116" lon="7.00332">
        <ele>1545</ele>
        <time>2009-04-30T13:57:21Z</time>
      </trkpt>
      <trkpt lat="43.82105" lon="7.00299">
        <ele>1546.4</ele>
        <time>2009-04-30T13:57:52Z</time>
      </trkpt>
      <trkpt lat="43.82095" lon="7.00265">
        <ele>1550.3</ele>
        <time>2009-04-30T13:58:22Z</time>
      </trkpt>
      <trkpt lat="43.82086" lon="7.00232">
        <ele>1553.6</ele>
        <time>2009-04-30T13:58:53Z</time>
      </trkpt>
      <trkpt lat="43.82079" lon="7.00194">
        <ele>1559.4</ele>
        <time>2009-04-30T13:59:24Z</time>
      </trkpt>
      <trkpt lat="43.82082" lon="7.00157">
        <ele>1561.8</ele>
        <time>2009-04-30T13:59:53Z</time>
      </trkpt>
      <trkpt lat="43.821" lon="7.00126">
        <ele>1564.2</ele>
        <time>2009-04-30T14:00:11Z</time>
      </trkpt>
      <trkpt lat="43.8212" lon="7.001">
        <ele>1563.7</ele>
        <time>2009-04-30T14:01:50Z</time>
      </trkpt>
      <trkpt lat="43.82129" lon="7.00064">
        <ele>1570</ele>
        <time>2009-04-30T14:02:06Z</time>
      </trkpt>
      <trkpt lat="43.82134" lon="7.00029">
        <ele>1572.9</ele>
        <time>2009-04-30T14:02:22Z</time>
      </trkpt>
      <trkpt lat="43.82136" lon="6.99988">
        <ele>1576.2</ele>
        <time>2009-04-30T14:03:00Z</time>
      </trkpt>
      <trkpt lat="43.82138" lon="6.99953">
        <ele>1576.2</ele>
        <time>2009-04-30T14:03:27Z</time>
      </trkpt>
      <trkpt lat="43.82122" lon="6.99926">
        <ele>1579.6</ele>
        <time>2009-04-30T14:04:15Z</time>
      </trkpt>
      <trkpt lat="43.82114" lon="6.99896">
        <ele>1581</ele>
        <time>2009-04-30T14:04:44Z</time>
      </trkpt>
      <trkpt lat="43.82088" lon="6.99876">
        <ele>1587.3</ele>
        <time>2009-04-30T14:05:11Z</time>
      </trkpt>
      <trkpt lat="43.82071" lon="6.99849">
        <ele>1585.8</ele>
        <time>2009-04-30T14:06:39Z</time>
      </trkpt>
      <trkpt lat="43.82047" lon="6.99833">
        <ele>1584.4</ele>
        <time>2009-04-30T14:07:04Z</time>
      </trkpt>
      <trkpt lat="43.82024" lon="6.99808">
        <ele>1582.9</ele>
        <time>2009-04-30T14:07:17Z</time>
      </trkpt>
      <trkpt lat="43.81999" lon="6.99793">
        <ele>1582.5</ele>
        <time>2009-04-30T14:07:30Z</time>
      </trkpt>
      <trkpt lat="43.81983" lon="6.99764">
        <ele>1580.5</ele>
        <time>2009-04-30T14:07:40Z</time>
      </trkpt>
      <trkpt lat="43.81965" lon="6.99752">
        <ele>1582</ele>
        <time>2009-04-30T14:08:07Z</time>
      </trkpt>
      <trkpt lat="43.81939" lon="6.99743">
        <ele>1580.5</ele>
        <time>2009-04-30T14:08:31Z</time>
      </trkpt>
      <trkpt lat="43.81914" lon="6.99733">
        <ele>1578.1</ele>
        <time>2009-04-30T14:08:59Z</time>
      </trkpt>
      <trkpt lat="43.81898" lon="6.99703">
        <ele>1577.2</ele>
        <time>2009-04-30T14:09:31Z</time>
      </trkpt>
      <trkpt lat="43.81898" lon="6.99661">
        <ele>1577.7</ele>
        <time>2009-04-30T14:09:46Z</time>
      </trkpt>
      <trkpt lat="43.81895" lon="6.99622">
        <ele>1578.1</ele>
        <time>2009-04-30T14:10:05Z</time>
      </trkpt>
      <trkpt lat="43.81885" lon="6.99583">
        <ele>1579.6</ele>
        <time>2009-04-30T14:10:39Z</time>
      </trkpt>
      <trkpt lat="43.81888" lon="6.99541">
        <ele>1581</ele>
        <time>2009-04-30T14:11:02Z</time>
      </trkpt>
      <trkpt lat="43.81896" lon="6.99499">
        <ele>1582.5</ele>
        <time>2009-04-30T14:11:17Z</time>
      </trkpt>
      <trkpt lat="43.81903" lon="6.99459">
        <ele>1583.9</ele>
        <time>2009-04-30T14:11:44Z</time>
      </trkpt>
      <trkpt lat="43.81907" lon="6.99416">
        <ele>1587.8</ele>
        <time>2009-04-30T14:12:20Z</time>
      </trkpt>
      <trkpt lat="43.81903" lon="6.99374">
        <ele>1592.1</ele>
        <time>2009-04-30T14:12:51Z</time>
      </trkpt>
      <trkpt lat="43.81879" lon="6.99356">
        <ele>1597.8</ele>
        <time>2009-04-30T14:13:18Z</time>
      </trkpt>
      <trkpt lat="43.81855" lon="6.99353">
        <ele>1603.6</ele>
        <time>2009-04-30T14:13:51Z</time>
      </trkpt>
      <trkpt lat="43.81828" lon="6.99348">
        <ele>1606</ele>
        <time>2009-04-30T14:14:24Z</time>
      </trkpt>
      <trkpt lat="43.818" lon="6.9935">
        <ele>1607</ele>
        <time>2009-04-30T14:14:53Z</time>
      </trkpt>
      <trkpt lat="43.81776" lon="6.99354">
        <ele>1605.5</ele>
        <time>2009-04-30T14:15:22Z</time>
      </trkpt>
      <trkpt lat="43.81749" lon="6.99348">
        <ele>1613.2</ele>
        <time>2009-04-30T14:16:03Z</time>
      </trkpt>
      <trkpt lat="43.81723" lon="6.99325">
        <ele>1621.4</ele>
        <time>2009-04-30T14:16:46Z</time>
      </trkpt>
      <trkpt lat="43.81707" lon="6.99294">
        <ele>1622.4</ele>
        <time>2009-04-30T14:17:27Z</time>
      </trkpt>
      <trkpt lat="43.81699" lon="6.9926">
        <ele>1622.4</ele>
        <time>2009-04-30T14:18:19Z</time>
      </trkpt>
      <trkpt lat="43.81677" lon="6.99234">
        <ele>1631</ele>
        <time>2009-04-30T14:18:59Z</time>
      </trkpt>
      <trkpt lat="43.81661" lon="6.99213">
        <ele>1630.1</ele>
        <time>2009-04-30T14:19:41Z</time>
      </trkpt>
      <trkpt lat="43.81631" lon="6.99182">
        <ele>1636.3</ele>
        <time>2009-04-30T14:21:22Z</time>
      </trkpt>
      <trkpt lat="43.81606" lon="6.99158">
        <ele>1636.8</ele>
        <time>2009-04-30T14:22:10Z</time>
      </trkpt>
      <trkpt lat="43.81585" lon="6.99133">
        <ele>1642.1</ele>
        <time>2009-04-30T14:22:46Z</time>
      </trkpt>
      <trkpt lat="43.81581" lon="6.99102">
        <ele>1641.1</ele>
        <time>2009-04-30T14:23:19Z</time>
      </trkpt>
      <trkpt lat="43.81552" lon="6.99073">
        <ele>1653.1</ele>
        <time>2009-04-30T14:24:22Z</time>
      </trkpt>
      <trkpt lat="43.81532" lon="6.99056">
        <ele>1657.9</ele>
        <time>2009-04-30T14:24:59Z</time>
      </trkpt>
      <trkpt lat="43.81537" lon="6.9902">
        <ele>1657</ele>
        <time>2009-04-30T14:25:46Z</time>
      </trkpt>
      <trkpt lat="43.81542" lon="6.98987">
        <ele>1656</ele>
        <time>2009-04-30T14:26:25Z</time>
      </trkpt>
      <trkpt lat="43.81558" lon="6.98955">
        <ele>1652.6</ele>
        <time>2009-04-30T14:26:49Z</time>
      </trkpt>
      <trkpt lat="43.81573" lon="6.98925">
        <ele>1650.2</ele>
        <time>2009-04-30T14:26:58Z</time>
      </trkpt>
      <trkpt lat="43.81589" lon="6.98891">
        <ele>1652.2</ele>
        <time>2009-04-30T14:27:11Z</time>
      </trkpt>
      <trkpt lat="43.81606" lon="6.98864">
        <ele>1655</ele>
        <time>2009-04-30T14:27:40Z</time>
      </trkpt>
      <trkpt lat="43.81628" lon="6.98844">
        <ele>1657.5</ele>
        <time>2009-04-30T14:28:09Z</time>
      </trkpt>
      <trkpt lat="43.81658" lon="6.98837">
        <ele>1659.9</ele>
        <time>2009-04-30T14:28:42Z</time>
      </trkpt>
      <trkpt lat="43.81685" lon="6.98828">
        <ele>1659.4</ele>
        <time>2009-04-30T14:29:09Z</time>
      </trkpt>
      <trkpt lat="43.81708" lon="6.98804">
        <ele>1658.4</ele>
        <time>2009-04-30T14:29:42Z</time>
      </trkpt>
      <trkpt lat="43.81731" lon="6.98789">
        <ele>1661.3</ele>
        <time>2009-04-30T14:30:15Z</time>
      </trkpt>
      <trkpt lat="43.81756" lon="6.98777">
        <ele>1664.2</ele>
        <time>2009-04-30T14:30:44Z</time>
      </trkpt>
      <trkpt lat="43.81785" lon="6.98778">
        <ele>1669.5</ele>
        <time>2009-04-30T14:31:14Z</time>
      </trkpt>
      <trkpt lat="43.81813" lon="6.98773">
        <ele>1670.9</ele>
        <time>2009-04-30T14:31:46Z</time>
      </trkpt>
      <trkpt lat="43.81843" lon="6.98774">
        <ele>1669</ele>
        <time>2009-04-30T14:32:19Z</time>
      </trkpt>
      <trkpt lat="43.81871" lon="6.98778">
        <ele>1666.1</ele>
        <time>2009-04-30T14:32:45Z</time>
      </trkpt>
      <trkpt lat="43.81897" lon="6.98778">
        <ele>1664.7</ele>
        <time>2009-04-30T14:33:14Z</time>
      </trkpt>
      <trkpt lat="43.81924" lon="6.98767">
        <ele>1670.4</ele>
        <time>2009-04-30T14:33:49Z</time>
      </trkpt>
      <trkpt lat="43.81939" lon="6.98736">
        <ele>1670.4</ele>
        <time>2009-04-30T14:34:23Z</time>
      </trkpt>
      <trkpt lat="43.81924" lon="6.98705">
        <ele>1669</ele>
        <time>2009-04-30T14:34:51Z</time>
      </trkpt>
      <trkpt lat="43.8192" lon="6.9867">
        <ele>1661.3</ele>
        <time>2009-04-30T14:35:20Z</time>
      </trkpt>
      <trkpt lat="43.81921" lon="6.98632">
        <ele>1657</ele>
        <time>2009-04-30T14:35:44Z</time>
      </trkpt>
      <trkpt lat="43.81922" lon="6.98596">
        <ele>1656.5</ele>
        <time>2009-04-30T14:36:11Z</time>
      </trkpt>
      <trkpt lat="43.81925" lon="6.98556">
        <ele>1654.6</ele>
        <time>2009-04-30T14:36:37Z</time>
      </trkpt>
      <trkpt lat="43.8192" lon="6.9852">
        <ele>1653.1</ele>
        <time>2009-04-30T14:37:03Z</time>
      </trkpt>
      <trkpt lat="43.81911" lon="6.98487">
        <ele>1654.6</ele>
        <time>2009-04-30T14:37:33Z</time>
      </trkpt>
      <trkpt lat="43.81921" lon="6.98445">
        <ele>1651.2</ele>
        <time>2009-04-30T14:38:01Z</time>
      </trkpt>
      <trkpt lat="43.81926" lon="6.98409">
        <ele>1644.5</ele>
        <time>2009-04-30T14:38:29Z</time>
      </trkpt>
      <trkpt lat="43.81929" lon="6.98374">
        <ele>1637.3</ele>
        <time>2009-04-30T14:38:55Z</time>
      </trkpt>
      <trkpt lat="43.81938" lon="6.9834">
        <ele>1635.8</ele>
        <time>2009-04-30T14:39:25Z</time>
      </trkpt>
      <trkpt lat="43.81952" lon="6.98305">
        <ele>1637.3</ele>
        <time>2009-04-30T14:39:56Z</time>
      </trkpt>
      <trkpt lat="43.81959" lon="6.98272">
        <ele>1636.8</ele>
        <time>2009-04-30T14:40:25Z</time>
      </trkpt>
      <trkpt lat="43.81968" lon="6.98237">
        <ele>1632.9</ele>
        <time>2009-04-30T14:40:54Z</time>
      </trkpt>
      <trkpt lat="43.8197" lon="6.98201">
        <ele>1633.4</ele>
        <time>2009-04-30T14:41:52Z</time>
      </trkpt>
      <trkpt lat="43.81989" lon="6.98171">
        <ele>1628.6</ele>
        <time>2009-04-30T14:42:15Z</time>
      </trkpt>
      <trkpt lat="43.82011" lon="6.98151">
        <ele>1622.8</ele>
        <time>2009-04-30T14:42:26Z</time>
      </trkpt>
      <trkpt lat="43.82027" lon="6.98119">
        <ele>1618.5</ele>
        <time>2009-04-30T14:42:38Z</time>
      </trkpt>
      <trkpt lat="43.82035" lon="6.98088">
        <ele>1613.2</ele>
        <time>2009-04-30T14:43:55Z</time>
      </trkpt>
      <trkpt lat="43.82056" lon="6.98067">
        <ele>1610.8</ele>
        <time>2009-04-30T14:44:23Z</time>
      </trkpt>
      <trkpt lat="43.82079" lon="6.98057">
        <ele>1608.9</ele>
        <time>2009-04-30T14:44:50Z</time>
      </trkpt>
      <trkpt lat="43.82106" lon="6.98046">
        <ele>1606</ele>
        <time>2009-04-30T14:45:15Z</time>
      </trkpt>
      <trkpt lat="43.82134" lon="6.98027">
        <ele>1602.2</ele>
        <time>2009-04-30T14:45:37Z</time>
      </trkpt>
      <trkpt lat="43.82157" lon="6.97998">
        <ele>1598.8</ele>
        <time>2009-04-30T14:45:58Z</time>
      </trkpt>
      <trkpt lat="43.8217" lon="6.97968">
        <ele>1596.9</ele>
        <time>2009-04-30T14:46:52Z</time>
      </trkpt>
      <trkpt lat="43.82194" lon="6.97947">
        <ele>1590.6</ele>
        <time>2009-04-30T14:47:05Z</time>
      </trkpt>
      <trkpt lat="43.82219" lon="6.97931">
        <ele>1583.9</ele>
        <time>2009-04-30T14:47:17Z</time>
      </trkpt>
      <trkpt lat="43.82245" lon="6.97923">
        <ele>1578.1</ele>
        <time>2009-04-30T14:47:27Z</time>
      </trkpt>
      <trkpt lat="43.82269" lon="6.97916">
        <ele>1567.6</ele>
        <time>2009-04-30T14:47:41Z</time>
      </trkpt>
      <trkpt lat="43.8229" lon="6.97906">
        <ele>1560.8</ele>
        <time>2009-04-30T14:48:04Z</time>
      </trkpt>
      <trkpt lat="43.82316" lon="6.97888">
        <ele>1552.2</ele>
        <time>2009-04-30T14:49:53Z</time>
      </trkpt>
      <trkpt lat="43.82341" lon="6.97877">
        <ele>1542.6</ele>
        <time>2009-04-30T14:50:20Z</time>
      </trkpt>
      <trkpt lat="43.82368" lon="6.97863">
        <ele>1535.8</ele>
        <time>2009-04-30T14:50:45Z</time>
      </trkpt>
      <trkpt lat="43.82393" lon="6.97857">
        <ele>1531</ele>
        <time>2009-04-30T14:51:13Z</time>
      </trkpt>
      <trkpt lat="43.82423" lon="6.97857">
        <ele>1530.6</ele>
        <time>2009-04-30T14:51:41Z</time>
      </trkpt>
      <trkpt lat="43.8245" lon="6.9786">
        <ele>1527.2</ele>
        <time>2009-04-30T14:52:07Z</time>
      </trkpt>
      <trkpt lat="43.82477" lon="6.97866">
        <ele>1523.3</ele>
        <time>2009-04-30T14:52:27Z</time>
      </trkpt>
      <trkpt lat="43.82506" lon="6.9787">
        <ele>1518.5</ele>
        <time>2009-04-30T14:52:39Z</time>
      </trkpt>
      <trkpt lat="43.82535" lon="6.97867">
        <ele>1514.7</ele>
        <time>2009-04-30T14:52:48Z</time>
      </trkpt>
      <trkpt lat="43.82565" lon="6.97855">
        <ele>1507.5</ele>
        <time>2009-04-30T14:52:55Z</time>
      </trkpt>
      <trkpt lat="43.82592" lon="6.97831">
        <ele>1501.2</ele>
        <time>2009-04-30T14:53:00Z</time>
      </trkpt>
      <trkpt lat="43.82614" lon="6.97794">
        <ele>1497.4</ele>
        <time>2009-04-30T14:53:04Z</time>
      </trkpt>
      <trkpt lat="43.8263" lon="6.97753">
        <ele>1493.1</ele>
        <time>2009-04-30T14:53:08Z</time>
      </trkpt>
      <trkpt lat="43.82646" lon="6.97716">
        <ele>1489.7</ele>
        <time>2009-04-30T14:53:13Z</time>
      </trkpt>
      <trkpt lat="43.82667" lon="6.97683">
        <ele>1487.3</ele>
        <time>2009-04-30T14:53:19Z</time>
      </trkpt>
      <trkpt lat="43.82688" lon="6.97659">
        <ele>1484.4</ele>
        <time>2009-04-30T14:53:25Z</time>
      </trkpt>
      <trkpt lat="43.827" lon="6.97626">
        <ele>1478.2</ele>
        <time>2009-04-30T14:53:32Z</time>
      </trkpt>
      <trkpt lat="43.82713" lon="6.9759">
        <ele>1472.9</ele>
        <time>2009-04-30T14:53:40Z</time>
      </trkpt>
      <trkpt lat="43.82731" lon="6.97561">
        <ele>1468.1</ele>
        <time>2009-04-30T14:53:50Z</time>
      </trkpt>
      <trkpt lat="43.82753" lon="6.97537">
        <ele>1463.7</ele>
        <time>2009-04-30T14:54:01Z</time>
      </trkpt>
      <trkpt lat="43.82769" lon="6.97509">
        <ele>1457</ele>
        <time>2009-04-30T14:54:10Z</time>
      </trkpt>
      <trkpt lat="43.82788" lon="6.97481">
        <ele>1450.8</ele>
        <time>2009-04-30T14:54:16Z</time>
      </trkpt>
      <trkpt lat="43.82807" lon="6.97448">
        <ele>1446</ele>
        <time>2009-04-30T14:54:22Z</time>
      </trkpt>
      <trkpt lat="43.82824" lon="6.97418">
        <ele>1442.6</ele>
        <time>2009-04-30T14:54:30Z</time>
      </trkpt>
      <trkpt lat="43.82836" lon="6.97394">
        <ele>1438.8</ele>
        <time>2009-04-30T14:54:56Z</time>
      </trkpt>
      <trkpt lat="43.82849" lon="6.97367">
        <ele>1434.4</ele>
        <time>2009-04-30T14:55:18Z</time>
      </trkpt>
      <trkpt lat="43.82868" lon="6.97336">
        <ele>1432.5</ele>
        <time>2009-04-30T14:55:27Z</time>
      </trkpt>
      <trkpt lat="43.82885" lon="6.97303">
        <ele>1429.1</ele>
        <time>2009-04-30T14:55:34Z</time>
      </trkpt>
      <trkpt lat="43.82902" lon="6.97268">
        <ele>1423.4</ele>
        <time>2009-04-30T14:55:39Z</time>
      </trkpt>
      <trkpt lat="43.82919" lon="6.97231">
        <ele>1418.6</ele>
        <time>2009-04-30T14:55:43Z</time>
      </trkpt>
      <trkpt lat="43.82935" lon="6.97191">
        <ele>1412.8</ele>
        <time>2009-04-30T14:55:47Z</time>
      </trkpt>
      <trkpt lat="43.8295" lon="6.97158">
        <ele>1408.9</ele>
        <time>2009-04-30T14:55:50Z</time>
      </trkpt>
      <trkpt lat="43.82953" lon="6.97123">
        <ele>1405.1</ele>
        <time>2009-04-30T14:55:54Z</time>
      </trkpt>
      <trkpt lat="43.82966" lon="6.97088">
        <ele>1401.7</ele>
        <time>2009-04-30T14:56:00Z</time>
      </trkpt>
      <trkpt lat="43.82986" lon="6.97055">
        <ele>1397.9</ele>
        <time>2009-04-30T14:56:04Z</time>
      </trkpt>
      <trkpt lat="43.83" lon="6.97013">
        <ele>1396.9</ele>
        <time>2009-04-30T14:56:08Z</time>
      </trkpt>
      <trkpt lat="43.83005" lon="6.96974">
        <ele>1395.5</ele>
        <time>2009-04-30T14:56:13Z</time>
      </trkpt>
      <trkpt lat="43.83005" lon="6.96933">
        <ele>1393.6</ele>
        <time>2009-04-30T14:56:19Z</time>
      </trkpt>
      <trkpt lat="43.83" lon="6.96896">
        <ele>1394</ele>
        <time>2009-04-30T14:56:25Z</time>
      </trkpt>
      <trkpt lat="43.82995" lon="6.96856">
        <ele>1393.6</ele>
        <time>2009-04-30T14:56:32Z</time>
      </trkpt>
      <trkpt lat="43.82992" lon="6.96817">
        <ele>1394</ele>
        <time>2009-04-30T14:56:39Z</time>
      </trkpt>
      <trkpt lat="43.82992" lon="6.96775">
        <ele>1395.5</ele>
        <time>2009-04-30T14:56:47Z</time>
      </trkpt>
      <trkpt lat="43.82987" lon="6.9674">
        <ele>1396.5</ele>
        <time>2009-04-30T14:57:16Z</time>
      </trkpt>
      <trkpt lat="43.82982" lon="6.96702">
        <ele>1396.9</ele>
        <time>2009-04-30T14:57:27Z</time>
      </trkpt>
      <trkpt lat="43.82975" lon="6.96663">
        <ele>1396</ele>
        <time>2009-04-30T14:57:36Z</time>
      </trkpt>
      <trkpt lat="43.82988" lon="6.96624">
        <ele>1394.5</ele>
        <time>2009-04-30T14:57:42Z</time>
      </trkpt>
      <trkpt lat="43.83002" lon="6.96591">
        <ele>1393.1</ele>
        <time>2009-04-30T14:57:46Z</time>
      </trkpt>
      <trkpt lat="43.83018" lon="6.96557">
        <ele>1392.6</ele>
        <time>2009-04-30T14:57:50Z</time>
      </trkpt>
      <trkpt lat="43.83033" lon="6.96519">
        <ele>1390.2</ele>
        <time>2009-04-30T14:57:54Z</time>
      </trkpt>
      <trkpt lat="43.83048" lon="6.96476">
        <ele>1387.8</ele>
        <time>2009-04-30T14:57:58Z</time>
      </trkpt>
      <trkpt lat="43.83059" lon="6.96441">
        <ele>1385.9</ele>
        <time>2009-04-30T14:58:01Z</time>
      </trkpt>
      <trkpt lat="43.83069" lon="6.96405">
        <ele>1384.4</ele>
        <time>2009-04-30T14:58:04Z</time>
      </trkpt>
      <trkpt lat="43.83083" lon="6.9636">
        <ele>1383</ele>
        <time>2009-04-30T14:58:08Z</time>
      </trkpt>
      <trkpt lat="43.83099" lon="6.96315">
        <ele>1382</ele>
        <time>2009-04-30T14:58:12Z</time>
      </trkpt>
      <trkpt lat="43.83108" lon="6.96272">
        <ele>1381.1</ele>
        <time>2009-04-30T14:58:16Z</time>
      </trkpt>
      <trkpt lat="43.83112" lon="6.96233">
        <ele>1380.6</ele>
        <time>2009-04-30T14:58:20Z</time>
      </trkpt>
      <trkpt lat="43.83112" lon="6.96192">
        <ele>1379.1</ele>
        <time>2009-04-30T14:58:25Z</time>
      </trkpt>
      <trkpt lat="43.83111" lon="6.96148">
        <ele>1378.7</ele>
        <time>2009-04-30T14:58:31Z</time>
      </trkpt>
      <trkpt lat="43.83109" lon="6.9611">
        <ele>1379.1</ele>
        <time>2009-04-30T14:58:36Z</time>
      </trkpt>
      <trkpt lat="43.83107" lon="6.96071">
        <ele>1380.1</ele>
        <time>2009-04-30T14:58:42Z</time>
      </trkpt>
      <trkpt lat="43.83104" lon="6.96031">
        <ele>1382</ele>
        <time>2009-04-30T14:58:51Z</time>
      </trkpt>
      <trkpt lat="43.83117" lon="6.95996">
        <ele>1385.9</ele>
        <time>2009-04-30T14:59:04Z</time>
      </trkpt>
      <trkpt lat="43.83144" lon="6.95978">
        <ele>1391.2</ele>
        <time>2009-04-30T14:59:16Z</time>
      </trkpt>
      <trkpt lat="43.83169" lon="6.95962">
        <ele>1395</ele>
        <time>2009-04-30T14:59:29Z</time>
      </trkpt>
      <trkpt lat="43.83152" lon="6.95941">
        <ele>1395</ele>
        <time>2009-04-30T14:59:40Z</time>
      </trkpt>
      <trkpt lat="43.83125" lon="6.95933">
        <ele>1394</ele>
        <time>2009-04-30T14:59:48Z</time>
      </trkpt>
      <trkpt lat="43.831" lon="6.95918">
        <ele>1393.6</ele>
        <time>2009-04-30T14:59:55Z</time>
      </trkpt>
      <trkpt lat="43.83078" lon="6.95897">
        <ele>1394.5</ele>
        <time>2009-04-30T15:00:03Z</time>
      </trkpt>
      <trkpt lat="43.83058" lon="6.95874">
        <ele>1396</ele>
        <time>2009-04-30T15:00:11Z</time>
      </trkpt>
      <trkpt lat="43.83039" lon="6.95844">
        <ele>1395.5</ele>
        <time>2009-04-30T15:00:19Z</time>
      </trkpt>
      <trkpt lat="43.83026" lon="6.95811">
        <ele>1395.5</ele>
        <time>2009-04-30T15:00:27Z</time>
      </trkpt>
      <trkpt lat="43.83016" lon="6.95772">
        <ele>1398.4</ele>
        <time>2009-04-30T15:00:36Z</time>
      </trkpt>
      <trkpt lat="43.83014" lon="6.95734">
        <ele>1399.3</ele>
        <time>2009-04-30T15:00:45Z</time>
      </trkpt>
      <trkpt lat="43.83017" lon="6.95694">
        <ele>1401.7</ele>
        <time>2009-04-30T15:00:54Z</time>
      </trkpt>
      <trkpt lat="43.83028" lon="6.95656">
        <ele>1405.6</ele>
        <time>2009-04-30T15:01:03Z</time>
      </trkpt>
      <trkpt lat="43.83041" lon="6.95623">
        <ele>1407.5</ele>
        <time>2009-04-30T15:01:11Z</time>
      </trkpt>
      <trkpt lat="43.83057" lon="6.95591">
        <ele>1407.5</ele>
        <time>2009-04-30T15:01:19Z</time>
      </trkpt>
      <trkpt lat="43.83077" lon="6.95563">
        <ele>1407</ele>
        <time>2009-04-30T15:01:26Z</time>
      </trkpt>
      <trkpt lat="43.83097" lon="6.95538">
        <ele>1407</ele>
        <time>2009-04-30T15:01:32Z</time>
      </trkpt>
      <trkpt lat="43.83118" lon="6.95514">
        <ele>1406.1</ele>
        <time>2009-04-30T15:01:38Z</time>
      </trkpt>
      <trkpt lat="43.83141" lon="6.95486">
        <ele>1408</ele>
        <time>2009-04-30T15:01:44Z</time>
      </trkpt>
      <trkpt lat="43.83162" lon="6.95456">
        <ele>1408.5</ele>
        <time>2009-04-30T15:01:50Z</time>
      </trkpt>
      <trkpt lat="43.8318" lon="6.95421">
        <ele>1408.5</ele>
        <time>2009-04-30T15:01:56Z</time>
      </trkpt>
      <trkpt lat="43.83193" lon="6.95381">
        <ele>1407</ele>
        <time>2009-04-30T15:02:02Z</time>
      </trkpt>
      <trkpt lat="43.832" lon="6.95338">
        <ele>1405.1</ele>
        <time>2009-04-30T15:02:08Z</time>
      </trkpt>
      <trkpt lat="43.83205" lon="6.95294">
        <ele>1406.1</ele>
        <time>2009-04-30T15:02:14Z</time>
      </trkpt>
      <trkpt lat="43.83205" lon="6.95255">
        <ele>1406.1</ele>
        <time>2009-04-30T15:02:19Z</time>
      </trkpt>
      <trkpt lat="43.83204" lon="6.95216">
        <ele>1405.6</ele>
        <time>2009-04-30T15:02:24Z</time>
      </trkpt>
      <trkpt lat="43.83201" lon="6.95178">
        <ele>1404.1</ele>
        <time>2009-04-30T15:02:29Z</time>
      </trkpt>
      <trkpt lat="43.83197" lon="6.95137">
        <ele>1402.7</ele>
        <time>2009-04-30T15:02:34Z</time>
      </trkpt>
      <trkpt lat="43.83192" lon="6.95098">
        <ele>1400.8</ele>
        <time>2009-04-30T15:02:39Z</time>
      </trkpt>
      <trkpt lat="43.83182" lon="6.95058">
        <ele>1397.9</ele>
        <time>2009-04-30T15:02:44Z</time>
      </trkpt>
      <trkpt lat="43.83172" lon="6.95018">
        <ele>1394</ele>
        <time>2009-04-30T15:02:49Z</time>
      </trkpt>
      <trkpt lat="43.83158" lon="6.94981">
        <ele>1392.6</ele>
        <time>2009-04-30T15:02:54Z</time>
      </trkpt>
      <trkpt lat="43.83142" lon="6.94945">
        <ele>1394</ele>
        <time>2009-04-30T15:02:59Z</time>
      </trkpt>
      <trkpt lat="43.83125" lon="6.94908">
        <ele>1394.5</ele>
        <time>2009-04-30T15:03:05Z</time>
      </trkpt>
      <trkpt lat="43.83107" lon="6.94877">
        <ele>1394</ele>
        <time>2009-04-30T15:03:11Z</time>
      </trkpt>
      <trkpt lat="43.83088" lon="6.94849">
        <ele>1395</ele>
        <time>2009-04-30T15:03:17Z</time>
      </trkpt>
      <trkpt lat="43.83066" lon="6.94825">
        <ele>1395</ele>
        <time>2009-04-30T15:03:23Z</time>
      </trkpt>
      <trkpt lat="43.83041" lon="6.94806">
        <ele>1395.5</ele>
        <time>2009-04-30T15:03:29Z</time>
      </trkpt>
      <trkpt lat="43.83016" lon="6.94788">
        <ele>1395.5</ele>
        <time>2009-04-30T15:03:35Z</time>
      </trkpt>
      <trkpt lat="43.82988" lon="6.94775">
        <ele>1396</ele>
        <time>2009-04-30T15:03:41Z</time>
      </trkpt>
      <trkpt lat="43.8296" lon="6.94767">
        <ele>1396.5</ele>
        <time>2009-04-30T15:03:47Z</time>
      </trkpt>
      <trkpt lat="43.82932" lon="6.94763">
        <ele>1398.9</ele>
        <time>2009-04-30T15:03:54Z</time>
      </trkpt>
      <trkpt lat="43.82903" lon="6.94765">
        <ele>1403.2</ele>
        <time>2009-04-30T15:04:03Z</time>
      </trkpt>
      <trkpt lat="43.82874" lon="6.94784">
        <ele>1407</ele>
        <time>2009-04-30T15:04:11Z</time>
      </trkpt>
      <trkpt lat="43.8285" lon="6.94805">
        <ele>1408.9</ele>
        <time>2009-04-30T15:04:19Z</time>
      </trkpt>
      <trkpt lat="43.82824" lon="6.94818">
        <ele>1409.4</ele>
        <time>2009-04-30T15:04:28Z</time>
      </trkpt>
      <trkpt lat="43.82799" lon="6.94808">
        <ele>1409.9</ele>
        <time>2009-04-30T15:04:37Z</time>
      </trkpt>
      <trkpt lat="43.82786" lon="6.94773">
        <ele>1409.4</ele>
        <time>2009-04-30T15:04:51Z</time>
      </trkpt>
      <trkpt lat="43.82801" lon="6.9474">
        <ele>1409.9</ele>
        <time>2009-04-30T15:05:02Z</time>
      </trkpt>
      <trkpt lat="43.82822" lon="6.94713">
        <ele>1410.9</ele>
        <time>2009-04-30T15:05:12Z</time>
      </trkpt>
      <trkpt lat="43.82846" lon="6.94694">
        <ele>1414.2</ele>
        <time>2009-04-30T15:05:22Z</time>
      </trkpt>
      <trkpt lat="43.82869" lon="6.94674">
        <ele>1416.6</ele>
        <time>2009-04-30T15:05:32Z</time>
      </trkpt>
      <trkpt lat="43.82893" lon="6.94652">
        <ele>1419.5</ele>
        <time>2009-04-30T15:05:42Z</time>
      </trkpt>
      <trkpt lat="43.82917" lon="6.94629">
        <ele>1421.4</ele>
        <time>2009-04-30T15:05:52Z</time>
      </trkpt>
      <trkpt lat="43.82942" lon="6.94608">
        <ele>1421.9</ele>
        <time>2009-04-30T15:06:02Z</time>
      </trkpt>
      <trkpt lat="43.82967" lon="6.94584">
        <ele>1423.8</ele>
        <time>2009-04-30T15:06:12Z</time>
      </trkpt>
      <trkpt lat="43.82992" lon="6.94557">
        <ele>1423.8</ele>
        <time>2009-04-30T15:06:22Z</time>
      </trkpt>
      <trkpt lat="43.83007" lon="6.94522">
        <ele>1425.3</ele>
        <time>2009-04-30T15:06:32Z</time>
      </trkpt>
      <trkpt lat="43.83015" lon="6.9448">
        <ele>1424.8</ele>
        <time>2009-04-30T15:06:41Z</time>
      </trkpt>
      <trkpt lat="43.8302" lon="6.94438">
        <ele>1424.8</ele>
        <time>2009-04-30T15:06:49Z</time>
      </trkpt>
      <trkpt lat="43.83023" lon="6.94398">
        <ele>1423.8</ele>
        <time>2009-04-30T15:06:56Z</time>
      </trkpt>
      <trkpt lat="43.83025" lon="6.94359">
        <ele>1423.4</ele>
        <time>2009-04-30T15:07:03Z</time>
      </trkpt>
      <trkpt lat="43.83026" lon="6.94317">
        <ele>1423.8</ele>
        <time>2009-04-30T15:07:11Z</time>
      </trkpt>
      <trkpt lat="43.83023" lon="6.94276">
        <ele>1421.9</ele>
        <time>2009-04-30T15:07:17Z</time>
      </trkpt>
      <trkpt lat="43.83023" lon="6.9423">
        <ele>1419.5</ele>
        <time>2009-04-30T15:07:22Z</time>
      </trkpt>
      <trkpt lat="43.83026" lon="6.94184">
        <ele>1419</ele>
        <time>2009-04-30T15:07:26Z</time>
      </trkpt>
      <trkpt lat="43.83032" lon="6.94148">
        <ele>1416.2</ele>
        <time>2009-04-30T15:07:29Z</time>
      </trkpt>
      <trkpt lat="43.83038" lon="6.94109">
        <ele>1414.7</ele>
        <time>2009-04-30T15:07:32Z</time>
      </trkpt>
      <trkpt lat="43.83041" lon="6.94068">
        <ele>1412.3</ele>
        <time>2009-04-30T15:07:35Z</time>
      </trkpt>
      <trkpt lat="43.83044" lon="6.94026">
        <ele>1410.4</ele>
        <time>2009-04-30T15:07:38Z</time>
      </trkpt>
      <trkpt lat="43.83046" lon="6.93984">
        <ele>1408.9</ele>
        <time>2009-04-30T15:07:41Z</time>
      </trkpt>
      <trkpt lat="43.83048" lon="6.93943">
        <ele>1407</ele>
        <time>2009-04-30T15:07:44Z</time>
      </trkpt>
      <trkpt lat="43.83048" lon="6.93902">
        <ele>1405.1</ele>
        <time>2009-04-30T15:07:47Z</time>
      </trkpt>
      <trkpt lat="43.83045" lon="6.93863">
        <ele>1402.7</ele>
        <time>2009-04-30T15:07:50Z</time>
      </trkpt>
      <trkpt lat="43.83038" lon="6.93826">
        <ele>1401.3</ele>
        <time>2009-04-30T15:07:53Z</time>
      </trkpt>
      <trkpt lat="43.83027" lon="6.93781">
        <ele>1397.9</ele>
        <time>2009-04-30T15:07:57Z</time>
      </trkpt>
      <trkpt lat="43.83018" lon="6.93736">
        <ele>1397.4</ele>
        <time>2009-04-30T15:08:01Z</time>
      </trkpt>
      <trkpt lat="43.83013" lon="6.93689">
        <ele>1396.9</ele>
        <time>2009-04-30T15:08:05Z</time>
      </trkpt>
      <trkpt lat="43.83012" lon="6.93639">
        <ele>1396.5</ele>
        <time>2009-04-30T15:08:09Z</time>
      </trkpt>
      <trkpt lat="43.83015" lon="6.93602">
        <ele>1396</ele>
        <time>2009-04-30T15:08:12Z</time>
      </trkpt>
      <trkpt lat="43.83021" lon="6.93563">
        <ele>1394.5</ele>
        <time>2009-04-30T15:08:15Z</time>
      </trkpt>
      <trkpt lat="43.83029" lon="6.93524">
        <ele>1393.6</ele>
        <time>2009-04-30T15:08:18Z</time>
      </trkpt>
      <trkpt lat="43.83037" lon="6.93485">
        <ele>1392.1</ele>
        <time>2009-04-30T15:08:21Z</time>
      </trkpt>
      <trkpt lat="43.83045" lon="6.93446">
        <ele>1391.2</ele>
        <time>2009-04-30T15:08:24Z</time>
      </trkpt>
      <trkpt lat="43.83051" lon="6.93409">
        <ele>1389.7</ele>
        <time>2009-04-30T15:08:27Z</time>
      </trkpt>
      <trkpt lat="43.83049" lon="6.93365">
        <ele>1386.8</ele>
        <time>2009-04-30T15:08:31Z</time>
      </trkpt>
      <trkpt lat="43.83044" lon="6.93327">
        <ele>1387.8</ele>
        <time>2009-04-30T15:08:35Z</time>
      </trkpt>
      <trkpt lat="43.83034" lon="6.93285">
        <ele>1388.3</ele>
        <time>2009-04-30T15:08:40Z</time>
      </trkpt>
      <trkpt lat="43.83023" lon="6.93248">
        <ele>1387.3</ele>
        <time>2009-04-30T15:08:45Z</time>
      </trkpt>
      <trkpt lat="43.83014" lon="6.93206">
        <ele>1386.8</ele>
        <time>2009-04-30T15:08:51Z</time>
      </trkpt>
      <trkpt lat="43.83006" lon="6.93166">
        <ele>1388.3</ele>
        <time>2009-04-30T15:08:57Z</time>
      </trkpt>
      <trkpt lat="43.83001" lon="6.93126">
        <ele>1390.2</ele>
        <time>2009-04-30T15:09:03Z</time>
      </trkpt>
      <trkpt lat="43.82996" lon="6.93084">
        <ele>1389.2</ele>
        <time>2009-04-30T15:09:09Z</time>
      </trkpt>
      <trkpt lat="43.82992" lon="6.93046">
        <ele>1389.7</ele>
        <time>2009-04-30T15:09:14Z</time>
      </trkpt>
      <trkpt lat="43.82987" lon="6.93007">
        <ele>1390.7</ele>
        <time>2009-04-30T15:09:19Z</time>
      </trkpt>
      <trkpt lat="43.82984" lon="6.92966">
        <ele>1390.7</ele>
        <time>2009-04-30T15:09:24Z</time>
      </trkpt>
      <trkpt lat="43.82984" lon="6.92923">
        <ele>1391.6</ele>
        <time>2009-04-30T15:09:29Z</time>
      </trkpt>
      <trkpt lat="43.82984" lon="6.92879">
        <ele>1391.6</ele>
        <time>2009-04-30T15:09:34Z</time>
      </trkpt>
      <trkpt lat="43.82983" lon="6.92834">
        <ele>1390.7</ele>
        <time>2009-04-30T15:09:39Z</time>
      </trkpt>
      <trkpt lat="43.82984" lon="6.92789">
        <ele>1390.2</ele>
        <time>2009-04-30T15:09:44Z</time>
      </trkpt>
      <trkpt lat="43.82982" lon="6.92747">
        <ele>1389.7</ele>
        <time>2009-04-30T15:09:49Z</time>
      </trkpt>
      <trkpt lat="43.82982" lon="6.92704">
        <ele>1388.3</ele>
        <time>2009-04-30T15:09:54Z</time>
      </trkpt>
      <trkpt lat="43.82979" lon="6.92659">
        <ele>1386.8</ele>
        <time>2009-04-30T15:09:59Z</time>
      </trkpt>
      <trkpt lat="43.82975" lon="6.92612">
        <ele>1384.9</ele>
        <time>2009-04-30T15:10:04Z</time>
      </trkpt>
      <trkpt lat="43.82971" lon="6.92567">
        <ele>1382.5</ele>
        <time>2009-04-30T15:10:09Z</time>
      </trkpt>
      <trkpt lat="43.82966" lon="6.9253">
        <ele>1379.6</ele>
        <time>2009-04-30T15:10:13Z</time>
      </trkpt>
      <trkpt lat="43.82962" lon="6.92491">
        <ele>1380.1</ele>
        <time>2009-04-30T15:10:17Z</time>
      </trkpt>
      <trkpt lat="43.82957" lon="6.92452">
        <ele>1379.1</ele>
        <time>2009-04-30T15:10:21Z</time>
      </trkpt>
      <trkpt lat="43.82953" lon="6.92413">
        <ele>1377.7</ele>
        <time>2009-04-30T15:10:25Z</time>
      </trkpt>
      <trkpt lat="43.82949" lon="6.92373">
        <ele>1377.7</ele>
        <time>2009-04-30T15:10:29Z</time>
      </trkpt>
      <trkpt lat="43.82946" lon="6.92333">
        <ele>1380.6</ele>
        <time>2009-04-30T15:10:33Z</time>
      </trkpt>
      <trkpt lat="43.82942" lon="6.92288">
        <ele>1378.7</ele>
        <time>2009-04-30T15:10:38Z</time>
      </trkpt>
      <trkpt lat="43.82939" lon="6.92246">
        <ele>1377.7</ele>
        <time>2009-04-30T15:10:43Z</time>
      </trkpt>
      <trkpt lat="43.82935" lon="6.92204">
        <ele>1378.7</ele>
        <time>2009-04-30T15:10:48Z</time>
      </trkpt>
      <trkpt lat="43.82931" lon="6.92159">
        <ele>1381.6</ele>
        <time>2009-04-30T15:10:53Z</time>
      </trkpt>
      <trkpt lat="43.82927" lon="6.92117">
        <ele>1382.5</ele>
        <time>2009-04-30T15:10:58Z</time>
      </trkpt>
      <trkpt lat="43.82924" lon="6.92075">
        <ele>1381.6</ele>
        <time>2009-04-30T15:11:03Z</time>
      </trkpt>
      <trkpt lat="43.8292" lon="6.92031">
        <ele>1380.1</ele>
        <time>2009-04-30T15:11:08Z</time>
      </trkpt>
      <trkpt lat="43.82916" lon="6.91986">
        <ele>1379.1</ele>
        <time>2009-04-30T15:11:13Z</time>
      </trkpt>
      <trkpt lat="43.82911" lon="6.91941">
        <ele>1377.7</ele>
        <time>2009-04-30T15:11:18Z</time>
      </trkpt>
      <trkpt lat="43.82903" lon="6.91897">
        <ele>1376.7</ele>
        <time>2009-04-30T15:11:23Z</time>
      </trkpt>
      <trkpt lat="43.82896" lon="6.91853">
        <ele>1374.8</ele>
        <time>2009-04-30T15:11:28Z</time>
      </trkpt>
      <trkpt lat="43.82889" lon="6.9181">
        <ele>1375.3</ele>
        <time>2009-04-30T15:11:33Z</time>
      </trkpt>
      <trkpt lat="43.82882" lon="6.91768">
        <ele>1376.3</ele>
        <time>2009-04-30T15:11:38Z</time>
      </trkpt>
      <trkpt lat="43.82872" lon="6.9173">
        <ele>1375.3</ele>
        <time>2009-04-30T15:11:43Z</time>
      </trkpt>
      <trkpt lat="43.82863" lon="6.91692">
        <ele>1375.3</ele>
        <time>2009-04-30T15:11:48Z</time>
      </trkpt>
      <trkpt lat="43.82854" lon="6.91656">
        <ele>1375.3</ele>
        <time>2009-04-30T15:11:53Z</time>
      </trkpt>
      <trkpt lat="43.82843" lon="6.91618">
        <ele>1373.9</ele>
        <time>2009-04-30T15:11:59Z</time>
      </trkpt>
      <trkpt lat="43.82833" lon="6.91578">
        <ele>1373.4</ele>
        <time>2009-04-30T15:12:05Z</time>
      </trkpt>
      <trkpt lat="43.82822" lon="6.91535">
        <ele>1373.4</ele>
        <time>2009-04-30T15:12:11Z</time>
      </trkpt>
      <trkpt lat="43.82812" lon="6.91494">
        <ele>1373.4</ele>
        <time>2009-04-30T15:12:17Z</time>
      </trkpt>
      <trkpt lat="43.82802" lon="6.91451">
        <ele>1374.3</ele>
        <time>2009-04-30T15:12:23Z</time>
      </trkpt>
      <trkpt lat="43.82797" lon="6.91414">
        <ele>1373.9</ele>
        <time>2009-04-30T15:12:28Z</time>
      </trkpt>
      <trkpt lat="43.8279" lon="6.91373">
        <ele>1373.9</ele>
        <time>2009-04-30T15:12:33Z</time>
      </trkpt>
      <trkpt lat="43.82785" lon="6.91333">
        <ele>1375.8</ele>
        <time>2009-04-30T15:12:38Z</time>
      </trkpt>
      <trkpt lat="43.82782" lon="6.91293">
        <ele>1374.8</ele>
        <time>2009-04-30T15:12:43Z</time>
      </trkpt>
      <trkpt lat="43.82779" lon="6.91253">
        <ele>1373.9</ele>
        <time>2009-04-30T15:12:48Z</time>
      </trkpt>
      <trkpt lat="43.82776" lon="6.91212">
        <ele>1373.9</ele>
        <time>2009-04-30T15:12:53Z</time>
      </trkpt>
      <trkpt lat="43.82773" lon="6.91173">
        <ele>1374.3</ele>
        <time>2009-04-30T15:12:58Z</time>
      </trkpt>
      <trkpt lat="43.8277" lon="6.91135">
        <ele>1373.9</ele>
        <time>2009-04-30T15:13:03Z</time>
      </trkpt>
      <trkpt lat="43.82765" lon="6.91092">
        <ele>1374.8</ele>
        <time>2009-04-30T15:13:09Z</time>
      </trkpt>
      <trkpt lat="43.82761" lon="6.91051">
        <ele>1374.8</ele>
        <time>2009-04-30T15:13:15Z</time>
      </trkpt>
      <trkpt lat="43.82755" lon="6.91008">
        <ele>1375.8</ele>
        <time>2009-04-30T15:13:21Z</time>
      </trkpt>
      <trkpt lat="43.82749" lon="6.90971">
        <ele>1373.9</ele>
        <time>2009-04-30T15:13:26Z</time>
      </trkpt>
      <trkpt lat="43.82741" lon="6.90932">
        <ele>1372.9</ele>
        <time>2009-04-30T15:13:31Z</time>
      </trkpt>
      <trkpt lat="43.82732" lon="6.90889">
        <ele>1370.5</ele>
        <time>2009-04-30T15:13:36Z</time>
      </trkpt>
      <trkpt lat="43.82723" lon="6.90845">
        <ele>1369.5</ele>
        <time>2009-04-30T15:13:41Z</time>
      </trkpt>
      <trkpt lat="43.82714" lon="6.90802">
        <ele>1368.1</ele>
        <time>2009-04-30T15:13:46Z</time>
      </trkpt>
      <trkpt lat="43.82704" lon="6.90758">
        <ele>1367.1</ele>
        <time>2009-04-30T15:13:51Z</time>
      </trkpt>
      <trkpt lat="43.82694" lon="6.90722">
        <ele>1365.7</ele>
        <time>2009-04-30T15:13:55Z</time>
      </trkpt>
      <trkpt lat="43.82682" lon="6.90687">
        <ele>1364.2</ele>
        <time>2009-04-30T15:13:59Z</time>
      </trkpt>
      <trkpt lat="43.8267" lon="6.90649">
        <ele>1363.3</ele>
        <time>2009-04-30T15:14:03Z</time>
      </trkpt>
      <trkpt lat="43.82659" lon="6.90609">
        <ele>1364.2</ele>
        <time>2009-04-30T15:14:07Z</time>
      </trkpt>
      <trkpt lat="43.8265" lon="6.90569">
        <ele>1364.7</ele>
        <time>2009-04-30T15:14:11Z</time>
      </trkpt>
      <trkpt lat="43.82642" lon="6.9053">
        <ele>1363.8</ele>
        <time>2009-04-30T15:14:15Z</time>
      </trkpt>
      <trkpt lat="43.82633" lon="6.90491">
        <ele>1363.3</ele>
        <time>2009-04-30T15:14:19Z</time>
      </trkpt>
      <trkpt lat="43.82623" lon="6.90455">
        <ele>1362.3</ele>
        <time>2009-04-30T15:14:23Z</time>
      </trkpt>
      <trkpt lat="43.82612" lon="6.90418">
        <ele>1363.3</ele>
        <time>2009-04-30T15:14:27Z</time>
      </trkpt>
      <trkpt lat="43.82602" lon="6.90384">
        <ele>1362.8</ele>
        <time>2009-04-30T15:14:31Z</time>
      </trkpt>
      <trkpt lat="43.82591" lon="6.90341">
        <ele>1362.3</ele>
        <time>2009-04-30T15:14:36Z</time>
      </trkpt>
      <trkpt lat="43.82578" lon="6.90299">
        <ele>1360.9</ele>
        <time>2009-04-30T15:14:41Z</time>
      </trkpt>
      <trkpt lat="43.82565" lon="6.90265">
        <ele>1360.4</ele>
        <time>2009-04-30T15:14:45Z</time>
      </trkpt>
      <trkpt lat="43.82547" lon="6.90227">
        <ele>1358.5</ele>
        <time>2009-04-30T15:14:50Z</time>
      </trkpt>
      <trkpt lat="43.8253" lon="6.90192">
        <ele>1357.5</ele>
        <time>2009-04-30T15:14:55Z</time>
      </trkpt>
      <trkpt lat="43.82512" lon="6.90156">
        <ele>1357.5</ele>
        <time>2009-04-30T15:15:00Z</time>
      </trkpt>
      <trkpt lat="43.82496" lon="6.9012">
        <ele>1357</ele>
        <time>2009-04-30T15:15:05Z</time>
      </trkpt>
      <trkpt lat="43.82479" lon="6.90079">
        <ele>1356.6</ele>
        <time>2009-04-30T15:15:10Z</time>
      </trkpt>
      <trkpt lat="43.82464" lon="6.90041">
        <ele>1354.6</ele>
        <time>2009-04-30T15:15:14Z</time>
      </trkpt>
      <trkpt lat="43.82447" lon="6.89999">
        <ele>1351.8</ele>
        <time>2009-04-30T15:15:18Z</time>
      </trkpt>
      <trkpt lat="43.82434" lon="6.89965">
        <ele>1349.3</ele>
        <time>2009-04-30T15:15:21Z</time>
      </trkpt>
      <trkpt lat="43.82419" lon="6.8993">
        <ele>1346.9</ele>
        <time>2009-04-30T15:15:24Z</time>
      </trkpt>
      <trkpt lat="43.82405" lon="6.89894">
        <ele>1344.5</ele>
        <time>2009-04-30T15:15:27Z</time>
      </trkpt>
      <trkpt lat="43.82391" lon="6.89856">
        <ele>1342.1</ele>
        <time>2009-04-30T15:15:30Z</time>
      </trkpt>
      <trkpt lat="43.82378" lon="6.89817">
        <ele>1340.7</ele>
        <time>2009-04-30T15:15:33Z</time>
      </trkpt>
      <trkpt lat="43.82369" lon="6.89775">
        <ele>1338.3</ele>
        <time>2009-04-30T15:15:36Z</time>
      </trkpt>
      <trkpt lat="43.82357" lon="6.89734">
        <ele>1334.9</ele>
        <time>2009-04-30T15:15:39Z</time>
      </trkpt>
      <trkpt lat="43.8234" lon="6.89695">
        <ele>1332.5</ele>
        <time>2009-04-30T15:15:42Z</time>
      </trkpt>
      <trkpt lat="43.82322" lon="6.89658">
        <ele>1328.7</ele>
        <time>2009-04-30T15:15:45Z</time>
      </trkpt>
      <trkpt lat="43.82302" lon="6.89621">
        <ele>1325.3</ele>
        <time>2009-04-30T15:15:48Z</time>
      </trkpt>
      <trkpt lat="43.82282" lon="6.89583">
        <ele>1324.4</ele>
        <time>2009-04-30T15:15:51Z</time>
      </trkpt>
      <trkpt lat="43.82266" lon="6.89541">
        <ele>1322.4</ele>
        <time>2009-04-30T15:15:54Z</time>
      </trkpt>
      <trkpt lat="43.82251" lon="6.89495">
        <ele>1319.5</ele>
        <time>2009-04-30T15:15:57Z</time>
      </trkpt>
      <trkpt lat="43.82237" lon="6.89447">
        <ele>1316.7</ele>
        <time>2009-04-30T15:16:00Z</time>
      </trkpt>
      <trkpt lat="43.82227" lon="6.89405">
        <ele>1313.3</ele>
        <time>2009-04-30T15:16:03Z</time>
      </trkpt>
      <trkpt lat="43.82206" lon="6.89378">
        <ele>1312.8</ele>
        <time>2009-04-30T15:16:07Z</time>
      </trkpt>
      <trkpt lat="43.82192" lon="6.89412">
        <ele>1309.9</ele>
        <time>2009-04-30T15:16:11Z</time>
      </trkpt>
      <trkpt lat="43.82194" lon="6.89459">
        <ele>1306.1</ele>
        <time>2009-04-30T15:16:15Z</time>
      </trkpt>
      <trkpt lat="43.82188" lon="6.89509">
        <ele>1305.1</ele>
        <time>2009-04-30T15:16:19Z</time>
      </trkpt>
      <trkpt lat="43.82185" lon="6.8955">
        <ele>1303.2</ele>
        <time>2009-04-30T15:16:22Z</time>
      </trkpt>
      <trkpt lat="43.82185" lon="6.89594">
        <ele>1300.8</ele>
        <time>2009-04-30T15:16:25Z</time>
      </trkpt>
      <trkpt lat="43.82187" lon="6.89641">
        <ele>1298.4</ele>
        <time>2009-04-30T15:16:28Z</time>
      </trkpt>
      <trkpt lat="43.82189" lon="6.89689">
        <ele>1295</ele>
        <time>2009-04-30T15:16:31Z</time>
      </trkpt>
      <trkpt lat="43.82196" lon="6.8973">
        <ele>1292.6</ele>
        <time>2009-04-30T15:16:34Z</time>
      </trkpt>
      <trkpt lat="43.82184" lon="6.89761">
        <ele>1288.3</ele>
        <time>2009-04-30T15:16:38Z</time>
      </trkpt>
      <trkpt lat="43.82167" lon="6.89731">
        <ele>1285.4</ele>
        <time>2009-04-30T15:16:42Z</time>
      </trkpt>
      <trkpt lat="43.82156" lon="6.89687">
        <ele>1286.4</ele>
        <time>2009-04-30T15:16:46Z</time>
      </trkpt>
      <trkpt lat="43.8214" lon="6.89655">
        <ele>1283.5</ele>
        <time>2009-04-30T15:16:49Z</time>
      </trkpt>
      <trkpt lat="43.82124" lon="6.8962">
        <ele>1282.1</ele>
        <time>2009-04-30T15:16:52Z</time>
      </trkpt>
      <trkpt lat="43.82107" lon="6.89583">
        <ele>1278.7</ele>
        <time>2009-04-30T15:16:55Z</time>
      </trkpt>
      <trkpt lat="43.82091" lon="6.89544">
        <ele>1275.8</ele>
        <time>2009-04-30T15:16:58Z</time>
      </trkpt>
      <trkpt lat="43.82077" lon="6.895">
        <ele>1272.9</ele>
        <time>2009-04-30T15:17:01Z</time>
      </trkpt>
      <trkpt lat="43.82074" lon="6.89453">
        <ele>1271.5</ele>
        <time>2009-04-30T15:17:04Z</time>
      </trkpt>
      <trkpt lat="43.82054" lon="6.89424">
        <ele>1271.5</ele>
        <time>2009-04-30T15:17:08Z</time>
      </trkpt>
      <trkpt lat="43.8204" lon="6.89463">
        <ele>1268.1</ele>
        <time>2009-04-30T15:17:12Z</time>
      </trkpt>
      <trkpt lat="43.82041" lon="6.89512">
        <ele>1265.7</ele>
        <time>2009-04-30T15:17:16Z</time>
      </trkpt>
      <trkpt lat="43.82037" lon="6.89562">
        <ele>1263.8</ele>
        <time>2009-04-30T15:17:20Z</time>
      </trkpt>
      <trkpt lat="43.82032" lon="6.896">
        <ele>1260.9</ele>
        <time>2009-04-30T15:17:23Z</time>
      </trkpt>
      <trkpt lat="43.82026" lon="6.8964">
        <ele>1259.5</ele>
        <time>2009-04-30T15:17:26Z</time>
      </trkpt>
      <trkpt lat="43.82019" lon="6.89682">
        <ele>1259</ele>
        <time>2009-04-30T15:17:29Z</time>
      </trkpt>
      <trkpt lat="43.82007" lon="6.89722">
        <ele>1258</ele>
        <time>2009-04-30T15:17:32Z</time>
      </trkpt>
      <trkpt lat="43.81994" lon="6.89763">
        <ele>1256.1</ele>
        <time>2009-04-30T15:17:36Z</time>
      </trkpt>
      <trkpt lat="43.81998" lon="6.89808">
        <ele>1253.7</ele>
        <time>2009-04-30T15:17:40Z</time>
      </trkpt>
      <trkpt lat="43.81996" lon="6.89848">
        <ele>1250.8</ele>
        <time>2009-04-30T15:17:44Z</time>
      </trkpt>
      <trkpt lat="43.81973" lon="6.89834">
        <ele>1245</ele>
        <time>2009-04-30T15:17:48Z</time>
      </trkpt>
      <trkpt lat="43.81966" lon="6.89788">
        <ele>1243.1</ele>
        <time>2009-04-30T15:17:52Z</time>
      </trkpt>
      <trkpt lat="43.81951" lon="6.8975">
        <ele>1240.2</ele>
        <time>2009-04-30T15:17:56Z</time>
      </trkpt>
      <trkpt lat="43.81938" lon="6.89708">
        <ele>1239.3</ele>
        <time>2009-04-30T15:18:00Z</time>
      </trkpt>
      <trkpt lat="43.81924" lon="6.89675">
        <ele>1237.4</ele>
        <time>2009-04-30T15:18:03Z</time>
      </trkpt>
      <trkpt lat="43.8191" lon="6.89641">
        <ele>1235.9</ele>
        <time>2009-04-30T15:18:06Z</time>
      </trkpt>
      <trkpt lat="43.81896" lon="6.89606">
        <ele>1233.5</ele>
        <time>2009-04-30T15:18:09Z</time>
      </trkpt>
      <trkpt lat="43.8188" lon="6.89569">
        <ele>1230.6</ele>
        <time>2009-04-30T15:18:12Z</time>
      </trkpt>
      <trkpt lat="43.81864" lon="6.89531">
        <ele>1227.7</ele>
        <time>2009-04-30T15:18:15Z</time>
      </trkpt>
      <trkpt lat="43.81848" lon="6.89492">
        <ele>1225.3</ele>
        <time>2009-04-30T15:18:18Z</time>
      </trkpt>
      <trkpt lat="43.81831" lon="6.89454">
        <ele>1220.5</ele>
        <time>2009-04-30T15:18:21Z</time>
      </trkpt>
      <trkpt lat="43.81815" lon="6.89415">
        <ele>1217.6</ele>
        <time>2009-04-30T15:18:24Z</time>
      </trkpt>
      <trkpt lat="43.81798" lon="6.89375">
        <ele>1215.2</ele>
        <time>2009-04-30T15:18:27Z</time>
      </trkpt>
      <trkpt lat="43.8178" lon="6.89334">
        <ele>1211.9</ele>
        <time>2009-04-30T15:18:30Z</time>
      </trkpt>
      <trkpt lat="43.81761" lon="6.89291">
        <ele>1208.5</ele>
        <time>2009-04-30T15:18:33Z</time>
      </trkpt>
      <trkpt lat="43.81742" lon="6.89247">
        <ele>1204.7</ele>
        <time>2009-04-30T15:18:36Z</time>
      </trkpt>
      <trkpt lat="43.81725" lon="6.89201">
        <ele>1200.8</ele>
        <time>2009-04-30T15:18:39Z</time>
      </trkpt>
      <trkpt lat="43.81709" lon="6.89153">
        <ele>1197.9</ele>
        <time>2009-04-30T15:18:42Z</time>
      </trkpt>
      <trkpt lat="43.81692" lon="6.89104">
        <ele>1195.1</ele>
        <time>2009-04-30T15:18:45Z</time>
      </trkpt>
      <trkpt lat="43.81675" lon="6.89053">
        <ele>1191.7</ele>
        <time>2009-04-30T15:18:48Z</time>
      </trkpt>
      <trkpt lat="43.81663" lon="6.89019">
        <ele>1188.8</ele>
        <time>2009-04-30T15:18:50Z</time>
      </trkpt>
      <trkpt lat="43.81651" lon="6.88985">
        <ele>1185.9</ele>
        <time>2009-04-30T15:18:52Z</time>
      </trkpt>
      <trkpt lat="43.8164" lon="6.8895">
        <ele>1183.5</ele>
        <time>2009-04-30T15:18:54Z</time>
      </trkpt>
      <trkpt lat="43.8163" lon="6.88915">
        <ele>1181.6</ele>
        <time>2009-04-30T15:18:56Z</time>
      </trkpt>
      <trkpt lat="43.8162" lon="6.88879">
        <ele>1178.7</ele>
        <time>2009-04-30T15:18:58Z</time>
      </trkpt>
      <trkpt lat="43.8161" lon="6.88844">
        <ele>1176.3</ele>
        <time>2009-04-30T15:19:00Z</time>
      </trkpt>
      <trkpt lat="43.81601" lon="6.88808">
        <ele>1173.4</ele>
        <time>2009-04-30T15:19:02Z</time>
      </trkpt>
      <trkpt lat="43.81593" lon="6.8877">
        <ele>1170.1</ele>
        <time>2009-04-30T15:19:04Z</time>
      </trkpt>
      <trkpt lat="43.81586" lon="6.88733">
        <ele>1167.7</ele>
        <time>2009-04-30T15:19:06Z</time>
      </trkpt>
      <trkpt lat="43.8158" lon="6.88695">
        <ele>1166.2</ele>
        <time>2009-04-30T15:19:08Z</time>
      </trkpt>
      <trkpt lat="43.81574" lon="6.88657">
        <ele>1164.3</ele>
        <time>2009-04-30T15:19:10Z</time>
      </trkpt>
      <trkpt lat="43.81567" lon="6.88618">
        <ele>1162.4</ele>
        <time>2009-04-30T15:19:12Z</time>
      </trkpt>
      <trkpt lat="43.81561" lon="6.8858">
        <ele>1160</ele>
        <time>2009-04-30T15:19:14Z</time>
      </trkpt>
      <trkpt lat="43.81556" lon="6.88541">
        <ele>1158</ele>
        <time>2009-04-30T15:19:16Z</time>
      </trkpt>
      <trkpt lat="43.81552" lon="6.88503">
        <ele>1156.6</ele>
        <time>2009-04-30T15:19:18Z</time>
      </trkpt>
      <trkpt lat="43.8155" lon="6.88464">
        <ele>1154.2</ele>
        <time>2009-04-30T15:19:20Z</time>
      </trkpt>
      <trkpt lat="43.81546" lon="6.88426">
        <ele>1154.7</ele>
        <time>2009-04-30T15:19:22Z</time>
      </trkpt>
      <trkpt lat="43.81544" lon="6.88388">
        <ele>1152.8</ele>
        <time>2009-04-30T15:19:24Z</time>
      </trkpt>
      <trkpt lat="43.81545" lon="6.88332">
        <ele>1148</ele>
        <time>2009-04-30T15:19:27Z</time>
      </trkpt>
      <trkpt lat="43.81548" lon="6.88278">
        <ele>1144.6</ele>
        <time>2009-04-30T15:19:30Z</time>
      </trkpt>
      <trkpt lat="43.81533" lon="6.8823">
        <ele>1141.7</ele>
        <time>2009-04-30T15:19:33Z</time>
      </trkpt>
      <trkpt lat="43.81511" lon="6.88197">
        <ele>1141.7</ele>
        <time>2009-04-30T15:19:36Z</time>
      </trkpt>
      <trkpt lat="43.81483" lon="6.88198">
        <ele>1141.7</ele>
        <time>2009-04-30T15:19:39Z</time>
      </trkpt>
      <trkpt lat="43.81463" lon="6.88232">
        <ele>1139.3</ele>
        <time>2009-04-30T15:19:42Z</time>
      </trkpt>
      <trkpt lat="43.81445" lon="6.88265">
        <ele>1135.9</ele>
        <time>2009-04-30T15:19:45Z</time>
      </trkpt>
      <trkpt lat="43.81422" lon="6.88291">
        <ele>1135</ele>
        <time>2009-04-30T15:19:48Z</time>
      </trkpt>
      <trkpt lat="43.81393" lon="6.88297">
        <ele>1133.5</ele>
        <time>2009-04-30T15:19:51Z</time>
      </trkpt>
      <trkpt lat="43.81364" lon="6.88298">
        <ele>1132.1</ele>
        <time>2009-04-30T15:19:54Z</time>
      </trkpt>
      <trkpt lat="43.81336" lon="6.883">
        <ele>1131.1</ele>
        <time>2009-04-30T15:19:57Z</time>
      </trkpt>
      <trkpt lat="43.81302" lon="6.88301">
        <ele>1131.6</ele>
        <time>2009-04-30T15:20:01Z</time>
      </trkpt>
      <trkpt lat="43.81272" lon="6.88304">
        <ele>1131.1</ele>
        <time>2009-04-30T15:20:05Z</time>
      </trkpt>
      <trkpt lat="43.8124" lon="6.88306">
        <ele>1131.1</ele>
        <time>2009-04-30T15:20:10Z</time>
      </trkpt>
      <trkpt lat="43.81212" lon="6.88305">
        <ele>1131.1</ele>
        <time>2009-04-30T15:20:15Z</time>
      </trkpt>
      <trkpt lat="43.81183" lon="6.88301">
        <ele>1131.6</ele>
        <time>2009-04-30T15:20:20Z</time>
      </trkpt>
      <trkpt lat="43.81157" lon="6.88295">
        <ele>1132.6</ele>
        <time>2009-04-30T15:20:25Z</time>
      </trkpt>
      <trkpt lat="43.81127" lon="6.88288">
        <ele>1132.6</ele>
        <time>2009-04-30T15:20:32Z</time>
      </trkpt>
      <trkpt lat="43.81097" lon="6.88281">
        <ele>1132.1</ele>
        <time>2009-04-30T15:22:12Z</time>
      </trkpt>
      <trkpt lat="43.8107" lon="6.88275">
        <ele>1131.6</ele>
        <time>2009-04-30T15:22:20Z</time>
      </trkpt>
      <trkpt lat="43.81041" lon="6.88272">
        <ele>1132.1</ele>
        <time>2009-04-30T15:22:28Z</time>
      </trkpt>
      <trkpt lat="43.8101" lon="6.88274">
        <ele>1132.6</ele>
        <time>2009-04-30T15:22:36Z</time>
      </trkpt>
      <trkpt lat="43.80981" lon="6.8828">
        <ele>1133.5</ele>
        <time>2009-04-30T15:22:44Z</time>
      </trkpt>
      <trkpt lat="43.80952" lon="6.88285">
        <ele>1136.4</ele>
        <time>2009-04-30T15:22:53Z</time>
      </trkpt>
      <trkpt lat="43.80925" lon="6.88291">
        <ele>1137.4</ele>
        <time>2009-04-30T15:23:03Z</time>
      </trkpt>
      <trkpt lat="43.80896" lon="6.88286">
        <ele>1137.9</ele>
        <time>2009-04-30T15:23:13Z</time>
      </trkpt>
      <trkpt lat="43.80883" lon="6.88314">
        <ele>1139.3</ele>
        <time>2009-04-30T15:23:23Z</time>
      </trkpt>
      <trkpt lat="43.80879" lon="6.88351">
        <ele>1142.2</ele>
        <time>2009-04-30T15:23:31Z</time>
      </trkpt>
      <trkpt lat="43.80875" lon="6.88389">
        <ele>1145.5</ele>
        <time>2009-04-30T15:23:39Z</time>
      </trkpt>
      <trkpt lat="43.80869" lon="6.88427">
        <ele>1147</ele>
        <time>2009-04-30T15:23:47Z</time>
      </trkpt>
      <trkpt lat="43.80863" lon="6.88469">
        <ele>1146.5</ele>
        <time>2009-04-30T15:23:55Z</time>
      </trkpt>
      <trkpt lat="43.80854" lon="6.88505">
        <ele>1148</ele>
        <time>2009-04-30T15:24:02Z</time>
      </trkpt>
      <trkpt lat="43.80843" lon="6.88542">
        <ele>1148.9</ele>
        <time>2009-04-30T15:24:09Z</time>
      </trkpt>
      <trkpt lat="43.80832" lon="6.88578">
        <ele>1148</ele>
        <time>2009-04-30T15:24:15Z</time>
      </trkpt>
      <trkpt lat="43.80821" lon="6.88618">
        <ele>1146.5</ele>
        <time>2009-04-30T15:24:20Z</time>
      </trkpt>
      <trkpt lat="43.80813" lon="6.88659">
        <ele>1143.6</ele>
        <time>2009-04-30T15:24:25Z</time>
      </trkpt>
      <trkpt lat="43.80805" lon="6.88696">
        <ele>1141.2</ele>
        <time>2009-04-30T15:24:29Z</time>
      </trkpt>
      <trkpt lat="43.80797" lon="6.88736">
        <ele>1140.3</ele>
        <time>2009-04-30T15:24:33Z</time>
      </trkpt>
      <trkpt lat="43.8079" lon="6.88775">
        <ele>1139.3</ele>
        <time>2009-04-30T15:24:37Z</time>
      </trkpt>
      <trkpt lat="43.80784" lon="6.88816">
        <ele>1138.3</ele>
        <time>2009-04-30T15:24:41Z</time>
      </trkpt>
      <trkpt lat="43.80778" lon="6.88855">
        <ele>1136.9</ele>
        <time>2009-04-30T15:24:45Z</time>
      </trkpt>
      <trkpt lat="43.80772" lon="6.88896">
        <ele>1135.9</ele>
        <time>2009-04-30T15:24:49Z</time>
      </trkpt>
      <trkpt lat="43.80766" lon="6.88937">
        <ele>1135.9</ele>
        <time>2009-04-30T15:24:53Z</time>
      </trkpt>
      <trkpt lat="43.80759" lon="6.8898">
        <ele>1135.9</ele>
        <time>2009-04-30T15:24:57Z</time>
      </trkpt>
      <trkpt lat="43.80754" lon="6.89025">
        <ele>1135.9</ele>
        <time>2009-04-30T15:25:01Z</time>
      </trkpt>
      <trkpt lat="43.80748" lon="6.89069">
        <ele>1135</ele>
        <time>2009-04-30T15:25:05Z</time>
      </trkpt>
      <trkpt lat="43.80742" lon="6.89113">
        <ele>1135</ele>
        <time>2009-04-30T15:25:09Z</time>
      </trkpt>
      <trkpt lat="43.80736" lon="6.89153">
        <ele>1135.5</ele>
        <time>2009-04-30T15:25:13Z</time>
      </trkpt>
      <trkpt lat="43.80727" lon="6.8919">
        <ele>1135</ele>
        <time>2009-04-30T15:25:17Z</time>
      </trkpt>
      <trkpt lat="43.80709" lon="6.89224">
        <ele>1129.2</ele>
        <time>2009-04-30T15:25:22Z</time>
      </trkpt>
      <trkpt lat="43.80687" lon="6.89255">
        <ele>1124.9</ele>
        <time>2009-04-30T15:25:28Z</time>
      </trkpt>
      <trkpt lat="43.80664" lon="6.89283">
        <ele>1122</ele>
        <time>2009-04-30T15:25:34Z</time>
      </trkpt>
      <trkpt lat="43.80644" lon="6.89311">
        <ele>1121</ele>
        <time>2009-04-30T15:25:40Z</time>
      </trkpt>
      <trkpt lat="43.80621" lon="6.8934">
        <ele>1120.6</ele>
        <time>2009-04-30T15:25:46Z</time>
      </trkpt>
      <trkpt lat="43.80598" lon="6.89371">
        <ele>1120.1</ele>
        <time>2009-04-30T15:25:52Z</time>
      </trkpt>
      <trkpt lat="43.80573" lon="6.89401">
        <ele>1118.6</ele>
        <time>2009-04-30T15:25:58Z</time>
      </trkpt>
      <trkpt lat="43.80553" lon="6.89429">
        <ele>1119.6</ele>
        <time>2009-04-30T15:26:03Z</time>
      </trkpt>
      <trkpt lat="43.80533" lon="6.89455">
        <ele>1119.6</ele>
        <time>2009-04-30T15:26:08Z</time>
      </trkpt>
      <trkpt lat="43.80512" lon="6.89481">
        <ele>1119.6</ele>
        <time>2009-04-30T15:26:13Z</time>
      </trkpt>
      <trkpt lat="43.80492" lon="6.8951">
        <ele>1118.2</ele>
        <time>2009-04-30T15:26:18Z</time>
      </trkpt>
      <trkpt lat="43.8047" lon="6.89538">
        <ele>1118.2</ele>
        <time>2009-04-30T15:26:23Z</time>
      </trkpt>
      <trkpt lat="43.80449" lon="6.89565">
        <ele>1117.7</ele>
        <time>2009-04-30T15:26:28Z</time>
      </trkpt>
      <trkpt lat="43.80428" lon="6.89592">
        <ele>1117.7</ele>
        <time>2009-04-30T15:26:33Z</time>
      </trkpt>
      <trkpt lat="43.80407" lon="6.8962">
        <ele>1117.2</ele>
        <time>2009-04-30T15:26:38Z</time>
      </trkpt>
      <trkpt lat="43.80387" lon="6.89647">
        <ele>1115.7</ele>
        <time>2009-04-30T15:26:43Z</time>
      </trkpt>
      <trkpt lat="43.80364" lon="6.89676">
        <ele>1115.3</ele>
        <time>2009-04-30T15:26:49Z</time>
      </trkpt>
      <trkpt lat="43.80345" lon="6.89706">
        <ele>1116.7</ele>
        <time>2009-04-30T15:26:55Z</time>
      </trkpt>
      <trkpt lat="43.80329" lon="6.89739">
        <ele>1116.2</ele>
        <time>2009-04-30T15:27:01Z</time>
      </trkpt>
      <trkpt lat="43.80316" lon="6.89774">
        <ele>1116.7</ele>
        <time>2009-04-30T15:27:07Z</time>
      </trkpt>
      <trkpt lat="43.80307" lon="6.89811">
        <ele>1118.2</ele>
        <time>2009-04-30T15:27:13Z</time>
      </trkpt>
      <trkpt lat="43.80298" lon="6.89849">
        <ele>1118.2</ele>
        <time>2009-04-30T15:27:19Z</time>
      </trkpt>
      <trkpt lat="43.80293" lon="6.8989">
        <ele>1119.6</ele>
        <time>2009-04-30T15:27:25Z</time>
      </trkpt>
      <trkpt lat="43.80291" lon="6.89936">
        <ele>1121</ele>
        <time>2009-04-30T15:27:31Z</time>
      </trkpt>
      <trkpt lat="43.80288" lon="6.89977">
        <ele>1119.6</ele>
        <time>2009-04-30T15:27:36Z</time>
      </trkpt>
      <trkpt lat="43.80286" lon="6.90019">
        <ele>1118.6</ele>
        <time>2009-04-30T15:27:41Z</time>
      </trkpt>
      <trkpt lat="43.80282" lon="6.9006">
        <ele>1118.6</ele>
        <time>2009-04-30T15:27:46Z</time>
      </trkpt>
      <trkpt lat="43.80274" lon="6.90099">
        <ele>1119.1</ele>
        <time>2009-04-30T15:27:51Z</time>
      </trkpt>
      <trkpt lat="43.80258" lon="6.90133">
        <ele>1118.6</ele>
        <time>2009-04-30T15:27:56Z</time>
      </trkpt>
      <trkpt lat="43.80237" lon="6.90165">
        <ele>1117.7</ele>
        <time>2009-04-30T15:28:01Z</time>
      </trkpt>
      <trkpt lat="43.80212" lon="6.90193">
        <ele>1116.2</ele>
        <time>2009-04-30T15:28:06Z</time>
      </trkpt>
      <trkpt lat="43.80197" lon="6.90234">
        <ele>1112.9</ele>
        <time>2009-04-30T15:28:11Z</time>
      </trkpt>
      <trkpt lat="43.80194" lon="6.90272">
        <ele>1110.5</ele>
        <time>2009-04-30T15:28:15Z</time>
      </trkpt>
      <trkpt lat="43.80184" lon="6.90309">
        <ele>1108.1</ele>
        <time>2009-04-30T15:28:19Z</time>
      </trkpt>
      <trkpt lat="43.80158" lon="6.90333">
        <ele>1106.1</ele>
        <time>2009-04-30T15:28:23Z</time>
      </trkpt>
      <trkpt lat="43.80128" lon="6.90338">
        <ele>1106.1</ele>
        <time>2009-04-30T15:28:27Z</time>
      </trkpt>
      <trkpt lat="43.80103" lon="6.90352">
        <ele>1103.3</ele>
        <time>2009-04-30T15:28:31Z</time>
      </trkpt>
      <trkpt lat="43.80093" lon="6.90386">
        <ele>1098.4</ele>
        <time>2009-04-30T15:28:35Z</time>
      </trkpt>
      <trkpt lat="43.80093" lon="6.90427">
        <ele>1097.5</ele>
        <time>2009-04-30T15:28:39Z</time>
      </trkpt>
      <trkpt lat="43.80096" lon="6.90467">
        <ele>1096</ele>
        <time>2009-04-30T15:28:43Z</time>
      </trkpt>
      <trkpt lat="43.801" lon="6.90508">
        <ele>1093.6</ele>
        <time>2009-04-30T15:28:47Z</time>
      </trkpt>
      <trkpt lat="43.80111" lon="6.90549">
        <ele>1091.2</ele>
        <time>2009-04-30T15:28:51Z</time>
      </trkpt>
      <trkpt lat="43.80124" lon="6.9059">
        <ele>1088.8</ele>
        <time>2009-04-30T15:28:55Z</time>
      </trkpt>
      <trkpt lat="43.80142" lon="6.90626">
        <ele>1086.9</ele>
        <time>2009-04-30T15:28:59Z</time>
      </trkpt>
      <trkpt lat="43.80153" lon="6.90668">
        <ele>1085</ele>
        <time>2009-04-30T15:29:03Z</time>
      </trkpt>
      <trkpt lat="43.80148" lon="6.9071">
        <ele>1085</ele>
        <time>2009-04-30T15:29:07Z</time>
      </trkpt>
      <trkpt lat="43.8014" lon="6.90747">
        <ele>1085.9</ele>
        <time>2009-04-30T15:29:11Z</time>
      </trkpt>
      <trkpt lat="43.80124" lon="6.90787">
        <ele>1086.4</ele>
        <time>2009-04-30T15:29:16Z</time>
      </trkpt>
      <trkpt lat="43.80103" lon="6.90821">
        <ele>1086.4</ele>
        <time>2009-04-30T15:29:21Z</time>
      </trkpt>
      <trkpt lat="43.80085" lon="6.90851">
        <ele>1086.4</ele>
        <time>2009-04-30T15:29:25Z</time>
      </trkpt>
      <trkpt lat="43.80062" lon="6.90881">
        <ele>1086.4</ele>
        <time>2009-04-30T15:29:29Z</time>
      </trkpt>
      <trkpt lat="43.80038" lon="6.90909">
        <ele>1085.5</ele>
        <time>2009-04-30T15:29:33Z</time>
      </trkpt>
      <trkpt lat="43.80011" lon="6.90931">
        <ele>1084.5</ele>
        <time>2009-04-30T15:29:37Z</time>
      </trkpt>
      <trkpt lat="43.7998" lon="6.90937">
        <ele>1084</ele>
        <time>2009-04-30T15:29:41Z</time>
      </trkpt>
      <trkpt lat="43.7995" lon="6.90941">
        <ele>1082.1</ele>
        <time>2009-04-30T15:29:45Z</time>
      </trkpt>
      <trkpt lat="43.79919" lon="6.90949">
        <ele>1081.1</ele>
        <time>2009-04-30T15:29:49Z</time>
      </trkpt>
      <trkpt lat="43.79888" lon="6.90959">
        <ele>1078.7</ele>
        <time>2009-04-30T15:29:53Z</time>
      </trkpt>
      <trkpt lat="43.79857" lon="6.90966">
        <ele>1077.8</ele>
        <time>2009-04-30T15:29:57Z</time>
      </trkpt>
      <trkpt lat="43.79829" lon="6.9097">
        <ele>1075.9</ele>
        <time>2009-04-30T15:30:01Z</time>
      </trkpt>
      <trkpt lat="43.79799" lon="6.9097">
        <ele>1073</ele>
        <time>2009-04-30T15:30:05Z</time>
      </trkpt>
      <trkpt lat="43.79771" lon="6.90961">
        <ele>1072.5</ele>
        <time>2009-04-30T15:30:09Z</time>
      </trkpt>
      <trkpt lat="43.79748" lon="6.90937">
        <ele>1072.5</ele>
        <time>2009-04-30T15:30:13Z</time>
      </trkpt>
      <trkpt lat="43.79731" lon="6.90902">
        <ele>1071</ele>
        <time>2009-04-30T15:30:17Z</time>
      </trkpt>
      <trkpt lat="43.79711" lon="6.90868">
        <ele>1068.2</ele>
        <time>2009-04-30T15:30:21Z</time>
      </trkpt>
      <trkpt lat="43.79682" lon="6.90854">
        <ele>1065.3</ele>
        <time>2009-04-30T15:30:25Z</time>
      </trkpt>
      <trkpt lat="43.79667" lon="6.90893">
        <ele>1065.3</ele>
        <time>2009-04-30T15:30:29Z</time>
      </trkpt>
      <trkpt lat="43.79669" lon="6.90933">
        <ele>1065.3</ele>
        <time>2009-04-30T15:30:32Z</time>
      </trkpt>
      <trkpt lat="43.79671" lon="6.90974">
        <ele>1063.8</ele>
        <time>2009-04-30T15:30:35Z</time>
      </trkpt>
      <trkpt lat="43.79669" lon="6.91015">
        <ele>1061</ele>
        <time>2009-04-30T15:30:38Z</time>
      </trkpt>
      <trkpt lat="43.79661" lon="6.91056">
        <ele>1057.6</ele>
        <time>2009-04-30T15:30:41Z</time>
      </trkpt>
      <trkpt lat="43.79657" lon="6.91098">
        <ele>1055.7</ele>
        <time>2009-04-30T15:30:44Z</time>
      </trkpt>
      <trkpt lat="43.7966" lon="6.9114">
        <ele>1054.7</ele>
        <time>2009-04-30T15:30:47Z</time>
      </trkpt>
      <trkpt lat="43.79668" lon="6.9118">
        <ele>1053.3</ele>
        <time>2009-04-30T15:30:50Z</time>
      </trkpt>
      <trkpt lat="43.79673" lon="6.91222">
        <ele>1051.3</ele>
        <time>2009-04-30T15:30:53Z</time>
      </trkpt>
      <trkpt lat="43.79676" lon="6.91266">
        <ele>1048.9</ele>
        <time>2009-04-30T15:30:56Z</time>
      </trkpt>
      <trkpt lat="43.79679" lon="6.91311">
        <ele>1047.5</ele>
        <time>2009-04-30T15:30:59Z</time>
      </trkpt>
      <trkpt lat="43.79675" lon="6.91355">
        <ele>1045.6</ele>
        <time>2009-04-30T15:31:02Z</time>
      </trkpt>
      <trkpt lat="43.79656" lon="6.91392">
        <ele>1043.2</ele>
        <time>2009-04-30T15:31:05Z</time>
      </trkpt>
      <trkpt lat="43.79627" lon="6.91416">
        <ele>1041.2</ele>
        <time>2009-04-30T15:31:08Z</time>
      </trkpt>
      <trkpt lat="43.79606" lon="6.91446">
        <ele>1037.4</ele>
        <time>2009-04-30T15:31:12Z</time>
      </trkpt>
      <trkpt lat="43.79605" lon="6.91485">
        <ele>1035.5</ele>
        <time>2009-04-30T15:31:16Z</time>
      </trkpt>
      <trkpt lat="43.796" lon="6.91527">
        <ele>1031.6</ele>
        <time>2009-04-30T15:31:20Z</time>
      </trkpt>
      <trkpt lat="43.79602" lon="6.91571">
        <ele>1027.8</ele>
        <time>2009-04-30T15:31:25Z</time>
      </trkpt>
      <trkpt lat="43.79621" lon="6.91603">
        <ele>1048.5</ele>
        <time>2009-04-30T15:35:54Z</time>
      </trkpt>
      <trkpt lat="43.79642" lon="6.9164">
        <ele>1048.5</ele>
        <time>2009-04-30T15:36:00Z</time>
      </trkpt>
      <trkpt lat="43.79647" lon="6.91685">
        <ele>1048.9</ele>
        <time>2009-04-30T15:36:05Z</time>
      </trkpt>
      <trkpt lat="43.79659" lon="6.91721">
        <ele>1049.9</ele>
        <time>2009-04-30T15:36:09Z</time>
      </trkpt>
      <trkpt lat="43.7966" lon="6.91762">
        <ele>1050.4</ele>
        <time>2009-04-30T15:36:13Z</time>
      </trkpt>
      <trkpt lat="43.79662" lon="6.9181">
        <ele>1051.3</ele>
        <time>2009-04-30T15:36:17Z</time>
      </trkpt>
      <trkpt lat="43.79646" lon="6.91848">
        <ele>1051.8</ele>
        <time>2009-04-30T15:36:20Z</time>
      </trkpt>
      <trkpt lat="43.79628" lon="6.91883">
        <ele>1051.3</ele>
        <time>2009-04-30T15:36:23Z</time>
      </trkpt>
      <trkpt lat="43.79629" lon="6.91921">
        <ele>1050.4</ele>
        <time>2009-04-30T15:36:26Z</time>
      </trkpt>
      <trkpt lat="43.7963" lon="6.9197">
        <ele>1050.4</ele>
        <time>2009-04-30T15:36:30Z</time>
      </trkpt>
      <trkpt lat="43.79621" lon="6.92009">
        <ele>1050.9</ele>
        <time>2009-04-30T15:36:33Z</time>
      </trkpt>
      <trkpt lat="43.79618" lon="6.92058">
        <ele>1050.9</ele>
        <time>2009-04-30T15:36:37Z</time>
      </trkpt>
      <trkpt lat="43.79644" lon="6.92086">
        <ele>1051.3</ele>
        <time>2009-04-30T15:36:41Z</time>
      </trkpt>
      <trkpt lat="43.79676" lon="6.92095">
        <ele>1051.3</ele>
        <time>2009-04-30T15:36:45Z</time>
      </trkpt>
      <trkpt lat="43.79685" lon="6.92136">
        <ele>1051.8</ele>
        <time>2009-04-30T15:36:49Z</time>
      </trkpt>
      <trkpt lat="43.79678" lon="6.92175">
        <ele>1052.3</ele>
        <time>2009-04-30T15:36:53Z</time>
      </trkpt>
      <trkpt lat="43.7968" lon="6.92219">
        <ele>1053.7</ele>
        <time>2009-04-30T15:36:57Z</time>
      </trkpt>
      <trkpt lat="43.79678" lon="6.92268">
        <ele>1055.2</ele>
        <time>2009-04-30T15:37:01Z</time>
      </trkpt>
      <trkpt lat="43.79684" lon="6.92315">
        <ele>1056.6</ele>
        <time>2009-04-30T15:37:05Z</time>
      </trkpt>
      <trkpt lat="43.79688" lon="6.92363">
        <ele>1059</ele>
        <time>2009-04-30T15:37:09Z</time>
      </trkpt>
      <trkpt lat="43.79695" lon="6.92411">
        <ele>1060.5</ele>
        <time>2009-04-30T15:37:13Z</time>
      </trkpt>
      <trkpt lat="43.79704" lon="6.92456">
        <ele>1061.9</ele>
        <time>2009-04-30T15:37:17Z</time>
      </trkpt>
      <trkpt lat="43.79713" lon="6.925">
        <ele>1064.3</ele>
        <time>2009-04-30T15:37:21Z</time>
      </trkpt>
      <trkpt lat="43.79722" lon="6.92543">
        <ele>1067.2</ele>
        <time>2009-04-30T15:37:25Z</time>
      </trkpt>
      <trkpt lat="43.79732" lon="6.92586">
        <ele>1070.1</ele>
        <time>2009-04-30T15:37:29Z</time>
      </trkpt>
      <trkpt lat="43.79734" lon="6.92635">
        <ele>1070.6</ele>
        <time>2009-04-30T15:37:33Z</time>
      </trkpt>
      <trkpt lat="43.7972" lon="6.92675">
        <ele>1069.1</ele>
        <time>2009-04-30T15:37:37Z</time>
      </trkpt>
      <trkpt lat="43.79697" lon="6.92706">
        <ele>1064.3</ele>
        <time>2009-04-30T15:37:41Z</time>
      </trkpt>
      <trkpt lat="43.79683" lon="6.92752">
        <ele>1062.4</ele>
        <time>2009-04-30T15:37:45Z</time>
      </trkpt>
      <trkpt lat="43.79679" lon="6.92802">
        <ele>1062.4</ele>
        <time>2009-04-30T15:37:49Z</time>
      </trkpt>
      <trkpt lat="43.79681" lon="6.92841">
        <ele>1060.5</ele>
        <time>2009-04-30T15:37:52Z</time>
      </trkpt>
      <trkpt lat="43.79694" lon="6.92886">
        <ele>1048</ele>
        <time>2009-04-30T15:37:56Z</time>
      </trkpt>
      <trkpt lat="43.79709" lon="6.92916">
        <ele>1044.1</ele>
        <time>2009-04-30T15:37:59Z</time>
      </trkpt>
      <trkpt lat="43.79719" lon="6.92952">
        <ele>1031.6</ele>
        <time>2009-04-30T15:38:02Z</time>
      </trkpt>
      <trkpt lat="43.79732" lon="6.92998">
        <ele>1024.9</ele>
        <time>2009-04-30T15:38:06Z</time>
      </trkpt>
      <trkpt lat="43.79746" lon="6.93031">
        <ele>1022.5</ele>
        <time>2009-04-30T15:38:09Z</time>
      </trkpt>
      <trkpt lat="43.79753" lon="6.93069">
        <ele>1019.6</ele>
        <time>2009-04-30T15:38:12Z</time>
      </trkpt>
      <trkpt lat="43.79754" lon="6.93108">
        <ele>1018.7</ele>
        <time>2009-04-30T15:38:15Z</time>
      </trkpt>
      <trkpt lat="43.79754" lon="6.93148">
        <ele>1017.7</ele>
        <time>2009-04-30T15:38:18Z</time>
      </trkpt>
      <trkpt lat="43.79757" lon="6.93186">
        <ele>1014.3</ele>
        <time>2009-04-30T15:38:21Z</time>
      </trkpt>
      <trkpt lat="43.79769" lon="6.9322">
        <ele>1011.4</ele>
        <time>2009-04-30T15:38:24Z</time>
      </trkpt>
      <trkpt lat="43.79786" lon="6.93248">
        <ele>1009</ele>
        <time>2009-04-30T15:38:27Z</time>
      </trkpt>
      <trkpt lat="43.79799" lon="6.93282">
        <ele>1006.6</ele>
        <time>2009-04-30T15:38:30Z</time>
      </trkpt>
      <trkpt lat="43.79808" lon="6.93321">
        <ele>1005.2</ele>
        <time>2009-04-30T15:38:33Z</time>
      </trkpt>
      <trkpt lat="43.79816" lon="6.93359">
        <ele>1004.2</ele>
        <time>2009-04-30T15:38:36Z</time>
      </trkpt>
      <trkpt lat="43.79826" lon="6.93396">
        <ele>1004.2</ele>
        <time>2009-04-30T15:38:39Z</time>
      </trkpt>
      <trkpt lat="43.79839" lon="6.93433">
        <ele>1004.2</ele>
        <time>2009-04-30T15:38:42Z</time>
      </trkpt>
      <trkpt lat="43.79845" lon="6.93472">
        <ele>1004.2</ele>
        <time>2009-04-30T15:38:45Z</time>
      </trkpt>
      <trkpt lat="43.79842" lon="6.93511">
        <ele>1004.7</ele>
        <time>2009-04-30T15:38:48Z</time>
      </trkpt>
      <trkpt lat="43.79838" lon="6.93551">
        <ele>1005.7</ele>
        <time>2009-04-30T15:38:51Z</time>
      </trkpt>
      <trkpt lat="43.79839" lon="6.93589">
        <ele>1006.2</ele>
        <time>2009-04-30T15:38:54Z</time>
      </trkpt>
      <trkpt lat="43.79847" lon="6.93626">
        <ele>1006.2</ele>
        <time>2009-04-30T15:38:57Z</time>
      </trkpt>
      <trkpt lat="43.79854" lon="6.93664">
        <ele>1006.6</ele>
        <time>2009-04-30T15:39:00Z</time>
      </trkpt>
      <trkpt lat="43.79857" lon="6.93703">
        <ele>1007.6</ele>
        <time>2009-04-30T15:39:03Z</time>
      </trkpt>
      <trkpt lat="43.79861" lon="6.9374">
        <ele>1009</ele>
        <time>2009-04-30T15:39:06Z</time>
      </trkpt>
      <trkpt lat="43.79874" lon="6.93786">
        <ele>1010</ele>
        <time>2009-04-30T15:39:10Z</time>
      </trkpt>
      <trkpt lat="43.79888" lon="6.93831">
        <ele>1011.4</ele>
        <time>2009-04-30T15:39:14Z</time>
      </trkpt>
      <trkpt lat="43.79899" lon="6.93867">
        <ele>1012.4</ele>
        <time>2009-04-30T15:39:17Z</time>
      </trkpt>
      <trkpt lat="43.7991" lon="6.93902">
        <ele>1013.4</ele>
        <time>2009-04-30T15:39:20Z</time>
      </trkpt>
      <trkpt lat="43.7991" lon="6.93938">
        <ele>1012.9</ele>
        <time>2009-04-30T15:39:23Z</time>
      </trkpt>
      <trkpt lat="43.79899" lon="6.93972">
        <ele>1010.5</ele>
        <time>2009-04-30T15:39:26Z</time>
      </trkpt>
      <trkpt lat="43.79888" lon="6.94005">
        <ele>1009</ele>
        <time>2009-04-30T15:39:29Z</time>
      </trkpt>
      <trkpt lat="43.79876" lon="6.94038">
        <ele>1008.1</ele>
        <time>2009-04-30T15:39:32Z</time>
      </trkpt>
      <trkpt lat="43.7986" lon="6.94067">
        <ele>1006.2</ele>
        <time>2009-04-30T15:39:35Z</time>
      </trkpt>
      <trkpt lat="43.79843" lon="6.94107">
        <ele>1002.3</ele>
        <time>2009-04-30T15:39:39Z</time>
      </trkpt>
      <trkpt lat="43.79834" lon="6.94143">
        <ele>1001.8</ele>
        <time>2009-04-30T15:39:42Z</time>
      </trkpt>
      <trkpt lat="43.79816" lon="6.94171">
        <ele>1002.3</ele>
        <time>2009-04-30T15:39:45Z</time>
      </trkpt>
      <trkpt lat="43.79791" lon="6.94194">
        <ele>996.5</ele>
        <time>2009-04-30T15:39:48Z</time>
      </trkpt>
      <trkpt lat="43.79783" lon="6.94229">
        <ele>998</ele>
        <time>2009-04-30T15:39:51Z</time>
      </trkpt>
      <trkpt lat="43.79784" lon="6.94269">
        <ele>996.1</ele>
        <time>2009-04-30T15:39:54Z</time>
      </trkpt>
      <trkpt lat="43.79784" lon="6.94308">
        <ele>995.6</ele>
        <time>2009-04-30T15:39:57Z</time>
      </trkpt>
      <trkpt lat="43.79786" lon="6.94355">
        <ele>996.5</ele>
        <time>2009-04-30T15:40:01Z</time>
      </trkpt>
      <trkpt lat="43.79764" lon="6.94365">
        <ele>971.1</ele>
        <time>2009-04-30T15:40:07Z</time>
      </trkpt>
      <trkpt lat="43.79764" lon="6.94324">
        <ele>957.1</ele>
        <time>2009-04-30T15:40:12Z</time>
      </trkpt>
      <trkpt lat="43.79755" lon="6.94287">
        <ele>948.5</ele>
        <time>2009-04-30T15:40:16Z</time>
      </trkpt>
      <trkpt lat="43.79745" lon="6.94244">
        <ele>928.8</ele>
        <time>2009-04-30T15:40:20Z</time>
      </trkpt>
      <trkpt lat="43.79746" lon="6.94197">
        <ele>916.3</ele>
        <time>2009-04-30T15:40:24Z</time>
      </trkpt>
      <trkpt lat="43.79749" lon="6.94157">
        <ele>909.5</ele>
        <time>2009-04-30T15:40:27Z</time>
      </trkpt>
      <trkpt lat="43.79757" lon="6.94117">
        <ele>903.3</ele>
        <time>2009-04-30T15:40:30Z</time>
      </trkpt>
      <trkpt lat="43.7976" lon="6.94074">
        <ele>897.5</ele>
        <time>2009-04-30T15:40:33Z</time>
      </trkpt>
      <trkpt lat="43.79764" lon="6.9403">
        <ele>890.8</ele>
        <time>2009-04-30T15:40:36Z</time>
      </trkpt>
      <trkpt lat="43.79778" lon="6.9399">
        <ele>885.5</ele>
        <time>2009-04-30T15:40:39Z</time>
      </trkpt>
      <trkpt lat="43.79789" lon="6.93949">
        <ele>879.3</ele>
        <time>2009-04-30T15:40:42Z</time>
      </trkpt>
      <trkpt lat="43.79788" lon="6.93904">
        <ele>874</ele>
        <time>2009-04-30T15:40:45Z</time>
      </trkpt>
      <trkpt lat="43.79781" lon="6.93861">
        <ele>870.6</ele>
        <time>2009-04-30T15:40:48Z</time>
      </trkpt>
      <trkpt lat="43.79757" lon="6.93838">
        <ele>866.3</ele>
        <time>2009-04-30T15:40:51Z</time>
      </trkpt>
      <trkpt lat="43.79726" lon="6.93851">
        <ele>864.8</ele>
        <time>2009-04-30T15:40:54Z</time>
      </trkpt>
      <trkpt lat="43.79707" lon="6.9389">
        <ele>859.1</ele>
        <time>2009-04-30T15:40:57Z</time>
      </trkpt>
      <trkpt lat="43.79708" lon="6.93934">
        <ele>855.2</ele>
        <time>2009-04-30T15:41:00Z</time>
      </trkpt>
      <trkpt lat="43.79713" lon="6.93978">
        <ele>851.4</ele>
        <time>2009-04-30T15:41:03Z</time>
      </trkpt>
      <trkpt lat="43.79714" lon="6.94022">
        <ele>849.5</ele>
        <time>2009-04-30T15:41:06Z</time>
      </trkpt>
      <trkpt lat="43.7971" lon="6.94068">
        <ele>846.1</ele>
        <time>2009-04-30T15:41:09Z</time>
      </trkpt>
      <trkpt lat="43.79701" lon="6.94112">
        <ele>843.2</ele>
        <time>2009-04-30T15:41:12Z</time>
      </trkpt>
      <trkpt lat="43.7969" lon="6.94151">
        <ele>840.3</ele>
        <time>2009-04-30T15:41:15Z</time>
      </trkpt>
      <trkpt lat="43.79671" lon="6.94179">
        <ele>838.4</ele>
        <time>2009-04-30T15:41:18Z</time>
      </trkpt>
      <trkpt lat="43.79638" lon="6.94188">
        <ele>835</ele>
        <time>2009-04-30T15:41:22Z</time>
      </trkpt>
      <trkpt lat="43.79605" lon="6.9418">
        <ele>833.1</ele>
        <time>2009-04-30T15:41:26Z</time>
      </trkpt>
      <trkpt lat="43.79579" lon="6.94202">
        <ele>831.2</ele>
        <time>2009-04-30T15:41:30Z</time>
      </trkpt>
      <trkpt lat="43.79573" lon="6.94241">
        <ele>831.7</ele>
        <time>2009-04-30T15:41:36Z</time>
      </trkpt>
      <trkpt lat="43.79566" lon="6.94278">
        <ele>830.2</ele>
        <time>2009-04-30T15:41:45Z</time>
      </trkpt>
      <trkpt lat="43.79552" lon="6.94312">
        <ele>830.7</ele>
        <time>2009-04-30T15:41:56Z</time>
      </trkpt>
      <trkpt lat="43.79538" lon="6.9432">
        <ele>837.4</ele>
        <time>2009-04-30T15:42:12Z</time>
      </trkpt>
      <trkpt lat="43.79522" lon="6.94338">
        <ele>841.3</ele>
        <time>2009-04-30T15:42:45Z</time>
      </trkpt>
      <trkpt lat="43.79537" lon="6.9436">
        <ele>849</ele>
        <time>2009-04-30T15:45:11Z</time>
      </trkpt>
      <trkpt lat="43.79539" lon="6.94401">
        <ele>849</ele>
        <time>2009-04-30T15:45:20Z</time>
      </trkpt>
      <trkpt lat="43.7955" lon="6.94437">
        <ele>849</ele>
        <time>2009-04-30T15:45:27Z</time>
      </trkpt>
      <trkpt lat="43.79548" lon="6.94483">
        <ele>846.6</ele>
        <time>2009-04-30T15:50:09Z</time>
      </trkpt>
      <trkpt lat="43.79542" lon="6.94532">
        <ele>842.7</ele>
        <time>2009-04-30T15:50:15Z</time>
      </trkpt>
      <trkpt lat="43.79538" lon="6.94576">
        <ele>838.4</ele>
        <time>2009-04-30T15:50:20Z</time>
      </trkpt>
      <trkpt lat="43.79516" lon="6.94614">
        <ele>830.7</ele>
        <time>2009-04-30T15:50:24Z</time>
      </trkpt>
      <trkpt lat="43.79495" lon="6.94644">
        <ele>827.8</ele>
        <time>2009-04-30T15:50:27Z</time>
      </trkpt>
      <trkpt lat="43.79477" lon="6.94673">
        <ele>824.9</ele>
        <time>2009-04-30T15:50:30Z</time>
      </trkpt>
      <trkpt lat="43.79453" lon="6.94707">
        <ele>819.2</ele>
        <time>2009-04-30T15:50:34Z</time>
      </trkpt>
      <trkpt lat="43.79439" lon="6.94744">
        <ele>814.9</ele>
        <time>2009-04-30T15:50:39Z</time>
      </trkpt>
      <trkpt lat="43.7944" lon="6.94784">
        <ele>809.6</ele>
        <time>2009-04-30T15:50:45Z</time>
      </trkpt>
      <trkpt lat="43.79436" lon="6.94836">
        <ele>799</ele>
        <time>2009-04-30T15:50:53Z</time>
      </trkpt>
      <trkpt lat="43.79443" lon="6.94882">
        <ele>794.7</ele>
        <time>2009-04-30T15:50:59Z</time>
      </trkpt>
      <trkpt lat="43.79448" lon="6.94927">
        <ele>790.8</ele>
        <time>2009-04-30T15:51:05Z</time>
      </trkpt>
      <trkpt lat="43.79449" lon="6.94971">
        <ele>787</ele>
        <time>2009-04-30T15:51:12Z</time>
      </trkpt>
      <trkpt lat="43.79443" lon="6.95015">
        <ele>782.2</ele>
        <time>2009-04-30T15:51:19Z</time>
      </trkpt>
      <trkpt lat="43.79436" lon="6.95059">
        <ele>776.4</ele>
        <time>2009-04-30T15:51:27Z</time>
      </trkpt>
      <trkpt lat="43.79428" lon="6.95104">
        <ele>770.2</ele>
        <time>2009-04-30T15:51:36Z</time>
      </trkpt>
      <trkpt lat="43.79433" lon="6.95146">
        <ele>762</ele>
        <time>2009-04-30T15:51:44Z</time>
      </trkpt>
      <trkpt lat="43.79448" lon="6.95185">
        <ele>758.6</ele>
        <time>2009-04-30T15:51:49Z</time>
      </trkpt>
      <trkpt lat="43.79452" lon="6.95229">
        <ele>754.8</ele>
        <time>2009-04-30T15:51:55Z</time>
      </trkpt>
      <trkpt lat="43.79442" lon="6.9524">
        <ele>748.5</ele>
        <time>2009-04-30T15:52:05Z</time>
      </trkpt>
      <trkpt lat="43.79424" lon="6.95201">
        <ele>742.8</ele>
        <time>2009-04-30T15:52:14Z</time>
      </trkpt>
      <trkpt lat="43.79403" lon="6.9519">
        <ele>738.4</ele>
        <time>2009-04-30T15:52:24Z</time>
      </trkpt>
      <trkpt lat="43.79404" lon="6.95235">
        <ele>735.5</ele>
        <time>2009-04-30T15:52:32Z</time>
      </trkpt>
      <trkpt lat="43.79384" lon="6.95223">
        <ele>729.8</ele>
        <time>2009-04-30T15:53:25Z</time>
      </trkpt>
      <trkpt lat="43.79381" lon="6.95261">
        <ele>725</ele>
        <time>2009-04-30T15:53:48Z</time>
      </trkpt>
      <trkpt lat="43.79386" lon="6.95309">
        <ele>718.7</ele>
        <time>2009-04-30T15:54:00Z</time>
      </trkpt>
      <trkpt lat="43.79406" lon="6.95344">
        <ele>715.8</ele>
        <time>2009-04-30T15:54:10Z</time>
      </trkpt>
      <trkpt lat="43.79429" lon="6.95366">
        <ele>716.8</ele>
        <time>2009-04-30T15:54:18Z</time>
      </trkpt>
      <trkpt lat="43.79454" lon="6.95386">
        <ele>719.7</ele>
        <time>2009-04-30T15:54:26Z</time>
      </trkpt>
      <trkpt lat="43.79481" lon="6.95382">
        <ele>717.8</ele>
        <time>2009-04-30T15:54:35Z</time>
      </trkpt>
      <trkpt lat="43.79469" lon="6.954">
        <ele>719.2</ele>
        <time>2009-04-30T15:54:54Z</time>
      </trkpt>
      <trkpt lat="43.79464" lon="6.95409">
        <ele>722.1</ele>
        <time>2009-04-30T15:55:11Z</time>
      </trkpt>
      <trkpt lat="43.79434" lon="6.95411">
        <ele>722.1</ele>
        <time>2009-04-30T15:55:19Z</time>
      </trkpt>
      <trkpt lat="43.79403" lon="6.95392">
        <ele>723</ele>
        <time>2009-04-30T15:55:25Z</time>
      </trkpt>
      <trkpt lat="43.7938" lon="6.95371">
        <ele>722.6</ele>
        <time>2009-04-30T15:55:29Z</time>
      </trkpt>
      <trkpt lat="43.7936" lon="6.95333">
        <ele>721.1</ele>
        <time>2009-04-30T15:55:34Z</time>
      </trkpt>
      <trkpt lat="43.79345" lon="6.95294">
        <ele>717.3</ele>
        <time>2009-04-30T15:55:38Z</time>
      </trkpt>
      <trkpt lat="43.79338" lon="6.95253">
        <ele>713</ele>
        <time>2009-04-30T15:55:42Z</time>
      </trkpt>
      <trkpt lat="43.79339" lon="6.95208">
        <ele>709.1</ele>
        <time>2009-04-30T15:55:46Z</time>
      </trkpt>
      <trkpt lat="43.79338" lon="6.95161">
        <ele>705.7</ele>
        <time>2009-04-30T15:55:50Z</time>
      </trkpt>
      <trkpt lat="43.79327" lon="6.95117">
        <ele>702.9</ele>
        <time>2009-04-30T15:55:54Z</time>
      </trkpt>
      <trkpt lat="43.79316" lon="6.95072">
        <ele>700.5</ele>
        <time>2009-04-30T15:55:58Z</time>
      </trkpt>
      <trkpt lat="43.79304" lon="6.95025">
        <ele>698.1</ele>
        <time>2009-04-30T15:56:02Z</time>
      </trkpt>
      <trkpt lat="43.79291" lon="6.9498">
        <ele>695.7</ele>
        <time>2009-04-30T15:56:06Z</time>
      </trkpt>
      <trkpt lat="43.79277" lon="6.94945">
        <ele>694.2</ele>
        <time>2009-04-30T15:56:09Z</time>
      </trkpt>
      <trkpt lat="43.79262" lon="6.94909">
        <ele>693.2</ele>
        <time>2009-04-30T15:56:12Z</time>
      </trkpt>
      <trkpt lat="43.79246" lon="6.94874">
        <ele>691.8</ele>
        <time>2009-04-30T15:56:15Z</time>
      </trkpt>
      <trkpt lat="43.79229" lon="6.9484">
        <ele>690.8</ele>
        <time>2009-04-30T15:56:18Z</time>
      </trkpt>
      <trkpt lat="43.79213" lon="6.94803">
        <ele>688.4</ele>
        <time>2009-04-30T15:56:21Z</time>
      </trkpt>
      <trkpt lat="43.79223" lon="6.94763">
        <ele>685.6</ele>
        <time>2009-04-30T15:56:24Z</time>
      </trkpt>
      <trkpt lat="43.79235" lon="6.94727">
        <ele>683.6</ele>
        <time>2009-04-30T15:56:27Z</time>
      </trkpt>
      <trkpt lat="43.79213" lon="6.94691">
        <ele>683.2</ele>
        <time>2009-04-30T15:56:31Z</time>
      </trkpt>
      <trkpt lat="43.79187" lon="6.94669">
        <ele>677.4</ele>
        <time>2009-04-30T15:56:35Z</time>
      </trkpt>
      <trkpt lat="43.79177" lon="6.94629">
        <ele>674</ele>
        <time>2009-04-30T15:56:39Z</time>
      </trkpt>
      <trkpt lat="43.79169" lon="6.94594">
        <ele>670.7</ele>
        <time>2009-04-30T15:56:46Z</time>
      </trkpt>
      <trkpt lat="43.79139" lon="6.94596">
        <ele>664.4</ele>
        <time>2009-04-30T15:57:01Z</time>
      </trkpt>
      <trkpt lat="43.79115" lon="6.94626">
        <ele>661.5</ele>
        <time>2009-04-30T15:57:10Z</time>
      </trkpt>
      <trkpt lat="43.79092" lon="6.94648">
        <ele>655.8</ele>
        <time>2009-04-30T15:57:27Z</time>
      </trkpt>
      <trkpt lat="43.79072" lon="6.94667">
        <ele>646.6</ele>
        <time>2009-04-30T15:58:22Z</time>
      </trkpt>
      <trkpt lat="43.79049" lon="6.94653">
        <ele>644.7</ele>
        <time>2009-04-30T15:58:46Z</time>
      </trkpt>
      <trkpt lat="43.7903" lon="6.94671">
        <ele>637</ele>
        <time>2009-04-30T15:59:07Z</time>
      </trkpt>
      <trkpt lat="43.79034" lon="6.94721">
        <ele>629.8</ele>
        <time>2009-04-30T15:59:15Z</time>
      </trkpt>
      <trkpt lat="43.79043" lon="6.94763">
        <ele>622.1</ele>
        <time>2009-04-30T15:59:22Z</time>
      </trkpt>
      <trkpt lat="43.79025" lon="6.94804">
        <ele>616.3</ele>
        <time>2009-04-30T15:59:35Z</time>
      </trkpt>
      <trkpt lat="43.7902" lon="6.94849">
        <ele>610.1</ele>
        <time>2009-04-30T15:59:45Z</time>
      </trkpt>
      <trkpt lat="43.79006" lon="6.94836">
        <ele>599</ele>
        <time>2009-04-30T15:59:59Z</time>
      </trkpt>
      <trkpt lat="43.78991" lon="6.94861">
        <ele>595.2</ele>
        <time>2009-04-30T16:00:07Z</time>
      </trkpt>
      <trkpt lat="43.78983" lon="6.94906">
        <ele>592.3</ele>
        <time>2009-04-30T16:00:11Z</time>
      </trkpt>
      <trkpt lat="43.78962" lon="6.94907">
        <ele>587.5</ele>
        <time>2009-04-30T16:00:17Z</time>
      </trkpt>
      <trkpt lat="43.78959" lon="6.94859">
        <ele>584.1</ele>
        <time>2009-04-30T16:00:22Z</time>
      </trkpt>
      <trkpt lat="43.78937" lon="6.94831">
        <ele>582.2</ele>
        <time>2009-04-30T16:00:26Z</time>
      </trkpt>
      <trkpt lat="43.7891" lon="6.94848">
        <ele>580.8</ele>
        <time>2009-04-30T16:00:31Z</time>
      </trkpt>
      <trkpt lat="43.78896" lon="6.94848">
        <ele>579.3</ele>
        <time>2009-04-30T16:00:42Z</time>
      </trkpt>
      <trkpt lat="43.78898" lon="6.94811">
        <ele>578.4</ele>
        <time>2009-04-30T16:00:57Z</time>
      </trkpt>
      <trkpt lat="43.78905" lon="6.94774">
        <ele>576.4</ele>
        <time>2009-04-30T16:01:09Z</time>
      </trkpt>
      <trkpt lat="43.78911" lon="6.94733">
        <ele>576.9</ele>
        <time>2009-04-30T16:01:20Z</time>
      </trkpt>
      <trkpt lat="43.78914" lon="6.94692">
        <ele>577.4</ele>
        <time>2009-04-30T16:01:33Z</time>
      </trkpt>
      <trkpt lat="43.78903" lon="6.94677">
        <ele>579.8</ele>
        <time>2009-04-30T16:01:49Z</time>
      </trkpt>
      <trkpt lat="43.78898" lon="6.94715">
        <ele>579.8</ele>
        <time>2009-04-30T16:02:02Z</time>
      </trkpt>
      <trkpt lat="43.78892" lon="6.94752">
        <ele>580.3</ele>
        <time>2009-04-30T16:02:13Z</time>
      </trkpt>
      <trkpt lat="43.78877" lon="6.94786">
        <ele>582.2</ele>
        <time>2009-04-30T16:02:24Z</time>
      </trkpt>
      <trkpt lat="43.78867" lon="6.94826">
        <ele>584.1</ele>
        <time>2009-04-30T16:02:35Z</time>
      </trkpt>
      <trkpt lat="43.78858" lon="6.94861">
        <ele>586.1</ele>
        <time>2009-04-30T16:02:45Z</time>
      </trkpt>
      <trkpt lat="43.78843" lon="6.94895">
        <ele>587</ele>
        <time>2009-04-30T16:02:57Z</time>
      </trkpt>
      <trkpt lat="43.78823" lon="6.94923">
        <ele>588.9</ele>
        <time>2009-04-30T16:03:08Z</time>
      </trkpt>
      <trkpt lat="43.78805" lon="6.94956">
        <ele>591.8</ele>
        <time>2009-04-30T16:03:19Z</time>
      </trkpt>
      <trkpt lat="43.78815" lon="6.94991">
        <ele>594.7</ele>
        <time>2009-04-30T16:03:30Z</time>
      </trkpt>
      <trkpt lat="43.78809" lon="6.95024">
        <ele>599.5</ele>
        <time>2009-04-30T16:03:41Z</time>
      </trkpt>
      <trkpt lat="43.78784" lon="6.9505">
        <ele>601.4</ele>
        <time>2009-04-30T16:03:55Z</time>
      </trkpt>
      <trkpt lat="43.78781" lon="6.95093">
        <ele>606.2</ele>
        <time>2009-04-30T16:04:08Z</time>
      </trkpt>
      <trkpt lat="43.78796" lon="6.9513">
        <ele>609.6</ele>
        <time>2009-04-30T16:04:20Z</time>
      </trkpt>
      <trkpt lat="43.78811" lon="6.95166">
        <ele>613</ele>
        <time>2009-04-30T16:04:32Z</time>
      </trkpt>
      <trkpt lat="43.78802" lon="6.95204">
        <ele>610.1</ele>
        <time>2009-04-30T16:04:44Z</time>
      </trkpt>
      <trkpt lat="43.78782" lon="6.9523">
        <ele>610.1</ele>
        <time>2009-04-30T16:04:55Z</time>
      </trkpt>
      <trkpt lat="43.78757" lon="6.95251">
        <ele>611.5</ele>
        <time>2009-04-30T16:05:08Z</time>
      </trkpt>
      <trkpt lat="43.78732" lon="6.95277">
        <ele>615.4</ele>
        <time>2009-04-30T16:05:21Z</time>
      </trkpt>
      <trkpt lat="43.78711" lon="6.9531">
        <ele>622.6</ele>
        <time>2009-04-30T16:05:35Z</time>
      </trkpt>
      <trkpt lat="43.78706" lon="6.95351">
        <ele>628.4</ele>
        <time>2009-04-30T16:05:47Z</time>
      </trkpt>
      <trkpt lat="43.78718" lon="6.95385">
        <ele>634.6</ele>
        <time>2009-04-30T16:05:59Z</time>
      </trkpt>
      <trkpt lat="43.78733" lon="6.95419">
        <ele>636.5</ele>
        <time>2009-04-30T16:06:11Z</time>
      </trkpt>
      <trkpt lat="43.78753" lon="6.95448">
        <ele>638</ele>
        <time>2009-04-30T16:06:23Z</time>
      </trkpt>
      <trkpt lat="43.78759" lon="6.95485">
        <ele>637</ele>
        <time>2009-04-30T16:06:35Z</time>
      </trkpt>
      <trkpt lat="43.78739" lon="6.95513">
        <ele>639.9</ele>
        <time>2009-04-30T16:06:48Z</time>
      </trkpt>
      <trkpt lat="43.78712" lon="6.95526">
        <ele>637.5</ele>
        <time>2009-04-30T16:07:01Z</time>
      </trkpt>
      <trkpt lat="43.78699" lon="6.95559">
        <ele>637</ele>
        <time>2009-04-30T16:07:13Z</time>
      </trkpt>
      <trkpt lat="43.78693" lon="6.956">
        <ele>636.5</ele>
        <time>2009-04-30T16:07:25Z</time>
      </trkpt>
      <trkpt lat="43.78684" lon="6.95638">
        <ele>638.9</ele>
        <time>2009-04-30T16:07:36Z</time>
      </trkpt>
      <trkpt lat="43.78669" lon="6.95671">
        <ele>641.3</ele>
        <time>2009-04-30T16:07:49Z</time>
      </trkpt>
      <trkpt lat="43.78663" lon="6.95707">
        <ele>643.7</ele>
        <time>2009-04-30T16:08:02Z</time>
      </trkpt>
      <trkpt lat="43.78669" lon="6.95743">
        <ele>647.1</ele>
        <time>2009-04-30T16:08:13Z</time>
      </trkpt>
      <trkpt lat="43.78678" lon="6.9578">
        <ele>649</ele>
        <time>2009-04-30T16:08:23Z</time>
      </trkpt>
      <trkpt lat="43.78693" lon="6.95815">
        <ele>649</ele>
        <time>2009-04-30T16:08:33Z</time>
      </trkpt>
      <trkpt lat="43.78716" lon="6.95847">
        <ele>649.5</ele>
        <time>2009-04-30T16:08:45Z</time>
      </trkpt>
      <trkpt lat="43.78737" lon="6.95878">
        <ele>649</ele>
        <time>2009-04-30T16:08:56Z</time>
      </trkpt>
      <trkpt lat="43.78753" lon="6.95911">
        <ele>647.6</ele>
        <time>2009-04-30T16:09:07Z</time>
      </trkpt>
      <trkpt lat="43.78772" lon="6.95939">
        <ele>648.5</ele>
        <time>2009-04-30T16:09:17Z</time>
      </trkpt>
      <trkpt lat="43.78786" lon="6.95974">
        <ele>649</ele>
        <time>2009-04-30T16:09:28Z</time>
      </trkpt>
      <trkpt lat="43.7878" lon="6.96012">
        <ele>649</ele>
        <time>2009-04-30T16:09:39Z</time>
      </trkpt>
      <trkpt lat="43.78766" lon="6.96048">
        <ele>655.3</ele>
        <time>2009-04-30T16:09:49Z</time>
      </trkpt>
      <trkpt lat="43.78751" lon="6.9608">
        <ele>661</ele>
        <time>2009-04-30T16:10:00Z</time>
      </trkpt>
      <trkpt lat="43.78739" lon="6.96118">
        <ele>667.3</ele>
        <time>2009-04-30T16:10:14Z</time>
      </trkpt>
      <trkpt lat="43.78726" lon="6.96157">
        <ele>668.3</ele>
        <time>2009-04-30T16:10:27Z</time>
      </trkpt>
      <trkpt lat="43.78702" lon="6.96183">
        <ele>673.1</ele>
        <time>2009-04-30T16:10:40Z</time>
      </trkpt>
      <trkpt lat="43.78676" lon="6.96212">
        <ele>677.4</ele>
        <time>2009-04-30T16:10:53Z</time>
      </trkpt>
      <trkpt lat="43.78666" lon="6.96256">
        <ele>682.7</ele>
        <time>2009-04-30T16:11:05Z</time>
      </trkpt>
      <trkpt lat="43.78659" lon="6.96295">
        <ele>683.2</ele>
        <time>2009-04-30T16:11:16Z</time>
      </trkpt>
      <trkpt lat="43.78648" lon="6.96335">
        <ele>676.4</ele>
        <time>2009-04-30T16:11:28Z</time>
      </trkpt>
      <trkpt lat="43.7862" lon="6.96331">
        <ele>678.3</ele>
        <time>2009-04-30T16:11:40Z</time>
      </trkpt>
      <trkpt lat="43.7859" lon="6.96323">
        <ele>686</ele>
        <time>2009-04-30T16:11:51Z</time>
      </trkpt>
      <trkpt lat="43.78562" lon="6.96314">
        <ele>689.4</ele>
        <time>2009-04-30T16:12:02Z</time>
      </trkpt>
      <trkpt lat="43.78535" lon="6.96302">
        <ele>692.8</ele>
        <time>2009-04-30T16:12:14Z</time>
      </trkpt>
      <trkpt lat="43.78515" lon="6.96276">
        <ele>696.6</ele>
        <time>2009-04-30T16:12:26Z</time>
      </trkpt>
      <trkpt lat="43.78492" lon="6.96243">
        <ele>692.3</ele>
        <time>2009-04-30T16:12:40Z</time>
      </trkpt>
      <trkpt lat="43.78467" lon="6.96219">
        <ele>687</ele>
        <time>2009-04-30T16:12:54Z</time>
      </trkpt>
      <trkpt lat="43.78445" lon="6.96194">
        <ele>685.6</ele>
        <time>2009-04-30T16:13:08Z</time>
      </trkpt>
      <trkpt lat="43.78438" lon="6.96154">
        <ele>686</ele>
        <time>2009-04-30T16:13:23Z</time>
      </trkpt>
      <trkpt lat="43.7845" lon="6.9612">
        <ele>688</ele>
        <time>2009-04-30T16:13:35Z</time>
      </trkpt>
      <trkpt lat="43.78465" lon="6.96089">
        <ele>691.3</ele>
        <time>2009-04-30T16:13:48Z</time>
      </trkpt>
      <trkpt lat="43.78483" lon="6.96058">
        <ele>692.3</ele>
        <time>2009-04-30T16:14:01Z</time>
      </trkpt>
      <trkpt lat="43.78502" lon="6.96023">
        <ele>695.7</ele>
        <time>2009-04-30T16:14:15Z</time>
      </trkpt>
      <trkpt lat="43.7852" lon="6.95993">
        <ele>699.5</ele>
        <time>2009-04-30T16:14:28Z</time>
      </trkpt>
      <trkpt lat="43.78536" lon="6.95959">
        <ele>704.8</ele>
        <time>2009-04-30T16:14:42Z</time>
      </trkpt>
      <trkpt lat="43.78545" lon="6.95922">
        <ele>706.2</ele>
        <time>2009-04-30T16:14:55Z</time>
      </trkpt>
      <trkpt lat="43.78554" lon="6.95884">
        <ele>708.1</ele>
        <time>2009-04-30T16:15:08Z</time>
      </trkpt>
      <trkpt lat="43.78563" lon="6.95845">
        <ele>710.6</ele>
        <time>2009-04-30T16:15:21Z</time>
      </trkpt>
      <trkpt lat="43.78568" lon="6.95805">
        <ele>711.5</ele>
        <time>2009-04-30T16:15:35Z</time>
      </trkpt>
      <trkpt lat="43.78543" lon="6.95802">
        <ele>711.5</ele>
        <time>2009-04-30T16:15:48Z</time>
      </trkpt>
      <trkpt lat="43.78521" lon="6.95827">
        <ele>711</ele>
        <time>2009-04-30T16:16:00Z</time>
      </trkpt>
      <trkpt lat="43.78498" lon="6.95853">
        <ele>712</ele>
        <time>2009-04-30T16:16:13Z</time>
      </trkpt>
      <trkpt lat="43.78476" lon="6.95874">
        <ele>717.3</ele>
        <time>2009-04-30T16:16:25Z</time>
      </trkpt>
      <trkpt lat="43.78452" lon="6.95889">
        <ele>722.1</ele>
        <time>2009-04-30T16:16:36Z</time>
      </trkpt>
      <trkpt lat="43.78426" lon="6.95902">
        <ele>726.4</ele>
        <time>2009-04-30T16:16:49Z</time>
      </trkpt>
      <trkpt lat="43.78397" lon="6.9592">
        <ele>728.8</ele>
        <time>2009-04-30T16:17:01Z</time>
      </trkpt>
      <trkpt lat="43.78369" lon="6.95934">
        <ele>731.2</ele>
        <time>2009-04-30T16:17:14Z</time>
      </trkpt>
      <trkpt lat="43.7834" lon="6.95932">
        <ele>731.7</ele>
        <time>2009-04-30T16:17:27Z</time>
      </trkpt>
      <trkpt lat="43.78328" lon="6.9591">
        <ele>737.5</ele>
        <time>2009-04-30T16:17:41Z</time>
      </trkpt>
      <trkpt lat="43.78357" lon="6.95892">
        <ele>735.5</ele>
        <time>2009-04-30T16:17:58Z</time>
      </trkpt>
      <trkpt lat="43.78366" lon="6.95854">
        <ele>734.6</ele>
        <time>2009-04-30T16:18:13Z</time>
      </trkpt>
      <trkpt lat="43.78354" lon="6.95818">
        <ele>735.5</ele>
        <time>2009-04-30T16:18:25Z</time>
      </trkpt>
      <trkpt lat="43.78342" lon="6.95786">
        <ele>741.3</ele>
        <time>2009-04-30T16:18:38Z</time>
      </trkpt>
      <trkpt lat="43.78327" lon="6.95752">
        <ele>745.2</ele>
        <time>2009-04-30T16:18:52Z</time>
      </trkpt>
      <trkpt lat="43.78311" lon="6.95719">
        <ele>744.7</ele>
        <time>2009-04-30T16:19:05Z</time>
      </trkpt>
      <trkpt lat="43.78307" lon="6.95683">
        <ele>742.8</ele>
        <time>2009-04-30T16:19:15Z</time>
      </trkpt>
      <trkpt lat="43.78289" lon="6.95656">
        <ele>747.1</ele>
        <time>2009-04-30T16:19:27Z</time>
      </trkpt>
      <trkpt lat="43.78262" lon="6.95648">
        <ele>750</ele>
        <time>2009-04-30T16:19:39Z</time>
      </trkpt>
      <trkpt lat="43.78235" lon="6.95652">
        <ele>750.4</ele>
        <time>2009-04-30T16:19:49Z</time>
      </trkpt>
      <trkpt lat="43.78207" lon="6.9566">
        <ele>750.4</ele>
        <time>2009-04-30T16:19:58Z</time>
      </trkpt>
      <trkpt lat="43.78181" lon="6.95675">
        <ele>750.9</ele>
        <time>2009-04-30T16:20:10Z</time>
      </trkpt>
      <trkpt lat="43.78156" lon="6.95695">
        <ele>754.3</ele>
        <time>2009-04-30T16:20:21Z</time>
      </trkpt>
      <trkpt lat="43.78131" lon="6.95713">
        <ele>750</ele>
        <time>2009-04-30T16:20:29Z</time>
      </trkpt>
      <trkpt lat="43.78105" lon="6.95734">
        <ele>750</ele>
        <time>2009-04-30T16:20:36Z</time>
      </trkpt>
      <trkpt lat="43.78082" lon="6.9576">
        <ele>748.5</ele>
        <time>2009-04-30T16:20:43Z</time>
      </trkpt>
      <trkpt lat="43.78066" lon="6.95792">
        <ele>748</ele>
        <time>2009-04-30T16:20:50Z</time>
      </trkpt>
      <trkpt lat="43.78052" lon="6.95831">
        <ele>749.5</ele>
        <time>2009-04-30T16:20:57Z</time>
      </trkpt>
      <trkpt lat="43.78038" lon="6.9586">
        <ele>747.1</ele>
        <time>2009-04-30T16:21:04Z</time>
      </trkpt>
      <trkpt lat="43.78019" lon="6.95887">
        <ele>745.6</ele>
        <time>2009-04-30T16:21:11Z</time>
      </trkpt>
      <trkpt lat="43.77993" lon="6.9591">
        <ele>743.7</ele>
        <time>2009-04-30T16:21:19Z</time>
      </trkpt>
      <trkpt lat="43.77966" lon="6.95922">
        <ele>742.8</ele>
        <time>2009-04-30T16:21:25Z</time>
      </trkpt>
      <trkpt lat="43.77938" lon="6.95927">
        <ele>745.6</ele>
        <time>2009-04-30T16:21:31Z</time>
      </trkpt>
      <trkpt lat="43.77908" lon="6.9593">
        <ele>748</ele>
        <time>2009-04-30T16:21:37Z</time>
      </trkpt>
      <trkpt lat="43.77877" lon="6.95935">
        <ele>746.6</ele>
        <time>2009-04-30T16:21:43Z</time>
      </trkpt>
      <trkpt lat="43.77848" lon="6.95946">
        <ele>743.7</ele>
        <time>2009-04-30T16:21:48Z</time>
      </trkpt>
      <trkpt lat="43.77821" lon="6.95952">
        <ele>741.8</ele>
        <time>2009-04-30T16:21:52Z</time>
      </trkpt>
      <trkpt lat="43.77794" lon="6.95952">
        <ele>738.4</ele>
        <time>2009-04-30T16:21:59Z</time>
      </trkpt>
      <trkpt lat="43.77763" lon="6.95951">
        <ele>735.5</ele>
        <time>2009-04-30T16:22:07Z</time>
      </trkpt>
      <trkpt lat="43.77731" lon="6.95949">
        <ele>733.6</ele>
        <time>2009-04-30T16:22:13Z</time>
      </trkpt>
      <trkpt lat="43.77703" lon="6.95949">
        <ele>732.7</ele>
        <time>2009-04-30T16:22:18Z</time>
      </trkpt>
      <trkpt lat="43.77671" lon="6.95949">
        <ele>733.1</ele>
        <time>2009-04-30T16:22:24Z</time>
      </trkpt>
      <trkpt lat="43.77642" lon="6.95941">
        <ele>734.6</ele>
        <time>2009-04-30T16:22:30Z</time>
      </trkpt>
      <trkpt lat="43.77619" lon="6.95911">
        <ele>732.2</ele>
        <time>2009-04-30T16:22:36Z</time>
      </trkpt>
      <trkpt lat="43.77596" lon="6.95882">
        <ele>728.3</ele>
        <time>2009-04-30T16:22:42Z</time>
      </trkpt>
      <trkpt lat="43.77572" lon="6.95863">
        <ele>730.7</ele>
        <time>2009-04-30T16:22:48Z</time>
      </trkpt>
      <trkpt lat="43.77544" lon="6.95858">
        <ele>733.1</ele>
        <time>2009-04-30T16:22:55Z</time>
      </trkpt>
      <trkpt lat="43.77517" lon="6.95864">
        <ele>735.1</ele>
        <time>2009-04-30T16:23:04Z</time>
      </trkpt>
      <trkpt lat="43.77493" lon="6.95885">
        <ele>739.4</ele>
        <time>2009-04-30T16:23:17Z</time>
      </trkpt>
      <trkpt lat="43.77473" lon="6.95916">
        <ele>743.7</ele>
        <time>2009-04-30T16:23:41Z</time>
      </trkpt>
      <trkpt lat="43.77452" lon="6.95951">
        <ele>748.5</ele>
        <time>2009-04-30T16:24:10Z</time>
      </trkpt>
      <trkpt lat="43.7743" lon="6.95982">
        <ele>752.8</ele>
        <time>2009-04-30T16:24:37Z</time>
      </trkpt>
      <trkpt lat="43.77414" lon="6.96015">
        <ele>754.3</ele>
        <time>2009-04-30T16:25:09Z</time>
      </trkpt>
      <trkpt lat="43.77398" lon="6.9605">
        <ele>753.3</ele>
        <time>2009-04-30T16:25:37Z</time>
      </trkpt>
      <trkpt lat="43.77376" lon="6.96072">
        <ele>760.1</ele>
        <time>2009-04-30T16:26:04Z</time>
      </trkpt>
      <trkpt lat="43.77352" lon="6.96097">
        <ele>763.4</ele>
        <time>2009-04-30T16:26:29Z</time>
      </trkpt>
      <trkpt lat="43.7733" lon="6.96123">
        <ele>766.8</ele>
        <time>2009-04-30T16:26:45Z</time>
      </trkpt>
      <trkpt lat="43.77306" lon="6.9614">
        <ele>767.8</ele>
        <time>2009-04-30T16:26:58Z</time>
      </trkpt>
      <trkpt lat="43.77281" lon="6.96155">
        <ele>768.7</ele>
        <time>2009-04-30T16:27:08Z</time>
      </trkpt>
      <trkpt lat="43.7726" lon="6.9618">
        <ele>767.3</ele>
        <time>2009-04-30T16:27:18Z</time>
      </trkpt>
      <trkpt lat="43.77233" lon="6.96183">
        <ele>771.1</ele>
        <time>2009-04-30T16:27:38Z</time>
      </trkpt>
      <trkpt lat="43.7723" lon="6.96144">
        <ele>770.2</ele>
        <time>2009-04-30T16:29:48Z</time>
      </trkpt>
      <trkpt lat="43.77229" lon="6.96106">
        <ele>772.6</ele>
        <time>2009-04-30T16:30:06Z</time>
      </trkpt>
      <trkpt lat="43.7722" lon="6.96068">
        <ele>771.1</ele>
        <time>2009-04-30T16:30:17Z</time>
      </trkpt>
      <trkpt lat="43.77215" lon="6.9603">
        <ele>771.6</ele>
        <time>2009-04-30T16:30:26Z</time>
      </trkpt>
      <trkpt lat="43.77215" lon="6.95989">
        <ele>774</ele>
        <time>2009-04-30T16:30:37Z</time>
      </trkpt>
      <trkpt lat="43.77218" lon="6.95951">
        <ele>774.5</ele>
        <time>2009-04-30T16:30:49Z</time>
      </trkpt>
      <trkpt lat="43.77224" lon="6.95914">
        <ele>777.8</ele>
        <time>2009-04-30T16:31:07Z</time>
      </trkpt>
      <trkpt lat="43.77207" lon="6.9589">
        <ele>785.1</ele>
        <time>2009-04-30T16:31:26Z</time>
      </trkpt>
      <trkpt lat="43.77181" lon="6.95883">
        <ele>789.4</ele>
        <time>2009-04-30T16:31:45Z</time>
      </trkpt>
      <trkpt lat="43.77154" lon="6.95874">
        <ele>789.4</ele>
        <time>2009-04-30T16:31:53Z</time>
      </trkpt>
      <trkpt lat="43.77128" lon="6.95861">
        <ele>790.3</ele>
        <time>2009-04-30T16:32:02Z</time>
      </trkpt>
      <trkpt lat="43.77109" lon="6.95831">
        <ele>788.9</ele>
        <time>2009-04-30T16:32:12Z</time>
      </trkpt>
      <trkpt lat="43.7709" lon="6.95802">
        <ele>788.9</ele>
        <time>2009-04-30T16:32:22Z</time>
      </trkpt>
      <trkpt lat="43.77064" lon="6.95792">
        <ele>791.3</ele>
        <time>2009-04-30T16:32:34Z</time>
      </trkpt>
      <trkpt lat="43.77035" lon="6.95782">
        <ele>793.7</ele>
        <time>2009-04-30T16:32:50Z</time>
      </trkpt>
      <trkpt lat="43.77008" lon="6.95781">
        <ele>795.1</ele>
        <time>2009-04-30T16:33:05Z</time>
      </trkpt>
      <trkpt lat="43.76987" lon="6.95756">
        <ele>797.6</ele>
        <time>2009-04-30T16:33:57Z</time>
      </trkpt>
      <trkpt lat="43.7697" lon="6.95717">
        <ele>806.7</ele>
        <time>2009-04-30T16:34:51Z</time>
      </trkpt>
      <trkpt lat="43.76946" lon="6.95677">
        <ele>814.4</ele>
        <time>2009-04-30T16:36:14Z</time>
      </trkpt>
      <trkpt lat="43.76919" lon="6.95646">
        <ele>823</ele>
        <time>2009-04-30T16:37:18Z</time>
      </trkpt>
      <trkpt lat="43.76898" lon="6.95622">
        <ele>830.2</ele>
        <time>2009-04-30T16:38:17Z</time>
      </trkpt>
      <trkpt lat="43.76876" lon="6.95597">
        <ele>830.2</ele>
        <time>2009-04-30T16:38:46Z</time>
      </trkpt>
      <trkpt lat="43.76867" lon="6.95564">
        <ele>832.2</ele>
        <time>2009-04-30T16:39:04Z</time>
      </trkpt>
      <trkpt lat="43.76862" lon="6.95526">
        <ele>833.1</ele>
        <time>2009-04-30T16:39:20Z</time>
      </trkpt>
      <trkpt lat="43.76846" lon="6.95495">
        <ele>834.1</ele>
        <time>2009-04-30T16:39:37Z</time>
      </trkpt>
      <trkpt lat="43.76821" lon="6.95483">
        <ele>837</ele>
        <time>2009-04-30T16:39:53Z</time>
      </trkpt>
      <trkpt lat="43.76795" lon="6.95476">
        <ele>838.4</ele>
        <time>2009-04-30T16:40:08Z</time>
      </trkpt>
      <trkpt lat="43.76769" lon="6.95469">
        <ele>840.3</ele>
        <time>2009-04-30T16:40:25Z</time>
      </trkpt>
      <trkpt lat="43.76759" lon="6.95502">
        <ele>840.3</ele>
        <time>2009-04-30T16:40:41Z</time>
      </trkpt>
      <trkpt lat="43.7674" lon="6.95497">
        <ele>842.3</ele>
        <time>2009-04-30T16:40:59Z</time>
      </trkpt>
      <trkpt lat="43.76739" lon="6.95461">
        <ele>843.2</ele>
        <time>2009-04-30T16:41:18Z</time>
      </trkpt>
      <trkpt lat="43.76714" lon="6.95459">
        <ele>849.5</ele>
        <time>2009-04-30T16:41:39Z</time>
      </trkpt>
      <trkpt lat="43.76697" lon="6.95431">
        <ele>852.3</ele>
        <time>2009-04-30T16:41:58Z</time>
      </trkpt>
      <trkpt lat="43.7667" lon="6.95426">
        <ele>855.7</ele>
        <time>2009-04-30T16:42:18Z</time>
      </trkpt>
      <trkpt lat="43.76679" lon="6.95394">
        <ele>856.7</ele>
        <time>2009-04-30T16:42:36Z</time>
      </trkpt>
      <trkpt lat="43.76695" lon="6.95363">
        <ele>857.6</ele>
        <time>2009-04-30T16:42:52Z</time>
      </trkpt>
      <trkpt lat="43.76702" lon="6.95324">
        <ele>859.1</ele>
        <time>2009-04-30T16:43:12Z</time>
      </trkpt>
      <trkpt lat="43.7672" lon="6.95299">
        <ele>860.5</ele>
        <time>2009-04-30T16:43:27Z</time>
      </trkpt>
      <trkpt lat="43.76728" lon="6.95285">
        <ele>858.1</ele>
        <time>2009-04-30T16:44:18Z</time>
      </trkpt>
      <trkpt lat="43.76686" lon="6.95274">
        <ele>869.6</ele>
        <time>2009-04-30T16:45:54Z</time>
      </trkpt>
      <trkpt lat="43.76649" lon="6.95268">
        <ele>877.8</ele>
        <time>2009-04-30T16:47:00Z</time>
      </trkpt>
      <trkpt lat="43.76629" lon="6.9528">
        <ele>882.6</ele>
        <time>2009-04-30T16:48:00Z</time>
      </trkpt>
      <trkpt lat="43.76606" lon="6.95278">
        <ele>886.5</ele>
        <time>2009-04-30T16:48:42Z</time>
      </trkpt>
      <trkpt lat="43.76573" lon="6.95284">
        <ele>888.9</ele>
        <time>2009-04-30T16:50:38Z</time>
      </trkpt>
      <trkpt lat="43.76548" lon="6.95298">
        <ele>893.2</ele>
        <time>2009-04-30T16:51:23Z</time>
      </trkpt>
      <trkpt lat="43.76532" lon="6.95334">
        <ele>896.6</ele>
        <time>2009-04-30T16:52:00Z</time>
      </trkpt>
      <trkpt lat="43.76528" lon="6.9537">
        <ele>893.7</ele>
        <time>2009-04-30T16:52:12Z</time>
      </trkpt>
      <trkpt lat="43.76515" lon="6.95402">
        <ele>895.6</ele>
        <time>2009-04-30T16:52:32Z</time>
      </trkpt>
      <trkpt lat="43.76494" lon="6.95429">
        <ele>894.6</ele>
        <time>2009-04-30T16:52:48Z</time>
      </trkpt>
      <trkpt lat="43.76467" lon="6.95445">
        <ele>894.6</ele>
        <time>2009-04-30T16:52:58Z</time>
      </trkpt>
      <trkpt lat="43.7644" lon="6.95444">
        <ele>893.2</ele>
        <time>2009-04-30T16:53:09Z</time>
      </trkpt>
      <trkpt lat="43.76411" lon="6.95441">
        <ele>895.1</ele>
        <time>2009-04-30T16:53:23Z</time>
      </trkpt>
      <trkpt lat="43.76384" lon="6.95435">
        <ele>895.6</ele>
        <time>2009-04-30T16:53:39Z</time>
      </trkpt>
      <trkpt lat="43.76351" lon="6.95442">
        <ele>897</ele>
        <time>2009-04-30T16:53:52Z</time>
      </trkpt>
      <trkpt lat="43.76321" lon="6.95457">
        <ele>903.3</ele>
        <time>2009-04-30T16:54:29Z</time>
      </trkpt>
      <trkpt lat="43.76302" lon="6.95485">
        <ele>903.3</ele>
        <time>2009-04-30T16:55:11Z</time>
      </trkpt>
      <trkpt lat="43.76272" lon="6.95507">
        <ele>908.6</ele>
        <time>2009-04-30T16:55:53Z</time>
      </trkpt>
      <trkpt lat="43.76228" lon="6.95572">
        <ele>917.7</ele>
        <time>2009-04-30T16:57:20Z</time>
      </trkpt>
      <trkpt lat="43.76191" lon="6.95619">
        <ele>924</ele>
        <time>2009-04-30T16:58:33Z</time>
      </trkpt>
      <trkpt lat="43.76172" lon="6.95653">
        <ele>927.8</ele>
        <time>2009-04-30T16:58:53Z</time>
      </trkpt>
      <trkpt lat="43.76153" lon="6.95681">
        <ele>933.6</ele>
        <time>2009-04-30T16:59:13Z</time>
      </trkpt>
      <trkpt lat="43.76125" lon="6.9572">
        <ele>940.3</ele>
        <time>2009-04-30T17:00:13Z</time>
      </trkpt>
      <trkpt lat="43.761" lon="6.9575">
        <ele>944.6</ele>
        <time>2009-04-30T17:01:14Z</time>
      </trkpt>
      <trkpt lat="43.76075" lon="6.95777">
        <ele>949</ele>
        <time>2009-04-30T17:01:33Z</time>
      </trkpt>
      <trkpt lat="43.76053" lon="6.95808">
        <ele>950.9</ele>
        <time>2009-04-30T17:02:06Z</time>
      </trkpt>
      <trkpt lat="43.76005" lon="6.95823">
        <ele>961.5</ele>
        <time>2009-04-30T17:03:18Z</time>
      </trkpt>
      <trkpt lat="43.75967" lon="6.95834">
        <ele>969.1</ele>
        <time>2009-04-30T17:04:13Z</time>
      </trkpt>
      <trkpt lat="43.75933" lon="6.95836">
        <ele>971.5</ele>
        <time>2009-04-30T17:05:09Z</time>
      </trkpt>
      <trkpt lat="43.75916" lon="6.95844">
        <ele>974</ele>
        <time>2009-04-30T17:05:55Z</time>
      </trkpt>
      <trkpt lat="43.75909" lon="6.9588">
        <ele>981.2</ele>
        <time>2009-04-30T17:07:09Z</time>
      </trkpt>
      <trkpt lat="43.75926" lon="6.95912">
        <ele>981.6</ele>
        <time>2009-04-30T17:07:39Z</time>
      </trkpt>
      <trkpt lat="43.75932" lon="6.95947">
        <ele>985.5</ele>
        <time>2009-04-30T17:08:08Z</time>
      </trkpt>
      <trkpt lat="43.75924" lon="6.95987">
        <ele>994.6</ele>
        <time>2009-04-30T17:08:46Z</time>
      </trkpt>
      <trkpt lat="43.75919" lon="6.96017">
        <ele>994.6</ele>
        <time>2009-04-30T17:09:18Z</time>
      </trkpt>
      <trkpt lat="43.759" lon="6.96047">
        <ele>991.3</ele>
        <time>2009-04-30T17:09:44Z</time>
      </trkpt>
      <trkpt lat="43.75876" lon="6.96074">
        <ele>987.4</ele>
        <time>2009-04-30T17:09:50Z</time>
      </trkpt>
      <trkpt lat="43.75852" lon="6.96095">
        <ele>986</ele>
        <time>2009-04-30T17:09:55Z</time>
      </trkpt>
      <trkpt lat="43.75831" lon="6.96119">
        <ele>983.6</ele>
        <time>2009-04-30T17:10:00Z</time>
      </trkpt>
      <trkpt lat="43.75812" lon="6.96146">
        <ele>981.6</ele>
        <time>2009-04-30T17:10:06Z</time>
      </trkpt>
      <trkpt lat="43.75786" lon="6.96167">
        <ele>979.2</ele>
        <time>2009-04-30T17:10:13Z</time>
      </trkpt>
      <trkpt lat="43.75759" lon="6.96187">
        <ele>975.9</ele>
        <time>2009-04-30T17:10:19Z</time>
      </trkpt>
      <trkpt lat="43.75736" lon="6.96217">
        <ele>974.4</ele>
        <time>2009-04-30T17:10:25Z</time>
      </trkpt>
      <trkpt lat="43.75719" lon="6.96239">
        <ele>972.5</ele>
        <time>2009-04-30T17:10:35Z</time>
      </trkpt>
      <trkpt lat="43.7571" lon="6.96269">
        <ele>977.8</ele>
        <time>2009-04-30T17:11:51Z</time>
      </trkpt>
      <trkpt lat="43.75687" lon="6.96305">
        <ele>977.8</ele>
        <time>2009-04-30T17:11:58Z</time>
      </trkpt>
      <trkpt lat="43.75667" lon="6.96339">
        <ele>977.3</ele>
        <time>2009-04-30T17:12:04Z</time>
      </trkpt>
      <trkpt lat="43.75643" lon="6.96373">
        <ele>976.8</ele>
        <time>2009-04-30T17:12:10Z</time>
      </trkpt>
      <trkpt lat="43.7562" lon="6.96411">
        <ele>974.4</ele>
        <time>2009-04-30T17:12:17Z</time>
      </trkpt>
      <trkpt lat="43.75606" lon="6.96453">
        <ele>970.1</ele>
        <time>2009-04-30T17:12:24Z</time>
      </trkpt>
      <trkpt lat="43.75613" lon="6.96492">
        <ele>966.3</ele>
        <time>2009-04-30T17:12:31Z</time>
      </trkpt>
      <trkpt lat="43.75634" lon="6.9652">
        <ele>963.9</ele>
        <time>2009-04-30T17:12:54Z</time>
      </trkpt>
      <trkpt lat="43.75658" lon="6.96511">
        <ele>964.3</ele>
        <time>2009-04-30T17:13:03Z</time>
      </trkpt>
      <trkpt lat="43.75683" lon="6.96493">
        <ele>961.9</ele>
        <time>2009-04-30T17:13:11Z</time>
      </trkpt>
      <trkpt lat="43.757" lon="6.96524">
        <ele>960.5</ele>
        <time>2009-04-30T17:13:18Z</time>
      </trkpt>
      <trkpt lat="43.75694" lon="6.9656">
        <ele>960</ele>
        <time>2009-04-30T17:13:25Z</time>
      </trkpt>
      <trkpt lat="43.75688" lon="6.96601">
        <ele>961.5</ele>
        <time>2009-04-30T17:13:32Z</time>
      </trkpt>
      <trkpt lat="43.75708" lon="6.9663">
        <ele>960.5</ele>
        <time>2009-04-30T17:13:41Z</time>
      </trkpt>
      <trkpt lat="43.75715" lon="6.96669">
        <ele>957.6</ele>
        <time>2009-04-30T17:13:49Z</time>
      </trkpt>
      <trkpt lat="43.75705" lon="6.96711">
        <ele>957.1</ele>
        <time>2009-04-30T17:13:55Z</time>
      </trkpt>
      <trkpt lat="43.75691" lon="6.96744">
        <ele>957.1</ele>
        <time>2009-04-30T17:14:02Z</time>
      </trkpt>
      <trkpt lat="43.75706" lon="6.96776">
        <ele>957.1</ele>
        <time>2009-04-30T17:14:12Z</time>
      </trkpt>
      <trkpt lat="43.75724" lon="6.96807">
        <ele>958.6</ele>
        <time>2009-04-30T17:14:23Z</time>
      </trkpt>
      <trkpt lat="43.75722" lon="6.96846">
        <ele>959.5</ele>
        <time>2009-04-30T17:14:32Z</time>
      </trkpt>
      <trkpt lat="43.75703" lon="6.96876">
        <ele>960</ele>
        <time>2009-04-30T17:14:41Z</time>
      </trkpt>
      <trkpt lat="43.75685" lon="6.96911">
        <ele>958.1</ele>
        <time>2009-04-30T17:14:48Z</time>
      </trkpt>
      <trkpt lat="43.7566" lon="6.96931">
        <ele>957.1</ele>
        <time>2009-04-30T17:14:56Z</time>
      </trkpt>
      <trkpt lat="43.75631" lon="6.96947">
        <ele>955.2</ele>
        <time>2009-04-30T17:15:05Z</time>
      </trkpt>
      <trkpt lat="43.75611" lon="6.96979">
        <ele>955.2</ele>
        <time>2009-04-30T17:15:14Z</time>
      </trkpt>
      <trkpt lat="43.75621" lon="6.97016">
        <ele>955.2</ele>
        <time>2009-04-30T17:15:24Z</time>
      </trkpt>
      <trkpt lat="43.75625" lon="6.97053">
        <ele>953.3</ele>
        <time>2009-04-30T17:15:31Z</time>
      </trkpt>
      <trkpt lat="43.75599" lon="6.9708">
        <ele>953.3</ele>
        <time>2009-04-30T17:15:36Z</time>
      </trkpt>
      <trkpt lat="43.75581" lon="6.97109">
        <ele>954.7</ele>
        <time>2009-04-30T17:15:42Z</time>
      </trkpt>
      <trkpt lat="43.75574" lon="6.97148">
        <ele>952.3</ele>
        <time>2009-04-30T17:15:53Z</time>
      </trkpt>
      <trkpt lat="43.75568" lon="6.97184">
        <ele>950.9</ele>
        <time>2009-04-30T17:16:02Z</time>
      </trkpt>
      <trkpt lat="43.75545" lon="6.97189">
        <ele>949.9</ele>
        <time>2009-04-30T17:16:14Z</time>
      </trkpt>
      <trkpt lat="43.75517" lon="6.9719">
        <ele>950.9</ele>
        <time>2009-04-30T17:16:23Z</time>
      </trkpt>
      <trkpt lat="43.75487" lon="6.97197">
        <ele>951.4</ele>
        <time>2009-04-30T17:16:32Z</time>
      </trkpt>
      <trkpt lat="43.75458" lon="6.97201">
        <ele>953.8</ele>
        <time>2009-04-30T17:16:41Z</time>
      </trkpt>
      <trkpt lat="43.75428" lon="6.97209">
        <ele>952.3</ele>
        <time>2009-04-30T17:16:49Z</time>
      </trkpt>
      <trkpt lat="43.75399" lon="6.97218">
        <ele>951.4</ele>
        <time>2009-04-30T17:16:56Z</time>
      </trkpt>
      <trkpt lat="43.75372" lon="6.9723">
        <ele>949.4</ele>
        <time>2009-04-30T17:17:02Z</time>
      </trkpt>
      <trkpt lat="43.75343" lon="6.97246">
        <ele>950.4</ele>
        <time>2009-04-30T17:17:09Z</time>
      </trkpt>
      <trkpt lat="43.75314" lon="6.97259">
        <ele>951.4</ele>
        <time>2009-04-30T17:17:17Z</time>
      </trkpt>
      <trkpt lat="43.75283" lon="6.97257">
        <ele>950.4</ele>
        <time>2009-04-30T17:17:24Z</time>
      </trkpt>
      <trkpt lat="43.75254" lon="6.97259">
        <ele>950.4</ele>
        <time>2009-04-30T17:17:32Z</time>
      </trkpt>
      <trkpt lat="43.75225" lon="6.97261">
        <ele>949.9</ele>
        <time>2009-04-30T17:17:41Z</time>
      </trkpt>
      <trkpt lat="43.75196" lon="6.97263">
        <ele>949.9</ele>
        <time>2009-04-30T17:17:50Z</time>
      </trkpt>
      <trkpt lat="43.75169" lon="6.97267">
        <ele>951.4</ele>
        <time>2009-04-30T17:18:00Z</time>
      </trkpt>
      <trkpt lat="43.7514" lon="6.97271">
        <ele>952.3</ele>
        <time>2009-04-30T17:18:10Z</time>
      </trkpt>
      <trkpt lat="43.75109" lon="6.97277">
        <ele>953.8</ele>
        <time>2009-04-30T17:18:21Z</time>
      </trkpt>
      <trkpt lat="43.75081" lon="6.9727">
        <ele>955.7</ele>
        <time>2009-04-30T17:18:31Z</time>
      </trkpt>
      <trkpt lat="43.75052" lon="6.97272">
        <ele>954.7</ele>
        <time>2009-04-30T17:18:41Z</time>
      </trkpt>
      <trkpt lat="43.75023" lon="6.97272">
        <ele>953.8</ele>
        <time>2009-04-30T17:18:54Z</time>
      </trkpt>
      <trkpt lat="43.74995" lon="6.97272">
        <ele>956.6</ele>
        <time>2009-04-30T17:19:12Z</time>
      </trkpt>
      <trkpt lat="43.74965" lon="6.97273">
        <ele>957.6</ele>
        <time>2009-04-30T17:19:25Z</time>
      </trkpt>
      <trkpt lat="43.74936" lon="6.97274">
        <ele>957.6</ele>
        <time>2009-04-30T17:19:36Z</time>
      </trkpt>
      <trkpt lat="43.74906" lon="6.97275">
        <ele>956.2</ele>
        <time>2009-04-30T17:19:48Z</time>
      </trkpt>
      <trkpt lat="43.74877" lon="6.97275">
        <ele>957.6</ele>
        <time>2009-04-30T17:19:59Z</time>
      </trkpt>
      <trkpt lat="43.74849" lon="6.97283">
        <ele>959.5</ele>
        <time>2009-04-30T17:20:11Z</time>
      </trkpt>
      <trkpt lat="43.74826" lon="6.97301">
        <ele>964.8</ele>
        <time>2009-04-30T17:20:23Z</time>
      </trkpt>
      <trkpt lat="43.74799" lon="6.9733">
        <ele>966.3</ele>
        <time>2009-04-30T17:20:40Z</time>
      </trkpt>
      <trkpt lat="43.74773" lon="6.97362">
        <ele>967.7</ele>
        <time>2009-04-30T17:20:58Z</time>
      </trkpt>
      <trkpt lat="43.74747" lon="6.9739">
        <ele>969.1</ele>
        <time>2009-04-30T17:21:13Z</time>
      </trkpt>
      <trkpt lat="43.74724" lon="6.97412">
        <ele>974.4</ele>
        <time>2009-04-30T17:22:13Z</time>
      </trkpt>
      <trkpt lat="43.74695" lon="6.97428">
        <ele>976.4</ele>
        <time>2009-04-30T17:22:28Z</time>
      </trkpt>
      <trkpt lat="43.74665" lon="6.97451">
        <ele>981.2</ele>
        <time>2009-04-30T17:23:05Z</time>
      </trkpt>
      <trkpt lat="43.74634" lon="6.97485">
        <ele>983.1</ele>
        <time>2009-04-30T17:23:42Z</time>
      </trkpt>
      <trkpt lat="43.74608" lon="6.97516">
        <ele>986</ele>
        <time>2009-04-30T17:23:59Z</time>
      </trkpt>
      <trkpt lat="43.74597" lon="6.97556">
        <ele>988.4</ele>
        <time>2009-04-30T17:24:15Z</time>
      </trkpt>
      <trkpt lat="43.7458" lon="6.97588">
        <ele>990.3</ele>
        <time>2009-04-30T17:24:43Z</time>
      </trkpt>
      <trkpt lat="43.7455" lon="6.97614">
        <ele>995.6</ele>
        <time>2009-04-30T17:25:20Z</time>
      </trkpt>
      <trkpt lat="43.74532" lon="6.97666">
        <ele>1002.3</ele>
        <time>2009-04-30T17:26:04Z</time>
      </trkpt>
      <trkpt lat="43.74525" lon="6.97712">
        <ele>1003.8</ele>
        <time>2009-04-30T17:26:41Z</time>
      </trkpt>
      <trkpt lat="43.74519" lon="6.97757">
        <ele>1009.5</ele>
        <time>2009-04-30T17:27:23Z</time>
      </trkpt>
      <trkpt lat="43.74502" lon="6.97789">
        <ele>1014.3</ele>
        <time>2009-04-30T17:27:56Z</time>
      </trkpt>
      <trkpt lat="43.74474" lon="6.978">
        <ele>1020.6</ele>
        <time>2009-04-30T17:28:48Z</time>
      </trkpt>
      <trkpt lat="43.74472" lon="6.97756">
        <ele>1023</ele>
        <time>2009-04-30T17:29:28Z</time>
      </trkpt>
      <trkpt lat="43.74459" lon="6.97716">
        <ele>1027.8</ele>
        <time>2009-04-30T17:30:04Z</time>
      </trkpt>
      <trkpt lat="43.74438" lon="6.9775">
        <ele>1036.9</ele>
        <time>2009-04-30T17:30:43Z</time>
      </trkpt>
      <trkpt lat="43.74417" lon="6.97789">
        <ele>1038.8</ele>
        <time>2009-04-30T17:31:28Z</time>
      </trkpt>
      <trkpt lat="43.74399" lon="6.9783">
        <ele>1038.8</ele>
        <time>2009-04-30T17:31:47Z</time>
      </trkpt>
      <trkpt lat="43.74374" lon="6.97884">
        <ele>1039.8</ele>
        <time>2009-04-30T17:32:22Z</time>
      </trkpt>
      <trkpt lat="43.74339" lon="6.97913">
        <ele>1045.1</ele>
        <time>2009-04-30T17:33:00Z</time>
      </trkpt>
      <trkpt lat="43.74321" lon="6.97909">
        <ele>1057.6</ele>
        <time>2009-04-30T17:33:50Z</time>
      </trkpt>
      <trkpt lat="43.74309" lon="6.97876">
        <ele>1058.1</ele>
        <time>2009-04-30T17:34:08Z</time>
      </trkpt>
      <trkpt lat="43.7429" lon="6.97842">
        <ele>1057.1</ele>
        <time>2009-04-30T17:34:26Z</time>
      </trkpt>
      <trkpt lat="43.74263" lon="6.97832">
        <ele>1058.1</ele>
        <time>2009-04-30T17:34:46Z</time>
      </trkpt>
      <trkpt lat="43.74239" lon="6.97811">
        <ele>1059.5</ele>
        <time>2009-04-30T17:35:04Z</time>
      </trkpt>
      <trkpt lat="43.74216" lon="6.97785">
        <ele>1061.4</ele>
        <time>2009-04-30T17:35:20Z</time>
      </trkpt>
      <trkpt lat="43.74193" lon="6.97772">
        <ele>1062.9</ele>
        <time>2009-04-30T17:35:36Z</time>
      </trkpt>
      <trkpt lat="43.74171" lon="6.97794">
        <ele>1065.8</ele>
        <time>2009-04-30T17:35:58Z</time>
      </trkpt>
      <trkpt lat="43.74144" lon="6.97781">
        <ele>1064.3</ele>
        <time>2009-04-30T17:36:15Z</time>
      </trkpt>
      <trkpt lat="43.74126" lon="6.97749">
        <ele>1064.3</ele>
        <time>2009-04-30T17:36:31Z</time>
      </trkpt>
      <trkpt lat="43.74113" lon="6.97713">
        <ele>1062.9</ele>
        <time>2009-04-30T17:36:43Z</time>
      </trkpt>
      <trkpt lat="43.74092" lon="6.97693">
        <ele>1062.9</ele>
        <time>2009-04-30T17:36:52Z</time>
      </trkpt>
      <trkpt lat="43.74072" lon="6.9767">
        <ele>1063.4</ele>
        <time>2009-04-30T17:37:03Z</time>
      </trkpt>
      <trkpt lat="43.7408" lon="6.97646">
        <ele>1047</ele>
        <time>2009-04-30T17:39:05Z</time>
      </trkpt>
      <trkpt lat="43.74051" lon="6.97623">
        <ele>1055.2</ele>
        <time>2009-04-30T17:39:16Z</time>
      </trkpt>
      <trkpt lat="43.74027" lon="6.97597">
        <ele>1059.5</ele>
        <time>2009-04-30T17:39:26Z</time>
      </trkpt>
      <trkpt lat="43.74009" lon="6.97563">
        <ele>1062.4</ele>
        <time>2009-04-30T17:39:37Z</time>
      </trkpt>
      <trkpt lat="43.73994" lon="6.97529">
        <ele>1061.9</ele>
        <time>2009-04-30T17:39:46Z</time>
      </trkpt>
      <trkpt lat="43.73986" lon="6.97491">
        <ele>1059.5</ele>
        <time>2009-04-30T17:39:58Z</time>
      </trkpt>
      <trkpt lat="43.73978" lon="6.97451">
        <ele>1054.7</ele>
        <time>2009-04-30T17:40:11Z</time>
      </trkpt>
      <trkpt lat="43.73958" lon="6.97409">
        <ele>1050.4</ele>
        <time>2009-04-30T17:40:23Z</time>
      </trkpt>
      <trkpt lat="43.73942" lon="6.97372">
        <ele>1039.8</ele>
        <time>2009-04-30T17:40:34Z</time>
      </trkpt>
      <trkpt lat="43.73913" lon="6.97362">
        <ele>1038.4</ele>
        <time>2009-04-30T17:40:43Z</time>
      </trkpt>
      <trkpt lat="43.73895" lon="6.97395">
        <ele>1033.6</ele>
        <time>2009-04-30T17:40:53Z</time>
      </trkpt>
      <trkpt lat="43.73868" lon="6.97387">
        <ele>1029.7</ele>
        <time>2009-04-30T17:41:04Z</time>
      </trkpt>
      <trkpt lat="43.73838" lon="6.97386">
        <ele>1029.2</ele>
        <time>2009-04-30T17:41:13Z</time>
      </trkpt>
      <trkpt lat="43.73809" lon="6.97413">
        <ele>1030.2</ele>
        <time>2009-04-30T17:41:26Z</time>
      </trkpt>
      <trkpt lat="43.73779" lon="6.97432">
        <ele>1029.2</ele>
        <time>2009-04-30T17:41:36Z</time>
      </trkpt>
      <trkpt lat="43.73748" lon="6.97438">
        <ele>1027.8</ele>
        <time>2009-04-30T17:41:46Z</time>
      </trkpt>
      <trkpt lat="43.73718" lon="6.97448">
        <ele>1026.8</ele>
        <time>2009-04-30T17:41:54Z</time>
      </trkpt>
      <trkpt lat="43.73688" lon="6.97456">
        <ele>1027.3</ele>
        <time>2009-04-30T17:42:02Z</time>
      </trkpt>
      <trkpt lat="43.73658" lon="6.97464">
        <ele>1027.8</ele>
        <time>2009-04-30T17:42:13Z</time>
      </trkpt>
      <trkpt lat="43.73629" lon="6.97469">
        <ele>1028.3</ele>
        <time>2009-04-30T17:42:25Z</time>
      </trkpt>
      <trkpt lat="43.73599" lon="6.97462">
        <ele>1029.2</ele>
        <time>2009-04-30T17:42:45Z</time>
      </trkpt>
      <trkpt lat="43.73572" lon="6.97452">
        <ele>1028.3</ele>
        <time>2009-04-30T17:42:56Z</time>
      </trkpt>
      <trkpt lat="43.73549" lon="6.9743">
        <ele>1026.8</ele>
        <time>2009-04-30T17:43:05Z</time>
      </trkpt>
      <trkpt lat="43.73535" lon="6.97393">
        <ele>1023</ele>
        <time>2009-04-30T17:43:16Z</time>
      </trkpt>
      <trkpt lat="43.73523" lon="6.97359">
        <ele>1020.6</ele>
        <time>2009-04-30T17:43:23Z</time>
      </trkpt>
      <trkpt lat="43.73497" lon="6.97342">
        <ele>1020.1</ele>
        <time>2009-04-30T17:43:30Z</time>
      </trkpt>
      <trkpt lat="43.7347" lon="6.97332">
        <ele>1019.1</ele>
        <time>2009-04-30T17:43:39Z</time>
      </trkpt>
      <trkpt lat="43.73441" lon="6.97321">
        <ele>1020.1</ele>
        <time>2009-04-30T17:43:49Z</time>
      </trkpt>
      <trkpt lat="43.73414" lon="6.97308">
        <ele>1020.6</ele>
        <time>2009-04-30T17:44:03Z</time>
      </trkpt>
      <trkpt lat="43.73388" lon="6.97296">
        <ele>1021.1</ele>
        <time>2009-04-30T17:44:15Z</time>
      </trkpt>
      <trkpt lat="43.73363" lon="6.97284">
        <ele>1021.1</ele>
        <time>2009-04-30T17:44:26Z</time>
      </trkpt>
      <trkpt lat="43.73336" lon="6.97274">
        <ele>1019.1</ele>
        <time>2009-04-30T17:44:36Z</time>
      </trkpt>
      <trkpt lat="43.73309" lon="6.9726">
        <ele>1021.5</ele>
        <time>2009-04-30T17:44:46Z</time>
      </trkpt>
      <trkpt lat="43.73281" lon="6.97249">
        <ele>1023.9</ele>
        <time>2009-04-30T17:44:56Z</time>
      </trkpt>
      <trkpt lat="43.73254" lon="6.97238">
        <ele>1025.9</ele>
        <time>2009-04-30T17:45:07Z</time>
      </trkpt>
      <trkpt lat="43.73226" lon="6.97226">
        <ele>1027.3</ele>
        <time>2009-04-30T17:45:19Z</time>
      </trkpt>
      <trkpt lat="43.73197" lon="6.97213">
        <ele>1027.3</ele>
        <time>2009-04-30T17:45:33Z</time>
      </trkpt>
      <trkpt lat="43.73172" lon="6.97201">
        <ele>1027.3</ele>
        <time>2009-04-30T17:45:42Z</time>
      </trkpt>
      <trkpt lat="43.73144" lon="6.9719">
        <ele>1026.8</ele>
        <time>2009-04-30T17:45:50Z</time>
      </trkpt>
      <trkpt lat="43.73115" lon="6.97178">
        <ele>1024.9</ele>
        <time>2009-04-30T17:45:58Z</time>
      </trkpt>
      <trkpt lat="43.73088" lon="6.97167">
        <ele>1025.9</ele>
        <time>2009-04-30T17:46:06Z</time>
      </trkpt>
      <trkpt lat="43.73062" lon="6.97155">
        <ele>1025.4</ele>
        <time>2009-04-30T17:46:19Z</time>
      </trkpt>
      <trkpt lat="43.73034" lon="6.97144">
        <ele>1025.9</ele>
        <time>2009-04-30T17:46:31Z</time>
      </trkpt>
      <trkpt lat="43.73012" lon="6.97127">
        <ele>1028.7</ele>
        <time>2009-04-30T17:47:02Z</time>
      </trkpt>
      <trkpt lat="43.72988" lon="6.97105">
        <ele>1026.8</ele>
        <time>2009-04-30T17:47:14Z</time>
      </trkpt>
      <trkpt lat="43.72991" lon="6.97135">
        <ele>1021.1</ele>
        <time>2009-04-30T17:50:03Z</time>
      </trkpt>
      <trkpt lat="43.72987" lon="6.97151">
        <ele>1016.7</ele>
        <time>2009-04-30T17:50:22Z</time>
      </trkpt>
      <trkpt lat="43.72988" lon="6.97191">
        <ele>1011.4</ele>
        <time>2009-04-30T17:50:40Z</time>
      </trkpt>
      <trkpt lat="43.72981" lon="6.97229">
        <ele>1006.2</ele>
        <time>2009-04-30T17:50:52Z</time>
      </trkpt>
      <trkpt lat="43.72967" lon="6.97263">
        <ele>1000.4</ele>
        <time>2009-04-30T17:51:04Z</time>
      </trkpt>
      <trkpt lat="43.72955" lon="6.97275">
        <ele>994.1</ele>
        <time>2009-04-30T17:51:26Z</time>
      </trkpt>
      <trkpt lat="43.72949" lon="6.9727">
        <ele>988.4</ele>
        <time>2009-04-30T17:51:49Z</time>
      </trkpt>
      <trkpt lat="43.72935" lon="6.97304">
        <ele>983.6</ele>
        <time>2009-04-30T17:52:00Z</time>
      </trkpt>
      <trkpt lat="43.72934" lon="6.97273">
        <ele>978.3</ele>
        <time>2009-04-30T17:52:12Z</time>
      </trkpt>
      <trkpt lat="43.72934" lon="6.97244">
        <ele>974.4</ele>
        <time>2009-04-30T17:52:25Z</time>
      </trkpt>
      <trkpt lat="43.72923" lon="6.9728">
        <ele>971.1</ele>
        <time>2009-04-30T17:52:34Z</time>
      </trkpt>
      <trkpt lat="43.72906" lon="6.97312">
        <ele>967.2</ele>
        <time>2009-04-30T17:52:42Z</time>
      </trkpt>
      <trkpt lat="43.72887" lon="6.97342">
        <ele>963.4</ele>
        <time>2009-04-30T17:52:51Z</time>
      </trkpt>
      <trkpt lat="43.72882" lon="6.97333">
        <ele>957.1</ele>
        <time>2009-04-30T17:53:03Z</time>
      </trkpt>
      <trkpt lat="43.72891" lon="6.97297">
        <ele>950.4</ele>
        <time>2009-04-30T17:53:14Z</time>
      </trkpt>
      <trkpt lat="43.72892" lon="6.97259">
        <ele>947</ele>
        <time>2009-04-30T17:53:36Z</time>
      </trkpt>
      <trkpt lat="43.72875" lon="6.97289">
        <ele>942.7</ele>
        <time>2009-04-30T17:53:48Z</time>
      </trkpt>
      <trkpt lat="43.72865" lon="6.97291">
        <ele>935.5</ele>
        <time>2009-04-30T17:54:02Z</time>
      </trkpt>
      <trkpt lat="43.72873" lon="6.97255">
        <ele>928.8</ele>
        <time>2009-04-30T17:54:13Z</time>
      </trkpt>
      <trkpt lat="43.72858" lon="6.9728">
        <ele>924.9</ele>
        <time>2009-04-30T17:54:24Z</time>
      </trkpt>
      <trkpt lat="43.72839" lon="6.97312">
        <ele>922.5</ele>
        <time>2009-04-30T17:54:30Z</time>
      </trkpt>
      <trkpt lat="43.72823" lon="6.97346">
        <ele>919.2</ele>
        <time>2009-04-30T17:54:35Z</time>
      </trkpt>
      <trkpt lat="43.72799" lon="6.97378">
        <ele>914.8</ele>
        <time>2009-04-30T17:54:40Z</time>
      </trkpt>
      <trkpt lat="43.72783" lon="6.97411">
        <ele>911.5</ele>
        <time>2009-04-30T17:54:45Z</time>
      </trkpt>
      <trkpt lat="43.7276" lon="6.97429">
        <ele>907.6</ele>
        <time>2009-04-30T17:54:51Z</time>
      </trkpt>
      <trkpt lat="43.72768" lon="6.97399">
        <ele>901.4</ele>
        <time>2009-04-30T17:55:00Z</time>
      </trkpt>
      <trkpt lat="43.72772" lon="6.97356">
        <ele>895.6</ele>
        <time>2009-04-30T17:55:07Z</time>
      </trkpt>
      <trkpt lat="43.72776" lon="6.9731">
        <ele>890.3</ele>
        <time>2009-04-30T17:55:13Z</time>
      </trkpt>
      <trkpt lat="43.72781" lon="6.97266">
        <ele>886</ele>
        <time>2009-04-30T17:55:18Z</time>
      </trkpt>
      <trkpt lat="43.72787" lon="6.97228">
        <ele>880.7</ele>
        <time>2009-04-30T17:55:23Z</time>
      </trkpt>
      <trkpt lat="43.72786" lon="6.97186">
        <ele>876.9</ele>
        <time>2009-04-30T17:55:29Z</time>
      </trkpt>
      <trkpt lat="43.72784" lon="6.97144">
        <ele>872.5</ele>
        <time>2009-04-30T17:55:34Z</time>
      </trkpt>
      <trkpt lat="43.7278" lon="6.971">
        <ele>866.8</ele>
        <time>2009-04-30T17:55:41Z</time>
      </trkpt>
      <trkpt lat="43.72781" lon="6.97055">
        <ele>863.9</ele>
        <time>2009-04-30T17:55:47Z</time>
      </trkpt>
      <trkpt lat="43.72779" lon="6.97013">
        <ele>861.5</ele>
        <time>2009-04-30T17:55:52Z</time>
      </trkpt>
      <trkpt lat="43.72768" lon="6.96971">
        <ele>857.6</ele>
        <time>2009-04-30T17:55:57Z</time>
      </trkpt>
      <trkpt lat="43.72758" lon="6.96936">
        <ele>853.8</ele>
        <time>2009-04-30T17:56:01Z</time>
      </trkpt>
      <trkpt lat="43.72746" lon="6.96891">
        <ele>849.5</ele>
        <time>2009-04-30T17:56:06Z</time>
      </trkpt>
      <trkpt lat="43.72733" lon="6.96852">
        <ele>844.2</ele>
        <time>2009-04-30T17:56:10Z</time>
      </trkpt>
      <trkpt lat="43.72712" lon="6.96842">
        <ele>840.3</ele>
        <time>2009-04-30T17:56:17Z</time>
      </trkpt>
      <trkpt lat="43.72692" lon="6.96826">
        <ele>837.9</ele>
        <time>2009-04-30T17:56:26Z</time>
      </trkpt>
      <trkpt lat="43.72674" lon="6.96852">
        <ele>836</ele>
        <time>2009-04-30T17:59:53Z</time>
      </trkpt>
      <trkpt lat="43.72658" lon="6.96888">
        <ele>835</ele>
        <time>2009-04-30T17:59:58Z</time>
      </trkpt>
      <trkpt lat="43.72642" lon="6.96923">
        <ele>833.1</ele>
        <time>2009-04-30T18:00:02Z</time>
      </trkpt>
      <trkpt lat="43.72623" lon="6.96963">
        <ele>830.7</ele>
        <time>2009-04-30T18:00:06Z</time>
      </trkpt>
      <trkpt lat="43.72603" lon="6.97005">
        <ele>828.3</ele>
        <time>2009-04-30T18:00:10Z</time>
      </trkpt>
      <trkpt lat="43.72585" lon="6.97035">
        <ele>825.9</ele>
        <time>2009-04-30T18:00:13Z</time>
      </trkpt>
      <trkpt lat="43.72565" lon="6.97064">
        <ele>824</ele>
        <time>2009-04-30T18:00:16Z</time>
      </trkpt>
      <trkpt lat="43.72546" lon="6.97094">
        <ele>820.6</ele>
        <time>2009-04-30T18:00:19Z</time>
      </trkpt>
      <trkpt lat="43.72526" lon="6.97123">
        <ele>819.2</ele>
        <time>2009-04-30T18:00:22Z</time>
      </trkpt>
      <trkpt lat="43.72505" lon="6.97153">
        <ele>816.3</ele>
        <time>2009-04-30T18:00:25Z</time>
      </trkpt>
      <trkpt lat="43.72475" lon="6.97172">
        <ele>812.9</ele>
        <time>2009-04-30T18:00:29Z</time>
      </trkpt>
      <trkpt lat="43.72463" lon="6.97132">
        <ele>811.5</ele>
        <time>2009-04-30T18:00:33Z</time>
      </trkpt>
      <trkpt lat="43.72478" lon="6.97098">
        <ele>810</ele>
        <time>2009-04-30T18:00:36Z</time>
      </trkpt>
      <trkpt lat="43.72487" lon="6.97062">
        <ele>806.2</ele>
        <time>2009-04-30T18:00:39Z</time>
      </trkpt>
      <trkpt lat="43.72479" lon="6.97024">
        <ele>802.8</ele>
        <time>2009-04-30T18:00:42Z</time>
      </trkpt>
      <trkpt lat="43.72456" lon="6.96998">
        <ele>800.4</ele>
        <time>2009-04-30T18:00:45Z</time>
      </trkpt>
      <trkpt lat="43.7243" lon="6.9698">
        <ele>799</ele>
        <time>2009-04-30T18:00:48Z</time>
      </trkpt>
      <trkpt lat="43.7241" lon="6.96948">
        <ele>797.6</ele>
        <time>2009-04-30T18:00:51Z</time>
      </trkpt>
      <trkpt lat="43.72396" lon="6.9691">
        <ele>794.7</ele>
        <time>2009-04-30T18:00:54Z</time>
      </trkpt>
      <trkpt lat="43.72383" lon="6.96871">
        <ele>792.3</ele>
        <time>2009-04-30T18:00:57Z</time>
      </trkpt>
      <trkpt lat="43.72372" lon="6.96831">
        <ele>789.9</ele>
        <time>2009-04-30T18:01:00Z</time>
      </trkpt>
      <trkpt lat="43.72361" lon="6.96793">
        <ele>788.4</ele>
        <time>2009-04-30T18:01:03Z</time>
      </trkpt>
      <trkpt lat="43.72346" lon="6.96757">
        <ele>786.5</ele>
        <time>2009-04-30T18:01:06Z</time>
      </trkpt>
      <trkpt lat="43.7232" lon="6.96741">
        <ele>785.5</ele>
        <time>2009-04-30T18:01:09Z</time>
      </trkpt>
      <trkpt lat="43.72291" lon="6.96747">
        <ele>784.6</ele>
        <time>2009-04-30T18:01:12Z</time>
      </trkpt>
      <trkpt lat="43.72274" lon="6.96778">
        <ele>782.2</ele>
        <time>2009-04-30T18:01:15Z</time>
      </trkpt>
      <trkpt lat="43.72275" lon="6.96822">
        <ele>779.3</ele>
        <time>2009-04-30T18:01:18Z</time>
      </trkpt>
      <trkpt lat="43.7228" lon="6.96866">
        <ele>777.8</ele>
        <time>2009-04-30T18:01:21Z</time>
      </trkpt>
      <trkpt lat="43.72284" lon="6.96908">
        <ele>776.9</ele>
        <time>2009-04-30T18:01:24Z</time>
      </trkpt>
      <trkpt lat="43.72284" lon="6.9695">
        <ele>775.4</ele>
        <time>2009-04-30T18:01:27Z</time>
      </trkpt>
      <trkpt lat="43.72287" lon="6.96992">
        <ele>773.5</ele>
        <time>2009-04-30T18:01:30Z</time>
      </trkpt>
      <trkpt lat="43.72291" lon="6.97033">
        <ele>771.6</ele>
        <time>2009-04-30T18:01:33Z</time>
      </trkpt>
      <trkpt lat="43.72293" lon="6.97074">
        <ele>770.2</ele>
        <time>2009-04-30T18:01:36Z</time>
      </trkpt>
      <trkpt lat="43.72295" lon="6.97115">
        <ele>768.2</ele>
        <time>2009-04-30T18:01:39Z</time>
      </trkpt>
      <trkpt lat="43.72289" lon="6.97156">
        <ele>766.3</ele>
        <time>2009-04-30T18:01:42Z</time>
      </trkpt>
      <trkpt lat="43.72279" lon="6.97194">
        <ele>764.4</ele>
        <time>2009-04-30T18:01:45Z</time>
      </trkpt>
      <trkpt lat="43.72274" lon="6.97235">
        <ele>762.9</ele>
        <time>2009-04-30T18:01:48Z</time>
      </trkpt>
      <trkpt lat="43.72277" lon="6.97276">
        <ele>761.5</ele>
        <time>2009-04-30T18:01:51Z</time>
      </trkpt>
      <trkpt lat="43.72275" lon="6.97318">
        <ele>759.6</ele>
        <time>2009-04-30T18:01:54Z</time>
      </trkpt>
      <trkpt lat="43.72264" lon="6.97358">
        <ele>757.7</ele>
        <time>2009-04-30T18:01:57Z</time>
      </trkpt>
      <trkpt lat="43.72239" lon="6.97382">
        <ele>755.3</ele>
        <time>2009-04-30T18:02:00Z</time>
      </trkpt>
      <trkpt lat="43.7221" lon="6.97395">
        <ele>753.3</ele>
        <time>2009-04-30T18:02:03Z</time>
      </trkpt>
      <trkpt lat="43.7218" lon="6.97408">
        <ele>751.4</ele>
        <time>2009-04-30T18:02:06Z</time>
      </trkpt>
      <trkpt lat="43.72153" lon="6.97421">
        <ele>750</ele>
        <time>2009-04-30T18:02:09Z</time>
      </trkpt>
      <trkpt lat="43.72134" lon="6.97451">
        <ele>748</ele>
        <time>2009-04-30T18:02:12Z</time>
      </trkpt>
      <trkpt lat="43.72142" lon="6.97488">
        <ele>745.6</ele>
        <time>2009-04-30T18:02:15Z</time>
      </trkpt>
      <trkpt lat="43.72158" lon="6.97526">
        <ele>742.8</ele>
        <time>2009-04-30T18:02:18Z</time>
      </trkpt>
      <trkpt lat="43.72169" lon="6.97568">
        <ele>739.4</ele>
        <time>2009-04-30T18:02:21Z</time>
      </trkpt>
      <trkpt lat="43.72168" lon="6.97614">
        <ele>737</ele>
        <time>2009-04-30T18:02:24Z</time>
      </trkpt>
      <trkpt lat="43.72154" lon="6.9766">
        <ele>735.1</ele>
        <time>2009-04-30T18:02:27Z</time>
      </trkpt>
      <trkpt lat="43.72139" lon="6.97694">
        <ele>734.6</ele>
        <time>2009-04-30T18:02:30Z</time>
      </trkpt>
      <trkpt lat="43.72117" lon="6.97693">
        <ele>730.7</ele>
        <time>2009-04-30T18:02:34Z</time>
      </trkpt>
      <trkpt lat="43.721" lon="6.97659">
        <ele>730.3</ele>
        <time>2009-04-30T18:02:38Z</time>
      </trkpt>
      <trkpt lat="43.72118" lon="6.97617">
        <ele>726.9</ele>
        <time>2009-04-30T18:02:42Z</time>
      </trkpt>
      <trkpt lat="43.72118" lon="6.97568">
        <ele>724.5</ele>
        <time>2009-04-30T18:02:46Z</time>
      </trkpt>
      <trkpt lat="43.72092" lon="6.97551">
        <ele>719.7</ele>
        <time>2009-04-30T18:02:49Z</time>
      </trkpt>
      <trkpt lat="43.7207" lon="6.97526">
        <ele>717.3</ele>
        <time>2009-04-30T18:02:52Z</time>
      </trkpt>
      <trkpt lat="43.72061" lon="6.97484">
        <ele>715.4</ele>
        <time>2009-04-30T18:02:55Z</time>
      </trkpt>
      <trkpt lat="43.72056" lon="6.97439">
        <ele>713.4</ele>
        <time>2009-04-30T18:02:58Z</time>
      </trkpt>
      <trkpt lat="43.72062" lon="6.97393">
        <ele>712</ele>
        <time>2009-04-30T18:03:01Z</time>
      </trkpt>
      <trkpt lat="43.72061" lon="6.97344">
        <ele>710.1</ele>
        <time>2009-04-30T18:03:04Z</time>
      </trkpt>
      <trkpt lat="43.72053" lon="6.97297">
        <ele>708.1</ele>
        <time>2009-04-30T18:03:07Z</time>
      </trkpt>
      <trkpt lat="43.72039" lon="6.97257">
        <ele>703.3</ele>
        <time>2009-04-30T18:03:10Z</time>
      </trkpt>
      <trkpt lat="43.72039" lon="6.97209">
        <ele>701.4</ele>
        <time>2009-04-30T18:03:13Z</time>
      </trkpt>
      <trkpt lat="43.72044" lon="6.97164">
        <ele>697.6</ele>
        <time>2009-04-30T18:03:16Z</time>
      </trkpt>
      <trkpt lat="43.72039" lon="6.97116">
        <ele>695.2</ele>
        <time>2009-04-30T18:03:19Z</time>
      </trkpt>
      <trkpt lat="43.72026" lon="6.97071">
        <ele>692.8</ele>
        <time>2009-04-30T18:03:22Z</time>
      </trkpt>
      <trkpt lat="43.72003" lon="6.97034">
        <ele>689.4</ele>
        <time>2009-04-30T18:03:25Z</time>
      </trkpt>
      <trkpt lat="43.71989" lon="6.9699">
        <ele>688</ele>
        <time>2009-04-30T18:03:28Z</time>
      </trkpt>
      <trkpt lat="43.71981" lon="6.96943">
        <ele>685.6</ele>
        <time>2009-04-30T18:03:31Z</time>
      </trkpt>
      <trkpt lat="43.71979" lon="6.96898">
        <ele>680.8</ele>
        <time>2009-04-30T18:03:34Z</time>
      </trkpt>
      <trkpt lat="43.72004" lon="6.96866">
        <ele>677.9</ele>
        <time>2009-04-30T18:03:37Z</time>
      </trkpt>
      <trkpt lat="43.72036" lon="6.96846">
        <ele>676.4</ele>
        <time>2009-04-30T18:03:40Z</time>
      </trkpt>
      <trkpt lat="43.72064" lon="6.96817">
        <ele>675</ele>
        <time>2009-04-30T18:03:43Z</time>
      </trkpt>
      <trkpt lat="43.72091" lon="6.96793">
        <ele>675.5</ele>
        <time>2009-04-30T18:03:46Z</time>
      </trkpt>
      <trkpt lat="43.72097" lon="6.96754">
        <ele>676.4</ele>
        <time>2009-04-30T18:03:49Z</time>
      </trkpt>
      <trkpt lat="43.72068" lon="6.96734">
        <ele>675.9</ele>
        <time>2009-04-30T18:03:53Z</time>
      </trkpt>
      <trkpt lat="43.72033" lon="6.96747">
        <ele>671.1</ele>
        <time>2009-04-30T18:03:57Z</time>
      </trkpt>
      <trkpt lat="43.71999" lon="6.96735">
        <ele>669.7</ele>
        <time>2009-04-30T18:04:01Z</time>
      </trkpt>
      <trkpt lat="43.71968" lon="6.96709">
        <ele>668.7</ele>
        <time>2009-04-30T18:04:05Z</time>
      </trkpt>
      <trkpt lat="43.71937" lon="6.96689">
        <ele>667.8</ele>
        <time>2009-04-30T18:04:09Z</time>
      </trkpt>
      <trkpt lat="43.71906" lon="6.96693">
        <ele>667.3</ele>
        <time>2009-04-30T18:04:13Z</time>
      </trkpt>
      <trkpt lat="43.71884" lon="6.96728">
        <ele>665.4</ele>
        <time>2009-04-30T18:04:17Z</time>
      </trkpt>
      <trkpt lat="43.71864" lon="6.96766">
        <ele>663.9</ele>
        <time>2009-04-30T18:04:21Z</time>
      </trkpt>
      <trkpt lat="43.71842" lon="6.96802">
        <ele>662</ele>
        <time>2009-04-30T18:04:25Z</time>
      </trkpt>
      <trkpt lat="43.71819" lon="6.96832">
        <ele>660.1</ele>
        <time>2009-04-30T18:04:29Z</time>
      </trkpt>
      <trkpt lat="43.71806" lon="6.96868">
        <ele>660.1</ele>
        <time>2009-04-30T18:04:33Z</time>
      </trkpt>
      <trkpt lat="43.71806" lon="6.96908">
        <ele>662</ele>
        <time>2009-04-30T18:04:37Z</time>
      </trkpt>
      <trkpt lat="43.71799" lon="6.96951">
        <ele>661.5</ele>
        <time>2009-04-30T18:04:42Z</time>
      </trkpt>
      <trkpt lat="43.71786" lon="6.96988">
        <ele>661.5</ele>
        <time>2009-04-30T18:04:47Z</time>
      </trkpt>
      <trkpt lat="43.71775" lon="6.97023">
        <ele>662</ele>
        <time>2009-04-30T18:04:52Z</time>
      </trkpt>
      <trkpt lat="43.71772" lon="6.97065">
        <ele>661</ele>
        <time>2009-04-30T18:04:57Z</time>
      </trkpt>
      <trkpt lat="43.71769" lon="6.97105">
        <ele>660.6</ele>
        <time>2009-04-30T18:05:02Z</time>
      </trkpt>
      <trkpt lat="43.7176" lon="6.97142">
        <ele>661</ele>
        <time>2009-04-30T18:05:07Z</time>
      </trkpt>
      <trkpt lat="43.71748" lon="6.97182">
        <ele>661.5</ele>
        <time>2009-04-30T18:05:13Z</time>
      </trkpt>
      <trkpt lat="43.71737" lon="6.9722">
        <ele>663</ele>
        <time>2009-04-30T18:05:19Z</time>
      </trkpt>
      <trkpt lat="43.71721" lon="6.97254">
        <ele>663.9</ele>
        <time>2009-04-30T18:05:25Z</time>
      </trkpt>
      <trkpt lat="43.71699" lon="6.97281">
        <ele>663</ele>
        <time>2009-04-30T18:05:31Z</time>
      </trkpt>
      <trkpt lat="43.71676" lon="6.97305">
        <ele>661.5</ele>
        <time>2009-04-30T18:05:37Z</time>
      </trkpt>
      <trkpt lat="43.71656" lon="6.9733">
        <ele>659.1</ele>
        <time>2009-04-30T18:05:43Z</time>
      </trkpt>
      <trkpt lat="43.71629" lon="6.97351">
        <ele>659.6</ele>
        <time>2009-04-30T18:05:50Z</time>
      </trkpt>
      <trkpt lat="43.716" lon="6.97351">
        <ele>662</ele>
        <time>2009-04-30T18:05:57Z</time>
      </trkpt>
      <trkpt lat="43.71574" lon="6.97342">
        <ele>661.5</ele>
        <time>2009-04-30T18:06:04Z</time>
      </trkpt>
      <trkpt lat="43.71546" lon="6.97355">
        <ele>663</ele>
        <time>2009-04-30T18:06:11Z</time>
      </trkpt>
      <trkpt lat="43.71518" lon="6.97353">
        <ele>664.4</ele>
        <time>2009-04-30T18:06:17Z</time>
      </trkpt>
      <trkpt lat="43.71488" lon="6.97346">
        <ele>665.4</ele>
        <time>2009-04-30T18:06:23Z</time>
      </trkpt>
      <trkpt lat="43.71456" lon="6.97349">
        <ele>665.4</ele>
        <time>2009-04-30T18:06:29Z</time>
      </trkpt>
      <trkpt lat="43.71427" lon="6.97343">
        <ele>664.9</ele>
        <time>2009-04-30T18:06:34Z</time>
      </trkpt>
      <trkpt lat="43.714" lon="6.97338">
        <ele>664.4</ele>
        <time>2009-04-30T18:06:39Z</time>
      </trkpt>
      <trkpt lat="43.71372" lon="6.97344">
        <ele>664.4</ele>
        <time>2009-04-30T18:06:44Z</time>
      </trkpt>
      <trkpt lat="43.71343" lon="6.97352">
        <ele>663.4</ele>
        <time>2009-04-30T18:06:49Z</time>
      </trkpt>
      <trkpt lat="43.71313" lon="6.97353">
        <ele>663.4</ele>
        <time>2009-04-30T18:06:54Z</time>
      </trkpt>
      <trkpt lat="43.71287" lon="6.97333">
        <ele>664.4</ele>
        <time>2009-04-30T18:06:59Z</time>
      </trkpt>
      <trkpt lat="43.71269" lon="6.973">
        <ele>663.9</ele>
        <time>2009-04-30T18:07:04Z</time>
      </trkpt>
      <trkpt lat="43.7124" lon="6.9728">
        <ele>663.4</ele>
        <time>2009-04-30T18:07:09Z</time>
      </trkpt>
      <trkpt lat="43.7121" lon="6.97265">
        <ele>663.9</ele>
        <time>2009-04-30T18:07:14Z</time>
      </trkpt>
      <trkpt lat="43.7118" lon="6.97252">
        <ele>663.4</ele>
        <time>2009-04-30T18:07:19Z</time>
      </trkpt>
      <trkpt lat="43.71145" lon="6.97252">
        <ele>663</ele>
        <time>2009-04-30T18:07:24Z</time>
      </trkpt>
      <trkpt lat="43.71113" lon="6.97258">
        <ele>661</ele>
        <time>2009-04-30T18:07:29Z</time>
      </trkpt>
      <trkpt lat="43.71081" lon="6.97242">
        <ele>661.5</ele>
        <time>2009-04-30T18:07:34Z</time>
      </trkpt>
      <trkpt lat="43.71052" lon="6.97221">
        <ele>660.6</ele>
        <time>2009-04-30T18:07:39Z</time>
      </trkpt>
      <trkpt lat="43.71022" lon="6.97207">
        <ele>661.5</ele>
        <time>2009-04-30T18:07:44Z</time>
      </trkpt>
      <trkpt lat="43.70998" lon="6.97218">
        <ele>663</ele>
        <time>2009-04-30T18:07:48Z</time>
      </trkpt>
      <trkpt lat="43.70983" lon="6.97249">
        <ele>664.9</ele>
        <time>2009-04-30T18:07:52Z</time>
      </trkpt>
      <trkpt lat="43.7098" lon="6.97286">
        <ele>663.9</ele>
        <time>2009-04-30T18:07:56Z</time>
      </trkpt>
      <trkpt lat="43.70981" lon="6.97326">
        <ele>661.5</ele>
        <time>2009-04-30T18:08:00Z</time>
      </trkpt>
      <trkpt lat="43.70984" lon="6.97367">
        <ele>662.5</ele>
        <time>2009-04-30T18:08:04Z</time>
      </trkpt>
      <trkpt lat="43.70984" lon="6.97406">
        <ele>662.5</ele>
        <time>2009-04-30T18:08:08Z</time>
      </trkpt>
      <trkpt lat="43.70976" lon="6.97442">
        <ele>663</ele>
        <time>2009-04-30T18:08:12Z</time>
      </trkpt>
      <trkpt lat="43.70958" lon="6.97471">
        <ele>663.9</ele>
        <time>2009-04-30T18:08:16Z</time>
      </trkpt>
      <trkpt lat="43.70932" lon="6.9749">
        <ele>663</ele>
        <time>2009-04-30T18:08:20Z</time>
      </trkpt>
      <trkpt lat="43.709" lon="6.97503">
        <ele>664.4</ele>
        <time>2009-04-30T18:08:25Z</time>
      </trkpt>
      <trkpt lat="43.70865" lon="6.97512">
        <ele>661.5</ele>
        <time>2009-04-30T18:08:30Z</time>
      </trkpt>
      <trkpt lat="43.70836" lon="6.97512">
        <ele>660.1</ele>
        <time>2009-04-30T18:08:34Z</time>
      </trkpt>
      <trkpt lat="43.70807" lon="6.97502">
        <ele>658.2</ele>
        <time>2009-04-30T18:08:38Z</time>
      </trkpt>
      <trkpt lat="43.70784" lon="6.97473">
        <ele>658.6</ele>
        <time>2009-04-30T18:08:42Z</time>
      </trkpt>
      <trkpt lat="43.70772" lon="6.97434">
        <ele>659.6</ele>
        <time>2009-04-30T18:08:46Z</time>
      </trkpt>
      <trkpt lat="43.70769" lon="6.97391">
        <ele>657.7</ele>
        <time>2009-04-30T18:08:50Z</time>
      </trkpt>
      <trkpt lat="43.70766" lon="6.97346">
        <ele>655.8</ele>
        <time>2009-04-30T18:08:54Z</time>
      </trkpt>
      <trkpt lat="43.7076" lon="6.97303">
        <ele>654.8</ele>
        <time>2009-04-30T18:08:58Z</time>
      </trkpt>
      <trkpt lat="43.70748" lon="6.97261">
        <ele>653.4</ele>
        <time>2009-04-30T18:09:02Z</time>
      </trkpt>
      <trkpt lat="43.70728" lon="6.97228">
        <ele>650.9</ele>
        <time>2009-04-30T18:09:06Z</time>
      </trkpt>
      <trkpt lat="43.70701" lon="6.97201">
        <ele>650.5</ele>
        <time>2009-04-30T18:09:10Z</time>
      </trkpt>
      <trkpt lat="43.7067" lon="6.97183">
        <ele>649.5</ele>
        <time>2009-04-30T18:09:14Z</time>
      </trkpt>
      <trkpt lat="43.70639" lon="6.97172">
        <ele>648.1</ele>
        <time>2009-04-30T18:09:18Z</time>
      </trkpt>
      <trkpt lat="43.70607" lon="6.97167">
        <ele>647.1</ele>
        <time>2009-04-30T18:09:22Z</time>
      </trkpt>
      <trkpt lat="43.70576" lon="6.97167">
        <ele>647.1</ele>
        <time>2009-04-30T18:09:26Z</time>
      </trkpt>
      <trkpt lat="43.70545" lon="6.97165">
        <ele>645.7</ele>
        <time>2009-04-30T18:09:30Z</time>
      </trkpt>
      <trkpt lat="43.70514" lon="6.97155">
        <ele>645.2</ele>
        <time>2009-04-30T18:09:34Z</time>
      </trkpt>
      <trkpt lat="43.70485" lon="6.9714">
        <ele>644.7</ele>
        <time>2009-04-30T18:09:38Z</time>
      </trkpt>
      <trkpt lat="43.70458" lon="6.97116">
        <ele>643.7</ele>
        <time>2009-04-30T18:09:42Z</time>
      </trkpt>
      <trkpt lat="43.70431" lon="6.97088">
        <ele>643.3</ele>
        <time>2009-04-30T18:09:46Z</time>
      </trkpt>
      <trkpt lat="43.70406" lon="6.97059">
        <ele>642.3</ele>
        <time>2009-04-30T18:09:50Z</time>
      </trkpt>
      <trkpt lat="43.70383" lon="6.97027">
        <ele>643.3</ele>
        <time>2009-04-30T18:09:54Z</time>
      </trkpt>
      <trkpt lat="43.70372" lon="6.96985">
        <ele>641.3</ele>
        <time>2009-04-30T18:09:58Z</time>
      </trkpt>
      <trkpt lat="43.70365" lon="6.9694">
        <ele>639.9</ele>
        <time>2009-04-30T18:10:02Z</time>
      </trkpt>
      <trkpt lat="43.70359" lon="6.96896">
        <ele>639.4</ele>
        <time>2009-04-30T18:10:06Z</time>
      </trkpt>
      <trkpt lat="43.70353" lon="6.96852">
        <ele>637</ele>
        <time>2009-04-30T18:10:10Z</time>
      </trkpt>
      <trkpt lat="43.70347" lon="6.96807">
        <ele>636.5</ele>
        <time>2009-04-30T18:10:14Z</time>
      </trkpt>
      <trkpt lat="43.70346" lon="6.96761">
        <ele>635.1</ele>
        <time>2009-04-30T18:10:18Z</time>
      </trkpt>
      <trkpt lat="43.7034" lon="6.96714">
        <ele>636</ele>
        <time>2009-04-30T18:10:22Z</time>
      </trkpt>
      <trkpt lat="43.70333" lon="6.9667">
        <ele>634.1</ele>
        <time>2009-04-30T18:10:26Z</time>
      </trkpt>
      <trkpt lat="43.70325" lon="6.96625">
        <ele>633.2</ele>
        <time>2009-04-30T18:10:30Z</time>
      </trkpt>
      <trkpt lat="43.70317" lon="6.9658">
        <ele>632.2</ele>
        <time>2009-04-30T18:10:34Z</time>
      </trkpt>
      <trkpt lat="43.70308" lon="6.96535">
        <ele>631.2</ele>
        <time>2009-04-30T18:10:38Z</time>
      </trkpt>
      <trkpt lat="43.703" lon="6.96489">
        <ele>629.3</ele>
        <time>2009-04-30T18:10:42Z</time>
      </trkpt>
      <trkpt lat="43.70293" lon="6.96445">
        <ele>627.4</ele>
        <time>2009-04-30T18:10:46Z</time>
      </trkpt>
      <trkpt lat="43.70284" lon="6.96401">
        <ele>626.4</ele>
        <time>2009-04-30T18:10:50Z</time>
      </trkpt>
      <trkpt lat="43.70268" lon="6.96363">
        <ele>625</ele>
        <time>2009-04-30T18:10:54Z</time>
      </trkpt>
      <trkpt lat="43.7025" lon="6.96324">
        <ele>624</ele>
        <time>2009-04-30T18:10:58Z</time>
      </trkpt>
      <trkpt lat="43.70232" lon="6.96284">
        <ele>623.6</ele>
        <time>2009-04-30T18:11:02Z</time>
      </trkpt>
      <trkpt lat="43.70213" lon="6.96246">
        <ele>622.6</ele>
        <time>2009-04-30T18:11:06Z</time>
      </trkpt>
      <trkpt lat="43.70189" lon="6.96215">
        <ele>622.1</ele>
        <time>2009-04-30T18:11:10Z</time>
      </trkpt>
      <trkpt lat="43.70162" lon="6.96192">
        <ele>621.1</ele>
        <time>2009-04-30T18:11:14Z</time>
      </trkpt>
      <trkpt lat="43.70134" lon="6.9617">
        <ele>621.1</ele>
        <time>2009-04-30T18:11:18Z</time>
      </trkpt>
      <trkpt lat="43.70105" lon="6.96148">
        <ele>619.2</ele>
        <time>2009-04-30T18:11:22Z</time>
      </trkpt>
      <trkpt lat="43.70078" lon="6.96127">
        <ele>620.2</ele>
        <time>2009-04-30T18:11:26Z</time>
      </trkpt>
      <trkpt lat="43.70051" lon="6.96108">
        <ele>619.7</ele>
        <time>2009-04-30T18:11:30Z</time>
      </trkpt>
      <trkpt lat="43.70025" lon="6.961">
        <ele>620.2</ele>
        <time>2009-04-30T18:11:34Z</time>
      </trkpt>
      <trkpt lat="43.70001" lon="6.96115">
        <ele>619.7</ele>
        <time>2009-04-30T18:11:38Z</time>
      </trkpt>
      <trkpt lat="43.69994" lon="6.96157">
        <ele>620.7</ele>
        <time>2009-04-30T18:11:43Z</time>
      </trkpt>
      <trkpt lat="43.70013" lon="6.96194">
        <ele>617.8</ele>
        <time>2009-04-30T18:11:48Z</time>
      </trkpt>
      <trkpt lat="43.70033" lon="6.96222">
        <ele>615.9</ele>
        <time>2009-04-30T18:11:52Z</time>
      </trkpt>
      <trkpt lat="43.70052" lon="6.9625">
        <ele>613.5</ele>
        <time>2009-04-30T18:11:56Z</time>
      </trkpt>
      <trkpt lat="43.70071" lon="6.96279">
        <ele>612</ele>
        <time>2009-04-30T18:12:00Z</time>
      </trkpt>
      <trkpt lat="43.70087" lon="6.96311">
        <ele>611.5</ele>
        <time>2009-04-30T18:12:04Z</time>
      </trkpt>
      <trkpt lat="43.70098" lon="6.96345">
        <ele>611.5</ele>
        <time>2009-04-30T18:12:08Z</time>
      </trkpt>
      <trkpt lat="43.70101" lon="6.96383">
        <ele>610.6</ele>
        <time>2009-04-30T18:12:12Z</time>
      </trkpt>
      <trkpt lat="43.70102" lon="6.96422">
        <ele>611.5</ele>
        <time>2009-04-30T18:12:16Z</time>
      </trkpt>
      <trkpt lat="43.70101" lon="6.96464">
        <ele>611.1</ele>
        <time>2009-04-30T18:12:20Z</time>
      </trkpt>
      <trkpt lat="43.70096" lon="6.96504">
        <ele>611.1</ele>
        <time>2009-04-30T18:12:24Z</time>
      </trkpt>
      <trkpt lat="43.7009" lon="6.96544">
        <ele>611.1</ele>
        <time>2009-04-30T18:12:28Z</time>
      </trkpt>
      <trkpt lat="43.7008" lon="6.96585">
        <ele>608.7</ele>
        <time>2009-04-30T18:12:32Z</time>
      </trkpt>
      <trkpt lat="43.70067" lon="6.96623">
        <ele>606.2</ele>
        <time>2009-04-30T18:12:36Z</time>
      </trkpt>
      <trkpt lat="43.70046" lon="6.96659">
        <ele>603.4</ele>
        <time>2009-04-30T18:12:40Z</time>
      </trkpt>
      <trkpt lat="43.70016" lon="6.96688">
        <ele>601.9</ele>
        <time>2009-04-30T18:12:44Z</time>
      </trkpt>
      <trkpt lat="43.69991" lon="6.96706">
        <ele>599</ele>
        <time>2009-04-30T18:12:47Z</time>
      </trkpt>
      <trkpt lat="43.69963" lon="6.96714">
        <ele>598.1</ele>
        <time>2009-04-30T18:12:50Z</time>
      </trkpt>
      <trkpt lat="43.69935" lon="6.96721">
        <ele>596.6</ele>
        <time>2009-04-30T18:12:53Z</time>
      </trkpt>
      <trkpt lat="43.69907" lon="6.96736">
        <ele>594.7</ele>
        <time>2009-04-30T18:12:56Z</time>
      </trkpt>
      <trkpt lat="43.69877" lon="6.96745">
        <ele>592.3</ele>
        <time>2009-04-30T18:12:59Z</time>
      </trkpt>
      <trkpt lat="43.69846" lon="6.96753">
        <ele>589.9</ele>
        <time>2009-04-30T18:13:02Z</time>
      </trkpt>
      <trkpt lat="43.69813" lon="6.96762">
        <ele>588</ele>
        <time>2009-04-30T18:13:05Z</time>
      </trkpt>
      <trkpt lat="43.6978" lon="6.96749">
        <ele>585.1</ele>
        <time>2009-04-30T18:13:08Z</time>
      </trkpt>
      <trkpt lat="43.69748" lon="6.96723">
        <ele>582.2</ele>
        <time>2009-04-30T18:13:11Z</time>
      </trkpt>
      <trkpt lat="43.69719" lon="6.96699">
        <ele>578.9</ele>
        <time>2009-04-30T18:13:14Z</time>
      </trkpt>
      <trkpt lat="43.6969" lon="6.96677">
        <ele>576</ele>
        <time>2009-04-30T18:13:17Z</time>
      </trkpt>
      <trkpt lat="43.69658" lon="6.96668">
        <ele>574</ele>
        <time>2009-04-30T18:13:20Z</time>
      </trkpt>
      <trkpt lat="43.69627" lon="6.9668">
        <ele>572.6</ele>
        <time>2009-04-30T18:13:23Z</time>
      </trkpt>
      <trkpt lat="43.69605" lon="6.96713">
        <ele>572.1</ele>
        <time>2009-04-30T18:13:26Z</time>
      </trkpt>
      <trkpt lat="43.69598" lon="6.96757">
        <ele>569.2</ele>
        <time>2009-04-30T18:13:29Z</time>
      </trkpt>
      <trkpt lat="43.69602" lon="6.96806">
        <ele>565.9</ele>
        <time>2009-04-30T18:13:32Z</time>
      </trkpt>
      <trkpt lat="43.69596" lon="6.96856">
        <ele>561.1</ele>
        <time>2009-04-30T18:13:35Z</time>
      </trkpt>
      <trkpt lat="43.6957" lon="6.96893">
        <ele>557.7</ele>
        <time>2009-04-30T18:13:38Z</time>
      </trkpt>
      <trkpt lat="43.69542" lon="6.96927">
        <ele>554.8</ele>
        <time>2009-04-30T18:13:41Z</time>
      </trkpt>
      <trkpt lat="43.69522" lon="6.96965">
        <ele>552.9</ele>
        <time>2009-04-30T18:13:44Z</time>
      </trkpt>
      <trkpt lat="43.69511" lon="6.97012">
        <ele>548.6</ele>
        <time>2009-04-30T18:13:47Z</time>
      </trkpt>
      <trkpt lat="43.69491" lon="6.9706">
        <ele>544.7</ele>
        <time>2009-04-30T18:13:50Z</time>
      </trkpt>
      <trkpt lat="43.69467" lon="6.97076">
        <ele>543.3</ele>
        <time>2009-04-30T18:13:52Z</time>
      </trkpt>
      <trkpt lat="43.69433" lon="6.97099">
        <ele>542.3</ele>
        <time>2009-04-30T18:13:55Z</time>
      </trkpt>
      <trkpt lat="43.69404" lon="6.97133">
        <ele>539.9</ele>
        <time>2009-04-30T18:13:58Z</time>
      </trkpt>
      <trkpt lat="43.6937" lon="6.97159">
        <ele>537</ele>
        <time>2009-04-30T18:14:01Z</time>
      </trkpt>
      <trkpt lat="43.69332" lon="6.97172">
        <ele>534.1</ele>
        <time>2009-04-30T18:14:04Z</time>
      </trkpt>
      <trkpt lat="43.69298" lon="6.97191">
        <ele>531.3</ele>
        <time>2009-04-30T18:14:07Z</time>
      </trkpt>
      <trkpt lat="43.69267" lon="6.97218">
        <ele>528.4</ele>
        <time>2009-04-30T18:14:10Z</time>
      </trkpt>
      <trkpt lat="43.69235" lon="6.97242">
        <ele>523.6</ele>
        <time>2009-04-30T18:14:13Z</time>
      </trkpt>
      <trkpt lat="43.69201" lon="6.97254">
        <ele>520.7</ele>
        <time>2009-04-30T18:14:16Z</time>
      </trkpt>
      <trkpt lat="43.69165" lon="6.97266">
        <ele>519.2</ele>
        <time>2009-04-30T18:14:19Z</time>
      </trkpt>
      <trkpt lat="43.69135" lon="6.97289">
        <ele>517.3</ele>
        <time>2009-04-30T18:14:22Z</time>
      </trkpt>
      <trkpt lat="43.69116" lon="6.97328">
        <ele>514.9</ele>
        <time>2009-04-30T18:14:25Z</time>
      </trkpt>
      <trkpt lat="43.69101" lon="6.97374">
        <ele>512.5</ele>
        <time>2009-04-30T18:14:28Z</time>
      </trkpt>
      <trkpt lat="43.69084" lon="6.97404">
        <ele>509.2</ele>
        <time>2009-04-30T18:14:30Z</time>
      </trkpt>
      <trkpt lat="43.69051" lon="6.97421">
        <ele>500.5</ele>
        <time>2009-04-30T18:14:33Z</time>
      </trkpt>
      <trkpt lat="43.69015" lon="6.97417">
        <ele>492.8</ele>
        <time>2009-04-30T18:14:36Z</time>
      </trkpt>
      <trkpt lat="43.68976" lon="6.97409">
        <ele>491.4</ele>
        <time>2009-04-30T18:14:39Z</time>
      </trkpt>
      <trkpt lat="43.68939" lon="6.97401">
        <ele>488</ele>
        <time>2009-04-30T18:14:42Z</time>
      </trkpt>
      <trkpt lat="43.68902" lon="6.97393">
        <ele>484.2</ele>
        <time>2009-04-30T18:14:45Z</time>
      </trkpt>
      <trkpt lat="43.68864" lon="6.97388">
        <ele>482.2</ele>
        <time>2009-04-30T18:14:48Z</time>
      </trkpt>
      <trkpt lat="43.68827" lon="6.97391">
        <ele>479.8</ele>
        <time>2009-04-30T18:14:51Z</time>
      </trkpt>
      <trkpt lat="43.68791" lon="6.97408">
        <ele>478.4</ele>
        <time>2009-04-30T18:14:54Z</time>
      </trkpt>
      <trkpt lat="43.68763" lon="6.97439">
        <ele>476</ele>
        <time>2009-04-30T18:14:57Z</time>
      </trkpt>
      <trkpt lat="43.6874" lon="6.97477">
        <ele>473.6</ele>
        <time>2009-04-30T18:15:00Z</time>
      </trkpt>
      <trkpt lat="43.6871" lon="6.9751">
        <ele>469.7</ele>
        <time>2009-04-30T18:15:03Z</time>
      </trkpt>
      <trkpt lat="43.6867" lon="6.97512">
        <ele>468.3</ele>
        <time>2009-04-30T18:15:06Z</time>
      </trkpt>
      <trkpt lat="43.68631" lon="6.97502">
        <ele>464.5</ele>
        <time>2009-04-30T18:15:09Z</time>
      </trkpt>
      <trkpt lat="43.68592" lon="6.97499">
        <ele>461.1</ele>
        <time>2009-04-30T18:15:12Z</time>
      </trkpt>
      <trkpt lat="43.68558" lon="6.9748">
        <ele>458.2</ele>
        <time>2009-04-30T18:15:15Z</time>
      </trkpt>
      <trkpt lat="43.68521" lon="6.97471">
        <ele>456.8</ele>
        <time>2009-04-30T18:15:18Z</time>
      </trkpt>
      <trkpt lat="43.68488" lon="6.97485">
        <ele>454.4</ele>
        <time>2009-04-30T18:15:21Z</time>
      </trkpt>
      <trkpt lat="43.68454" lon="6.97465">
        <ele>449.6</ele>
        <time>2009-04-30T18:15:24Z</time>
      </trkpt>
      <trkpt lat="43.68423" lon="6.97442">
        <ele>444.7</ele>
        <time>2009-04-30T18:15:27Z</time>
      </trkpt>
      <trkpt lat="43.68391" lon="6.97415">
        <ele>442.3</ele>
        <time>2009-04-30T18:15:30Z</time>
      </trkpt>
      <trkpt lat="43.68368" lon="6.97376">
        <ele>439.5</ele>
        <time>2009-04-30T18:15:33Z</time>
      </trkpt>
      <trkpt lat="43.6835" lon="6.97334">
        <ele>437.5</ele>
        <time>2009-04-30T18:15:36Z</time>
      </trkpt>
      <trkpt lat="43.68325" lon="6.97296">
        <ele>435.1</ele>
        <time>2009-04-30T18:15:39Z</time>
      </trkpt>
      <trkpt lat="43.68295" lon="6.97272">
        <ele>431.8</ele>
        <time>2009-04-30T18:15:42Z</time>
      </trkpt>
      <trkpt lat="43.68266" lon="6.97244">
        <ele>427</ele>
        <time>2009-04-30T18:15:45Z</time>
      </trkpt>
      <trkpt lat="43.68242" lon="6.97206">
        <ele>424.6</ele>
        <time>2009-04-30T18:15:48Z</time>
      </trkpt>
      <trkpt lat="43.68228" lon="6.9716">
        <ele>422.2</ele>
        <time>2009-04-30T18:15:51Z</time>
      </trkpt>
      <trkpt lat="43.68213" lon="6.97116">
        <ele>419.8</ele>
        <time>2009-04-30T18:15:54Z</time>
      </trkpt>
      <trkpt lat="43.68181" lon="6.97106">
        <ele>417.8</ele>
        <time>2009-04-30T18:15:57Z</time>
      </trkpt>
      <trkpt lat="43.68148" lon="6.97127">
        <ele>415.4</ele>
        <time>2009-04-30T18:16:00Z</time>
      </trkpt>
      <trkpt lat="43.68118" lon="6.97158">
        <ele>410.1</ele>
        <time>2009-04-30T18:16:03Z</time>
      </trkpt>
      <trkpt lat="43.6809" lon="6.97176">
        <ele>406.8</ele>
        <time>2009-04-30T18:16:06Z</time>
      </trkpt>
      <trkpt lat="43.68065" lon="6.97165">
        <ele>405.3</ele>
        <time>2009-04-30T18:16:10Z</time>
      </trkpt>
      <trkpt lat="43.68044" lon="6.9714">
        <ele>402.9</ele>
        <time>2009-04-30T18:16:19Z</time>
      </trkpt>
      <trkpt lat="43.68017" lon="6.97158">
        <ele>400.5</ele>
        <time>2009-04-30T18:16:25Z</time>
      </trkpt>
      <trkpt lat="43.67996" lon="6.97187">
        <ele>399.1</ele>
        <time>2009-04-30T18:16:30Z</time>
      </trkpt>
      <trkpt lat="43.67975" lon="6.97217">
        <ele>399.6</ele>
        <time>2009-04-30T18:16:35Z</time>
      </trkpt>
      <trkpt lat="43.67951" lon="6.9725">
        <ele>398.6</ele>
        <time>2009-04-30T18:16:40Z</time>
      </trkpt>
      <trkpt lat="43.67932" lon="6.97277">
        <ele>397.6</ele>
        <time>2009-04-30T18:16:44Z</time>
      </trkpt>
      <trkpt lat="43.67905" lon="6.97294">
        <ele>398.1</ele>
        <time>2009-04-30T18:16:50Z</time>
      </trkpt>
      <trkpt lat="43.67882" lon="6.97315">
        <ele>397.2</ele>
        <time>2009-04-30T18:16:55Z</time>
      </trkpt>
      <trkpt lat="43.6786" lon="6.97339">
        <ele>396.2</ele>
        <time>2009-04-30T18:17:00Z</time>
      </trkpt>
      <trkpt lat="43.6785" lon="6.97377">
        <ele>396.7</ele>
        <time>2009-04-30T18:17:05Z</time>
      </trkpt>
      <trkpt lat="43.67829" lon="6.9741">
        <ele>395.2</ele>
        <time>2009-04-30T18:17:10Z</time>
      </trkpt>
      <trkpt lat="43.67798" lon="6.97426">
        <ele>393.8</ele>
        <time>2009-04-30T18:17:15Z</time>
      </trkpt>
      <trkpt lat="43.67772" lon="6.97439">
        <ele>390.4</ele>
        <time>2009-04-30T18:17:19Z</time>
      </trkpt>
      <trkpt lat="43.67743" lon="6.97443">
        <ele>390.4</ele>
        <time>2009-04-30T18:17:24Z</time>
      </trkpt>
      <trkpt lat="43.67712" lon="6.97465">
        <ele>387.5</ele>
        <time>2009-04-30T18:17:29Z</time>
      </trkpt>
      <trkpt lat="43.67683" lon="6.9748">
        <ele>386.1</ele>
        <time>2009-04-30T18:17:33Z</time>
      </trkpt>
      <trkpt lat="43.67656" lon="6.97497">
        <ele>386.1</ele>
        <time>2009-04-30T18:17:37Z</time>
      </trkpt>
      <trkpt lat="43.67634" lon="6.97521">
        <ele>386.6</ele>
        <time>2009-04-30T18:17:41Z</time>
      </trkpt>
      <trkpt lat="43.67616" lon="6.97558">
        <ele>387.1</ele>
        <time>2009-04-30T18:17:46Z</time>
      </trkpt>
      <trkpt lat="43.67602" lon="6.97599">
        <ele>387.1</ele>
        <time>2009-04-30T18:17:51Z</time>
      </trkpt>
      <trkpt lat="43.67584" lon="6.97629">
        <ele>384.2</ele>
        <time>2009-04-30T18:17:56Z</time>
      </trkpt>
      <trkpt lat="43.67563" lon="6.97657">
        <ele>381.8</ele>
        <time>2009-04-30T18:18:01Z</time>
      </trkpt>
      <trkpt lat="43.6754" lon="6.97682">
        <ele>379.9</ele>
        <time>2009-04-30T18:18:05Z</time>
      </trkpt>
      <trkpt lat="43.67521" lon="6.97721">
        <ele>377.5</ele>
        <time>2009-04-30T18:18:09Z</time>
      </trkpt>
      <trkpt lat="43.675" lon="6.97748">
        <ele>374.6</ele>
        <time>2009-04-30T18:18:12Z</time>
      </trkpt>
      <trkpt lat="43.67475" lon="6.97772">
        <ele>372.6</ele>
        <time>2009-04-30T18:18:15Z</time>
      </trkpt>
      <trkpt lat="43.67451" lon="6.97792">
        <ele>369.8</ele>
        <time>2009-04-30T18:18:18Z</time>
      </trkpt>
      <trkpt lat="43.67446" lon="6.9783">
        <ele>372.2</ele>
        <time>2009-04-30T18:18:22Z</time>
      </trkpt>
      <trkpt lat="43.67473" lon="6.97826">
        <ele>371.7</ele>
        <time>2009-04-30T18:18:26Z</time>
      </trkpt>
      <trkpt lat="43.67503" lon="6.97794">
        <ele>370.7</ele>
        <time>2009-04-30T18:18:30Z</time>
      </trkpt>
      <trkpt lat="43.67531" lon="6.97775">
        <ele>368.8</ele>
        <time>2009-04-30T18:18:33Z</time>
      </trkpt>
      <trkpt lat="43.6756" lon="6.97756">
        <ele>365.4</ele>
        <time>2009-04-30T18:18:36Z</time>
      </trkpt>
      <trkpt lat="43.6759" lon="6.97733">
        <ele>363</ele>
        <time>2009-04-30T18:18:39Z</time>
      </trkpt>
      <trkpt lat="43.67616" lon="6.97713">
        <ele>361.6</ele>
        <time>2009-04-30T18:18:42Z</time>
      </trkpt>
      <trkpt lat="43.67636" lon="6.97736">
        <ele>362.6</ele>
        <time>2009-04-30T18:18:46Z</time>
      </trkpt>
      <trkpt lat="43.67614" lon="6.97771">
        <ele>359.2</ele>
        <time>2009-04-30T18:18:50Z</time>
      </trkpt>
      <trkpt lat="43.67593" lon="6.97801">
        <ele>355.3</ele>
        <time>2009-04-30T18:18:53Z</time>
      </trkpt>
      <trkpt lat="43.67574" lon="6.97837">
        <ele>351.5</ele>
        <time>2009-04-30T18:18:56Z</time>
      </trkpt>
      <trkpt lat="43.67555" lon="6.97875">
        <ele>348.6</ele>
        <time>2009-04-30T18:18:59Z</time>
      </trkpt>
      <trkpt lat="43.67531" lon="6.9791">
        <ele>345.3</ele>
        <time>2009-04-30T18:19:02Z</time>
      </trkpt>
      <trkpt lat="43.67503" lon="6.9794">
        <ele>341.9</ele>
        <time>2009-04-30T18:19:05Z</time>
      </trkpt>
      <trkpt lat="43.67471" lon="6.97972">
        <ele>337.1</ele>
        <time>2009-04-30T18:19:08Z</time>
      </trkpt>
      <trkpt lat="43.67449" lon="6.97994">
        <ele>335.6</ele>
        <time>2009-04-30T18:19:10Z</time>
      </trkpt>
      <trkpt lat="43.67426" lon="6.98017">
        <ele>334.2</ele>
        <time>2009-04-30T18:19:12Z</time>
      </trkpt>
      <trkpt lat="43.67404" lon="6.98041">
        <ele>332.3</ele>
        <time>2009-04-30T18:19:14Z</time>
      </trkpt>
      <trkpt lat="43.67382" lon="6.98066">
        <ele>328.9</ele>
        <time>2009-04-30T18:19:16Z</time>
      </trkpt>
      <trkpt lat="43.67359" lon="6.98094">
        <ele>326.5</ele>
        <time>2009-04-30T18:19:18Z</time>
      </trkpt>
      <trkpt lat="43.67331" lon="6.98123">
        <ele>324.6</ele>
        <time>2009-04-30T18:19:20Z</time>
      </trkpt>
      <trkpt lat="43.67304" lon="6.98145">
        <ele>317.4</ele>
        <time>2009-04-30T18:19:22Z</time>
      </trkpt>
      <trkpt lat="43.67276" lon="6.98167">
        <ele>314</ele>
        <time>2009-04-30T18:19:24Z</time>
      </trkpt>
      <trkpt lat="43.6725" lon="6.98189">
        <ele>312.1</ele>
        <time>2009-04-30T18:19:26Z</time>
      </trkpt>
      <trkpt lat="43.67227" lon="6.98216">
        <ele>307.3</ele>
        <time>2009-04-30T18:19:28Z</time>
      </trkpt>
      <trkpt lat="43.67205" lon="6.98247">
        <ele>301</ele>
        <time>2009-04-30T18:19:30Z</time>
      </trkpt>
      <trkpt lat="43.67178" lon="6.98273">
        <ele>293.8</ele>
        <time>2009-04-30T18:19:32Z</time>
      </trkpt>
      <trkpt lat="43.67149" lon="6.98295">
        <ele>288.1</ele>
        <time>2009-04-30T18:19:34Z</time>
      </trkpt>
      <trkpt lat="43.67119" lon="6.98313">
        <ele>281.8</ele>
        <time>2009-04-30T18:19:36Z</time>
      </trkpt>
      <trkpt lat="43.6709" lon="6.98331">
        <ele>277</ele>
        <time>2009-04-30T18:19:38Z</time>
      </trkpt>
      <trkpt lat="43.6706" lon="6.98349">
        <ele>271.7</ele>
        <time>2009-04-30T18:19:40Z</time>
      </trkpt>
      <trkpt lat="43.67031" lon="6.98367">
        <ele>267.4</ele>
        <time>2009-04-30T18:19:42Z</time>
      </trkpt>
      <trkpt lat="43.67002" lon="6.98385">
        <ele>264.5</ele>
        <time>2009-04-30T18:19:44Z</time>
      </trkpt>
      <trkpt lat="43.66976" lon="6.98407">
        <ele>263.5</ele>
        <time>2009-04-30T18:19:46Z</time>
      </trkpt>
      <trkpt lat="43.66953" lon="6.98426">
        <ele>262.1</ele>
        <time>2009-04-30T18:19:48Z</time>
      </trkpt>
      <trkpt lat="43.66916" lon="6.98438">
        <ele>260.7</ele>
        <time>2009-04-30T18:19:51Z</time>
      </trkpt>
      <trkpt lat="43.66881" lon="6.98445">
        <ele>258.3</ele>
        <time>2009-04-30T18:19:54Z</time>
      </trkpt>
      <trkpt lat="43.66849" lon="6.9845">
        <ele>257.3</ele>
        <time>2009-04-30T18:19:57Z</time>
      </trkpt>
      <trkpt lat="43.66818" lon="6.98444">
        <ele>255.4</ele>
        <time>2009-04-30T18:20:02Z</time>
      </trkpt>
      <trkpt lat="43.66788" lon="6.98451">
        <ele>253.4</ele>
        <time>2009-04-30T18:20:07Z</time>
      </trkpt>
      <trkpt lat="43.66786" lon="6.98489">
        <ele>253.4</ele>
        <time>2009-04-30T18:20:12Z</time>
      </trkpt>
      <trkpt lat="43.66771" lon="6.98505">
        <ele>253</ele>
        <time>2009-04-30T18:20:18Z</time>
      </trkpt>
      <trkpt lat="43.66748" lon="6.985">
        <ele>252</ele>
        <time>2009-04-30T18:20:27Z</time>
      </trkpt>
      <trkpt lat="43.66779" lon="6.98514">
        <ele>245.8</ele>
        <time>2009-04-30T18:26:18Z</time>
      </trkpt>
      <trkpt lat="43.66801" lon="6.98493">
        <ele>248.6</ele>
        <time>2009-04-30T18:26:31Z</time>
      </trkpt>
      <trkpt lat="43.66827" lon="6.98475">
        <ele>250.1</ele>
        <time>2009-04-30T18:26:40Z</time>
      </trkpt>
      <trkpt lat="43.6682" lon="6.98442">
        <ele>250.6</ele>
        <time>2009-04-30T18:26:48Z</time>
      </trkpt>
      <trkpt lat="43.6679" lon="6.98446">
        <ele>247.7</ele>
        <time>2009-04-30T18:26:55Z</time>
      </trkpt>
      <trkpt lat="43.66761" lon="6.98457">
        <ele>246.2</ele>
        <time>2009-04-30T18:27:00Z</time>
      </trkpt>
      <trkpt lat="43.66731" lon="6.98456">
        <ele>243.8</ele>
        <time>2009-04-30T18:27:04Z</time>
      </trkpt>
      <trkpt lat="43.667" lon="6.98456">
        <ele>241.4</ele>
        <time>2009-04-30T18:27:08Z</time>
      </trkpt>
      <trkpt lat="43.66671" lon="6.98465">
        <ele>242.4</ele>
        <time>2009-04-30T18:27:12Z</time>
      </trkpt>
      <trkpt lat="43.66643" lon="6.98479">
        <ele>241.4</ele>
        <time>2009-04-30T18:27:16Z</time>
      </trkpt>
      <trkpt lat="43.66616" lon="6.98498">
        <ele>243.4</ele>
        <time>2009-04-30T18:27:20Z</time>
      </trkpt>
      <trkpt lat="43.6659" lon="6.98515">
        <ele>243.8</ele>
        <time>2009-04-30T18:27:24Z</time>
      </trkpt>
      <trkpt lat="43.66563" lon="6.98528">
        <ele>243.4</ele>
        <time>2009-04-30T18:27:28Z</time>
      </trkpt>
      <trkpt lat="43.66538" lon="6.98544">
        <ele>242.9</ele>
        <time>2009-04-30T18:27:32Z</time>
      </trkpt>
      <trkpt lat="43.66514" lon="6.98564">
        <ele>243.8</ele>
        <time>2009-04-30T18:27:36Z</time>
      </trkpt>
      <trkpt lat="43.66489" lon="6.98583">
        <ele>243.8</ele>
        <time>2009-04-30T18:27:40Z</time>
      </trkpt>
      <trkpt lat="43.66463" lon="6.986">
        <ele>243.8</ele>
        <time>2009-04-30T18:27:44Z</time>
      </trkpt>
      <trkpt lat="43.66437" lon="6.98614">
        <ele>242.9</ele>
        <time>2009-04-30T18:27:48Z</time>
      </trkpt>
      <trkpt lat="43.6641" lon="6.98626">
        <ele>241.9</ele>
        <time>2009-04-30T18:27:52Z</time>
      </trkpt>
      <trkpt lat="43.66383" lon="6.98636">
        <ele>240.5</ele>
        <time>2009-04-30T18:27:56Z</time>
      </trkpt>
      <trkpt lat="43.66356" lon="6.98645">
        <ele>240</ele>
        <time>2009-04-30T18:28:00Z</time>
      </trkpt>
      <trkpt lat="43.66325" lon="6.98664">
        <ele>239</ele>
        <time>2009-04-30T18:28:05Z</time>
      </trkpt>
      <trkpt lat="43.66295" lon="6.98685">
        <ele>239.5</ele>
        <time>2009-04-30T18:28:10Z</time>
      </trkpt>
      <trkpt lat="43.66265" lon="6.98705">
        <ele>239</ele>
        <time>2009-04-30T18:28:15Z</time>
      </trkpt>
      <trkpt lat="43.66234" lon="6.98719">
        <ele>239.5</ele>
        <time>2009-04-30T18:28:20Z</time>
      </trkpt>
      <trkpt lat="43.66204" lon="6.98728">
        <ele>239.5</ele>
        <time>2009-04-30T18:28:25Z</time>
      </trkpt>
      <trkpt lat="43.66174" lon="6.98738">
        <ele>240</ele>
        <time>2009-04-30T18:28:30Z</time>
      </trkpt>
      <trkpt lat="43.66147" lon="6.98748">
        <ele>240</ele>
        <time>2009-04-30T18:28:35Z</time>
      </trkpt>
      <trkpt lat="43.66118" lon="6.98766">
        <ele>240.9</ele>
        <time>2009-04-30T18:28:41Z</time>
      </trkpt>
      <trkpt lat="43.66103" lon="6.98797">
        <ele>240.9</ele>
        <time>2009-04-30T18:28:46Z</time>
      </trkpt>
      <trkpt lat="43.66092" lon="6.98834">
        <ele>241.4</ele>
        <time>2009-04-30T18:28:51Z</time>
      </trkpt>
      <trkpt lat="43.66083" lon="6.98873">
        <ele>241.4</ele>
        <time>2009-04-30T18:28:56Z</time>
      </trkpt>
      <trkpt lat="43.66075" lon="6.98915">
        <ele>241.4</ele>
        <time>2009-04-30T18:29:01Z</time>
      </trkpt>
      <trkpt lat="43.66066" lon="6.98957">
        <ele>241.9</ele>
        <time>2009-04-30T18:29:06Z</time>
      </trkpt>
      <trkpt lat="43.66055" lon="6.98999">
        <ele>241.9</ele>
        <time>2009-04-30T18:29:11Z</time>
      </trkpt>
      <trkpt lat="43.66041" lon="6.99038">
        <ele>241.9</ele>
        <time>2009-04-30T18:29:16Z</time>
      </trkpt>
      <trkpt lat="43.66026" lon="6.99076">
        <ele>240.9</ele>
        <time>2009-04-30T18:29:21Z</time>
      </trkpt>
      <trkpt lat="43.66007" lon="6.99113">
        <ele>240.5</ele>
        <time>2009-04-30T18:29:26Z</time>
      </trkpt>
      <trkpt lat="43.65986" lon="6.99146">
        <ele>239.5</ele>
        <time>2009-04-30T18:29:31Z</time>
      </trkpt>
      <trkpt lat="43.65962" lon="6.99178">
        <ele>238.5</ele>
        <time>2009-04-30T18:29:36Z</time>
      </trkpt>
      <trkpt lat="43.65942" lon="6.99203">
        <ele>236.6</ele>
        <time>2009-04-30T18:29:40Z</time>
      </trkpt>
      <trkpt lat="43.65921" lon="6.99231">
        <ele>234.7</ele>
        <time>2009-04-30T18:29:44Z</time>
      </trkpt>
      <trkpt lat="43.65897" lon="6.99264">
        <ele>234.7</ele>
        <time>2009-04-30T18:29:49Z</time>
      </trkpt>
      <trkpt lat="43.65875" lon="6.99299">
        <ele>232.8</ele>
        <time>2009-04-30T18:29:54Z</time>
      </trkpt>
      <trkpt lat="43.65862" lon="6.99332">
        <ele>232.8</ele>
        <time>2009-04-30T18:29:58Z</time>
      </trkpt>
      <trkpt lat="43.6585" lon="6.99376">
        <ele>233.3</ele>
        <time>2009-04-30T18:30:03Z</time>
      </trkpt>
      <trkpt lat="43.6584" lon="6.99418">
        <ele>232.3</ele>
        <time>2009-04-30T18:30:08Z</time>
      </trkpt>
      <trkpt lat="43.65831" lon="6.9946">
        <ele>234.2</ele>
        <time>2009-04-30T18:30:13Z</time>
      </trkpt>
      <trkpt lat="43.65823" lon="6.99502">
        <ele>233.3</ele>
        <time>2009-04-30T18:30:18Z</time>
      </trkpt>
      <trkpt lat="43.65808" lon="6.99537">
        <ele>232.8</ele>
        <time>2009-04-30T18:30:23Z</time>
      </trkpt>
      <trkpt lat="43.65807" lon="6.99582">
        <ele>232.3</ele>
        <time>2009-04-30T18:30:29Z</time>
      </trkpt>
      <trkpt lat="43.65796" lon="6.99617">
        <ele>233.7</ele>
        <time>2009-04-30T18:30:36Z</time>
      </trkpt>
      <trkpt lat="43.65778" lon="6.99648">
        <ele>237.6</ele>
        <time>2009-04-30T18:30:47Z</time>
      </trkpt>
      <trkpt lat="43.65763" lon="6.99686">
        <ele>241.4</ele>
        <time>2009-04-30T18:30:56Z</time>
      </trkpt>
      <trkpt lat="43.65747" lon="6.99718">
        <ele>246.2</ele>
        <time>2009-04-30T18:31:05Z</time>
      </trkpt>
      <trkpt lat="43.65734" lon="6.99755">
        <ele>247.7</ele>
        <time>2009-04-30T18:31:14Z</time>
      </trkpt>
      <trkpt lat="43.65717" lon="6.99793">
        <ele>252</ele>
        <time>2009-04-30T18:31:28Z</time>
      </trkpt>
      <trkpt lat="43.65699" lon="6.99828">
        <ele>256.8</ele>
        <time>2009-04-30T18:31:39Z</time>
      </trkpt>
      <trkpt lat="43.65683" lon="6.99863">
        <ele>262.1</ele>
        <time>2009-04-30T18:31:50Z</time>
      </trkpt>
      <trkpt lat="43.65668" lon="6.99907">
        <ele>265.9</ele>
        <time>2009-04-30T18:32:02Z</time>
      </trkpt>
      <trkpt lat="43.65655" lon="6.99949">
        <ele>266.4</ele>
        <time>2009-04-30T18:32:14Z</time>
      </trkpt>
      <trkpt lat="43.65645" lon="6.99988">
        <ele>268.8</ele>
        <time>2009-04-30T18:32:27Z</time>
      </trkpt>
      <trkpt lat="43.65628" lon="7.00027">
        <ele>270.3</ele>
        <time>2009-04-30T18:32:37Z</time>
      </trkpt>
      <trkpt lat="43.65608" lon="7.00069">
        <ele>272.2</ele>
        <time>2009-04-30T18:32:47Z</time>
      </trkpt>
      <trkpt lat="43.65589" lon="7.00107">
        <ele>276</ele>
        <time>2009-04-30T18:32:56Z</time>
      </trkpt>
      <trkpt lat="43.65562" lon="7.0015">
        <ele>280.8</ele>
        <time>2009-04-30T18:33:06Z</time>
      </trkpt>
      <trkpt lat="43.65538" lon="7.00179">
        <ele>282.8</ele>
        <time>2009-04-30T18:33:17Z</time>
      </trkpt>
      <trkpt lat="43.65503" lon="7.00196">
        <ele>278.4</ele>
        <time>2009-04-30T18:33:28Z</time>
      </trkpt>
      <trkpt lat="43.65476" lon="7.002">
        <ele>275.1</ele>
        <time>2009-04-30T18:33:36Z</time>
      </trkpt>
      <trkpt lat="43.65445" lon="7.00204">
        <ele>273.6</ele>
        <time>2009-04-30T18:33:43Z</time>
      </trkpt>
      <trkpt lat="43.65418" lon="7.00218">
        <ele>275.6</ele>
        <time>2009-04-30T18:33:50Z</time>
      </trkpt>
      <trkpt lat="43.65393" lon="7.0024">
        <ele>274.6</ele>
        <time>2009-04-30T18:33:58Z</time>
      </trkpt>
      <trkpt lat="43.65368" lon="7.0026">
        <ele>274.6</ele>
        <time>2009-04-30T18:34:06Z</time>
      </trkpt>
      <trkpt lat="43.65344" lon="7.00279">
        <ele>273.2</ele>
        <time>2009-04-30T18:34:13Z</time>
      </trkpt>
      <trkpt lat="43.65316" lon="7.003">
        <ele>273.2</ele>
        <time>2009-04-30T18:34:21Z</time>
      </trkpt>
      <trkpt lat="43.65287" lon="7.00324">
        <ele>272.2</ele>
        <time>2009-04-30T18:34:28Z</time>
      </trkpt>
      <trkpt lat="43.65259" lon="7.00351">
        <ele>270.7</ele>
        <time>2009-04-30T18:34:35Z</time>
      </trkpt>
      <trkpt lat="43.65234" lon="7.00369">
        <ele>268.8</ele>
        <time>2009-04-30T18:34:40Z</time>
      </trkpt>
      <trkpt lat="43.65208" lon="7.00385">
        <ele>267.4</ele>
        <time>2009-04-30T18:34:45Z</time>
      </trkpt>
      <trkpt lat="43.65181" lon="7.00396">
        <ele>266.9</ele>
        <time>2009-04-30T18:34:50Z</time>
      </trkpt>
      <trkpt lat="43.6515" lon="7.00412">
        <ele>265.5</ele>
        <time>2009-04-30T18:34:55Z</time>
      </trkpt>
      <trkpt lat="43.65125" lon="7.00427">
        <ele>261.6</ele>
        <time>2009-04-30T18:34:59Z</time>
      </trkpt>
      <trkpt lat="43.651" lon="7.00458">
        <ele>257.8</ele>
        <time>2009-04-30T18:35:03Z</time>
      </trkpt>
      <trkpt lat="43.65074" lon="7.00489">
        <ele>254.9</ele>
        <time>2009-04-30T18:35:07Z</time>
      </trkpt>
      <trkpt lat="43.65049" lon="7.00523">
        <ele>253</ele>
        <time>2009-04-30T18:35:11Z</time>
      </trkpt>
      <trkpt lat="43.65028" lon="7.00557">
        <ele>253</ele>
        <time>2009-04-30T18:35:15Z</time>
      </trkpt>
      <trkpt lat="43.65011" lon="7.0059">
        <ele>254.4</ele>
        <time>2009-04-30T18:35:19Z</time>
      </trkpt>
      <trkpt lat="43.64993" lon="7.00619">
        <ele>253.4</ele>
        <time>2009-04-30T18:35:23Z</time>
      </trkpt>
      <trkpt lat="43.64972" lon="7.00655">
        <ele>254.9</ele>
        <time>2009-04-30T18:35:28Z</time>
      </trkpt>
      <trkpt lat="43.64954" lon="7.00684">
        <ele>253.9</ele>
        <time>2009-04-30T18:35:32Z</time>
      </trkpt>
      <trkpt lat="43.64933" lon="7.00714">
        <ele>255.4</ele>
        <time>2009-04-30T18:35:37Z</time>
      </trkpt>
      <trkpt lat="43.64913" lon="7.00746">
        <ele>257.3</ele>
        <time>2009-04-30T18:35:43Z</time>
      </trkpt>
      <trkpt lat="43.64894" lon="7.00778">
        <ele>259.2</ele>
        <time>2009-04-30T18:35:51Z</time>
      </trkpt>
      <trkpt lat="43.64874" lon="7.00812">
        <ele>258.3</ele>
        <time>2009-04-30T18:35:58Z</time>
      </trkpt>
      <trkpt lat="43.64854" lon="7.0084">
        <ele>256.3</ele>
        <time>2009-04-30T18:36:04Z</time>
      </trkpt>
      <trkpt lat="43.6483" lon="7.00867">
        <ele>253</ele>
        <time>2009-04-30T18:36:10Z</time>
      </trkpt>
      <trkpt lat="43.64807" lon="7.0089">
        <ele>252</ele>
        <time>2009-04-30T18:36:15Z</time>
      </trkpt>
      <trkpt lat="43.64782" lon="7.00882">
        <ele>249.6</ele>
        <time>2009-04-30T18:36:20Z</time>
      </trkpt>
      <trkpt lat="43.64757" lon="7.00857">
        <ele>246.2</ele>
        <time>2009-04-30T18:36:24Z</time>
      </trkpt>
      <trkpt lat="43.64736" lon="7.00832">
        <ele>244.8</ele>
        <time>2009-04-30T18:36:27Z</time>
      </trkpt>
      <trkpt lat="43.64716" lon="7.00799">
        <ele>241.4</ele>
        <time>2009-04-30T18:36:30Z</time>
      </trkpt>
      <trkpt lat="43.64693" lon="7.00761">
        <ele>236.6</ele>
        <time>2009-04-30T18:36:33Z</time>
      </trkpt>
      <trkpt lat="43.64663" lon="7.00738">
        <ele>232.8</ele>
        <time>2009-04-30T18:36:36Z</time>
      </trkpt>
      <trkpt lat="43.6463" lon="7.00721">
        <ele>231.8</ele>
        <time>2009-04-30T18:36:39Z</time>
      </trkpt>
      <trkpt lat="43.64597" lon="7.0071">
        <ele>230.4</ele>
        <time>2009-04-30T18:36:42Z</time>
      </trkpt>
      <trkpt lat="43.64563" lon="7.00714">
        <ele>225.6</ele>
        <time>2009-04-30T18:36:45Z</time>
      </trkpt>
      <trkpt lat="43.6453" lon="7.00719">
        <ele>222.2</ele>
        <time>2009-04-30T18:36:48Z</time>
      </trkpt>
      <trkpt lat="43.64497" lon="7.00722">
        <ele>219.3</ele>
        <time>2009-04-30T18:36:51Z</time>
      </trkpt>
      <trkpt lat="43.64465" lon="7.00722">
        <ele>218.4</ele>
        <time>2009-04-30T18:36:54Z</time>
      </trkpt>
      <trkpt lat="43.64433" lon="7.00717">
        <ele>216</ele>
        <time>2009-04-30T18:36:57Z</time>
      </trkpt>
      <trkpt lat="43.64399" lon="7.00704">
        <ele>214</ele>
        <time>2009-04-30T18:37:00Z</time>
      </trkpt>
      <trkpt lat="43.64366" lon="7.007">
        <ele>211.1</ele>
        <time>2009-04-30T18:37:03Z</time>
      </trkpt>
      <trkpt lat="43.64335" lon="7.00708">
        <ele>208.3</ele>
        <time>2009-04-30T18:37:06Z</time>
      </trkpt>
      <trkpt lat="43.64306" lon="7.0072">
        <ele>205.4</ele>
        <time>2009-04-30T18:37:09Z</time>
      </trkpt>
      <trkpt lat="43.6427" lon="7.00722">
        <ele>202</ele>
        <time>2009-04-30T18:37:13Z</time>
      </trkpt>
      <trkpt lat="43.64244" lon="7.00732">
        <ele>197.7</ele>
        <time>2009-04-30T18:37:24Z</time>
      </trkpt>
      <trkpt lat="43.64215" lon="7.00751">
        <ele>192.9</ele>
        <time>2009-04-30T18:37:30Z</time>
      </trkpt>
      <trkpt lat="43.64187" lon="7.00765">
        <ele>190.5</ele>
        <time>2009-04-30T18:37:34Z</time>
      </trkpt>
      <trkpt lat="43.64158" lon="7.00782">
        <ele>187.6</ele>
        <time>2009-04-30T18:37:39Z</time>
      </trkpt>
      <trkpt lat="43.64138" lon="7.00802">
        <ele>185.7</ele>
        <time>2009-04-30T18:37:49Z</time>
      </trkpt>
      <trkpt lat="43.6412" lon="7.00838">
        <ele>182.8</ele>
        <time>2009-04-30T18:39:43Z</time>
      </trkpt>
    </trkseg>
  </trk>
</gpx>